GFSGL_prec_precacc12_015.txt.gz
Total_Precipitation_Accumulation
0.00 0.00 0.00 0.00 0.00 0.00 0.00 0.00 0.00 0.00 0.00 0.00 0.00 0.00 0.00 0.00 0.00 0.01 0.00 0.00 0.00 0.00 0.00 0.00 0.00 0.00 0.00 0.00 0.00 0.00 0.00 0.00 0.00 0.00 0.00 0.00 0.00 0.00 0.00 0.00 0.00 0.01 0.02
0.00 0.00 0.00 0.00 0.00 0.00 0.00 0.00 0.00 0.00 0.00 0.00 0.00 0.00 0.00 0.00 0.00 0.00 0.00 0.00 0.00 0.00 0.01 0.00 0.00 0.00 0.00 0.00 0.00 0.00 0.00 0.00 0.00 0.00 0.00 0.00 0.00 0.00 0.00 0.00 0.01 0.01 0.03
0.00 0.00 0.00 0.00 0.00 0.00 0.00 0.00 0.00 0.00 0.00 0.00 0.00 0.00 0.00 0.00 0.00 0.00 0.00 0.00 0.00 0.01 0.00 0.00 0.00 0.00 0.00 0.00 0.00 0.00 0.00 0.00 0.01 0.01 0.01 0.00 0.00 0.00 0.00 0.00 0.00 0.02 0.03
0.00 0.00 0.00 0.00 0.00 0.00 0.00 0.00 0.00 0.00 0.00 0.00 0.00 0.00 0.00 0.00 0.00 0.00 0.00 0.00 0.00 0.00 0.00 0.00 0.00 0.00 0.00 0.00 0.00 0.00 0.01 0.01 0.01 0.01 0.00 0.00 0.00 0.00 0.01 0.02 0.04 0.04 0.03
0.00 0.00 0.00 0.00 0.00 0.00 0.00 0.00 0.00 0.00 0.00 0.00 0.00 0.00 0.00 0.00 0.00 0.00 0.00 0.00 0.00 0.00 0.00 0.00 0.00 0.00 0.00 0.00 0.00 0.00 0.00 0.00 0.01 0.01 0.01 0.01 0.01 0.01 0.02 0.03 0.03 0.03 0.04
0.00 0.00 0.00 0.00 0.00 0.00 0.00 0.00 0.00 0.00 0.00 0.00 0.00 0.01 0.01 0.01 0.00 0.00 0.00 0.00 0.00 0.00 0.00 0.00 0.00 0.00 0.00 0.00 0.00 0.00 0.00 0.00 0.01 0.02 0.02 0.02 0.02 0.02 0.05 0.08 0.08 0.05 0.03
0.00 0.00 0.00 0.00 0.00 0.00 0.00 0.00 0.00 0.00 0.00 0.00 0.01 0.01 0.01 0.02 0.00 0.00 0.00 0.00 0.00 0.00 0.00 0.00 0.00 0.00 0.00 0.00 0.00 0.00 0.00 0.00 0.01 0.01 0.02 0.03 0.05 0.05 0.05 0.07 0.08 0.07 0.04
0.00 0.00 0.00 0.00 0.00 0.00 0.00 0.00 0.00 0.00 0.00 0.00 0.00 0.00 0.00 0.00 0.00 0.00 0.00 0.00 0.00 0.00 0.00 0.00 0.00 0.00 0.00 0.00 0.00 0.00 0.00 0.00 0.00 0.00 0.02 0.02 0.03 0.03 0.04 0.04 0.04 0.03 0.01
0.00 0.00 0.00 0.00 0.00 0.00 0.00 0.00 0.00 0.00 0.00 0.00 0.00 0.00 0.00 0.00 0.00 0.00 0.00 0.00 0.00 0.00 0.00 0.00 0.00 0.00 0.00 0.00 0.00 0.00 0.00 0.00 0.00 0.00 0.00 0.00 0.00 0.00 0.01 0.02 0.03 0.06 0.05
0.00 0.00 0.00 0.00 0.01 0.00 0.00 0.00 0.00 0.00 0.00 0.00 0.00 0.00 0.00 0.00 0.00 0.00 0.00 0.00 0.00 0.00 0.00 0.00 0.00 0.00 0.00 0.00 0.00 0.00 0.00 0.01 0.00 0.00 0.00 0.00 0.01 0.01 0.01 0.04 0.05 0.07 0.08
0.00 0.00 0.02 0.02 0.01 0.01 0.00 0.00 0.00 0.00 0.00 0.00 0.00 0.00 0.00 0.00 0.00 0.00 0.00 0.00 0.00 0.00 0.00 0.00 0.00 0.00 0.00 0.00 0.00 0.00 0.00 0.00 0.00 0.01 0.01 0.01 0.02 0.02 0.03 0.04 0.05 0.07 0.10
0.03 0.04 0.03 0.02 0.00 0.00 0.00 0.00 0.00 0.00 0.00 0.00 0.00 0.00 0.00 0.00 0.00 0.00 0.00 0.00 0.00 0.00 0.00 0.00 0.00 0.00 0.00 0.00 0.00 0.00 0.00 0.00 0.00 0.01 0.02 0.02 0.02 0.02 0.02 0.03 0.04 0.06 0.07
0.05 0.03 0.01 0.00 0.00 0.00 0.00 0.00 0.00 0.00 0.00 0.00 0.00 0.00 0.00 0.01 0.01 0.00 0.00 0.00 0.00 0.00 0.00 0.00 0.00 0.00 0.00 0.00 0.00 0.00 0.00 0.00 0.00 0.01 0.01 0.01 0.01 0.02 0.02 0.06 0.08 0.06 0.03
0.01 0.01 0.00 0.00 0.00 0.00 0.00 0.00 0.00 0.00 0.00 0.00 0.00 0.00 0.01 0.01 0.00 0.00 0.00 0.00 0.00 0.00 0.00 0.00 0.00 0.00 0.00 0.00 0.00 0.00 0.00 0.00 0.00 0.00 0.01 0.01 0.02 0.02 0.04 0.10 0.12 0.14 0.13
0.00 0.00 0.00 0.00 0.00 0.00 0.00 0.00 0.00 0.00 0.00 0.00 0.01 0.01 0.01 0.00 0.00 0.00 0.00 0.00 0.00 0.00 0.00 0.00 0.00 0.00 0.00 0.00 0.00 0.00 0.00 0.00 0.00 0.00 0.00 0.01 0.01 0.01 0.02 0.03 0.05 0.10 0.25
0.00 0.00 0.00 0.00 0.00 0.00 0.00 0.00 0.00 0.00 0.00 0.00 0.00 0.00 0.00 0.00 0.00 0.00 0.00 0.00 0.00 0.00 0.00 0.00 0.01 0.01 0.01 0.01 0.00 0.00 0.00 0.00 0.00 0.00 0.00 0.01 0.01 0.01 0.01 0.02 0.02 0.05 0.11
0.00 0.00 0.00 0.00 0.00 0.00 0.00 0.00 0.00 0.00 0.00 0.00 0.00 0.00 0.00 0.00 0.00 0.00 0.00 0.00 0.00 0.00 0.00 0.01 0.01 0.01 0.01 0.01 0.00 0.00 0.00 0.00 0.00 0.00 0.00 0.01 0.01 0.01 0.01 0.02 0.02 0.02 0.02
0.00 0.00 0.00 0.00 0.00 0.00 0.00 0.01 0.01 0.02 0.02 0.02 0.01 0.00 0.00 0.00 0.00 0.00 0.00 0.00 0.01 0.01 0.01 0.01 0.01 0.01 0.01 0.00 0.00 0.00 0.00 0.00 0.00 0.00 0.00 0.00 0.01 0.01 0.01 0.01 0.02 0.02 0.01
0.00 0.00 0.00 0.00 0.01 0.00 0.01 0.01 0.01 0.01 0.01 0.01 0.01 0.00 0.00 0.00 0.00 0.00 0.00 0.03 0.01 0.01 0.01 0.01 0.01 0.01 0.01 0.01 0.01 0.01 0.01 0.00 0.00 0.00 0.00 0.00 0.01 0.01 0.00 0.01 0.01 0.01 0.01
0.00 0.00 0.00 0.00 0.00 0.01 0.01 0.01 0.02 0.02 0.02 0.02 0.02 0.01 0.01 0.02 0.04 0.02 0.03 0.04 0.02 0.01 0.01 0.00 0.00 0.01 0.01 0.01 0.01 0.01 0.01 0.01 0.01 0.01 0.00 0.00 0.00 0.00 0.00 0.00 0.00 0.01 0.00
0.00 0.00 0.00 0.00 0.01 0.02 0.03 0.03 0.03 0.03 0.03 0.03 0.03 0.02 0.02 0.05 0.07 0.06 0.04 0.04 0.03 0.01 0.02 0.01 0.01 0.01 0.01 0.01 0.01 0.01 0.01 0.01 0.00 0.00 0.00 0.00 0.00 0.00 0.00 0.00 0.00 0.00 0.00
0.00 0.01 0.01 0.01 0.02 0.03 0.04 0.05 0.06 0.05 0.04 0.04 0.03 0.02 0.01 0.02 0.02 0.03 0.05 0.05 0.03 0.02 0.03 0.04 0.03 0.01 0.01 0.01 0.01 0.01 0.01 0.01 0.00 0.00 0.00 0.00 0.00 0.00 0.00 0.00 0.00 0.00 0.00
0.01 0.01 0.01 0.02 0.03 0.04 0.05 0.06 0.08 0.11 0.11 0.06 0.04 0.04 0.04 0.05 0.04 0.03 0.03 0.03 0.06 0.09 0.07 0.09 0.08 0.03 0.01 0.01 0.01 0.00 0.01 0.00 0.00 0.00 0.00 0.00 0.00 0.00 0.00 0.00 0.00 0.00 0.00
0.02 0.03 0.03 0.04 0.05 0.06 0.07 0.06 0.06 0.08 0.12 0.16 0.16 0.11 0.06 0.05 0.08 0.08 0.09 0.10 0.14 0.13 0.13 0.14 0.09 0.06 0.05 0.05 0.04 0.02 0.01 0.00 0.00 0.00 0.00 0.00 0.00 0.00 0.00 0.00 0.00 0.00 0.00
0.03 0.04 0.05 0.06 0.08 0.10 0.13 0.14 0.15 0.16 0.16 0.15 0.12 0.11 0.11 0.12 0.14 0.14 0.13 0.12 0.15 0.15 0.13 0.12 0.10 0.07 0.05 0.04 0.05 0.04 0.02 0.01 0.01 0.01 0.00 0.00 0.00 0.00 0.00 0.00 0.00 0.00 0.00
0.05 0.08 0.10 0.12 0.15 0.15 0.18 0.21 0.24 0.24 0.23 0.23 0.23 0.21 0.16 0.10 0.07 0.05 0.03 0.03 0.04 0.04 0.04 0.05 0.05 0.04 0.04 0.03 0.04 0.06 0.05 0.04 0.04 0.02 0.01 0.00 0.00 0.00 0.00 0.00 0.00 0.00 0.00

GFSGL_prec_precacc12_018.txt.gz
Total_Precipitation_Accumulation
0.01 0.00 0.00 0.00 0.00 0.00 0.00 0.00 0.00 0.00 0.00 0.00 0.00 0.00 0.00 0.00 0.00 0.00 0.00 0.00 0.00 0.00 0.00 0.00 0.00 0.00 0.00 0.00 0.00 0.00 0.00 0.00 0.00 0.00 0.00 0.00 0.00 0.00 0.00 0.00 0.00 0.00 0.00
0.00 0.00 0.00 0.00 0.00 0.00 0.00 0.00 0.00 0.00 0.00 0.00 0.00 0.00 0.00 0.00 0.00 0.00 0.00 0.00 0.00 0.00 0.01 0.00 0.00 0.00 0.00 0.00 0.00 0.00 0.00 0.00 0.00 0.00 0.00 0.00 0.00 0.00 0.00 0.00 0.00 0.00 0.00
0.00 0.00 0.00 0.00 0.00 0.00 0.00 0.00 0.00 0.00 0.00 0.00 0.00 0.00 0.00 0.00 0.00 0.00 0.00 0.00 0.00 0.01 0.00 0.00 0.00 0.00 0.00 0.00 0.00 0.00 0.00 0.00 0.00 0.00 0.00 0.00 0.00 0.00 0.00 0.00 0.00 0.00 0.00
0.00 0.00 0.00 0.00 0.00 0.00 0.00 0.00 0.00 0.00 0.00 0.00 0.00 0.00 0.00 0.00 0.00 0.00 0.00 0.00 0.00 0.00 0.00 0.00 0.00 0.00 0.00 0.00 0.00 0.00 0.00 0.00 0.00 0.00 0.00 0.00 0.00 0.00 0.00 0.00 0.02 0.01 0.01
0.00 0.00 0.00 0.00 0.00 0.00 0.00 0.00 0.00 0.00 0.00 0.00 0.00 0.00 0.00 0.00 0.00 0.00 0.00 0.00 0.00 0.00 0.00 0.00 0.00 0.00 0.00 0.00 0.00 0.00 0.00 0.00 0.00 0.00 0.00 0.00 0.00 0.01 0.01 0.01 0.02 0.01 0.01
0.00 0.00 0.00 0.00 0.00 0.00 0.00 0.00 0.00 0.00 0.00 0.00 0.00 0.01 0.01 0.01 0.00 0.00 0.00 0.00 0.00 0.00 0.00 0.00 0.00 0.00 0.00 0.00 0.00 0.00 0.00 0.00 0.00 0.01 0.01 0.01 0.01 0.01 0.03 0.04 0.04 0.04 0.02
0.00 0.00 0.00 0.00 0.00 0.00 0.00 0.00 0.00 0.00 0.00 0.00 0.00 0.01 0.01 0.02 0.00 0.00 0.00 0.00 0.00 0.00 0.00 0.00 0.00 0.00 0.00 0.00 0.00 0.00 0.00 0.00 0.00 0.00 0.01 0.02 0.03 0.03 0.04 0.04 0.03 0.04 0.03
0.00 0.00 0.00 0.00 0.00 0.00 0.00 0.01 0.01 0.00 0.00 0.00 0.00 0.00 0.00 0.00 0.00 0.00 0.00 0.00 0.00 0.00 0.00 0.00 0.00 0.00 0.00 0.00 0.00 0.00 0.00 0.00 0.00 0.00 0.01 0.01 0.01 0.01 0.02 0.03 0.02 0.01 0.00
0.00 0.00 0.00 0.00 0.00 0.01 0.02 0.03 0.01 0.00 0.00 0.00 0.00 0.00 0.00 0.00 0.00 0.00 0.00 0.00 0.00 0.00 0.00 0.00 0.00 0.00 0.00 0.00 0.00 0.00 0.00 0.00 0.00 0.00 0.00 0.00 0.00 0.00 0.00 0.03 0.02 0.03 0.02
0.00 0.00 0.00 0.00 0.01 0.03 0.04 0.03 0.01 0.00 0.00 0.00 0.00 0.00 0.00 0.00 0.00 0.00 0.00 0.00 0.00 0.00 0.00 0.00 0.00 0.00 0.00 0.00 0.00 0.00 0.00 0.00 0.00 0.00 0.00 0.00 0.00 0.01 0.01 0.03 0.04 0.06 0.04
0.00 0.01 0.03 0.05 0.08 0.07 0.03 0.00 0.00 0.00 0.00 0.00 0.00 0.00 0.00 0.00 0.00 0.00 0.00 0.00 0.00 0.00 0.00 0.00 0.00 0.00 0.00 0.00 0.00 0.00 0.00 0.00 0.00 0.00 0.01 0.01 0.01 0.01 0.02 0.03 0.04 0.07 0.11
0.03 0.06 0.09 0.09 0.04 0.01 0.00 0.00 0.00 0.00 0.00 0.00 0.00 0.00 0.00 0.00 0.00 0.00 0.00 0.00 0.00 0.00 0.00 0.00 0.00 0.00 0.00 0.00 0.00 0.00 0.00 0.00 0.00 0.00 0.01 0.01 0.01 0.01 0.01 0.02 0.02 0.05 0.07
0.06 0.07 0.06 0.02 0.00 0.00 0.00 0.00 0.00 0.00 0.00 0.00 0.00 0.00 0.00 0.01 0.01 0.00 0.00 0.00 0.00 0.00 0.00 0.00 0.00 0.00 0.00 0.00 0.00 0.00 0.00 0.00 0.00 0.00 0.01 0.01 0.01 0.01 0.01 0.04 0.07 0.05 0.02
0.02 0.01 0.00 0.00 0.00 0.00 0.00 0.00 0.00 0.00 0.00 0.00 0.00 0.00 0.01 0.01 0.00 0.00 0.00 0.00 0.00 0.00 0.00 0.00 0.00 0.00 0.00 0.00 0.00 0.00 0.00 0.00 0.00 0.00 0.00 0.00 0.01 0.01 0.01 0.03 0.06 0.10 0.11
0.00 0.00 0.00 0.00 0.00 0.00 0.00 0.00 0.00 0.00 0.00 0.00 0.01 0.01 0.01 0.00 0.00 0.00 0.00 0.00 0.00 0.00 0.00 0.00 0.00 0.00 0.00 0.00 0.00 0.00 0.00 0.00 0.00 0.00 0.00 0.00 0.01 0.00 0.01 0.01 0.02 0.04 0.18
0.00 0.00 0.00 0.00 0.00 0.00 0.00 0.00 0.00 0.00 0.00 0.00 0.00 0.00 0.00 0.00 0.00 0.00 0.00 0.00 0.00 0.00 0.00 0.00 0.01 0.01 0.01 0.01 0.00 0.00 0.00 0.00 0.00 0.00 0.00 0.00 0.01 0.01 0.00 0.01 0.01 0.01 0.05
0.00 0.00 0.00 0.00 0.00 0.00 0.00 0.00 0.00 0.00 0.00 0.00 0.00 0.00 0.00 0.00 0.00 0.00 0.00 0.00 0.00 0.01 0.01 0.00 0.01 0.01 0.01 0.01 0.00 0.00 0.00 0.00 0.00 0.00 0.00 0.00 0.00 0.00 0.01 0.02 0.01 0.01 0.01
0.00 0.00 0.00 0.00 0.00 0.00 0.00 0.00 0.01 0.01 0.02 0.01 0.01 0.00 0.00 0.00 0.00 0.00 0.00 0.01 0.03 0.02 0.01 0.00 0.00 0.01 0.01 0.00 0.00 0.00 0.00 0.00 0.00 0.00 0.00 0.00 0.00 0.00 0.00 0.01 0.01 0.01 0.01
0.00 0.00 0.00 0.00 0.00 0.00 0.01 0.01 0.01 0.01 0.01 0.01 0.01 0.00 0.00 0.00 0.00 0.00 0.00 0.06 0.04 0.01 0.01 0.01 0.01 0.01 0.01 0.00 0.00 0.01 0.01 0.00 0.00 0.00 0.00 0.00 0.00 0.00 0.00 0.00 0.00 0.00 0.00
0.00 0.00 0.00 0.00 0.00 0.00 0.01 0.02 0.03 0.03 0.03 0.03 0.02 0.01 0.01 0.03 0.05 0.02 0.03 0.05 0.05 0.03 0.01 0.00 0.00 0.00 0.01 0.01 0.01 0.01 0.01 0.01 0.01 0.01 0.00 0.00 0.00 0.00 0.00 0.00 0.00 0.00 0.00
0.00 0.00 0.00 0.01 0.01 0.01 0.02 0.03 0.03 0.04 0.05 0.06 0.06 0.04 0.02 0.06 0.09 0.06 0.03 0.03 0.03 0.03 0.03 0.03 0.03 0.03 0.02 0.01 0.01 0.01 0.01 0.01 0.00 0.00 0.00 0.00 0.00 0.00 0.00 0.00 0.00 0.00 0.00
0.00 0.01 0.01 0.01 0.02 0.02 0.03 0.05 0.06 0.06 0.05 0.05 0.05 0.05 0.05 0.07 0.04 0.04 0.05 0.05 0.03 0.02 0.02 0.04 0.06 0.04 0.03 0.03 0.01 0.01 0.01 0.01 0.00 0.00 0.00 0.00 0.00 0.00 0.00 0.00 0.00 0.00 0.00
0.01 0.01 0.01 0.01 0.02 0.03 0.04 0.06 0.07 0.10 0.12 0.13 0.13 0.10 0.07 0.07 0.05 0.04 0.04 0.04 0.07 0.09 0.08 0.09 0.12 0.10 0.06 0.05 0.03 0.01 0.01 0.00 0.00 0.00 0.00 0.00 0.00 0.00 0.00 0.00 0.00 0.00 0.00
0.02 0.03 0.03 0.04 0.04 0.05 0.06 0.06 0.07 0.09 0.13 0.16 0.18 0.18 0.17 0.17 0.16 0.14 0.12 0.14 0.17 0.19 0.21 0.22 0.21 0.17 0.13 0.09 0.06 0.04 0.02 0.00 0.00 0.00 0.01 0.01 0.00 0.00 0.00 0.00 0.00 0.00 0.00
0.03 0.04 0.04 0.05 0.07 0.09 0.12 0.13 0.14 0.16 0.16 0.16 0.14 0.15 0.15 0.19 0.24 0.24 0.22 0.16 0.14 0.14 0.15 0.16 0.18 0.19 0.17 0.16 0.12 0.08 0.05 0.03 0.03 0.01 0.02 0.03 0.01 0.00 0.00 0.00 0.00 0.00 0.00
0.05 0.06 0.09 0.11 0.13 0.13 0.16 0.18 0.22 0.23 0.23 0.24 0.26 0.27 0.24 0.20 0.16 0.11 0.07 0.04 0.02 0.02 0.02 0.03 0.05 0.04 0.04 0.04 0.04 0.06 0.06 0.06 0.07 0.05 0.03 0.03 0.02 0.01 0.00 0.00 0.00 0.00 0.00

GFSGL_prec_precacc12_021.txt.gz
Total_Precipitation_Accumulation
0.03 0.03 0.02 0.01 0.00 0.00 0.00 0.00 0.00 0.00 0.00 0.00 0.00 0.00 0.00 0.00 0.00 0.00 0.00 0.00 0.00 0.00 0.00 0.00 0.00 0.00 0.00 0.00 0.00 0.00 0.00 0.00 0.00 0.00 0.00 0.00 0.00 0.00 0.00 0.00 0.00 0.00 0.00
0.02 0.02 0.01 0.01 0.00 0.00 0.00 0.00 0.00 0.00 0.00 0.00 0.00 0.00 0.00 0.00 0.00 0.00 0.00 0.00 0.00 0.00 0.01 0.00 0.00 0.00 0.00 0.00 0.00 0.00 0.00 0.00 0.00 0.00 0.00 0.00 0.00 0.00 0.00 0.00 0.00 0.00 0.00
0.05 0.05 0.01 0.00 0.00 0.00 0.00 0.00 0.00 0.00 0.00 0.00 0.00 0.00 0.00 0.00 0.00 0.00 0.00 0.00 0.00 0.01 0.00 0.00 0.00 0.00 0.00 0.00 0.00 0.00 0.00 0.00 0.00 0.00 0.00 0.00 0.00 0.00 0.00 0.00 0.00 0.00 0.00
0.05 0.03 0.01 0.00 0.00 0.00 0.00 0.00 0.00 0.00 0.00 0.00 0.00 0.00 0.00 0.00 0.00 0.00 0.00 0.00 0.00 0.00 0.00 0.00 0.00 0.00 0.00 0.00 0.00 0.00 0.00 0.00 0.00 0.00 0.00 0.00 0.00 0.00 0.00 0.00 0.00 0.00 0.00
0.03 0.01 0.00 0.00 0.00 0.00 0.00 0.00 0.00 0.00 0.00 0.00 0.00 0.00 0.00 0.00 0.00 0.00 0.00 0.00 0.00 0.00 0.00 0.00 0.00 0.00 0.00 0.00 0.00 0.00 0.00 0.00 0.00 0.00 0.00 0.00 0.00 0.00 0.00 0.00 0.00 0.00 0.00
0.00 0.00 0.00 0.00 0.00 0.00 0.00 0.00 0.00 0.00 0.00 0.00 0.00 0.00 0.00 0.01 0.00 0.00 0.00 0.00 0.00 0.00 0.00 0.00 0.00 0.00 0.00 0.00 0.00 0.00 0.00 0.00 0.00 0.00 0.00 0.00 0.00 0.01 0.01 0.02 0.01 0.01 0.01
0.00 0.00 0.00 0.00 0.00 0.00 0.00 0.00 0.00 0.00 0.01 0.01 0.00 0.00 0.00 0.00 0.00 0.00 0.00 0.00 0.00 0.00 0.00 0.00 0.00 0.00 0.00 0.00 0.00 0.00 0.00 0.00 0.00 0.00 0.00 0.01 0.02 0.01 0.00 0.01 0.01 0.02 0.01
0.00 0.00 0.00 0.00 0.00 0.00 0.00 0.01 0.02 0.03 0.03 0.02 0.00 0.00 0.00 0.00 0.00 0.00 0.00 0.00 0.00 0.00 0.00 0.00 0.00 0.00 0.00 0.00 0.00 0.00 0.00 0.00 0.00 0.00 0.00 0.00 0.00 0.00 0.00 0.01 0.03 0.02 0.00
0.00 0.00 0.00 0.00 0.00 0.01 0.03 0.05 0.08 0.06 0.02 0.00 0.00 0.00 0.00 0.00 0.00 0.00 0.00 0.00 0.00 0.00 0.00 0.00 0.00 0.00 0.00 0.00 0.00 0.00 0.00 0.00 0.00 0.00 0.00 0.00 0.00 0.00 0.00 0.02 0.02 0.03 0.01
0.00 0.00 0.00 0.01 0.03 0.08 0.14 0.12 0.05 0.01 0.00 0.00 0.00 0.00 0.00 0.00 0.00 0.00 0.00 0.00 0.00 0.00 0.00 0.00 0.00 0.00 0.00 0.00 0.00 0.00 0.00 0.00 0.00 0.00 0.00 0.00 0.00 0.00 0.01 0.02 0.03 0.05 0.04
0.00 0.01 0.03 0.08 0.13 0.13 0.09 0.03 0.01 0.00 0.00 0.00 0.00 0.00 0.00 0.00 0.00 0.00 0.00 0.00 0.00 0.00 0.00 0.00 0.00 0.00 0.00 0.00 0.00 0.00 0.00 0.00 0.00 0.00 0.00 0.00 0.00 0.00 0.01 0.01 0.02 0.05 0.09
0.03 0.07 0.12 0.14 0.10 0.05 0.01 0.00 0.00 0.00 0.00 0.00 0.00 0.00 0.00 0.00 0.00 0.00 0.00 0.00 0.00 0.00 0.00 0.00 0.00 0.00 0.00 0.00 0.00 0.00 0.00 0.00 0.00 0.00 0.00 0.00 0.00 0.00 0.00 0.00 0.00 0.02 0.05
0.06 0.08 0.08 0.04 0.01 0.00 0.00 0.00 0.00 0.00 0.00 0.00 0.00 0.00 0.00 0.00 0.00 0.00 0.00 0.00 0.00 0.00 0.00 0.00 0.00 0.00 0.00 0.00 0.00 0.00 0.00 0.00 0.00 0.00 0.00 0.00 0.00 0.00 0.00 0.00 0.02 0.04 0.02
0.02 0.01 0.00 0.00 0.00 0.00 0.00 0.00 0.00 0.00 0.00 0.00 0.00 0.00 0.00 0.01 0.00 0.00 0.00 0.00 0.00 0.00 0.00 0.00 0.00 0.00 0.00 0.00 0.00 0.00 0.00 0.00 0.00 0.00 0.00 0.00 0.00 0.00 0.00 0.00 0.00 0.02 0.06
0.00 0.00 0.00 0.00 0.00 0.00 0.00 0.00 0.00 0.00 0.00 0.00 0.00 0.01 0.01 0.00 0.00 0.00 0.00 0.00 0.00 0.00 0.00 0.01 0.01 0.00 0.00 0.00 0.00 0.00 0.00 0.00 0.00 0.00 0.00 0.00 0.00 0.00 0.00 0.00 0.00 0.00 0.05
0.00 0.00 0.00 0.00 0.00 0.00 0.00 0.00 0.00 0.00 0.00 0.00 0.00 0.00 0.00 0.00 0.00 0.00 0.00 0.00 0.00 0.00 0.02 0.02 0.01 0.01 0.01 0.00 0.00 0.00 0.00 0.00 0.00 0.00 0.00 0.00 0.00 0.00 0.00 0.00 0.00 0.00 0.00
0.00 0.00 0.00 0.00 0.00 0.00 0.00 0.00 0.00 0.00 0.00 0.00 0.00 0.00 0.00 0.00 0.00 0.00 0.00 0.00 0.00 0.02 0.05 0.01 0.00 0.01 0.01 0.01 0.00 0.00 0.00 0.00 0.00 0.00 0.00 0.00 0.00 0.00 0.00 0.00 0.00 0.00 0.00
0.00 0.00 0.00 0.00 0.00 0.00 0.00 0.00 0.00 0.00 0.00 0.00 0.00 0.00 0.00 0.00 0.00 0.00 0.01 0.03 0.07 0.04 0.02 0.00 0.00 0.00 0.00 0.01 0.00 0.00 0.00 0.00 0.00 0.00 0.00 0.00 0.00 0.00 0.00 0.00 0.00 0.00 0.00
0.00 0.00 0.00 0.00 0.00 0.00 0.00 0.00 0.00 0.01 0.01 0.01 0.00 0.00 0.01 0.02 0.01 0.01 0.03 0.12 0.08 0.02 0.01 0.01 0.01 0.01 0.01 0.01 0.00 0.00 0.00 0.00 0.00 0.00 0.00 0.00 0.00 0.00 0.00 0.00 0.00 0.00 0.00
0.00 0.00 0.00 0.00 0.00 0.00 0.00 0.01 0.02 0.03 0.03 0.03 0.03 0.02 0.02 0.06 0.07 0.04 0.05 0.07 0.08 0.05 0.03 0.02 0.02 0.03 0.03 0.03 0.02 0.00 0.00 0.00 0.00 0.00 0.00 0.00 0.00 0.00 0.00 0.00 0.00 0.00 0.00
0.00 0.00 0.00 0.01 0.01 0.01 0.02 0.02 0.02 0.03 0.04 0.05 0.05 0.04 0.04 0.07 0.10 0.07 0.05 0.05 0.06 0.05 0.03 0.03 0.03 0.04 0.04 0.04 0.04 0.03 0.01 0.00 0.00 0.00 0.00 0.00 0.00 0.01 0.00 0.00 0.00 0.00 0.00
0.00 0.01 0.01 0.01 0.01 0.02 0.03 0.04 0.05 0.05 0.04 0.04 0.04 0.04 0.05 0.08 0.09 0.09 0.09 0.08 0.04 0.01 0.02 0.04 0.06 0.04 0.03 0.03 0.04 0.04 0.02 0.01 0.00 0.00 0.00 0.00 0.00 0.01 0.01 0.00 0.00 0.00 0.00
0.01 0.01 0.01 0.01 0.01 0.02 0.03 0.04 0.06 0.09 0.11 0.12 0.12 0.10 0.06 0.06 0.06 0.07 0.08 0.10 0.13 0.16 0.13 0.12 0.13 0.11 0.07 0.07 0.08 0.08 0.05 0.01 0.00 0.01 0.01 0.00 0.00 0.00 0.01 0.00 0.00 0.00 0.00
0.01 0.02 0.03 0.03 0.03 0.03 0.04 0.05 0.06 0.08 0.12 0.15 0.17 0.17 0.17 0.17 0.18 0.21 0.26 0.31 0.32 0.29 0.23 0.23 0.25 0.23 0.22 0.19 0.15 0.10 0.05 0.02 0.02 0.02 0.03 0.04 0.02 0.01 0.01 0.00 0.00 0.00 0.00
0.02 0.02 0.02 0.04 0.06 0.07 0.10 0.11 0.12 0.14 0.14 0.13 0.12 0.13 0.14 0.18 0.24 0.27 0.28 0.23 0.20 0.17 0.16 0.15 0.16 0.18 0.20 0.23 0.22 0.18 0.13 0.09 0.06 0.02 0.04 0.05 0.03 0.02 0.01 0.00 0.00 0.00 0.00
0.02 0.02 0.02 0.04 0.06 0.08 0.14 0.16 0.18 0.19 0.20 0.21 0.24 0.26 0.24 0.20 0.17 0.15 0.13 0.11 0.09 0.07 0.05 0.03 0.02 0.02 0.02 0.02 0.04 0.07 0.08 0.08 0.10 0.07 0.05 0.06 0.04 0.04 0.02 0.01 0.00 0.00 0.00

GFSGL_prec_precacc12_024.txt.gz
Total_Precipitation_Accumulation
0.13 0.13 0.09 0.06 0.04 0.03 0.02 0.00 0.00 0.00 0.00 0.00 0.00 0.00 0.00 0.00 0.00 0.00 0.00 0.00 0.00 0.00 0.00 0.00 0.00 0.00 0.00 0.00 0.00 0.00 0.00 0.00 0.00 0.00 0.00 0.00 0.00 0.00 0.00 0.00 0.00 0.00 0.00
0.08 0.07 0.07 0.05 0.02 0.01 0.01 0.00 0.00 0.00 0.00 0.00 0.00 0.00 0.00 0.00 0.00 0.00 0.00 0.00 0.00 0.00 0.00 0.00 0.00 0.00 0.00 0.00 0.00 0.00 0.00 0.00 0.00 0.00 0.00 0.00 0.00 0.00 0.00 0.00 0.00 0.00 0.00
0.10 0.10 0.07 0.04 0.02 0.01 0.00 0.00 0.00 0.00 0.00 0.00 0.00 0.00 0.00 0.00 0.00 0.00 0.00 0.00 0.00 0.00 0.00 0.00 0.00 0.00 0.00 0.00 0.00 0.00 0.00 0.00 0.00 0.00 0.00 0.00 0.00 0.00 0.00 0.00 0.00 0.00 0.00
0.11 0.09 0.07 0.04 0.01 0.00 0.00 0.00 0.00 0.00 0.00 0.00 0.00 0.00 0.00 0.00 0.00 0.00 0.00 0.00 0.00 0.00 0.00 0.00 0.00 0.00 0.00 0.00 0.00 0.00 0.00 0.00 0.00 0.00 0.00 0.00 0.00 0.00 0.00 0.00 0.00 0.00 0.00
0.05 0.03 0.02 0.01 0.00 0.00 0.00 0.00 0.00 0.00 0.00 0.00 0.00 0.00 0.01 0.02 0.00 0.00 0.00 0.00 0.00 0.00 0.00 0.00 0.00 0.00 0.00 0.00 0.00 0.00 0.00 0.00 0.00 0.00 0.00 0.00 0.00 0.00 0.00 0.00 0.00 0.00 0.00
0.01 0.01 0.00 0.00 0.00 0.00 0.00 0.00 0.00 0.00 0.00 0.00 0.00 0.02 0.03 0.01 0.00 0.00 0.00 0.00 0.00 0.00 0.00 0.00 0.00 0.00 0.00 0.00 0.00 0.00 0.00 0.00 0.00 0.00 0.00 0.00 0.00 0.00 0.00 0.00 0.00 0.00 0.01
0.00 0.00 0.00 0.00 0.00 0.00 0.00 0.00 0.00 0.00 0.01 0.02 0.05 0.04 0.00 0.00 0.00 0.00 0.00 0.00 0.00 0.00 0.00 0.00 0.00 0.00 0.00 0.00 0.00 0.00 0.00 0.00 0.00 0.00 0.00 0.00 0.00 0.00 0.00 0.00 0.00 0.01 0.01
0.00 0.00 0.00 0.00 0.00 0.01 0.00 0.01 0.02 0.04 0.07 0.09 0.06 0.01 0.00 0.00 0.00 0.00 0.00 0.00 0.00 0.00 0.00 0.00 0.00 0.00 0.00 0.00 0.00 0.00 0.00 0.00 0.00 0.00 0.00 0.00 0.00 0.00 0.00 0.01 0.03 0.02 0.00
0.00 0.00 0.00 0.01 0.01 0.01 0.03 0.08 0.14 0.17 0.10 0.03 0.01 0.00 0.00 0.00 0.00 0.00 0.00 0.00 0.00 0.00 0.00 0.00 0.00 0.00 0.00 0.00 0.00 0.00 0.00 0.00 0.00 0.00 0.00 0.00 0.00 0.00 0.00 0.02 0.01 0.02 0.01
0.00 0.00 0.00 0.00 0.03 0.09 0.17 0.20 0.13 0.06 0.02 0.01 0.00 0.00 0.00 0.00 0.00 0.00 0.00 0.00 0.00 0.00 0.00 0.00 0.00 0.00 0.00 0.00 0.00 0.00 0.00 0.00 0.00 0.00 0.00 0.00 0.00 0.00 0.00 0.01 0.02 0.04 0.03
0.00 0.00 0.02 0.07 0.14 0.16 0.13 0.06 0.02 0.01 0.01 0.00 0.00 0.00 0.00 0.00 0.00 0.00 0.00 0.00 0.00 0.00 0.00 0.00 0.00 0.00 0.00 0.00 0.00 0.00 0.00 0.00 0.00 0.00 0.00 0.00 0.00 0.00 0.00 0.00 0.00 0.02 0.06
0.01 0.04 0.11 0.15 0.12 0.07 0.02 0.00 0.00 0.00 0.00 0.00 0.00 0.00 0.00 0.00 0.00 0.00 0.00 0.00 0.00 0.00 0.00 0.00 0.00 0.00 0.00 0.00 0.00 0.00 0.00 0.00 0.00 0.00 0.00 0.00 0.00 0.00 0.00 0.00 0.00 0.00 0.03
0.05 0.08 0.08 0.04 0.01 0.00 0.00 0.00 0.00 0.00 0.00 0.00 0.00 0.00 0.00 0.00 0.00 0.00 0.00 0.00 0.00 0.00 0.00 0.00 0.00 0.00 0.00 0.00 0.00 0.00 0.00 0.00 0.00 0.00 0.00 0.00 0.00 0.00 0.00 0.00 0.00 0.00 0.00
0.01 0.01 0.00 0.00 0.00 0.00 0.00 0.00 0.00 0.00 0.00 0.00 0.00 0.00 0.00 0.00 0.00 0.00 0.00 0.00 0.00 0.00 0.00 0.00 0.00 0.00 0.00 0.00 0.00 0.00 0.00 0.00 0.00 0.00 0.00 0.00 0.00 0.00 0.00 0.00 0.00 0.00 0.00
0.00 0.00 0.00 0.00 0.00 0.00 0.00 0.00 0.00 0.00 0.00 0.00 0.00 0.00 0.00 0.00 0.00 0.00 0.00 0.00 0.00 0.00 0.00 0.01 0.01 0.02 0.01 0.01 0.00 0.00 0.00 0.00 0.00 0.00 0.00 0.00 0.00 0.00 0.00 0.00 0.00 0.00 0.00
0.00 0.00 0.00 0.00 0.00 0.00 0.00 0.00 0.00 0.00 0.00 0.00 0.00 0.00 0.00 0.00 0.00 0.00 0.00 0.00 0.00 0.00 0.04 0.03 0.01 0.01 0.01 0.01 0.01 0.01 0.01 0.01 0.00 0.00 0.00 0.00 0.00 0.00 0.00 0.00 0.00 0.00 0.00
0.00 0.00 0.00 0.00 0.00 0.00 0.00 0.00 0.00 0.00 0.00 0.00 0.00 0.00 0.00 0.00 0.00 0.00 0.00 0.00 0.02 0.08 0.19 0.07 0.02 0.01 0.00 0.01 0.02 0.02 0.02 0.01 0.01 0.00 0.00 0.00 0.00 0.00 0.00 0.00 0.00 0.00 0.00
0.00 0.00 0.00 0.00 0.00 0.00 0.00 0.00 0.00 0.00 0.00 0.00 0.00 0.00 0.00 0.00 0.00 0.01 0.02 0.06 0.14 0.13 0.12 0.06 0.03 0.02 0.01 0.02 0.02 0.02 0.02 0.01 0.01 0.00 0.00 0.00 0.00 0.00 0.00 0.00 0.00 0.00 0.00
0.00 0.00 0.00 0.00 0.00 0.00 0.00 0.00 0.00 0.00 0.01 0.00 0.00 0.00 0.01 0.02 0.02 0.02 0.03 0.14 0.13 0.09 0.06 0.05 0.03 0.03 0.03 0.03 0.04 0.05 0.05 0.03 0.00 0.00 0.00 0.00 0.00 0.00 0.00 0.00 0.00 0.00 0.00
0.00 0.00 0.00 0.00 0.00 0.00 0.00 0.01 0.01 0.02 0.02 0.02 0.02 0.02 0.02 0.06 0.07 0.04 0.05 0.08 0.09 0.07 0.06 0.06 0.04 0.04 0.04 0.04 0.04 0.04 0.04 0.03 0.01 0.00 0.00 0.00 0.00 0.00 0.00 0.00 0.00 0.00 0.00
0.00 0.00 0.00 0.00 0.01 0.01 0.02 0.02 0.02 0.03 0.04 0.04 0.04 0.03 0.03 0.06 0.08 0.07 0.05 0.06 0.08 0.08 0.08 0.07 0.05 0.06 0.05 0.04 0.04 0.04 0.02 0.01 0.01 0.00 0.00 0.00 0.00 0.00 0.00 0.00 0.00 0.00 0.00
0.00 0.00 0.00 0.00 0.01 0.01 0.02 0.03 0.04 0.04 0.04 0.04 0.04 0.04 0.04 0.06 0.08 0.08 0.09 0.09 0.06 0.06 0.08 0.13 0.12 0.07 0.05 0.04 0.04 0.06 0.04 0.03 0.01 0.01 0.00 0.00 0.00 0.01 0.01 0.01 0.00 0.00 0.00
0.00 0.00 0.00 0.00 0.01 0.01 0.02 0.03 0.06 0.08 0.10 0.11 0.11 0.09 0.05 0.04 0.05 0.05 0.07 0.10 0.15 0.23 0.23 0.24 0.25 0.20 0.13 0.09 0.09 0.10 0.10 0.04 0.02 0.03 0.02 0.00 0.00 0.01 0.01 0.01 0.00 0.00 0.00
0.01 0.01 0.01 0.00 0.00 0.01 0.03 0.03 0.04 0.07 0.11 0.14 0.16 0.16 0.16 0.16 0.15 0.16 0.21 0.28 0.33 0.35 0.34 0.33 0.31 0.27 0.23 0.20 0.18 0.15 0.10 0.06 0.07 0.08 0.08 0.07 0.04 0.02 0.02 0.01 0.00 0.00 0.00
0.01 0.01 0.00 0.01 0.02 0.02 0.03 0.03 0.07 0.12 0.13 0.12 0.10 0.10 0.11 0.16 0.20 0.22 0.22 0.18 0.18 0.19 0.21 0.23 0.24 0.23 0.22 0.24 0.25 0.24 0.21 0.18 0.16 0.11 0.11 0.09 0.05 0.04 0.03 0.02 0.01 0.00 0.00
0.01 0.01 0.00 0.01 0.02 0.04 0.05 0.08 0.13 0.16 0.14 0.14 0.18 0.22 0.22 0.20 0.16 0.14 0.12 0.11 0.10 0.09 0.10 0.10 0.10 0.08 0.06 0.04 0.04 0.06 0.09 0.11 0.16 0.14 0.10 0.09 0.06 0.05 0.04 0.03 0.02 0.01 0.00

GFSGL_prec_precacc12_030.txt.gz
Total_Precipitation_Accumulation
0.13 0.23 0.24 0.29 0.25 0.18 0.15 0.11 0.06 0.02 0.02 0.05 0.09 0.10 0.04 0.00 0.00 0.00 0.00 0.00 0.00 0.00 0.00 0.00 0.00 0.00 0.00 0.00 0.00 0.00 0.00 0.00 0.00 0.00 0.00 0.00 0.00 0.00 0.00 0.00 0.00 0.00 0.00
0.10 0.13 0.18 0.19 0.17 0.14 0.12 0.09 0.06 0.04 0.04 0.03 0.01 0.00 0.00 0.00 0.00 0.00 0.00 0.00 0.01 0.01 0.00 0.00 0.00 0.00 0.00 0.00 0.00 0.00 0.00 0.00 0.00 0.00 0.00 0.00 0.00 0.00 0.00 0.00 0.00 0.00 0.00
0.14 0.13 0.11 0.11 0.11 0.09 0.07 0.04 0.02 0.02 0.02 0.01 0.00 0.00 0.00 0.00 0.00 0.00 0.00 0.05 0.05 0.00 0.00 0.00 0.00 0.00 0.00 0.00 0.00 0.00 0.00 0.00 0.00 0.00 0.00 0.00 0.00 0.00 0.00 0.00 0.00 0.00 0.00
0.14 0.12 0.11 0.11 0.07 0.06 0.03 0.01 0.00 0.00 0.00 0.00 0.00 0.00 0.00 0.00 0.01 0.06 0.09 0.04 0.00 0.00 0.00 0.00 0.00 0.00 0.00 0.00 0.00 0.00 0.00 0.00 0.00 0.00 0.00 0.00 0.00 0.00 0.00 0.00 0.00 0.00 0.00
0.06 0.04 0.03 0.02 0.01 0.00 0.00 0.00 0.00 0.00 0.00 0.00 0.00 0.00 0.01 0.05 0.10 0.10 0.04 0.01 0.00 0.00 0.00 0.00 0.00 0.00 0.00 0.00 0.00 0.00 0.00 0.00 0.00 0.00 0.00 0.00 0.00 0.00 0.00 0.00 0.00 0.00 0.00
0.01 0.01 0.00 0.00 0.00 0.00 0.00 0.00 0.00 0.00 0.00 0.00 0.01 0.04 0.08 0.11 0.11 0.09 0.02 0.00 0.00 0.00 0.00 0.00 0.00 0.00 0.00 0.00 0.00 0.00 0.00 0.00 0.00 0.00 0.00 0.00 0.00 0.00 0.00 0.00 0.00 0.00 0.01
0.00 0.00 0.00 0.00 0.00 0.00 0.00 0.00 0.00 0.00 0.01 0.03 0.07 0.12 0.14 0.10 0.05 0.02 0.00 0.00 0.00 0.00 0.00 0.00 0.00 0.00 0.00 0.00 0.00 0.00 0.00 0.00 0.00 0.00 0.00 0.00 0.00 0.00 0.00 0.00 0.00 0.01 0.01
0.00 0.00 0.00 0.00 0.00 0.00 0.00 0.00 0.01 0.04 0.11 0.15 0.17 0.13 0.05 0.01 0.02 0.04 0.02 0.00 0.00 0.00 0.00 0.00 0.00 0.00 0.00 0.00 0.00 0.00 0.00 0.00 0.00 0.00 0.00 0.00 0.00 0.00 0.00 0.01 0.03 0.02 0.00
0.00 0.00 0.00 0.00 0.00 0.00 0.01 0.06 0.16 0.21 0.18 0.12 0.04 0.01 0.02 0.02 0.04 0.02 0.01 0.00 0.00 0.00 0.00 0.00 0.00 0.00 0.00 0.00 0.00 0.00 0.00 0.00 0.00 0.00 0.00 0.00 0.00 0.00 0.00 0.00 0.00 0.00 0.00
0.00 0.00 0.00 0.00 0.02 0.06 0.14 0.18 0.14 0.07 0.03 0.03 0.04 0.04 0.04 0.01 0.00 0.00 0.00 0.00 0.00 0.00 0.00 0.00 0.00 0.00 0.00 0.00 0.00 0.00 0.00 0.00 0.00 0.00 0.00 0.00 0.00 0.00 0.00 0.00 0.00 0.01 0.01
0.00 0.00 0.01 0.03 0.06 0.09 0.10 0.06 0.03 0.02 0.02 0.01 0.00 0.00 0.00 0.00 0.00 0.00 0.00 0.00 0.00 0.00 0.00 0.00 0.00 0.00 0.00 0.00 0.00 0.00 0.00 0.00 0.00 0.00 0.00 0.00 0.00 0.00 0.00 0.00 0.00 0.00 0.00
0.00 0.00 0.02 0.06 0.08 0.06 0.02 0.00 0.00 0.00 0.00 0.00 0.00 0.00 0.00 0.00 0.00 0.00 0.00 0.00 0.00 0.00 0.00 0.00 0.00 0.00 0.00 0.00 0.00 0.00 0.00 0.00 0.00 0.00 0.00 0.00 0.00 0.00 0.00 0.00 0.00 0.00 0.00
0.00 0.01 0.02 0.02 0.01 0.00 0.00 0.00 0.00 0.00 0.00 0.00 0.00 0.00 0.00 0.00 0.00 0.00 0.00 0.00 0.00 0.00 0.00 0.00 0.00 0.00 0.00 0.00 0.00 0.00 0.00 0.00 0.00 0.00 0.00 0.00 0.00 0.00 0.00 0.00 0.00 0.00 0.00
0.00 0.00 0.00 0.00 0.00 0.00 0.00 0.00 0.00 0.00 0.00 0.00 0.00 0.00 0.00 0.00 0.00 0.00 0.00 0.00 0.00 0.00 0.00 0.00 0.00 0.00 0.00 0.01 0.00 0.00 0.00 0.00 0.00 0.00 0.00 0.00 0.00 0.00 0.00 0.00 0.00 0.00 0.00
0.00 0.00 0.00 0.00 0.00 0.00 0.00 0.00 0.00 0.00 0.00 0.00 0.00 0.00 0.00 0.00 0.00 0.00 0.00 0.00 0.01 0.01 0.02 0.04 0.04 0.04 0.04 0.04 0.04 0.03 0.05 0.04 0.03 0.01 0.02 0.03 0.03 0.01 0.00 0.00 0.00 0.00 0.00
0.00 0.00 0.00 0.00 0.00 0.00 0.00 0.00 0.00 0.00 0.00 0.00 0.00 0.00 0.00 0.00 0.00 0.00 0.00 0.00 0.00 0.01 0.09 0.11 0.07 0.06 0.07 0.06 0.08 0.08 0.11 0.14 0.11 0.09 0.09 0.05 0.05 0.03 0.01 0.00 0.00 0.00 0.00
0.00 0.00 0.00 0.00 0.00 0.00 0.00 0.00 0.00 0.00 0.00 0.00 0.00 0.00 0.00 0.00 0.00 0.00 0.00 0.00 0.02 0.08 0.22 0.16 0.13 0.11 0.09 0.10 0.13 0.14 0.13 0.09 0.11 0.17 0.12 0.06 0.04 0.04 0.03 0.01 0.00 0.00 0.00
0.00 0.00 0.00 0.00 0.00 0.00 0.00 0.00 0.00 0.00 0.00 0.00 0.00 0.00 0.00 0.00 0.00 0.01 0.02 0.05 0.11 0.12 0.15 0.11 0.09 0.07 0.06 0.08 0.08 0.10 0.08 0.08 0.11 0.10 0.08 0.04 0.03 0.03 0.02 0.01 0.00 0.00 0.00
0.00 0.00 0.00 0.00 0.00 0.00 0.00 0.00 0.00 0.00 0.00 0.00 0.00 0.00 0.01 0.01 0.02 0.02 0.03 0.08 0.11 0.09 0.07 0.07 0.05 0.05 0.07 0.08 0.10 0.12 0.14 0.15 0.13 0.11 0.07 0.03 0.02 0.02 0.02 0.00 0.00 0.00 0.00
0.00 0.00 0.00 0.00 0.00 0.00 0.00 0.00 0.00 0.00 0.00 0.01 0.01 0.01 0.02 0.03 0.04 0.03 0.03 0.05 0.06 0.06 0.06 0.07 0.06 0.06 0.07 0.09 0.09 0.10 0.11 0.10 0.09 0.08 0.05 0.03 0.01 0.01 0.01 0.00 0.00 0.00 0.00
0.00 0.00 0.00 0.00 0.00 0.00 0.00 0.00 0.00 0.01 0.01 0.00 0.00 0.01 0.02 0.03 0.03 0.03 0.04 0.05 0.06 0.07 0.07 0.07 0.06 0.07 0.08 0.10 0.12 0.13 0.12 0.10 0.06 0.04 0.02 0.02 0.03 0.03 0.01 0.00 0.00 0.00 0.00
0.00 0.00 0.00 0.00 0.00 0.00 0.00 0.00 0.00 0.01 0.01 0.01 0.01 0.01 0.00 0.02 0.06 0.06 0.06 0.05 0.05 0.06 0.08 0.13 0.13 0.11 0.13 0.16 0.17 0.19 0.17 0.15 0.11 0.07 0.04 0.03 0.04 0.04 0.04 0.02 0.01 0.00 0.00
0.00 0.00 0.00 0.00 0.00 0.00 0.00 0.00 0.00 0.00 0.01 0.01 0.01 0.01 0.01 0.02 0.03 0.03 0.05 0.08 0.11 0.16 0.18 0.18 0.19 0.18 0.16 0.18 0.23 0.25 0.23 0.15 0.12 0.14 0.12 0.07 0.05 0.06 0.05 0.02 0.00 0.00 0.00
0.00 0.00 0.00 0.00 0.00 0.00 0.00 0.00 0.00 0.00 0.00 0.00 0.00 0.01 0.02 0.03 0.05 0.09 0.16 0.20 0.21 0.20 0.17 0.17 0.18 0.20 0.22 0.23 0.24 0.23 0.19 0.14 0.15 0.16 0.14 0.12 0.09 0.07 0.07 0.03 0.00 0.00 0.00
0.00 0.00 0.00 0.00 0.00 0.00 0.00 0.00 0.00 0.00 0.00 0.00 0.01 0.01 0.01 0.02 0.03 0.05 0.08 0.10 0.10 0.10 0.11 0.13 0.14 0.15 0.18 0.24 0.29 0.31 0.28 0.25 0.23 0.22 0.23 0.16 0.11 0.11 0.09 0.05 0.02 0.01 0.00
0.00 0.00 0.00 0.00 0.00 0.00 0.00 0.00 0.00 0.00 0.00 0.00 0.01 0.01 0.01 0.02 0.03 0.04 0.07 0.08 0.09 0.09 0.10 0.11 0.11 0.12 0.12 0.14 0.15 0.16 0.17 0.17 0.20 0.23 0.22 0.19 0.16 0.15 0.14 0.08 0.04 0.03 0.02

GFSGL_prec_precacc12_033.txt.gz
Total_Precipitation_Accumulation
0.11 0.21 0.22 0.29 0.31 0.26 0.19 0.12 0.08 0.04 0.03 0.05 0.10 0.12 0.09 0.05 0.02 0.00 0.00 0.00 0.00 0.00 0.00 0.01 0.00 0.00 0.00 0.00 0.00 0.00 0.00 0.00 0.00 0.00 0.00 0.00 0.00 0.00 0.00 0.00 0.00 0.00 0.00
0.08 0.11 0.17 0.21 0.20 0.21 0.19 0.12 0.09 0.06 0.04 0.03 0.01 0.01 0.00 0.00 0.00 0.00 0.01 0.00 0.01 0.05 0.04 0.01 0.00 0.00 0.00 0.00 0.00 0.00 0.00 0.00 0.00 0.00 0.00 0.00 0.00 0.00 0.00 0.00 0.00 0.00 0.00
0.08 0.08 0.09 0.12 0.12 0.11 0.10 0.08 0.05 0.03 0.02 0.01 0.01 0.02 0.02 0.01 0.01 0.01 0.01 0.05 0.08 0.04 0.01 0.00 0.00 0.00 0.00 0.00 0.00 0.00 0.00 0.00 0.00 0.00 0.00 0.00 0.00 0.00 0.00 0.00 0.00 0.00 0.00
0.09 0.10 0.10 0.13 0.08 0.07 0.04 0.01 0.00 0.00 0.00 0.00 0.00 0.01 0.01 0.00 0.01 0.06 0.09 0.07 0.06 0.03 0.00 0.00 0.00 0.00 0.00 0.00 0.00 0.00 0.00 0.00 0.00 0.00 0.00 0.00 0.00 0.00 0.00 0.00 0.00 0.00 0.00
0.06 0.06 0.04 0.03 0.01 0.00 0.00 0.00 0.00 0.00 0.00 0.00 0.00 0.00 0.01 0.05 0.11 0.11 0.12 0.11 0.03 0.00 0.00 0.00 0.00 0.00 0.00 0.00 0.00 0.00 0.01 0.01 0.01 0.00 0.00 0.00 0.00 0.00 0.00 0.00 0.00 0.00 0.00
0.01 0.01 0.01 0.00 0.00 0.00 0.00 0.00 0.00 0.00 0.00 0.00 0.01 0.04 0.08 0.12 0.13 0.12 0.05 0.01 0.00 0.00 0.00 0.00 0.00 0.00 0.00 0.00 0.00 0.00 0.00 0.01 0.01 0.01 0.00 0.00 0.00 0.00 0.00 0.00 0.00 0.00 0.00
0.00 0.00 0.00 0.00 0.00 0.00 0.00 0.00 0.00 0.00 0.00 0.02 0.06 0.12 0.14 0.10 0.06 0.02 0.01 0.00 0.01 0.00 0.00 0.00 0.00 0.00 0.00 0.00 0.00 0.00 0.00 0.00 0.00 0.00 0.00 0.00 0.00 0.00 0.00 0.00 0.00 0.01 0.01
0.00 0.00 0.00 0.00 0.00 0.00 0.00 0.00 0.00 0.01 0.08 0.14 0.16 0.13 0.05 0.01 0.02 0.04 0.03 0.01 0.01 0.00 0.00 0.00 0.00 0.00 0.00 0.00 0.00 0.00 0.00 0.00 0.00 0.00 0.00 0.00 0.00 0.00 0.00 0.00 0.00 0.00 0.00
0.00 0.00 0.00 0.00 0.00 0.00 0.00 0.03 0.09 0.15 0.16 0.12 0.04 0.01 0.02 0.02 0.04 0.03 0.02 0.00 0.00 0.00 0.00 0.00 0.00 0.00 0.00 0.00 0.00 0.00 0.00 0.00 0.00 0.00 0.00 0.00 0.00 0.00 0.00 0.00 0.00 0.00 0.00
0.00 0.00 0.00 0.00 0.00 0.01 0.05 0.10 0.10 0.06 0.03 0.03 0.04 0.04 0.05 0.02 0.01 0.00 0.00 0.00 0.00 0.00 0.00 0.00 0.00 0.00 0.00 0.00 0.00 0.00 0.00 0.00 0.01 0.00 0.00 0.00 0.00 0.00 0.00 0.00 0.00 0.00 0.00
0.00 0.00 0.00 0.00 0.01 0.03 0.04 0.03 0.02 0.02 0.02 0.01 0.00 0.00 0.00 0.00 0.00 0.00 0.00 0.00 0.00 0.00 0.00 0.00 0.00 0.00 0.00 0.00 0.00 0.00 0.00 0.00 0.02 0.02 0.02 0.01 0.00 0.00 0.00 0.00 0.00 0.00 0.00
0.00 0.00 0.00 0.00 0.01 0.02 0.01 0.00 0.00 0.00 0.00 0.00 0.00 0.00 0.00 0.00 0.00 0.00 0.00 0.00 0.00 0.00 0.00 0.00 0.00 0.00 0.00 0.00 0.00 0.00 0.00 0.00 0.01 0.03 0.03 0.01 0.00 0.00 0.00 0.00 0.00 0.00 0.00
0.00 0.00 0.00 0.00 0.00 0.00 0.00 0.00 0.00 0.00 0.00 0.00 0.00 0.00 0.00 0.00 0.00 0.00 0.00 0.00 0.00 0.00 0.00 0.00 0.00 0.00 0.00 0.00 0.00 0.00 0.00 0.01 0.03 0.04 0.03 0.01 0.00 0.00 0.00 0.00 0.00 0.00 0.00
0.00 0.00 0.00 0.00 0.00 0.00 0.00 0.00 0.00 0.00 0.00 0.00 0.00 0.00 0.00 0.00 0.00 0.00 0.00 0.00 0.00 0.00 0.00 0.00 0.00 0.00 0.00 0.01 0.01 0.01 0.02 0.02 0.04 0.05 0.02 0.00 0.01 0.01 0.00 0.00 0.00 0.00 0.00
0.00 0.00 0.00 0.00 0.00 0.00 0.00 0.00 0.00 0.00 0.00 0.00 0.00 0.00 0.00 0.00 0.00 0.00 0.00 0.00 0.01 0.01 0.02 0.03 0.03 0.04 0.05 0.05 0.05 0.05 0.09 0.11 0.12 0.10 0.10 0.10 0.08 0.04 0.02 0.00 0.00 0.00 0.00
0.00 0.00 0.00 0.00 0.00 0.00 0.00 0.00 0.00 0.00 0.00 0.00 0.00 0.00 0.00 0.00 0.00 0.00 0.00 0.00 0.00 0.01 0.07 0.09 0.06 0.07 0.08 0.07 0.09 0.10 0.14 0.18 0.17 0.16 0.18 0.19 0.19 0.14 0.07 0.04 0.02 0.01 0.00
0.00 0.00 0.00 0.00 0.00 0.00 0.00 0.00 0.00 0.00 0.00 0.00 0.00 0.00 0.00 0.00 0.00 0.00 0.00 0.00 0.02 0.06 0.18 0.16 0.13 0.11 0.10 0.10 0.13 0.15 0.15 0.14 0.18 0.28 0.22 0.17 0.17 0.17 0.12 0.07 0.03 0.01 0.00
0.00 0.00 0.00 0.00 0.00 0.00 0.00 0.00 0.00 0.00 0.00 0.00 0.00 0.00 0.00 0.00 0.00 0.00 0.01 0.02 0.08 0.10 0.13 0.11 0.09 0.07 0.06 0.07 0.08 0.10 0.11 0.14 0.18 0.18 0.15 0.12 0.11 0.10 0.09 0.04 0.02 0.01 0.00
0.00 0.00 0.00 0.00 0.00 0.00 0.00 0.00 0.00 0.00 0.00 0.00 0.00 0.00 0.00 0.00 0.00 0.01 0.00 0.03 0.06 0.08 0.07 0.06 0.04 0.05 0.07 0.08 0.10 0.13 0.15 0.16 0.16 0.16 0.13 0.10 0.09 0.09 0.07 0.03 0.01 0.01 0.01
0.00 0.00 0.00 0.00 0.00 0.00 0.00 0.00 0.00 0.00 0.00 0.00 0.00 0.00 0.00 0.00 0.01 0.00 0.00 0.02 0.03 0.03 0.05 0.05 0.04 0.04 0.05 0.07 0.09 0.11 0.12 0.11 0.11 0.11 0.10 0.09 0.07 0.05 0.05 0.03 0.01 0.01 0.01
0.00 0.00 0.00 0.00 0.00 0.00 0.00 0.00 0.00 0.00 0.00 0.00 0.00 0.00 0.00 0.01 0.02 0.01 0.01 0.02 0.03 0.04 0.07 0.07 0.06 0.06 0.07 0.08 0.09 0.12 0.13 0.12 0.13 0.13 0.11 0.08 0.06 0.06 0.04 0.04 0.02 0.01 0.01
0.00 0.00 0.00 0.00 0.00 0.00 0.00 0.00 0.00 0.00 0.00 0.00 0.00 0.00 0.00 0.00 0.01 0.01 0.01 0.02 0.03 0.06 0.08 0.12 0.13 0.12 0.13 0.15 0.16 0.17 0.16 0.17 0.19 0.20 0.19 0.16 0.10 0.06 0.07 0.08 0.05 0.02 0.01
0.00 0.00 0.00 0.00 0.00 0.00 0.00 0.00 0.00 0.00 0.00 0.00 0.00 0.00 0.00 0.01 0.01 0.01 0.01 0.02 0.05 0.09 0.12 0.16 0.18 0.17 0.15 0.17 0.19 0.21 0.22 0.17 0.16 0.20 0.21 0.16 0.13 0.10 0.08 0.05 0.03 0.02 0.01
0.00 0.00 0.00 0.00 0.00 0.00 0.00 0.00 0.00 0.00 0.00 0.00 0.00 0.01 0.01 0.01 0.01 0.01 0.01 0.03 0.06 0.09 0.13 0.14 0.14 0.14 0.13 0.14 0.16 0.18 0.18 0.16 0.17 0.18 0.19 0.18 0.14 0.09 0.10 0.07 0.04 0.02 0.01
0.00 0.00 0.00 0.00 0.00 0.00 0.00 0.00 0.00 0.00 0.00 0.00 0.01 0.01 0.01 0.01 0.01 0.01 0.01 0.01 0.03 0.05 0.07 0.11 0.14 0.14 0.14 0.16 0.20 0.22 0.22 0.22 0.25 0.27 0.28 0.22 0.16 0.14 0.11 0.09 0.05 0.04 0.02
0.00 0.00 0.00 0.00 0.00 0.00 0.00 0.00 0.00 0.00 0.00 0.00 0.01 0.00 0.01 0.01 0.00 0.00 0.01 0.01 0.02 0.03 0.06 0.09 0.11 0.12 0.13 0.14 0.15 0.16 0.17 0.18 0.21 0.25 0.26 0.23 0.20 0.18 0.15 0.14 0.11 0.08 0.04

GFSGL_prec_precacc12_036.txt.gz
Total_Precipitation_Accumulation
0.02 0.16 0.23 0.34 0.46 0.35 0.24 0.25 0.19 0.10 0.07 0.06 0.10 0.12 0.09 0.05 0.02 0.01 0.01 0.02 0.01 0.01 0.02 0.02 0.00 0.00 0.00 0.00 0.00 0.00 0.00 0.00 0.00 0.00 0.00 0.00 0.00 0.00 0.00 0.00 0.00 0.00 0.00
0.03 0.18 0.38 0.26 0.38 0.33 0.33 0.18 0.14 0.09 0.07 0.03 0.01 0.01 0.00 0.01 0.01 0.01 0.02 0.03 0.04 0.06 0.04 0.01 0.00 0.00 0.00 0.00 0.00 0.00 0.00 0.00 0.00 0.00 0.00 0.00 0.00 0.00 0.00 0.00 0.00 0.00 0.00
0.05 0.13 0.20 0.12 0.37 0.22 0.18 0.14 0.09 0.04 0.02 0.01 0.01 0.02 0.02 0.02 0.02 0.02 0.03 0.08 0.10 0.04 0.03 0.02 0.00 0.00 0.00 0.00 0.00 0.00 0.00 0.00 0.00 0.00 0.00 0.00 0.00 0.00 0.00 0.00 0.00 0.00 0.00
0.06 0.11 0.07 0.15 0.17 0.11 0.06 0.03 0.01 0.00 0.00 0.00 0.01 0.01 0.01 0.01 0.02 0.06 0.10 0.08 0.08 0.07 0.02 0.00 0.00 0.00 0.00 0.00 0.00 0.00 0.00 0.01 0.00 0.01 0.00 0.00 0.00 0.00 0.00 0.00 0.00 0.00 0.00
0.07 0.06 0.04 0.09 0.02 0.00 0.01 0.00 0.00 0.00 0.00 0.00 0.00 0.00 0.00 0.04 0.11 0.12 0.12 0.12 0.04 0.01 0.00 0.00 0.00 0.00 0.00 0.00 0.00 0.00 0.01 0.01 0.01 0.01 0.00 0.00 0.00 0.00 0.00 0.00 0.00 0.00 0.00
0.02 0.01 0.01 0.01 0.00 0.00 0.00 0.00 0.00 0.00 0.00 0.00 0.01 0.02 0.05 0.11 0.13 0.12 0.06 0.01 0.00 0.00 0.00 0.00 0.00 0.00 0.00 0.00 0.00 0.00 0.00 0.01 0.01 0.01 0.01 0.00 0.00 0.00 0.00 0.00 0.00 0.00 0.00
0.01 0.00 0.00 0.00 0.00 0.00 0.00 0.00 0.00 0.00 0.00 0.01 0.02 0.08 0.14 0.10 0.06 0.02 0.01 0.00 0.01 0.00 0.00 0.00 0.00 0.00 0.00 0.00 0.00 0.00 0.00 0.00 0.00 0.00 0.01 0.00 0.00 0.00 0.01 0.00 0.00 0.00 0.00
0.00 0.00 0.00 0.00 0.00 0.00 0.00 0.00 0.00 0.01 0.03 0.06 0.11 0.12 0.05 0.01 0.02 0.04 0.03 0.01 0.01 0.00 0.00 0.00 0.00 0.00 0.00 0.00 0.00 0.00 0.00 0.00 0.00 0.00 0.00 0.00 0.00 0.00 0.01 0.01 0.00 0.00 0.00
0.00 0.00 0.00 0.00 0.00 0.00 0.00 0.01 0.02 0.04 0.08 0.09 0.03 0.01 0.02 0.02 0.04 0.03 0.02 0.00 0.00 0.00 0.00 0.00 0.00 0.00 0.00 0.00 0.00 0.00 0.00 0.00 0.00 0.00 0.00 0.00 0.00 0.00 0.00 0.01 0.00 0.00 0.00
0.00 0.00 0.00 0.00 0.00 0.00 0.01 0.01 0.02 0.01 0.01 0.02 0.04 0.04 0.05 0.02 0.01 0.00 0.00 0.00 0.00 0.00 0.00 0.00 0.00 0.00 0.00 0.00 0.00 0.00 0.00 0.00 0.01 0.02 0.01 0.00 0.00 0.00 0.00 0.00 0.00 0.00 0.00
0.00 0.00 0.00 0.00 0.00 0.00 0.00 0.00 0.01 0.01 0.02 0.01 0.00 0.00 0.00 0.00 0.00 0.00 0.00 0.00 0.00 0.00 0.00 0.00 0.00 0.00 0.00 0.00 0.00 0.00 0.00 0.01 0.03 0.04 0.05 0.06 0.03 0.01 0.00 0.00 0.00 0.00 0.00
0.00 0.00 0.00 0.00 0.00 0.00 0.00 0.00 0.00 0.00 0.00 0.00 0.00 0.00 0.00 0.00 0.00 0.00 0.00 0.00 0.00 0.00 0.00 0.00 0.00 0.00 0.00 0.00 0.00 0.00 0.00 0.00 0.02 0.04 0.06 0.09 0.11 0.06 0.01 0.00 0.00 0.00 0.00
0.00 0.00 0.00 0.00 0.00 0.00 0.00 0.00 0.00 0.00 0.00 0.00 0.00 0.00 0.00 0.00 0.00 0.00 0.00 0.00 0.00 0.00 0.00 0.00 0.00 0.00 0.00 0.00 0.00 0.00 0.00 0.02 0.05 0.07 0.05 0.03 0.03 0.06 0.05 0.03 0.01 0.00 0.00
0.00 0.00 0.00 0.00 0.00 0.00 0.00 0.00 0.00 0.00 0.00 0.00 0.00 0.00 0.00 0.00 0.00 0.00 0.00 0.00 0.00 0.00 0.00 0.00 0.00 0.00 0.01 0.01 0.01 0.02 0.02 0.03 0.06 0.08 0.06 0.05 0.05 0.07 0.08 0.05 0.02 0.00 0.00
0.00 0.00 0.00 0.00 0.00 0.00 0.00 0.00 0.00 0.00 0.00 0.00 0.00 0.00 0.00 0.00 0.00 0.00 0.00 0.00 0.01 0.01 0.02 0.03 0.02 0.03 0.03 0.04 0.04 0.05 0.09 0.12 0.13 0.12 0.13 0.15 0.15 0.13 0.08 0.03 0.03 0.03 0.02
0.00 0.00 0.00 0.00 0.00 0.00 0.00 0.00 0.00 0.00 0.00 0.00 0.00 0.00 0.00 0.00 0.00 0.00 0.00 0.00 0.00 0.01 0.06 0.08 0.06 0.06 0.07 0.06 0.09 0.09 0.12 0.17 0.17 0.16 0.19 0.21 0.24 0.26 0.27 0.26 0.16 0.10 0.07
0.00 0.00 0.00 0.00 0.00 0.00 0.00 0.00 0.00 0.00 0.00 0.00 0.00 0.00 0.00 0.00 0.00 0.00 0.00 0.00 0.00 0.01 0.05 0.09 0.10 0.11 0.10 0.10 0.12 0.13 0.13 0.12 0.17 0.29 0.29 0.26 0.26 0.25 0.18 0.16 0.13 0.09 0.06
0.00 0.00 0.00 0.00 0.00 0.00 0.00 0.00 0.00 0.00 0.00 0.00 0.00 0.00 0.00 0.00 0.00 0.00 0.00 0.00 0.00 0.01 0.03 0.06 0.06 0.05 0.06 0.07 0.07 0.08 0.10 0.13 0.18 0.18 0.19 0.19 0.18 0.17 0.17 0.13 0.08 0.05 0.03
0.00 0.00 0.00 0.00 0.00 0.00 0.00 0.00 0.00 0.00 0.00 0.00 0.00 0.00 0.00 0.00 0.00 0.00 0.00 0.01 0.01 0.01 0.01 0.02 0.02 0.03 0.05 0.06 0.07 0.08 0.11 0.14 0.16 0.16 0.14 0.13 0.14 0.16 0.16 0.10 0.04 0.03 0.02
0.01 0.01 0.00 0.00 0.00 0.00 0.00 0.00 0.00 0.00 0.00 0.00 0.00 0.00 0.00 0.00 0.00 0.00 0.00 0.01 0.01 0.01 0.01 0.02 0.02 0.02 0.04 0.06 0.07 0.08 0.08 0.09 0.11 0.12 0.11 0.10 0.09 0.08 0.09 0.10 0.07 0.04 0.02
0.02 0.01 0.00 0.00 0.00 0.00 0.00 0.00 0.00 0.00 0.00 0.00 0.00 0.00 0.00 0.00 0.00 0.01 0.01 0.01 0.01 0.02 0.02 0.04 0.04 0.05 0.06 0.08 0.09 0.11 0.12 0.12 0.13 0.14 0.14 0.13 0.13 0.15 0.13 0.10 0.08 0.04 0.03
0.00 0.00 0.00 0.00 0.00 0.00 0.00 0.00 0.00 0.00 0.00 0.00 0.00 0.00 0.00 0.00 0.00 0.00 0.00 0.01 0.01 0.01 0.03 0.04 0.06 0.08 0.12 0.15 0.16 0.17 0.15 0.16 0.18 0.21 0.21 0.20 0.19 0.16 0.16 0.15 0.11 0.07 0.04
0.00 0.00 0.00 0.00 0.00 0.00 0.00 0.00 0.00 0.00 0.00 0.00 0.00 0.00 0.00 0.01 0.01 0.01 0.01 0.01 0.01 0.01 0.02 0.03 0.05 0.07 0.10 0.16 0.19 0.20 0.18 0.15 0.16 0.19 0.22 0.18 0.16 0.15 0.14 0.12 0.09 0.08 0.04
0.00 0.00 0.00 0.00 0.00 0.00 0.00 0.00 0.00 0.00 0.00 0.00 0.00 0.01 0.01 0.01 0.01 0.01 0.01 0.01 0.01 0.01 0.02 0.04 0.05 0.08 0.11 0.11 0.12 0.13 0.15 0.15 0.13 0.14 0.18 0.19 0.16 0.13 0.14 0.12 0.10 0.06 0.04
0.00 0.00 0.00 0.00 0.00 0.00 0.00 0.00 0.00 0.00 0.00 0.00 0.01 0.01 0.01 0.01 0.01 0.01 0.01 0.01 0.00 0.01 0.01 0.02 0.06 0.08 0.10 0.13 0.14 0.14 0.15 0.13 0.15 0.20 0.23 0.22 0.19 0.18 0.17 0.14 0.10 0.08 0.07
0.00 0.00 0.00 0.00 0.00 0.00 0.00 0.00 0.00 0.00 0.00 0.00 0.01 0.01 0.01 0.01 0.01 0.01 0.01 0.00 0.00 0.01 0.00 0.01 0.03 0.05 0.08 0.11 0.13 0.14 0.14 0.15 0.16 0.20 0.24 0.24 0.23 0.21 0.19 0.16 0.13 0.13 0.09

GFSGL_prec_precacc12_039.txt.gz
Total_Precipitation_Accumulation
0.15 0.11 0.14 0.23 0.46 0.49 0.39 0.34 0.34 0.18 0.15 0.22 0.21 0.16 0.10 0.06 0.03 0.01 0.01 0.02 0.02 0.02 0.02 0.03 0.02 0.01 0.00 0.00 0.00 0.00 0.00 0.00 0.00 0.00 0.00 0.00 0.00 0.00 0.00 0.00 0.00 0.00 0.00
0.13 0.33 0.54 0.46 0.74 0.88 0.77 0.46 0.43 0.17 0.17 0.07 0.02 0.02 0.02 0.01 0.01 0.01 0.03 0.03 0.04 0.08 0.07 0.03 0.02 0.01 0.00 0.00 0.00 0.00 0.00 0.00 0.00 0.00 0.00 0.00 0.00 0.00 0.00 0.00 0.00 0.00 0.00
0.34 0.46 0.47 0.31 0.59 0.43 0.41 0.29 0.14 0.09 0.05 0.02 0.01 0.02 0.02 0.02 0.02 0.02 0.03 0.08 0.11 0.06 0.05 0.04 0.01 0.00 0.00 0.00 0.00 0.00 0.00 0.00 0.00 0.00 0.00 0.00 0.00 0.00 0.00 0.00 0.00 0.00 0.00
0.15 0.17 0.12 0.12 0.20 0.16 0.10 0.07 0.05 0.03 0.03 0.02 0.01 0.01 0.01 0.01 0.01 0.04 0.09 0.08 0.09 0.08 0.03 0.01 0.00 0.00 0.00 0.00 0.00 0.00 0.00 0.01 0.00 0.01 0.00 0.00 0.00 0.00 0.00 0.00 0.00 0.00 0.00
0.08 0.06 0.04 0.12 0.03 0.04 0.04 0.02 0.00 0.02 0.01 0.00 0.00 0.00 0.01 0.01 0.04 0.07 0.12 0.12 0.04 0.01 0.00 0.00 0.00 0.00 0.00 0.00 0.00 0.00 0.01 0.01 0.01 0.01 0.01 0.00 0.00 0.00 0.00 0.01 0.01 0.00 0.00
0.02 0.01 0.01 0.02 0.01 0.01 0.00 0.00 0.00 0.00 0.00 0.00 0.00 0.01 0.01 0.03 0.09 0.12 0.06 0.01 0.00 0.00 0.00 0.00 0.00 0.00 0.00 0.00 0.00 0.00 0.00 0.01 0.01 0.01 0.01 0.00 0.00 0.00 0.01 0.02 0.02 0.02 0.01
0.01 0.00 0.00 0.00 0.00 0.00 0.00 0.00 0.00 0.00 0.00 0.00 0.00 0.01 0.04 0.07 0.05 0.02 0.01 0.00 0.01 0.00 0.00 0.00 0.00 0.00 0.00 0.00 0.00 0.00 0.00 0.00 0.00 0.00 0.01 0.00 0.00 0.00 0.02 0.03 0.03 0.02 0.01
0.00 0.00 0.00 0.00 0.00 0.00 0.00 0.00 0.00 0.00 0.00 0.01 0.01 0.03 0.03 0.01 0.01 0.03 0.03 0.01 0.01 0.00 0.00 0.00 0.00 0.00 0.00 0.00 0.00 0.00 0.00 0.00 0.00 0.00 0.00 0.00 0.00 0.01 0.03 0.03 0.03 0.02 0.01
0.00 0.00 0.00 0.00 0.00 0.00 0.00 0.00 0.00 0.00 0.00 0.00 0.00 0.00 0.00 0.00 0.03 0.03 0.02 0.00 0.00 0.00 0.00 0.00 0.00 0.00 0.00 0.00 0.00 0.00 0.00 0.00 0.00 0.00 0.00 0.00 0.00 0.00 0.01 0.03 0.03 0.04 0.03
0.00 0.00 0.00 0.00 0.00 0.00 0.00 0.00 0.00 0.00 0.00 0.00 0.00 0.00 0.03 0.01 0.01 0.00 0.00 0.00 0.00 0.00 0.00 0.00 0.00 0.00 0.00 0.00 0.00 0.00 0.00 0.00 0.01 0.02 0.01 0.00 0.00 0.00 0.01 0.02 0.02 0.04 0.02
0.00 0.00 0.00 0.00 0.00 0.00 0.00 0.00 0.00 0.00 0.00 0.00 0.00 0.00 0.00 0.00 0.00 0.00 0.00 0.00 0.00 0.00 0.00 0.00 0.00 0.00 0.00 0.00 0.00 0.00 0.00 0.01 0.03 0.04 0.05 0.06 0.03 0.02 0.01 0.00 0.01 0.01 0.03
0.00 0.00 0.00 0.00 0.00 0.00 0.00 0.00 0.00 0.00 0.00 0.00 0.00 0.00 0.00 0.00 0.00 0.00 0.00 0.00 0.00 0.00 0.00 0.00 0.00 0.00 0.00 0.00 0.00 0.00 0.00 0.00 0.02 0.04 0.06 0.09 0.11 0.06 0.02 0.01 0.01 0.02 0.05
0.00 0.00 0.00 0.00 0.00 0.00 0.00 0.00 0.00 0.00 0.00 0.00 0.00 0.00 0.00 0.00 0.00 0.00 0.00 0.00 0.00 0.00 0.00 0.00 0.00 0.00 0.00 0.00 0.00 0.00 0.00 0.02 0.05 0.09 0.08 0.05 0.04 0.06 0.07 0.06 0.05 0.05 0.05
0.00 0.00 0.00 0.00 0.00 0.00 0.00 0.00 0.00 0.00 0.00 0.00 0.00 0.00 0.00 0.00 0.00 0.00 0.00 0.00 0.00 0.00 0.00 0.00 0.00 0.00 0.01 0.01 0.01 0.02 0.02 0.03 0.06 0.08 0.07 0.06 0.06 0.08 0.12 0.16 0.18 0.10 0.05
0.00 0.00 0.00 0.00 0.00 0.00 0.00 0.00 0.00 0.00 0.00 0.00 0.00 0.00 0.00 0.00 0.00 0.00 0.00 0.00 0.00 0.00 0.00 0.01 0.01 0.02 0.03 0.04 0.04 0.05 0.08 0.10 0.11 0.12 0.13 0.15 0.15 0.13 0.09 0.04 0.06 0.10 0.09
0.00 0.00 0.00 0.00 0.00 0.00 0.00 0.00 0.00 0.00 0.00 0.00 0.00 0.00 0.00 0.00 0.00 0.00 0.00 0.00 0.00 0.00 0.00 0.01 0.02 0.04 0.04 0.04 0.07 0.08 0.11 0.14 0.13 0.14 0.17 0.21 0.25 0.26 0.28 0.30 0.28 0.22 0.14
0.00 0.00 0.00 0.00 0.00 0.00 0.00 0.00 0.00 0.00 0.00 0.00 0.00 0.00 0.00 0.00 0.00 0.00 0.00 0.00 0.00 0.00 0.00 0.01 0.02 0.03 0.04 0.04 0.05 0.08 0.11 0.12 0.14 0.23 0.24 0.24 0.28 0.29 0.25 0.22 0.19 0.19 0.18
0.00 0.00 0.00 0.00 0.00 0.00 0.00 0.00 0.00 0.00 0.00 0.00 0.00 0.00 0.00 0.00 0.00 0.00 0.00 0.00 0.00 0.00 0.00 0.01 0.01 0.01 0.03 0.04 0.05 0.07 0.09 0.11 0.14 0.14 0.16 0.18 0.19 0.20 0.21 0.16 0.12 0.08 0.05
0.00 0.00 0.00 0.00 0.00 0.01 0.01 0.01 0.00 0.00 0.00 0.00 0.00 0.00 0.00 0.00 0.00 0.00 0.00 0.00 0.00 0.00 0.00 0.00 0.00 0.01 0.01 0.03 0.04 0.04 0.05 0.09 0.12 0.13 0.12 0.13 0.14 0.17 0.19 0.14 0.09 0.08 0.07
0.01 0.03 0.03 0.03 0.03 0.02 0.01 0.00 0.00 0.00 0.00 0.00 0.00 0.00 0.00 0.00 0.00 0.00 0.00 0.00 0.01 0.01 0.01 0.00 0.01 0.01 0.02 0.04 0.05 0.05 0.06 0.07 0.08 0.09 0.10 0.10 0.09 0.09 0.10 0.12 0.12 0.11 0.08
0.15 0.10 0.06 0.04 0.02 0.01 0.01 0.00 0.00 0.00 0.00 0.00 0.00 0.00 0.00 0.00 0.00 0.00 0.00 0.00 0.01 0.01 0.01 0.01 0.01 0.02 0.02 0.03 0.05 0.07 0.11 0.11 0.12 0.14 0.13 0.12 0.14 0.16 0.15 0.16 0.15 0.11 0.08
0.09 0.05 0.02 0.01 0.01 0.01 0.00 0.00 0.00 0.00 0.00 0.00 0.00 0.00 0.00 0.00 0.00 0.00 0.00 0.00 0.01 0.01 0.01 0.01 0.02 0.01 0.03 0.05 0.07 0.11 0.13 0.15 0.17 0.21 0.20 0.18 0.19 0.19 0.20 0.21 0.20 0.19 0.12
0.04 0.03 0.01 0.01 0.00 0.00 0.00 0.00 0.00 0.00 0.00 0.00 0.00 0.00 0.00 0.01 0.01 0.00 0.01 0.00 0.01 0.01 0.01 0.01 0.01 0.02 0.01 0.04 0.08 0.10 0.14 0.15 0.17 0.18 0.19 0.16 0.14 0.17 0.19 0.16 0.14 0.15 0.12
0.01 0.01 0.00 0.00 0.00 0.00 0.00 0.00 0.00 0.00 0.00 0.00 0.00 0.01 0.01 0.01 0.01 0.01 0.01 0.01 0.00 0.00 0.01 0.01 0.01 0.02 0.03 0.04 0.06 0.09 0.11 0.12 0.11 0.12 0.16 0.17 0.14 0.14 0.17 0.16 0.14 0.11 0.10
0.00 0.00 0.00 0.00 0.00 0.00 0.00 0.00 0.00 0.00 0.00 0.00 0.01 0.01 0.01 0.01 0.01 0.01 0.01 0.01 0.00 0.00 0.00 0.00 0.01 0.02 0.02 0.03 0.06 0.09 0.10 0.09 0.11 0.15 0.17 0.17 0.16 0.17 0.20 0.18 0.15 0.15 0.13
0.00 0.00 0.00 0.00 0.00 0.00 0.00 0.00 0.00 0.00 0.00 0.00 0.01 0.01 0.01 0.01 0.01 0.01 0.01 0.00 0.01 0.01 0.00 0.00 0.00 0.01 0.02 0.03 0.05 0.09 0.09 0.09 0.09 0.11 0.15 0.17 0.18 0.19 0.20 0.18 0.16 0.18 0.17

GFSGL_prec_precacc12_042.txt.gz
Total_Precipitation_Accumulation
0.21 0.15 0.14 0.17 0.36 0.49 0.45 0.45 0.47 0.46 0.43 0.32 0.21 0.15 0.12 0.10 0.05 0.01 0.02 0.04 0.04 0.03 0.03 0.04 0.02 0.01 0.01 0.02 0.02 0.01 0.00 0.00 0.00 0.00 0.00 0.00 0.00 0.00 0.00 0.00 0.00 0.00 0.00
0.21 0.38 0.55 0.47 0.81 1.35 1.38 1.05 1.18 1.07 0.60 0.16 0.09 0.07 0.05 0.04 0.02 0.01 0.03 0.04 0.04 0.08 0.07 0.04 0.02 0.01 0.01 0.01 0.01 0.00 0.00 0.00 0.00 0.00 0.00 0.00 0.00 0.00 0.00 0.00 0.00 0.00 0.00
0.49 0.63 0.66 0.51 0.88 0.85 0.58 0.42 0.36 0.43 0.24 0.03 0.03 0.05 0.05 0.04 0.03 0.02 0.03 0.04 0.07 0.05 0.05 0.04 0.03 0.02 0.01 0.00 0.00 0.00 0.00 0.00 0.00 0.00 0.00 0.00 0.00 0.00 0.00 0.00 0.00 0.00 0.00
0.23 0.35 0.26 0.19 0.27 0.26 0.20 0.16 0.12 0.07 0.10 0.05 0.04 0.04 0.02 0.01 0.01 0.01 0.02 0.04 0.09 0.08 0.03 0.01 0.00 0.00 0.00 0.00 0.00 0.00 0.00 0.01 0.00 0.01 0.00 0.00 0.00 0.00 0.00 0.01 0.01 0.01 0.01
0.08 0.13 0.10 0.19 0.12 0.12 0.07 0.05 0.04 0.05 0.06 0.04 0.03 0.02 0.01 0.01 0.01 0.03 0.08 0.11 0.04 0.01 0.00 0.00 0.00 0.00 0.00 0.00 0.00 0.00 0.01 0.01 0.01 0.01 0.01 0.00 0.00 0.00 0.00 0.01 0.02 0.01 0.00
0.04 0.07 0.06 0.08 0.06 0.06 0.03 0.02 0.02 0.03 0.02 0.01 0.01 0.00 0.01 0.02 0.04 0.04 0.04 0.01 0.00 0.00 0.00 0.00 0.00 0.00 0.00 0.00 0.00 0.00 0.00 0.01 0.01 0.01 0.01 0.00 0.00 0.00 0.01 0.02 0.02 0.03 0.02
0.05 0.04 0.04 0.04 0.05 0.04 0.04 0.02 0.01 0.00 0.00 0.00 0.00 0.00 0.00 0.00 0.01 0.00 0.00 0.00 0.01 0.00 0.00 0.00 0.00 0.00 0.00 0.00 0.00 0.00 0.00 0.00 0.00 0.00 0.01 0.00 0.00 0.00 0.02 0.03 0.03 0.03 0.02
0.02 0.03 0.03 0.03 0.03 0.03 0.01 0.00 0.00 0.00 0.00 0.00 0.00 0.00 0.00 0.00 0.00 0.00 0.01 0.01 0.01 0.00 0.00 0.00 0.00 0.00 0.00 0.00 0.00 0.00 0.00 0.00 0.00 0.00 0.00 0.00 0.00 0.01 0.03 0.04 0.03 0.03 0.02
0.02 0.02 0.02 0.02 0.02 0.01 0.00 0.00 0.00 0.00 0.00 0.00 0.00 0.00 0.00 0.00 0.00 0.00 0.01 0.00 0.00 0.00 0.00 0.00 0.00 0.00 0.00 0.00 0.00 0.00 0.00 0.00 0.00 0.00 0.00 0.00 0.00 0.00 0.01 0.03 0.03 0.05 0.04
0.00 0.00 0.00 0.00 0.00 0.00 0.00 0.00 0.00 0.00 0.00 0.00 0.00 0.00 0.00 0.00 0.00 0.00 0.00 0.00 0.00 0.00 0.00 0.00 0.00 0.00 0.00 0.00 0.00 0.00 0.00 0.00 0.01 0.02 0.01 0.00 0.00 0.00 0.01 0.02 0.02 0.06 0.06
0.00 0.00 0.00 0.00 0.00 0.00 0.00 0.00 0.00 0.00 0.00 0.00 0.00 0.00 0.00 0.00 0.00 0.00 0.00 0.00 0.00 0.00 0.00 0.00 0.00 0.00 0.00 0.00 0.00 0.00 0.00 0.01 0.03 0.04 0.05 0.06 0.03 0.02 0.01 0.00 0.01 0.04 0.08
0.00 0.00 0.00 0.00 0.00 0.00 0.00 0.00 0.00 0.00 0.00 0.00 0.00 0.00 0.00 0.00 0.00 0.00 0.00 0.00 0.00 0.00 0.00 0.00 0.00 0.00 0.00 0.00 0.00 0.00 0.00 0.00 0.02 0.04 0.06 0.09 0.12 0.06 0.02 0.01 0.01 0.03 0.05
0.00 0.00 0.00 0.00 0.00 0.00 0.00 0.00 0.00 0.00 0.00 0.00 0.00 0.00 0.00 0.00 0.00 0.00 0.00 0.00 0.00 0.00 0.00 0.00 0.00 0.00 0.00 0.00 0.00 0.00 0.00 0.02 0.05 0.08 0.08 0.05 0.04 0.06 0.07 0.06 0.06 0.05 0.05
0.00 0.00 0.00 0.00 0.00 0.00 0.00 0.00 0.00 0.00 0.00 0.00 0.00 0.00 0.00 0.00 0.00 0.00 0.00 0.00 0.00 0.00 0.00 0.00 0.00 0.00 0.00 0.00 0.01 0.01 0.02 0.03 0.06 0.08 0.07 0.06 0.06 0.08 0.12 0.17 0.19 0.11 0.07
0.00 0.00 0.00 0.00 0.00 0.00 0.00 0.00 0.00 0.00 0.00 0.00 0.00 0.00 0.00 0.00 0.00 0.00 0.00 0.00 0.00 0.00 0.00 0.00 0.00 0.01 0.01 0.01 0.01 0.02 0.04 0.08 0.10 0.11 0.12 0.12 0.12 0.12 0.08 0.04 0.06 0.11 0.13
0.00 0.00 0.00 0.00 0.00 0.00 0.00 0.00 0.00 0.00 0.00 0.00 0.00 0.00 0.00 0.00 0.00 0.00 0.00 0.00 0.00 0.00 0.00 0.00 0.01 0.01 0.01 0.01 0.01 0.02 0.03 0.04 0.06 0.08 0.11 0.16 0.20 0.24 0.27 0.30 0.28 0.24 0.19
0.00 0.00 0.00 0.00 0.00 0.00 0.00 0.00 0.00 0.00 0.00 0.00 0.00 0.00 0.00 0.00 0.00 0.00 0.00 0.00 0.00 0.00 0.00 0.00 0.00 0.01 0.01 0.01 0.01 0.02 0.03 0.05 0.08 0.13 0.17 0.20 0.23 0.25 0.23 0.22 0.21 0.23 0.21
0.00 0.00 0.00 0.00 0.00 0.00 0.00 0.00 0.00 0.00 0.01 0.01 0.00 0.00 0.00 0.00 0.00 0.00 0.00 0.00 0.00 0.00 0.00 0.00 0.00 0.00 0.00 0.01 0.01 0.01 0.04 0.07 0.08 0.09 0.11 0.15 0.16 0.17 0.19 0.16 0.13 0.11 0.08
0.00 0.00 0.00 0.00 0.00 0.02 0.03 0.04 0.03 0.02 0.01 0.01 0.00 0.00 0.00 0.00 0.00 0.00 0.00 0.00 0.00 0.00 0.00 0.00 0.00 0.00 0.00 0.01 0.01 0.02 0.02 0.03 0.03 0.06 0.07 0.10 0.12 0.16 0.17 0.14 0.10 0.08 0.09
0.04 0.05 0.07 0.10 0.14 0.13 0.10 0.06 0.03 0.02 0.01 0.01 0.00 0.00 0.00 0.00 0.00 0.00 0.00 0.00 0.00 0.00 0.00 0.00 0.00 0.00 0.01 0.01 0.02 0.02 0.02 0.02 0.03 0.04 0.06 0.08 0.08 0.08 0.10 0.12 0.13 0.12 0.10
0.25 0.23 0.21 0.17 0.13 0.10 0.07 0.05 0.03 0.03 0.02 0.01 0.00 0.00 0.00 0.00 0.00 0.00 0.00 0.00 0.00 0.00 0.00 0.01 0.00 0.01 0.01 0.02 0.02 0.02 0.03 0.03 0.08 0.11 0.12 0.11 0.11 0.14 0.14 0.17 0.16 0.12 0.09
0.20 0.16 0.12 0.10 0.08 0.07 0.05 0.03 0.02 0.01 0.01 0.00 0.00 0.00 0.00 0.00 0.00 0.00 0.00 0.00 0.01 0.01 0.01 0.01 0.01 0.01 0.01 0.01 0.03 0.04 0.03 0.04 0.08 0.16 0.18 0.17 0.16 0.16 0.18 0.21 0.22 0.22 0.17
0.11 0.09 0.07 0.05 0.04 0.02 0.01 0.01 0.01 0.00 0.00 0.00 0.00 0.00 0.00 0.01 0.01 0.01 0.01 0.01 0.01 0.00 0.00 0.01 0.01 0.01 0.01 0.02 0.03 0.04 0.06 0.05 0.08 0.11 0.15 0.13 0.12 0.13 0.16 0.17 0.17 0.17 0.14
0.05 0.04 0.03 0.02 0.01 0.01 0.01 0.00 0.00 0.00 0.00 0.00 0.01 0.01 0.01 0.01 0.01 0.01 0.01 0.01 0.01 0.00 0.00 0.01 0.01 0.01 0.02 0.01 0.01 0.02 0.05 0.08 0.07 0.08 0.14 0.16 0.12 0.10 0.14 0.16 0.17 0.16 0.14
0.02 0.01 0.01 0.00 0.00 0.00 0.00 0.00 0.01 0.00 0.00 0.00 0.01 0.01 0.00 0.00 0.00 0.00 0.01 0.00 0.00 0.00 0.00 0.00 0.01 0.01 0.01 0.01 0.01 0.02 0.04 0.04 0.06 0.09 0.12 0.15 0.14 0.14 0.17 0.17 0.18 0.19 0.17
0.00 0.00 0.00 0.00 0.01 0.01 0.01 0.01 0.01 0.01 0.01 0.01 0.01 0.00 0.01 0.01 0.00 0.00 0.00 0.00 0.01 0.00 0.00 0.00 0.00 0.00 0.01 0.01 0.01 0.03 0.02 0.03 0.05 0.07 0.11 0.13 0.14 0.13 0.14 0.16 0.17 0.21 0.21

GFSGL_prec_precacc12_045.txt.gz
Total_Precipitation_Accumulation
0.28 0.27 0.19 0.17 0.30 0.43 0.44 0.48 0.50 0.51 0.51 0.52 0.46 0.34 0.22 0.13 0.06 0.02 0.02 0.04 0.04 0.04 0.05 0.06 0.06 0.04 0.03 0.02 0.02 0.01 0.00 0.00 0.00 0.00 0.00 0.00 0.00 0.00 0.00 0.00 0.00 0.00 0.00
0.30 0.52 0.65 0.50 0.82 1.35 1.42 1.13 1.38 1.42 1.07 0.78 0.58 0.29 0.09 0.05 0.03 0.01 0.03 0.05 0.06 0.07 0.07 0.07 0.06 0.04 0.01 0.01 0.01 0.01 0.00 0.00 0.00 0.00 0.00 0.00 0.00 0.00 0.00 0.00 0.00 0.00 0.00
0.51 0.65 0.71 0.57 0.94 0.88 0.60 0.44 0.36 0.47 0.44 0.23 0.12 0.08 0.06 0.05 0.03 0.03 0.04 0.05 0.06 0.05 0.07 0.07 0.04 0.02 0.01 0.01 0.00 0.00 0.00 0.00 0.00 0.00 0.00 0.00 0.00 0.00 0.00 0.00 0.00 0.00 0.00
0.23 0.33 0.26 0.19 0.31 0.28 0.22 0.16 0.17 0.15 0.12 0.07 0.06 0.07 0.05 0.04 0.04 0.04 0.03 0.03 0.04 0.06 0.04 0.01 0.00 0.00 0.00 0.00 0.00 0.00 0.00 0.00 0.00 0.00 0.00 0.00 0.00 0.00 0.00 0.01 0.01 0.01 0.01
0.05 0.10 0.09 0.20 0.16 0.13 0.09 0.06 0.08 0.12 0.16 0.10 0.09 0.06 0.05 0.04 0.04 0.03 0.01 0.01 0.01 0.00 0.00 0.00 0.00 0.01 0.01 0.00 0.00 0.00 0.00 0.00 0.01 0.01 0.00 0.00 0.00 0.00 0.00 0.01 0.02 0.01 0.00
0.03 0.07 0.06 0.10 0.10 0.10 0.06 0.03 0.05 0.08 0.08 0.08 0.08 0.07 0.06 0.04 0.06 0.02 0.01 0.00 0.00 0.00 0.00 0.00 0.00 0.01 0.00 0.00 0.00 0.00 0.00 0.00 0.00 0.00 0.00 0.00 0.00 0.00 0.01 0.02 0.02 0.03 0.02
0.05 0.04 0.05 0.06 0.08 0.06 0.07 0.04 0.05 0.07 0.02 0.03 0.04 0.03 0.02 0.02 0.02 0.01 0.01 0.00 0.00 0.00 0.00 0.00 0.00 0.00 0.00 0.00 0.00 0.00 0.00 0.00 0.00 0.00 0.00 0.00 0.00 0.00 0.02 0.03 0.03 0.04 0.02
0.03 0.04 0.04 0.04 0.05 0.06 0.05 0.04 0.03 0.01 0.00 0.01 0.00 0.00 0.00 0.01 0.01 0.01 0.01 0.00 0.00 0.00 0.00 0.00 0.00 0.00 0.00 0.00 0.00 0.00 0.00 0.00 0.00 0.00 0.00 0.00 0.00 0.01 0.03 0.04 0.03 0.03 0.02
0.02 0.02 0.03 0.04 0.04 0.03 0.01 0.00 0.00 0.00 0.00 0.00 0.00 0.00 0.00 0.00 0.01 0.00 0.01 0.00 0.00 0.00 0.00 0.00 0.00 0.00 0.00 0.00 0.00 0.00 0.00 0.00 0.00 0.00 0.00 0.00 0.00 0.00 0.01 0.03 0.03 0.06 0.05
0.01 0.01 0.02 0.01 0.01 0.00 0.00 0.00 0.00 0.00 0.00 0.00 0.00 0.00 0.00 0.00 0.00 0.00 0.00 0.00 0.00 0.00 0.00 0.00 0.00 0.00 0.00 0.00 0.00 0.00 0.00 0.00 0.00 0.01 0.01 0.00 0.00 0.00 0.01 0.02 0.03 0.08 0.07
0.01 0.00 0.00 0.00 0.00 0.00 0.00 0.00 0.00 0.00 0.00 0.00 0.00 0.00 0.00 0.00 0.00 0.00 0.00 0.00 0.00 0.00 0.00 0.00 0.00 0.00 0.00 0.00 0.00 0.00 0.00 0.00 0.00 0.02 0.04 0.05 0.03 0.02 0.01 0.00 0.01 0.04 0.09
0.00 0.00 0.00 0.00 0.00 0.00 0.00 0.00 0.00 0.00 0.00 0.00 0.00 0.00 0.00 0.00 0.00 0.00 0.00 0.00 0.00 0.00 0.00 0.00 0.00 0.00 0.00 0.00 0.00 0.00 0.00 0.00 0.01 0.01 0.03 0.08 0.11 0.06 0.02 0.01 0.01 0.03 0.06
0.00 0.00 0.00 0.00 0.00 0.00 0.00 0.00 0.00 0.00 0.00 0.00 0.00 0.00 0.00 0.00 0.00 0.00 0.00 0.00 0.00 0.00 0.00 0.00 0.00 0.00 0.00 0.00 0.00 0.00 0.00 0.00 0.01 0.04 0.05 0.05 0.04 0.06 0.07 0.06 0.06 0.05 0.05
0.00 0.00 0.00 0.00 0.00 0.00 0.00 0.00 0.00 0.00 0.00 0.00 0.00 0.00 0.00 0.00 0.00 0.00 0.00 0.00 0.00 0.00 0.00 0.00 0.00 0.00 0.00 0.00 0.00 0.00 0.00 0.01 0.02 0.03 0.05 0.05 0.05 0.07 0.11 0.17 0.19 0.11 0.07
0.00 0.00 0.00 0.00 0.00 0.00 0.00 0.00 0.00 0.00 0.00 0.00 0.00 0.00 0.00 0.00 0.00 0.00 0.00 0.00 0.00 0.00 0.00 0.00 0.00 0.00 0.00 0.00 0.00 0.00 0.00 0.00 0.01 0.02 0.03 0.05 0.07 0.09 0.07 0.04 0.06 0.11 0.13
0.00 0.00 0.00 0.00 0.00 0.00 0.00 0.00 0.00 0.00 0.00 0.00 0.00 0.00 0.00 0.00 0.00 0.00 0.00 0.00 0.00 0.00 0.00 0.00 0.00 0.00 0.00 0.00 0.00 0.00 0.00 0.00 0.00 0.01 0.02 0.03 0.06 0.12 0.21 0.27 0.26 0.23 0.20
0.00 0.00 0.00 0.00 0.00 0.00 0.00 0.00 0.00 0.00 0.00 0.00 0.00 0.00 0.00 0.00 0.00 0.00 0.00 0.00 0.00 0.00 0.00 0.00 0.00 0.00 0.00 0.00 0.00 0.00 0.00 0.00 0.00 0.02 0.08 0.09 0.11 0.13 0.14 0.16 0.18 0.22 0.21
0.00 0.00 0.00 0.00 0.00 0.00 0.00 0.00 0.00 0.00 0.02 0.03 0.03 0.01 0.01 0.00 0.00 0.01 0.01 0.00 0.00 0.00 0.00 0.00 0.00 0.00 0.00 0.00 0.00 0.00 0.00 0.00 0.01 0.00 0.04 0.07 0.08 0.11 0.13 0.13 0.11 0.10 0.08
0.00 0.01 0.01 0.02 0.03 0.03 0.05 0.07 0.08 0.09 0.09 0.07 0.06 0.04 0.04 0.04 0.03 0.03 0.01 0.01 0.00 0.01 0.00 0.01 0.00 0.00 0.00 0.00 0.00 0.00 0.01 0.01 0.00 0.01 0.01 0.03 0.05 0.09 0.12 0.12 0.09 0.08 0.10
0.14 0.14 0.14 0.16 0.19 0.19 0.17 0.13 0.10 0.09 0.08 0.07 0.07 0.06 0.04 0.02 0.01 0.00 0.00 0.00 0.00 0.00 0.00 0.00 0.00 0.00 0.00 0.00 0.01 0.01 0.01 0.01 0.01 0.01 0.01 0.02 0.03 0.04 0.07 0.10 0.12 0.11 0.11
0.30 0.28 0.26 0.23 0.19 0.16 0.14 0.11 0.09 0.09 0.08 0.06 0.05 0.03 0.02 0.01 0.01 0.01 0.01 0.01 0.00 0.00 0.00 0.01 0.00 0.00 0.00 0.01 0.01 0.00 0.01 0.00 0.01 0.02 0.03 0.06 0.08 0.11 0.12 0.13 0.14 0.12 0.09
0.24 0.20 0.16 0.14 0.13 0.12 0.09 0.07 0.06 0.05 0.04 0.03 0.03 0.02 0.02 0.02 0.02 0.02 0.01 0.01 0.01 0.01 0.01 0.00 0.00 0.00 0.01 0.00 0.01 0.03 0.01 0.01 0.00 0.03 0.04 0.05 0.11 0.13 0.15 0.15 0.18 0.21 0.17
0.13 0.11 0.09 0.08 0.07 0.05 0.04 0.04 0.03 0.03 0.03 0.03 0.02 0.02 0.01 0.01 0.01 0.01 0.01 0.01 0.01 0.00 0.00 0.00 0.00 0.00 0.00 0.01 0.02 0.01 0.03 0.02 0.04 0.04 0.05 0.04 0.04 0.09 0.13 0.14 0.15 0.17 0.15
0.06 0.05 0.05 0.04 0.03 0.03 0.03 0.02 0.02 0.01 0.01 0.01 0.00 0.00 0.00 0.00 0.01 0.00 0.00 0.01 0.00 0.00 0.00 0.00 0.00 0.00 0.01 0.01 0.00 0.00 0.02 0.05 0.04 0.03 0.06 0.08 0.06 0.07 0.11 0.12 0.14 0.16 0.15
0.03 0.02 0.01 0.01 0.01 0.00 0.00 0.00 0.00 0.00 0.00 0.00 0.00 0.01 0.00 0.00 0.00 0.00 0.00 0.00 0.00 0.00 0.00 0.00 0.00 0.01 0.00 0.00 0.00 0.01 0.03 0.01 0.01 0.03 0.06 0.07 0.07 0.09 0.14 0.14 0.15 0.18 0.18
0.00 0.00 0.00 0.00 0.00 0.00 0.00 0.01 0.00 0.00 0.00 0.00 0.00 0.00 0.01 0.01 0.00 0.00 0.00 0.00 0.00 0.00 0.00 0.00 0.00 0.00 0.00 0.00 0.01 0.02 0.00 0.01 0.01 0.02 0.06 0.07 0.08 0.08 0.11 0.10 0.11 0.18 0.22

GFSGL_prec_precacc12_048.txt.gz
Total_Precipitation_Accumulation
0.28 0.24 0.13 0.07 0.12 0.31 0.37 0.35 0.39 0.45 0.48 0.52 0.50 0.40 0.29 0.25 0.29 0.28 0.16 0.12 0.10 0.07 0.05 0.07 0.07 0.08 0.08 0.07 0.06 0.04 0.02 0.01 0.01 0.00 0.00 0.00 0.00 0.00 0.00 0.00 0.00 0.00 0.00
0.32 0.42 0.46 0.45 0.63 1.22 1.27 1.09 1.34 1.40 1.08 0.87 0.67 0.44 0.30 0.18 0.11 0.09 0.04 0.04 0.07 0.07 0.07 0.08 0.08 0.08 0.08 0.07 0.05 0.03 0.02 0.00 0.00 0.00 0.00 0.00 0.00 0.00 0.00 0.00 0.00 0.00 0.00
0.51 0.58 0.57 0.55 0.71 0.80 0.53 0.39 0.33 0.47 0.47 0.28 0.19 0.12 0.08 0.05 0.03 0.03 0.03 0.03 0.04 0.04 0.07 0.08 0.08 0.07 0.05 0.03 0.02 0.00 0.00 0.00 0.00 0.00 0.00 0.00 0.00 0.00 0.00 0.00 0.00 0.00 0.00
0.20 0.27 0.24 0.15 0.21 0.27 0.25 0.21 0.18 0.17 0.16 0.16 0.14 0.14 0.08 0.04 0.03 0.03 0.02 0.03 0.04 0.05 0.05 0.03 0.03 0.01 0.01 0.00 0.00 0.00 0.00 0.00 0.00 0.00 0.00 0.00 0.00 0.00 0.00 0.01 0.01 0.01 0.01
0.02 0.08 0.08 0.13 0.15 0.14 0.10 0.11 0.14 0.17 0.24 0.19 0.18 0.09 0.08 0.08 0.07 0.05 0.02 0.02 0.03 0.02 0.01 0.01 0.01 0.01 0.01 0.01 0.00 0.00 0.00 0.00 0.00 0.00 0.00 0.00 0.00 0.00 0.00 0.01 0.02 0.01 0.00
0.02 0.06 0.05 0.09 0.09 0.10 0.06 0.05 0.09 0.10 0.11 0.13 0.15 0.12 0.09 0.09 0.13 0.07 0.02 0.01 0.01 0.01 0.01 0.00 0.00 0.02 0.00 0.00 0.00 0.00 0.00 0.00 0.00 0.00 0.00 0.00 0.00 0.00 0.00 0.02 0.02 0.03 0.02
0.04 0.04 0.05 0.06 0.08 0.06 0.08 0.06 0.08 0.11 0.07 0.07 0.09 0.10 0.10 0.08 0.10 0.04 0.03 0.00 0.00 0.00 0.00 0.00 0.00 0.01 0.01 0.00 0.00 0.00 0.00 0.00 0.00 0.00 0.00 0.00 0.00 0.00 0.02 0.03 0.03 0.04 0.03
0.03 0.04 0.04 0.04 0.05 0.06 0.06 0.08 0.08 0.07 0.07 0.05 0.05 0.06 0.05 0.04 0.06 0.03 0.02 0.00 0.00 0.00 0.00 0.00 0.00 0.01 0.01 0.00 0.00 0.00 0.00 0.00 0.00 0.00 0.00 0.00 0.00 0.00 0.01 0.03 0.03 0.03 0.02
0.02 0.02 0.03 0.05 0.05 0.05 0.05 0.04 0.05 0.06 0.06 0.05 0.04 0.04 0.02 0.02 0.04 0.02 0.01 0.00 0.00 0.01 0.01 0.01 0.01 0.01 0.01 0.00 0.00 0.00 0.00 0.00 0.00 0.00 0.00 0.00 0.00 0.00 0.01 0.03 0.03 0.06 0.05
0.01 0.01 0.02 0.02 0.02 0.01 0.02 0.02 0.03 0.04 0.03 0.02 0.01 0.01 0.01 0.01 0.03 0.02 0.01 0.00 0.01 0.01 0.01 0.01 0.01 0.00 0.00 0.00 0.00 0.00 0.00 0.00 0.00 0.00 0.00 0.00 0.00 0.00 0.01 0.02 0.03 0.08 0.07
0.01 0.01 0.01 0.00 0.00 0.00 0.00 0.01 0.01 0.01 0.01 0.01 0.00 0.00 0.00 0.00 0.01 0.01 0.01 0.00 0.00 0.00 0.00 0.00 0.00 0.00 0.00 0.00 0.00 0.00 0.00 0.00 0.00 0.00 0.00 0.00 0.00 0.00 0.00 0.00 0.01 0.04 0.09
0.02 0.01 0.00 0.00 0.00 0.00 0.01 0.01 0.02 0.01 0.00 0.00 0.00 0.00 0.00 0.00 0.00 0.01 0.00 0.00 0.00 0.00 0.00 0.00 0.00 0.00 0.00 0.00 0.00 0.00 0.00 0.00 0.00 0.00 0.00 0.00 0.01 0.01 0.01 0.01 0.01 0.03 0.05
0.02 0.01 0.00 0.00 0.00 0.00 0.00 0.01 0.00 0.00 0.00 0.00 0.00 0.00 0.00 0.00 0.00 0.00 0.00 0.00 0.00 0.00 0.00 0.00 0.00 0.00 0.00 0.00 0.00 0.00 0.00 0.00 0.00 0.01 0.02 0.02 0.01 0.01 0.02 0.03 0.05 0.05 0.05
0.01 0.00 0.00 0.00 0.00 0.00 0.00 0.00 0.00 0.00 0.00 0.00 0.00 0.00 0.00 0.00 0.00 0.00 0.00 0.00 0.00 0.00 0.00 0.00 0.00 0.00 0.00 0.00 0.00 0.00 0.00 0.00 0.00 0.00 0.01 0.01 0.01 0.01 0.03 0.12 0.16 0.10 0.07
0.00 0.00 0.00 0.00 0.00 0.00 0.00 0.00 0.00 0.00 0.00 0.00 0.00 0.00 0.00 0.00 0.00 0.00 0.00 0.00 0.00 0.00 0.00 0.00 0.00 0.00 0.00 0.00 0.00 0.00 0.00 0.00 0.00 0.00 0.00 0.00 0.00 0.00 0.01 0.01 0.04 0.09 0.11
0.00 0.00 0.00 0.00 0.00 0.00 0.00 0.00 0.00 0.00 0.00 0.00 0.00 0.00 0.00 0.00 0.00 0.00 0.00 0.00 0.00 0.00 0.00 0.00 0.00 0.00 0.00 0.00 0.00 0.00 0.00 0.00 0.00 0.00 0.00 0.00 0.00 0.01 0.02 0.04 0.12 0.14 0.14
0.00 0.00 0.00 0.00 0.00 0.00 0.00 0.00 0.00 0.01 0.02 0.02 0.03 0.02 0.01 0.01 0.00 0.00 0.00 0.00 0.00 0.00 0.00 0.00 0.00 0.00 0.00 0.00 0.00 0.00 0.00 0.00 0.00 0.00 0.01 0.00 0.02 0.05 0.07 0.08 0.08 0.14 0.15
0.00 0.00 0.00 0.00 0.00 0.01 0.01 0.01 0.02 0.04 0.06 0.07 0.05 0.02 0.02 0.02 0.03 0.04 0.04 0.04 0.03 0.02 0.01 0.01 0.01 0.01 0.01 0.00 0.00 0.00 0.00 0.00 0.00 0.00 0.00 0.00 0.01 0.04 0.05 0.04 0.05 0.06 0.06
0.06 0.08 0.09 0.09 0.09 0.09 0.10 0.11 0.12 0.14 0.14 0.13 0.13 0.12 0.12 0.11 0.09 0.09 0.07 0.06 0.06 0.05 0.04 0.04 0.03 0.02 0.01 0.00 0.00 0.00 0.00 0.00 0.00 0.00 0.00 0.00 0.01 0.02 0.03 0.04 0.06 0.06 0.09
0.31 0.27 0.23 0.22 0.25 0.25 0.24 0.21 0.18 0.17 0.16 0.15 0.14 0.13 0.10 0.07 0.06 0.05 0.04 0.03 0.03 0.03 0.03 0.02 0.01 0.00 0.00 0.00 0.00 0.00 0.00 0.00 0.00 0.00 0.00 0.01 0.01 0.01 0.02 0.03 0.07 0.09 0.09
0.34 0.32 0.30 0.27 0.24 0.22 0.18 0.15 0.13 0.13 0.11 0.09 0.09 0.07 0.05 0.03 0.03 0.03 0.03 0.02 0.02 0.01 0.01 0.01 0.00 0.00 0.00 0.00 0.00 0.00 0.01 0.00 0.00 0.00 0.01 0.01 0.01 0.03 0.02 0.07 0.09 0.09 0.08
0.28 0.24 0.20 0.16 0.15 0.13 0.10 0.08 0.07 0.06 0.06 0.05 0.04 0.04 0.03 0.02 0.03 0.02 0.02 0.01 0.01 0.01 0.00 0.00 0.00 0.00 0.00 0.00 0.00 0.01 0.01 0.00 0.00 0.01 0.02 0.01 0.02 0.04 0.06 0.07 0.11 0.16 0.14
0.14 0.12 0.10 0.09 0.08 0.06 0.05 0.04 0.04 0.03 0.04 0.03 0.03 0.02 0.01 0.01 0.00 0.00 0.01 0.01 0.01 0.00 0.00 0.00 0.00 0.00 0.00 0.00 0.01 0.00 0.01 0.01 0.02 0.04 0.03 0.02 0.01 0.03 0.06 0.07 0.09 0.12 0.12
0.07 0.06 0.05 0.05 0.04 0.03 0.03 0.02 0.02 0.01 0.01 0.00 0.00 0.00 0.00 0.00 0.00 0.00 0.00 0.00 0.00 0.00 0.00 0.00 0.00 0.00 0.00 0.00 0.00 0.00 0.01 0.03 0.04 0.02 0.03 0.04 0.02 0.02 0.05 0.07 0.08 0.12 0.12
0.03 0.02 0.02 0.01 0.00 0.00 0.00 0.00 0.00 0.00 0.00 0.00 0.00 0.00 0.00 0.00 0.00 0.00 0.00 0.00 0.00 0.00 0.00 0.00 0.00 0.00 0.00 0.00 0.00 0.00 0.02 0.01 0.00 0.01 0.04 0.04 0.03 0.03 0.06 0.08 0.10 0.14 0.14
0.00 0.00 0.00 0.00 0.00 0.00 0.00 0.00 0.00 0.00 0.00 0.00 0.00 0.00 0.01 0.00 0.00 0.00 0.00 0.00 0.00 0.00 0.00 0.00 0.00 0.00 0.00 0.00 0.00 0.02 0.00 0.00 0.00 0.01 0.03 0.04 0.04 0.03 0.05 0.06 0.08 0.13 0.17

GFSGL_prec_precacc12_051.txt.gz
Total_Precipitation_Accumulation
0.14 0.19 0.09 0.04 0.03 0.10 0.16 0.21 0.21 0.36 0.39 0.36 0.38 0.36 0.28 0.25 0.30 0.36 0.40 0.44 0.43 0.37 0.31 0.24 0.15 0.15 0.13 0.11 0.09 0.06 0.04 0.02 0.02 0.01 0.00 0.00 0.00 0.00 0.00 0.00 0.00 0.00 0.00
0.20 0.22 0.22 0.16 0.20 0.60 0.78 0.77 1.03 1.30 0.97 0.83 0.66 0.43 0.28 0.18 0.12 0.12 0.16 0.18 0.20 0.18 0.16 0.15 0.13 0.12 0.11 0.09 0.07 0.05 0.03 0.02 0.01 0.01 0.00 0.00 0.00 0.00 0.00 0.00 0.00 0.00 0.00
0.18 0.22 0.28 0.34 0.44 0.54 0.26 0.22 0.27 0.43 0.44 0.27 0.18 0.12 0.08 0.05 0.03 0.03 0.06 0.12 0.16 0.10 0.07 0.08 0.09 0.10 0.07 0.04 0.03 0.02 0.02 0.01 0.01 0.00 0.00 0.00 0.00 0.00 0.00 0.00 0.00 0.00 0.00
0.09 0.19 0.17 0.14 0.16 0.19 0.20 0.17 0.14 0.15 0.14 0.15 0.14 0.15 0.10 0.05 0.03 0.03 0.02 0.03 0.03 0.03 0.05 0.03 0.04 0.03 0.02 0.03 0.03 0.02 0.01 0.01 0.00 0.00 0.00 0.00 0.00 0.00 0.00 0.00 0.00 0.00 0.01
0.01 0.08 0.07 0.09 0.13 0.11 0.06 0.09 0.15 0.16 0.24 0.21 0.20 0.11 0.10 0.10 0.08 0.08 0.03 0.02 0.03 0.03 0.02 0.02 0.03 0.05 0.06 0.03 0.01 0.00 0.00 0.00 0.00 0.00 0.00 0.00 0.00 0.00 0.00 0.00 0.00 0.00 0.00
0.02 0.06 0.05 0.08 0.09 0.10 0.05 0.05 0.09 0.11 0.13 0.18 0.20 0.19 0.15 0.14 0.22 0.17 0.10 0.05 0.03 0.03 0.03 0.02 0.04 0.06 0.02 0.02 0.01 0.00 0.00 0.00 0.00 0.00 0.00 0.00 0.00 0.00 0.00 0.00 0.00 0.01 0.02
0.04 0.04 0.05 0.06 0.08 0.06 0.08 0.06 0.08 0.11 0.09 0.10 0.11 0.15 0.17 0.16 0.23 0.13 0.13 0.06 0.06 0.06 0.03 0.02 0.01 0.01 0.02 0.00 0.01 0.01 0.00 0.00 0.00 0.00 0.00 0.00 0.00 0.00 0.00 0.00 0.00 0.01 0.01
0.03 0.03 0.04 0.04 0.05 0.06 0.06 0.08 0.08 0.07 0.09 0.08 0.08 0.10 0.08 0.09 0.15 0.09 0.07 0.02 0.02 0.02 0.02 0.01 0.01 0.01 0.01 0.01 0.00 0.00 0.00 0.00 0.00 0.00 0.00 0.00 0.00 0.00 0.00 0.00 0.01 0.01 0.01
0.02 0.02 0.03 0.05 0.05 0.05 0.05 0.04 0.05 0.07 0.10 0.10 0.08 0.08 0.06 0.07 0.10 0.05 0.04 0.00 0.01 0.02 0.01 0.01 0.01 0.01 0.02 0.02 0.00 0.00 0.00 0.00 0.00 0.00 0.00 0.00 0.00 0.00 0.00 0.00 0.00 0.02 0.02
0.01 0.01 0.02 0.02 0.02 0.01 0.03 0.02 0.04 0.06 0.06 0.05 0.05 0.04 0.06 0.04 0.09 0.05 0.03 0.00 0.01 0.01 0.01 0.02 0.03 0.01 0.02 0.01 0.00 0.00 0.00 0.00 0.00 0.00 0.00 0.00 0.00 0.00 0.00 0.00 0.01 0.05 0.05
0.01 0.01 0.03 0.03 0.03 0.02 0.01 0.01 0.02 0.02 0.02 0.02 0.03 0.02 0.03 0.03 0.04 0.04 0.02 0.00 0.00 0.00 0.01 0.01 0.01 0.02 0.01 0.00 0.00 0.00 0.00 0.00 0.00 0.00 0.00 0.00 0.00 0.00 0.00 0.00 0.00 0.02 0.05
0.03 0.04 0.05 0.05 0.04 0.02 0.01 0.02 0.02 0.02 0.02 0.03 0.02 0.02 0.02 0.02 0.03 0.02 0.02 0.01 0.01 0.00 0.00 0.00 0.00 0.01 0.00 0.00 0.00 0.00 0.00 0.00 0.00 0.00 0.00 0.00 0.00 0.00 0.00 0.00 0.00 0.00 0.01
0.06 0.07 0.08 0.05 0.02 0.01 0.01 0.01 0.02 0.03 0.03 0.05 0.04 0.03 0.02 0.00 0.01 0.02 0.01 0.01 0.01 0.00 0.00 0.00 0.00 0.00 0.00 0.00 0.00 0.00 0.00 0.00 0.00 0.00 0.00 0.00 0.00 0.00 0.00 0.00 0.00 0.00 0.00
0.03 0.03 0.01 0.00 0.00 0.00 0.01 0.01 0.01 0.02 0.02 0.02 0.01 0.00 0.00 0.00 0.00 0.00 0.00 0.00 0.00 0.00 0.00 0.00 0.00 0.00 0.00 0.00 0.00 0.00 0.00 0.00 0.00 0.00 0.00 0.00 0.00 0.00 0.00 0.00 0.00 0.01 0.02
0.01 0.00 0.00 0.00 0.00 0.00 0.00 0.00 0.01 0.00 0.00 0.00 0.00 0.00 0.00 0.00 0.00 0.00 0.00 0.00 0.00 0.00 0.00 0.00 0.00 0.00 0.00 0.00 0.00 0.00 0.00 0.00 0.00 0.00 0.00 0.00 0.00 0.00 0.00 0.00 0.00 0.01 0.04
0.00 0.00 0.00 0.00 0.00 0.00 0.00 0.00 0.00 0.01 0.01 0.01 0.01 0.02 0.03 0.02 0.02 0.02 0.01 0.01 0.00 0.00 0.00 0.00 0.00 0.00 0.00 0.00 0.00 0.00 0.00 0.01 0.01 0.01 0.00 0.00 0.00 0.00 0.00 0.00 0.00 0.03 0.07
0.00 0.00 0.00 0.00 0.00 0.00 0.00 0.00 0.02 0.06 0.08 0.09 0.09 0.08 0.05 0.04 0.02 0.00 0.00 0.00 0.00 0.00 0.01 0.02 0.02 0.02 0.02 0.02 0.01 0.01 0.01 0.00 0.00 0.00 0.00 0.00 0.00 0.01 0.00 0.01 0.02 0.04 0.04
0.05 0.06 0.03 0.04 0.05 0.06 0.06 0.06 0.07 0.08 0.10 0.11 0.09 0.05 0.04 0.04 0.04 0.06 0.06 0.05 0.05 0.03 0.03 0.03 0.03 0.03 0.02 0.01 0.01 0.01 0.00 0.00 0.00 0.00 0.00 0.00 0.00 0.01 0.01 0.01 0.02 0.03 0.04
0.38 0.37 0.32 0.26 0.20 0.16 0.14 0.14 0.14 0.16 0.16 0.17 0.18 0.17 0.17 0.16 0.13 0.12 0.09 0.08 0.08 0.07 0.06 0.06 0.05 0.04 0.03 0.02 0.01 0.00 0.00 0.00 0.00 0.00 0.00 0.00 0.00 0.01 0.01 0.01 0.01 0.02 0.04
0.48 0.38 0.28 0.25 0.26 0.27 0.27 0.23 0.21 0.19 0.19 0.18 0.17 0.15 0.12 0.08 0.07 0.06 0.05 0.05 0.05 0.05 0.05 0.04 0.03 0.02 0.01 0.00 0.00 0.00 0.00 0.00 0.00 0.00 0.00 0.00 0.01 0.01 0.01 0.01 0.01 0.02 0.04
0.27 0.29 0.30 0.29 0.27 0.25 0.21 0.18 0.16 0.15 0.13 0.11 0.10 0.08 0.06 0.04 0.04 0.04 0.04 0.03 0.02 0.02 0.01 0.01 0.00 0.00 0.00 0.00 0.00 0.00 0.00 0.00 0.00 0.00 0.00 0.01 0.01 0.01 0.01 0.01 0.01 0.02 0.03
0.23 0.23 0.20 0.17 0.16 0.14 0.11 0.09 0.08 0.07 0.06 0.06 0.06 0.05 0.04 0.03 0.03 0.03 0.02 0.01 0.01 0.01 0.00 0.00 0.00 0.00 0.00 0.00 0.00 0.00 0.00 0.00 0.00 0.01 0.01 0.01 0.01 0.01 0.02 0.02 0.02 0.04 0.06
0.11 0.10 0.09 0.09 0.08 0.06 0.05 0.05 0.04 0.04 0.04 0.04 0.03 0.02 0.01 0.01 0.00 0.00 0.01 0.01 0.01 0.00 0.00 0.00 0.00 0.00 0.00 0.00 0.00 0.00 0.01 0.01 0.01 0.03 0.03 0.02 0.01 0.01 0.02 0.04 0.05 0.05 0.05
0.06 0.05 0.05 0.05 0.04 0.03 0.03 0.02 0.02 0.01 0.01 0.00 0.00 0.00 0.00 0.00 0.00 0.00 0.00 0.00 0.00 0.00 0.00 0.00 0.00 0.00 0.00 0.00 0.00 0.00 0.01 0.02 0.03 0.02 0.02 0.03 0.02 0.01 0.02 0.03 0.05 0.07 0.07
0.03 0.02 0.02 0.01 0.00 0.00 0.00 0.00 0.00 0.00 0.00 0.00 0.00 0.00 0.00 0.00 0.00 0.00 0.00 0.00 0.00 0.00 0.00 0.00 0.00 0.00 0.00 0.00 0.00 0.00 0.01 0.01 0.00 0.01 0.02 0.02 0.02 0.02 0.03 0.03 0.04 0.06 0.08
0.00 0.00 0.00 0.00 0.00 0.00 0.00 0.00 0.00 0.00 0.00 0.00 0.00 0.00 0.01 0.00 0.00 0.00 0.00 0.00 0.00 0.00 0.00 0.00 0.00 0.00 0.00 0.00 0.00 0.01 0.00 0.00 0.00 0.00 0.02 0.03 0.02 0.02 0.03 0.03 0.03 0.06 0.09

GFSGL_prec_precacc12_054.txt.gz
Total_Precipitation_Accumulation
0.07 0.14 0.07 0.01 0.00 0.02 0.03 0.04 0.05 0.07 0.10 0.22 0.29 0.27 0.23 0.20 0.28 0.36 0.40 0.43 0.41 0.36 0.31 0.27 0.22 0.24 0.25 0.24 0.23 0.20 0.16 0.14 0.12 0.05 0.02 0.01 0.00 0.00 0.00 0.00 0.00 0.00 0.00
0.12 0.16 0.19 0.11 0.06 0.07 0.12 0.12 0.24 0.37 0.51 0.72 0.59 0.37 0.25 0.15 0.11 0.12 0.15 0.17 0.19 0.19 0.21 0.24 0.23 0.29 0.34 0.28 0.18 0.11 0.09 0.07 0.06 0.04 0.02 0.01 0.01 0.01 0.00 0.00 0.00 0.00 0.00
0.03 0.05 0.08 0.12 0.14 0.09 0.06 0.06 0.03 0.06 0.23 0.25 0.17 0.09 0.05 0.03 0.02 0.03 0.06 0.11 0.16 0.13 0.12 0.12 0.10 0.10 0.08 0.06 0.06 0.06 0.06 0.05 0.04 0.03 0.02 0.01 0.01 0.00 0.00 0.00 0.00 0.00 0.00
0.00 0.00 0.01 0.03 0.06 0.08 0.10 0.07 0.08 0.10 0.07 0.11 0.11 0.12 0.09 0.04 0.03 0.03 0.02 0.03 0.04 0.05 0.05 0.03 0.04 0.04 0.04 0.05 0.06 0.05 0.05 0.04 0.03 0.02 0.02 0.01 0.00 0.00 0.00 0.00 0.00 0.00 0.00
0.00 0.00 0.01 0.02 0.05 0.03 0.03 0.06 0.11 0.13 0.19 0.18 0.18 0.10 0.10 0.09 0.08 0.08 0.04 0.03 0.04 0.04 0.03 0.02 0.03 0.06 0.07 0.03 0.01 0.01 0.00 0.01 0.01 0.01 0.00 0.00 0.00 0.00 0.00 0.00 0.00 0.00 0.00
0.00 0.00 0.01 0.02 0.03 0.04 0.02 0.04 0.06 0.08 0.11 0.17 0.19 0.19 0.15 0.14 0.22 0.20 0.13 0.07 0.05 0.04 0.04 0.03 0.04 0.08 0.03 0.05 0.04 0.03 0.01 0.00 0.00 0.00 0.00 0.00 0.00 0.00 0.00 0.00 0.00 0.00 0.00
0.00 0.01 0.01 0.02 0.03 0.02 0.04 0.04 0.06 0.11 0.09 0.10 0.11 0.15 0.18 0.18 0.26 0.18 0.17 0.08 0.08 0.09 0.06 0.05 0.04 0.05 0.09 0.02 0.05 0.03 0.01 0.00 0.00 0.00 0.00 0.00 0.00 0.00 0.00 0.00 0.00 0.00 0.00
0.00 0.00 0.01 0.01 0.02 0.03 0.05 0.08 0.08 0.08 0.09 0.08 0.09 0.11 0.10 0.11 0.19 0.14 0.13 0.04 0.03 0.03 0.03 0.03 0.03 0.04 0.04 0.04 0.01 0.01 0.00 0.00 0.00 0.00 0.00 0.00 0.00 0.00 0.00 0.00 0.00 0.00 0.00
0.00 0.00 0.01 0.03 0.03 0.04 0.05 0.04 0.05 0.07 0.10 0.10 0.09 0.09 0.08 0.11 0.19 0.10 0.06 0.01 0.02 0.03 0.03 0.04 0.05 0.04 0.10 0.08 0.01 0.00 0.00 0.00 0.00 0.00 0.00 0.00 0.00 0.00 0.00 0.00 0.00 0.01 0.01
0.01 0.01 0.02 0.02 0.02 0.01 0.03 0.02 0.04 0.06 0.06 0.05 0.06 0.06 0.12 0.07 0.16 0.09 0.06 0.01 0.02 0.03 0.03 0.05 0.10 0.05 0.06 0.03 0.01 0.00 0.00 0.00 0.00 0.00 0.00 0.00 0.00 0.00 0.00 0.00 0.01 0.02 0.01
0.01 0.01 0.03 0.03 0.04 0.04 0.01 0.02 0.02 0.02 0.02 0.02 0.04 0.03 0.04 0.07 0.09 0.10 0.07 0.01 0.01 0.03 0.04 0.04 0.05 0.07 0.03 0.01 0.00 0.00 0.00 0.00 0.00 0.00 0.00 0.00 0.00 0.00 0.00 0.00 0.00 0.00 0.01
0.03 0.04 0.05 0.06 0.08 0.06 0.05 0.06 0.05 0.03 0.03 0.03 0.03 0.03 0.03 0.05 0.09 0.09 0.07 0.06 0.06 0.01 0.01 0.01 0.03 0.06 0.01 0.00 0.00 0.00 0.00 0.00 0.00 0.00 0.00 0.00 0.00 0.00 0.00 0.00 0.00 0.00 0.00
0.06 0.07 0.09 0.09 0.06 0.05 0.04 0.04 0.03 0.03 0.04 0.05 0.05 0.06 0.07 0.06 0.08 0.11 0.09 0.07 0.05 0.02 0.01 0.01 0.03 0.02 0.00 0.00 0.00 0.00 0.00 0.00 0.00 0.00 0.00 0.00 0.00 0.00 0.00 0.00 0.00 0.00 0.00
0.03 0.07 0.06 0.05 0.06 0.03 0.02 0.02 0.02 0.03 0.04 0.04 0.04 0.04 0.05 0.07 0.08 0.08 0.05 0.02 0.01 0.00 0.00 0.00 0.00 0.00 0.00 0.00 0.00 0.00 0.00 0.00 0.00 0.00 0.00 0.00 0.00 0.00 0.00 0.00 0.00 0.00 0.00
0.05 0.04 0.02 0.02 0.01 0.00 0.00 0.02 0.02 0.02 0.04 0.02 0.02 0.02 0.03 0.03 0.03 0.02 0.01 0.00 0.01 0.02 0.03 0.02 0.01 0.00 0.00 0.00 0.00 0.00 0.00 0.00 0.00 0.00 0.00 0.00 0.00 0.00 0.00 0.00 0.00 0.00 0.00
0.02 0.01 0.02 0.00 0.00 0.00 0.01 0.03 0.05 0.05 0.04 0.02 0.03 0.03 0.05 0.05 0.06 0.07 0.07 0.06 0.05 0.03 0.02 0.01 0.01 0.00 0.01 0.01 0.01 0.01 0.01 0.01 0.01 0.01 0.00 0.00 0.00 0.00 0.00 0.00 0.00 0.00 0.01
0.02 0.01 0.01 0.02 0.02 0.02 0.02 0.02 0.04 0.11 0.13 0.15 0.14 0.12 0.08 0.08 0.06 0.04 0.03 0.02 0.01 0.01 0.02 0.03 0.04 0.04 0.03 0.03 0.02 0.02 0.02 0.01 0.01 0.00 0.00 0.00 0.00 0.00 0.00 0.00 0.00 0.00 0.00
0.22 0.21 0.21 0.23 0.25 0.25 0.23 0.21 0.18 0.16 0.16 0.18 0.16 0.10 0.08 0.07 0.06 0.07 0.07 0.06 0.06 0.04 0.04 0.04 0.04 0.04 0.03 0.02 0.02 0.01 0.01 0.00 0.00 0.00 0.00 0.00 0.00 0.01 0.01 0.00 0.00 0.01 0.01
0.79 0.78 0.70 0.60 0.48 0.35 0.26 0.20 0.18 0.19 0.21 0.22 0.22 0.21 0.20 0.17 0.15 0.13 0.09 0.09 0.08 0.07 0.06 0.06 0.05 0.04 0.03 0.02 0.01 0.01 0.00 0.00 0.00 0.00 0.00 0.00 0.01 0.01 0.01 0.00 0.00 0.01 0.01
0.65 0.55 0.40 0.31 0.27 0.25 0.25 0.24 0.24 0.23 0.22 0.21 0.19 0.17 0.13 0.09 0.07 0.06 0.06 0.05 0.06 0.06 0.05 0.05 0.03 0.02 0.01 0.00 0.00 0.00 0.00 0.00 0.00 0.00 0.00 0.01 0.01 0.01 0.01 0.01 0.01 0.01 0.01
0.25 0.24 0.21 0.19 0.19 0.19 0.17 0.15 0.14 0.13 0.12 0.11 0.11 0.09 0.06 0.04 0.04 0.04 0.04 0.04 0.03 0.02 0.01 0.01 0.01 0.00 0.00 0.00 0.00 0.00 0.00 0.00 0.00 0.00 0.01 0.01 0.01 0.01 0.01 0.01 0.01 0.01 0.01
0.13 0.13 0.11 0.10 0.09 0.07 0.07 0.06 0.06 0.06 0.06 0.06 0.06 0.05 0.04 0.03 0.03 0.03 0.02 0.01 0.01 0.01 0.01 0.00 0.00 0.00 0.00 0.00 0.00 0.00 0.00 0.00 0.00 0.01 0.01 0.01 0.01 0.01 0.01 0.01 0.01 0.01 0.01
0.03 0.03 0.03 0.04 0.04 0.04 0.04 0.04 0.04 0.04 0.04 0.04 0.03 0.02 0.01 0.01 0.00 0.00 0.00 0.01 0.01 0.00 0.00 0.00 0.00 0.00 0.00 0.00 0.00 0.00 0.01 0.01 0.01 0.02 0.02 0.02 0.01 0.01 0.01 0.02 0.02 0.02 0.02
0.02 0.02 0.02 0.03 0.03 0.03 0.03 0.02 0.02 0.01 0.01 0.00 0.00 0.00 0.00 0.00 0.00 0.00 0.00 0.00 0.00 0.00 0.00 0.00 0.00 0.00 0.00 0.00 0.00 0.00 0.00 0.01 0.02 0.01 0.01 0.02 0.01 0.01 0.02 0.02 0.02 0.03 0.04
0.01 0.01 0.01 0.01 0.00 0.00 0.00 0.00 0.00 0.00 0.00 0.00 0.00 0.00 0.01 0.00 0.00 0.00 0.00 0.00 0.00 0.00 0.00 0.00 0.00 0.00 0.00 0.00 0.00 0.00 0.00 0.01 0.00 0.00 0.02 0.02 0.01 0.01 0.02 0.02 0.02 0.03 0.04
0.00 0.00 0.00 0.00 0.00 0.00 0.00 0.00 0.00 0.00 0.00 0.00 0.00 0.00 0.01 0.00 0.00 0.00 0.00 0.00 0.00 0.00 0.00 0.00 0.00 0.00 0.00 0.00 0.00 0.00 0.00 0.00 0.00 0.00 0.01 0.02 0.02 0.02 0.02 0.02 0.02 0.03 0.05

GFSGL_prec_precacc12_057.txt.gz
Total_Precipitation_Accumulation
0.00 0.02 0.01 0.00 0.00 0.00 0.00 0.00 0.00 0.00 0.00 0.01 0.04 0.06 0.07 0.12 0.24 0.34 0.39 0.42 0.41 0.34 0.30 0.24 0.19 0.22 0.25 0.24 0.25 0.25 0.24 0.25 0.28 0.16 0.08 0.06 0.08 0.09 0.05 0.02 0.00 0.00 0.00
0.03 0.02 0.08 0.05 0.01 0.00 0.01 0.01 0.01 0.01 0.03 0.09 0.09 0.15 0.21 0.13 0.10 0.12 0.15 0.16 0.17 0.17 0.18 0.21 0.20 0.27 0.36 0.31 0.23 0.17 0.13 0.11 0.12 0.08 0.06 0.05 0.05 0.04 0.02 0.00 0.00 0.00 0.00
0.02 0.02 0.03 0.06 0.06 0.03 0.01 0.01 0.00 0.01 0.03 0.05 0.07 0.05 0.02 0.00 0.01 0.01 0.04 0.10 0.13 0.10 0.09 0.11 0.10 0.11 0.09 0.07 0.07 0.07 0.07 0.08 0.10 0.12 0.08 0.05 0.03 0.01 0.00 0.00 0.00 0.00 0.00
0.00 0.00 0.00 0.01 0.02 0.05 0.07 0.06 0.03 0.03 0.05 0.09 0.08 0.08 0.05 0.01 0.00 0.00 0.00 0.01 0.03 0.03 0.05 0.05 0.07 0.05 0.05 0.05 0.07 0.06 0.05 0.05 0.06 0.07 0.04 0.03 0.01 0.00 0.00 0.00 0.00 0.00 0.00
0.00 0.00 0.00 0.00 0.00 0.01 0.02 0.07 0.07 0.06 0.09 0.11 0.11 0.05 0.05 0.06 0.04 0.06 0.03 0.03 0.03 0.03 0.03 0.03 0.04 0.07 0.07 0.04 0.02 0.01 0.01 0.01 0.02 0.02 0.03 0.01 0.01 0.01 0.00 0.00 0.00 0.00 0.00
0.00 0.00 0.00 0.00 0.00 0.00 0.00 0.02 0.03 0.03 0.04 0.10 0.12 0.12 0.10 0.10 0.18 0.19 0.12 0.07 0.05 0.04 0.04 0.05 0.06 0.09 0.05 0.07 0.05 0.04 0.03 0.02 0.01 0.02 0.03 0.02 0.01 0.00 0.00 0.00 0.00 0.00 0.00
0.00 0.00 0.00 0.00 0.00 0.00 0.01 0.01 0.02 0.05 0.07 0.07 0.07 0.12 0.16 0.16 0.24 0.18 0.17 0.09 0.09 0.10 0.07 0.07 0.06 0.08 0.14 0.04 0.09 0.08 0.05 0.05 0.04 0.02 0.02 0.01 0.00 0.00 0.00 0.00 0.00 0.00 0.00
0.00 0.00 0.00 0.00 0.00 0.00 0.01 0.04 0.06 0.06 0.09 0.08 0.08 0.10 0.09 0.11 0.18 0.15 0.15 0.06 0.05 0.06 0.06 0.06 0.06 0.07 0.11 0.11 0.06 0.07 0.06 0.08 0.10 0.10 0.10 0.04 0.00 0.00 0.00 0.00 0.00 0.00 0.00
0.00 0.00 0.00 0.01 0.01 0.01 0.04 0.04 0.05 0.07 0.10 0.10 0.09 0.09 0.09 0.12 0.21 0.14 0.10 0.03 0.06 0.09 0.06 0.07 0.10 0.07 0.22 0.18 0.10 0.11 0.12 0.11 0.06 0.04 0.02 0.00 0.00 0.00 0.00 0.00 0.00 0.00 0.00
0.00 0.00 0.01 0.01 0.01 0.01 0.03 0.02 0.04 0.06 0.06 0.05 0.06 0.06 0.13 0.08 0.25 0.17 0.11 0.02 0.05 0.06 0.05 0.09 0.17 0.10 0.14 0.07 0.03 0.02 0.03 0.04 0.03 0.01 0.01 0.00 0.00 0.00 0.00 0.00 0.00 0.00 0.00
0.00 0.00 0.03 0.03 0.03 0.04 0.01 0.02 0.02 0.03 0.02 0.03 0.04 0.03 0.04 0.09 0.14 0.15 0.11 0.03 0.02 0.06 0.09 0.10 0.15 0.20 0.12 0.08 0.06 0.05 0.05 0.03 0.02 0.01 0.00 0.00 0.00 0.00 0.00 0.00 0.00 0.00 0.00
0.02 0.04 0.05 0.06 0.08 0.06 0.05 0.06 0.06 0.04 0.04 0.04 0.04 0.04 0.04 0.06 0.12 0.12 0.10 0.09 0.13 0.06 0.10 0.12 0.18 0.21 0.12 0.10 0.07 0.05 0.03 0.01 0.00 0.00 0.00 0.00 0.00 0.00 0.00 0.00 0.00 0.00 0.00
0.06 0.07 0.09 0.09 0.06 0.05 0.05 0.06 0.06 0.06 0.07 0.08 0.07 0.08 0.09 0.08 0.11 0.15 0.13 0.12 0.12 0.10 0.14 0.18 0.20 0.17 0.12 0.07 0.03 0.01 0.00 0.00 0.00 0.00 0.00 0.00 0.00 0.00 0.00 0.00 0.00 0.00 0.00
0.03 0.07 0.06 0.05 0.08 0.05 0.05 0.05 0.06 0.06 0.07 0.06 0.06 0.06 0.08 0.09 0.11 0.12 0.12 0.11 0.11 0.12 0.14 0.14 0.11 0.08 0.04 0.02 0.01 0.01 0.01 0.00 0.00 0.00 0.01 0.00 0.00 0.00 0.00 0.00 0.00 0.00 0.00
0.08 0.07 0.06 0.06 0.06 0.05 0.05 0.08 0.05 0.06 0.08 0.05 0.05 0.05 0.06 0.07 0.09 0.10 0.08 0.07 0.08 0.09 0.10 0.09 0.07 0.04 0.03 0.02 0.01 0.00 0.00 0.00 0.00 0.01 0.01 0.01 0.00 0.00 0.00 0.00 0.00 0.00 0.00
0.11 0.10 0.11 0.09 0.07 0.06 0.05 0.08 0.13 0.13 0.13 0.12 0.13 0.12 0.17 0.18 0.21 0.19 0.16 0.13 0.10 0.08 0.06 0.04 0.03 0.03 0.02 0.02 0.02 0.02 0.02 0.01 0.01 0.01 0.01 0.00 0.00 0.00 0.00 0.00 0.00 0.00 0.00
0.13 0.10 0.12 0.15 0.13 0.12 0.11 0.10 0.15 0.27 0.29 0.32 0.31 0.27 0.21 0.20 0.16 0.13 0.11 0.08 0.06 0.06 0.06 0.07 0.07 0.07 0.06 0.04 0.03 0.02 0.02 0.02 0.01 0.00 0.00 0.00 0.00 0.00 0.00 0.00 0.00 0.00 0.00
0.49 0.51 0.47 0.49 0.51 0.51 0.46 0.45 0.42 0.39 0.36 0.34 0.28 0.19 0.17 0.16 0.15 0.15 0.14 0.11 0.09 0.07 0.06 0.06 0.06 0.05 0.03 0.02 0.02 0.01 0.01 0.01 0.00 0.00 0.00 0.00 0.01 0.01 0.01 0.00 0.00 0.00 0.01
1.16 1.20 1.14 1.06 0.94 0.73 0.53 0.40 0.31 0.27 0.24 0.25 0.25 0.23 0.22 0.18 0.15 0.13 0.11 0.10 0.09 0.07 0.06 0.06 0.05 0.04 0.03 0.02 0.02 0.01 0.01 0.00 0.00 0.00 0.01 0.00 0.01 0.01 0.01 0.01 0.00 0.01 0.00
0.70 0.61 0.47 0.37 0.32 0.29 0.28 0.25 0.24 0.22 0.21 0.20 0.18 0.17 0.13 0.09 0.07 0.07 0.06 0.06 0.06 0.06 0.05 0.05 0.03 0.02 0.01 0.01 0.01 0.01 0.01 0.00 0.00 0.00 0.00 0.01 0.01 0.01 0.01 0.01 0.01 0.01 0.01
0.25 0.24 0.21 0.18 0.17 0.16 0.14 0.12 0.10 0.09 0.08 0.07 0.07 0.06 0.04 0.03 0.03 0.03 0.03 0.03 0.03 0.02 0.02 0.01 0.01 0.01 0.01 0.01 0.00 0.01 0.01 0.01 0.00 0.01 0.01 0.01 0.01 0.01 0.01 0.01 0.01 0.01 0.01
0.10 0.10 0.08 0.06 0.05 0.03 0.03 0.02 0.02 0.02 0.03 0.03 0.03 0.03 0.02 0.02 0.02 0.02 0.01 0.01 0.01 0.01 0.00 0.01 0.00 0.00 0.00 0.00 0.00 0.00 0.01 0.01 0.01 0.01 0.01 0.01 0.01 0.01 0.01 0.01 0.01 0.01 0.01
0.01 0.01 0.01 0.01 0.01 0.01 0.01 0.01 0.01 0.02 0.02 0.02 0.01 0.01 0.00 0.01 0.00 0.00 0.00 0.01 0.01 0.00 0.00 0.00 0.00 0.00 0.00 0.00 0.00 0.00 0.01 0.01 0.01 0.01 0.02 0.01 0.01 0.01 0.01 0.02 0.01 0.02 0.02
0.01 0.01 0.00 0.01 0.01 0.01 0.01 0.00 0.00 0.00 0.00 0.00 0.00 0.00 0.00 0.00 0.00 0.00 0.00 0.00 0.00 0.00 0.00 0.00 0.00 0.00 0.00 0.00 0.00 0.00 0.00 0.01 0.02 0.01 0.01 0.02 0.01 0.01 0.02 0.02 0.02 0.02 0.02
0.00 0.00 0.00 0.00 0.00 0.00 0.00 0.00 0.00 0.00 0.00 0.00 0.00 0.01 0.01 0.01 0.00 0.00 0.00 0.00 0.00 0.00 0.00 0.00 0.00 0.00 0.00 0.00 0.00 0.00 0.00 0.01 0.00 0.00 0.01 0.01 0.01 0.02 0.02 0.02 0.02 0.02 0.02
0.00 0.00 0.00 0.00 0.00 0.00 0.00 0.00 0.00 0.00 0.01 0.01 0.01 0.00 0.01 0.01 0.00 0.00 0.00 0.00 0.00 0.00 0.00 0.00 0.00 0.00 0.00 0.00 0.00 0.00 0.00 0.00 0.00 0.00 0.01 0.01 0.02 0.02 0.02 0.02 0.02 0.02 0.02

GFSGL_prec_precacc12_060.txt.gz
Total_Precipitation_Accumulation
0.00 0.00 0.00 0.00 0.00 0.00 0.00 0.00 0.00 0.00 0.00 0.00 0.00 0.00 0.00 0.00 0.02 0.08 0.24 0.32 0.34 0.31 0.28 0.22 0.17 0.19 0.22 0.21 0.22 0.24 0.23 0.25 0.28 0.16 0.08 0.06 0.08 0.09 0.06 0.05 0.04 0.02 0.01
0.00 0.00 0.01 0.01 0.00 0.00 0.00 0.00 0.00 0.00 0.00 0.00 0.00 0.00 0.00 0.00 0.01 0.04 0.12 0.14 0.13 0.16 0.17 0.20 0.18 0.23 0.31 0.27 0.22 0.16 0.13 0.11 0.13 0.08 0.06 0.05 0.05 0.04 0.04 0.02 0.01 0.00 0.00
0.00 0.00 0.00 0.03 0.02 0.01 0.00 0.00 0.00 0.00 0.00 0.00 0.00 0.00 0.00 0.00 0.00 0.01 0.04 0.09 0.13 0.10 0.08 0.08 0.06 0.07 0.07 0.07 0.08 0.09 0.08 0.09 0.11 0.13 0.10 0.07 0.06 0.03 0.02 0.02 0.01 0.00 0.00
0.00 0.00 0.00 0.00 0.00 0.02 0.02 0.00 0.00 0.00 0.00 0.00 0.00 0.01 0.02 0.01 0.00 0.00 0.00 0.00 0.01 0.01 0.01 0.02 0.04 0.05 0.06 0.07 0.09 0.09 0.08 0.07 0.07 0.08 0.07 0.04 0.03 0.02 0.02 0.02 0.01 0.01 0.01
0.00 0.00 0.00 0.00 0.00 0.00 0.00 0.01 0.01 0.01 0.01 0.02 0.02 0.02 0.02 0.01 0.02 0.03 0.02 0.01 0.01 0.02 0.02 0.02 0.04 0.07 0.07 0.04 0.03 0.03 0.03 0.05 0.07 0.05 0.05 0.03 0.03 0.03 0.03 0.05 0.06 0.05 0.04
0.00 0.00 0.00 0.00 0.00 0.00 0.00 0.00 0.00 0.00 0.02 0.05 0.05 0.08 0.06 0.06 0.11 0.14 0.10 0.06 0.04 0.03 0.04 0.05 0.06 0.09 0.05 0.09 0.09 0.10 0.08 0.07 0.07 0.08 0.06 0.04 0.05 0.08 0.11 0.12 0.10 0.07 0.06
0.00 0.00 0.00 0.00 0.00 0.00 0.00 0.00 0.00 0.00 0.02 0.02 0.02 0.05 0.09 0.10 0.17 0.15 0.15 0.09 0.09 0.10 0.08 0.07 0.05 0.08 0.14 0.06 0.14 0.16 0.13 0.16 0.13 0.08 0.09 0.14 0.19 0.20 0.19 0.17 0.09 0.04 0.01
0.00 0.00 0.00 0.00 0.00 0.00 0.00 0.00 0.00 0.01 0.03 0.03 0.04 0.06 0.05 0.08 0.15 0.13 0.15 0.06 0.05 0.06 0.06 0.06 0.06 0.07 0.14 0.16 0.12 0.17 0.20 0.25 0.27 0.28 0.30 0.32 0.28 0.18 0.09 0.05 0.01 0.00 0.00
0.00 0.00 0.00 0.00 0.00 0.00 0.00 0.00 0.00 0.01 0.04 0.05 0.05 0.05 0.07 0.10 0.18 0.13 0.09 0.03 0.06 0.09 0.07 0.10 0.15 0.12 0.36 0.29 0.17 0.20 0.24 0.24 0.24 0.18 0.12 0.09 0.06 0.04 0.02 0.01 0.01 0.01 0.00
0.00 0.00 0.00 0.00 0.00 0.01 0.01 0.01 0.01 0.02 0.03 0.03 0.05 0.05 0.12 0.07 0.23 0.17 0.12 0.03 0.08 0.10 0.10 0.16 0.30 0.17 0.26 0.15 0.08 0.05 0.09 0.11 0.10 0.09 0.06 0.05 0.03 0.02 0.03 0.02 0.02 0.01 0.00
0.00 0.00 0.02 0.02 0.03 0.04 0.02 0.01 0.01 0.02 0.02 0.02 0.04 0.03 0.05 0.10 0.15 0.18 0.15 0.05 0.05 0.09 0.15 0.16 0.23 0.34 0.21 0.19 0.15 0.13 0.17 0.19 0.18 0.14 0.11 0.09 0.06 0.03 0.02 0.01 0.01 0.00 0.00
0.01 0.03 0.05 0.06 0.08 0.06 0.04 0.05 0.04 0.04 0.04 0.04 0.04 0.05 0.05 0.07 0.16 0.16 0.14 0.14 0.18 0.10 0.16 0.18 0.29 0.34 0.20 0.20 0.20 0.21 0.21 0.18 0.14 0.12 0.09 0.06 0.03 0.01 0.00 0.00 0.00 0.00 0.00
0.03 0.06 0.08 0.09 0.06 0.04 0.06 0.07 0.08 0.06 0.07 0.08 0.08 0.10 0.12 0.12 0.16 0.21 0.18 0.19 0.21 0.21 0.28 0.33 0.35 0.29 0.22 0.20 0.20 0.18 0.15 0.13 0.11 0.09 0.06 0.05 0.03 0.01 0.00 0.00 0.00 0.00 0.00
0.03 0.07 0.06 0.06 0.08 0.05 0.08 0.09 0.08 0.08 0.10 0.12 0.14 0.15 0.16 0.18 0.21 0.21 0.20 0.20 0.23 0.22 0.25 0.26 0.24 0.20 0.18 0.16 0.14 0.11 0.09 0.06 0.05 0.05 0.04 0.03 0.02 0.01 0.00 0.00 0.00 0.00 0.00
0.10 0.11 0.10 0.09 0.09 0.08 0.09 0.13 0.11 0.13 0.19 0.17 0.17 0.16 0.17 0.22 0.26 0.28 0.24 0.23 0.23 0.25 0.24 0.24 0.22 0.18 0.14 0.10 0.07 0.05 0.04 0.03 0.03 0.02 0.02 0.01 0.00 0.00 0.00 0.00 0.00 0.00 0.00
0.16 0.17 0.20 0.15 0.14 0.13 0.11 0.16 0.28 0.28 0.27 0.30 0.32 0.29 0.39 0.44 0.49 0.48 0.44 0.38 0.30 0.24 0.19 0.17 0.15 0.11 0.09 0.08 0.07 0.06 0.03 0.02 0.02 0.01 0.01 0.00 0.00 0.00 0.00 0.00 0.00 0.00 0.00
0.29 0.25 0.25 0.26 0.27 0.25 0.23 0.21 0.28 0.43 0.45 0.49 0.48 0.46 0.43 0.47 0.39 0.33 0.28 0.22 0.18 0.14 0.13 0.14 0.14 0.13 0.10 0.06 0.05 0.03 0.03 0.02 0.01 0.00 0.00 0.00 0.00 0.00 0.00 0.00 0.00 0.00 0.00
0.94 0.93 0.81 0.79 0.82 0.91 0.97 1.00 0.98 0.93 0.86 0.84 0.72 0.55 0.47 0.40 0.33 0.26 0.19 0.12 0.10 0.08 0.08 0.08 0.07 0.05 0.03 0.02 0.02 0.01 0.01 0.01 0.01 0.00 0.00 0.01 0.01 0.01 0.01 0.01 0.00 0.01 0.01
1.55 1.62 1.56 1.45 1.34 1.12 0.89 0.74 0.67 0.62 0.56 0.53 0.46 0.35 0.27 0.19 0.14 0.10 0.07 0.06 0.05 0.04 0.03 0.02 0.02 0.02 0.02 0.02 0.02 0.01 0.01 0.01 0.00 0.01 0.01 0.01 0.01 0.01 0.01 0.01 0.01 0.01 0.01
0.71 0.68 0.59 0.53 0.47 0.41 0.37 0.33 0.31 0.28 0.24 0.22 0.19 0.18 0.12 0.06 0.04 0.03 0.03 0.03 0.02 0.03 0.03 0.03 0.02 0.02 0.01 0.01 0.01 0.01 0.01 0.00 0.00 0.00 0.00 0.01 0.01 0.01 0.01 0.01 0.01 0.01 0.01
0.27 0.27 0.25 0.22 0.21 0.19 0.16 0.14 0.12 0.09 0.07 0.06 0.05 0.04 0.02 0.01 0.02 0.02 0.01 0.01 0.01 0.01 0.01 0.01 0.01 0.01 0.01 0.01 0.00 0.01 0.00 0.01 0.01 0.01 0.01 0.01 0.01 0.01 0.01 0.01 0.01 0.01 0.01
0.07 0.07 0.06 0.06 0.05 0.04 0.03 0.03 0.02 0.02 0.02 0.02 0.02 0.01 0.01 0.01 0.01 0.01 0.01 0.01 0.01 0.01 0.00 0.00 0.00 0.00 0.00 0.00 0.00 0.01 0.01 0.00 0.01 0.01 0.01 0.01 0.01 0.01 0.01 0.01 0.01 0.01 0.01
0.01 0.01 0.01 0.01 0.01 0.01 0.01 0.01 0.01 0.01 0.01 0.01 0.01 0.00 0.00 0.00 0.00 0.00 0.01 0.01 0.01 0.01 0.00 0.00 0.00 0.00 0.00 0.00 0.00 0.01 0.01 0.01 0.01 0.01 0.02 0.01 0.01 0.01 0.01 0.02 0.02 0.02 0.02
0.00 0.00 0.00 0.00 0.00 0.00 0.00 0.00 0.00 0.00 0.00 0.01 0.01 0.01 0.01 0.01 0.01 0.01 0.01 0.01 0.00 0.01 0.00 0.00 0.00 0.00 0.00 0.00 0.00 0.00 0.00 0.00 0.01 0.01 0.01 0.01 0.01 0.01 0.02 0.02 0.01 0.01 0.02
0.00 0.00 0.00 0.00 0.00 0.00 0.00 0.00 0.00 0.00 0.00 0.01 0.01 0.01 0.01 0.01 0.01 0.01 0.01 0.00 0.00 0.00 0.00 0.00 0.00 0.00 0.00 0.00 0.00 0.00 0.00 0.00 0.00 0.00 0.01 0.01 0.01 0.01 0.02 0.02 0.02 0.02 0.02
0.00 0.00 0.00 0.00 0.00 0.00 0.00 0.00 0.00 0.00 0.01 0.01 0.01 0.01 0.01 0.00 0.00 0.00 0.00 0.00 0.00 0.00 0.00 0.00 0.00 0.00 0.00 0.00 0.00 0.00 0.00 0.00 0.00 0.00 0.00 0.01 0.01 0.02 0.02 0.02 0.02 0.02 0.02

GFSGL_prec_precacc12_066.txt.gz
Total_Precipitation_Accumulation
0.00 0.00 0.00 0.00 0.00 0.00 0.00 0.00 0.00 0.00 0.00 0.00 0.00 0.00 0.00 0.00 0.01 0.01 0.00 0.00 0.00 0.00 0.00 0.01 0.01 0.02 0.04 0.03 0.05 0.07 0.09 0.12 0.17 0.11 0.06 0.05 0.07 0.08 0.06 0.05 0.04 0.02 0.01
0.00 0.00 0.00 0.00 0.00 0.00 0.00 0.00 0.00 0.00 0.00 0.00 0.00 0.00 0.00 0.00 0.00 0.00 0.00 0.00 0.00 0.00 0.00 0.02 0.01 0.01 0.03 0.04 0.08 0.09 0.07 0.07 0.10 0.07 0.04 0.04 0.04 0.04 0.04 0.02 0.01 0.01 0.01
0.02 0.00 0.00 0.00 0.00 0.00 0.00 0.00 0.00 0.00 0.00 0.00 0.00 0.00 0.00 0.00 0.00 0.00 0.00 0.00 0.00 0.00 0.00 0.02 0.02 0.02 0.03 0.03 0.03 0.03 0.04 0.07 0.10 0.13 0.10 0.06 0.05 0.03 0.03 0.03 0.02 0.02 0.01
0.04 0.02 0.00 0.00 0.00 0.00 0.00 0.00 0.00 0.00 0.00 0.00 0.00 0.00 0.00 0.00 0.00 0.00 0.00 0.00 0.00 0.00 0.00 0.01 0.02 0.03 0.02 0.02 0.03 0.03 0.04 0.05 0.06 0.07 0.07 0.05 0.04 0.02 0.03 0.03 0.02 0.02 0.03
0.10 0.05 0.07 0.05 0.03 0.02 0.01 0.01 0.00 0.00 0.00 0.00 0.00 0.00 0.00 0.00 0.00 0.00 0.00 0.00 0.00 0.00 0.00 0.01 0.01 0.02 0.01 0.02 0.02 0.02 0.03 0.06 0.08 0.08 0.09 0.08 0.06 0.06 0.06 0.07 0.09 0.08 0.10
0.02 0.06 0.10 0.03 0.06 0.06 0.07 0.07 0.03 0.00 0.00 0.00 0.00 0.00 0.00 0.00 0.00 0.00 0.00 0.00 0.00 0.00 0.00 0.02 0.02 0.03 0.03 0.04 0.06 0.09 0.09 0.09 0.11 0.12 0.11 0.11 0.09 0.11 0.12 0.15 0.19 0.27 0.31
0.00 0.01 0.01 0.01 0.01 0.03 0.06 0.06 0.04 0.01 0.04 0.01 0.02 0.01 0.00 0.00 0.02 0.02 0.02 0.01 0.01 0.01 0.01 0.01 0.01 0.03 0.06 0.04 0.10 0.15 0.16 0.23 0.20 0.15 0.15 0.20 0.28 0.34 0.38 0.43 0.41 0.34 0.31
0.00 0.00 0.00 0.00 0.01 0.02 0.03 0.01 0.02 0.04 0.03 0.02 0.03 0.03 0.04 0.02 0.04 0.06 0.08 0.04 0.02 0.03 0.03 0.03 0.03 0.04 0.10 0.13 0.11 0.17 0.21 0.29 0.37 0.40 0.44 0.53 0.49 0.39 0.29 0.25 0.20 0.19 0.20
0.00 0.00 0.00 0.00 0.00 0.01 0.01 0.01 0.02 0.02 0.02 0.02 0.04 0.05 0.04 0.02 0.08 0.10 0.12 0.08 0.08 0.08 0.06 0.08 0.12 0.09 0.31 0.30 0.21 0.23 0.30 0.34 0.46 0.41 0.32 0.32 0.31 0.26 0.21 0.22 0.28 0.30 0.33
0.00 0.00 0.00 0.00 0.00 0.00 0.00 0.00 0.01 0.02 0.02 0.04 0.02 0.02 0.06 0.04 0.15 0.16 0.16 0.07 0.11 0.12 0.13 0.16 0.30 0.19 0.30 0.22 0.14 0.09 0.21 0.31 0.29 0.34 0.36 0.40 0.41 0.42 0.45 0.41 0.38 0.32 0.25
0.00 0.00 0.00 0.00 0.00 0.00 0.01 0.00 0.01 0.01 0.02 0.03 0.04 0.05 0.08 0.12 0.16 0.24 0.22 0.10 0.08 0.13 0.20 0.22 0.30 0.49 0.31 0.34 0.33 0.29 0.54 0.61 0.61 0.51 0.49 0.47 0.44 0.38 0.31 0.23 0.15 0.10 0.08
0.00 0.00 0.00 0.00 0.00 0.00 0.01 0.02 0.04 0.04 0.05 0.06 0.06 0.07 0.07 0.07 0.15 0.17 0.17 0.19 0.29 0.19 0.28 0.30 0.46 0.53 0.37 0.40 0.41 0.51 0.58 0.51 0.46 0.49 0.48 0.45 0.38 0.31 0.24 0.17 0.11 0.08 0.06
0.00 0.00 0.00 0.00 0.00 0.00 0.03 0.07 0.09 0.08 0.09 0.09 0.11 0.14 0.15 0.13 0.16 0.25 0.24 0.31 0.40 0.42 0.59 0.71 0.76 0.64 0.57 0.58 0.62 0.61 0.56 0.52 0.51 0.50 0.47 0.42 0.33 0.25 0.16 0.10 0.05 0.02 0.01
0.01 0.01 0.01 0.01 0.03 0.02 0.06 0.09 0.09 0.09 0.11 0.16 0.23 0.29 0.30 0.30 0.28 0.26 0.28 0.34 0.44 0.56 0.77 0.83 0.77 0.70 0.68 0.70 0.71 0.65 0.54 0.49 0.46 0.44 0.39 0.32 0.23 0.16 0.09 0.04 0.01 0.00 0.00
0.06 0.07 0.09 0.09 0.10 0.11 0.13 0.20 0.17 0.26 0.34 0.37 0.41 0.44 0.46 0.56 0.74 0.84 0.85 0.88 0.91 0.99 1.01 1.05 1.06 1.03 0.97 0.90 0.82 0.71 0.61 0.51 0.41 0.32 0.25 0.18 0.11 0.05 0.02 0.00 0.00 0.00 0.00
0.14 0.16 0.21 0.17 0.17 0.17 0.17 0.24 0.40 0.46 0.46 0.53 0.59 0.59 0.81 0.96 1.09 1.06 1.04 1.03 1.02 0.99 0.89 0.86 0.80 0.69 0.59 0.50 0.42 0.35 0.27 0.20 0.14 0.09 0.05 0.02 0.01 0.00 0.00 0.00 0.00 0.00 0.00
0.28 0.26 0.27 0.28 0.30 0.31 0.33 0.33 0.42 0.54 0.59 0.72 0.80 0.83 0.84 0.94 0.86 0.79 0.73 0.69 0.66 0.54 0.47 0.47 0.43 0.37 0.30 0.22 0.17 0.12 0.08 0.04 0.01 0.01 0.01 0.00 0.00 0.00 0.00 0.00 0.00 0.00 0.00
0.75 0.76 0.68 0.63 0.66 0.78 0.92 1.04 1.13 1.15 1.14 1.21 1.21 1.10 1.05 0.99 0.91 0.80 0.67 0.49 0.44 0.37 0.33 0.29 0.24 0.18 0.13 0.08 0.05 0.03 0.02 0.01 0.01 0.01 0.01 0.01 0.00 0.00 0.00 0.00 0.00 0.00 0.00
0.85 0.99 1.05 1.09 1.11 1.05 0.97 0.91 0.89 0.88 0.86 0.89 0.88 0.80 0.74 0.62 0.50 0.43 0.35 0.29 0.25 0.20 0.15 0.10 0.07 0.04 0.03 0.02 0.02 0.02 0.01 0.01 0.01 0.01 0.01 0.00 0.00 0.00 0.00 0.00 0.00 0.00 0.00
0.37 0.41 0.42 0.44 0.42 0.39 0.38 0.37 0.36 0.34 0.32 0.31 0.29 0.30 0.24 0.16 0.14 0.11 0.08 0.06 0.04 0.03 0.02 0.01 0.01 0.01 0.01 0.01 0.00 0.00 0.00 0.00 0.00 0.00 0.00 0.00 0.00 0.01 0.01 0.00 0.01 0.01 0.01
0.16 0.17 0.18 0.18 0.20 0.19 0.17 0.16 0.14 0.12 0.11 0.10 0.10 0.06 0.03 0.02 0.01 0.01 0.01 0.01 0.01 0.01 0.01 0.00 0.00 0.00 0.00 0.00 0.00 0.00 0.00 0.00 0.00 0.00 0.00 0.00 0.00 0.00 0.00 0.01 0.01 0.00 0.00
0.04 0.04 0.03 0.04 0.04 0.03 0.04 0.04 0.03 0.03 0.02 0.01 0.01 0.00 0.00 0.01 0.01 0.01 0.00 0.00 0.00 0.00 0.00 0.00 0.00 0.00 0.00 0.00 0.00 0.00 0.00 0.00 0.00 0.00 0.00 0.00 0.00 0.00 0.00 0.00 0.00 0.00 0.01
0.00 0.00 0.00 0.00 0.00 0.00 0.00 0.01 0.00 0.00 0.00 0.00 0.00 0.00 0.00 0.00 0.00 0.00 0.01 0.01 0.01 0.00 0.00 0.00 0.00 0.00 0.00 0.00 0.00 0.00 0.00 0.01 0.00 0.00 0.00 0.00 0.00 0.00 0.00 0.00 0.01 0.01 0.01
0.00 0.00 0.00 0.00 0.00 0.00 0.00 0.00 0.00 0.00 0.00 0.01 0.01 0.01 0.01 0.01 0.01 0.00 0.00 0.00 0.00 0.01 0.00 0.00 0.00 0.00 0.00 0.00 0.00 0.00 0.00 0.00 0.00 0.00 0.00 0.00 0.00 0.00 0.00 0.01 0.00 0.00 0.01
0.00 0.00 0.00 0.00 0.00 0.00 0.00 0.00 0.00 0.00 0.01 0.01 0.01 0.01 0.01 0.01 0.01 0.01 0.00 0.00 0.00 0.00 0.01 0.00 0.00 0.00 0.00 0.00 0.00 0.00 0.00 0.00 0.00 0.00 0.00 0.00 0.00 0.00 0.00 0.01 0.01 0.02 0.01
0.00 0.00 0.00 0.00 0.00 0.00 0.00 0.00 0.00 0.01 0.00 0.00 0.00 0.01 0.01 0.00 0.00 0.01 0.00 0.00 0.00 0.00 0.00 0.00 0.00 0.00 0.00 0.00 0.00 0.00 0.00 0.00 0.00 0.00 0.00 0.00 0.00 0.01 0.01 0.01 0.01 0.01 0.01

GFSGL_prec_precacc12_072.txt.gz
Total_Precipitation_Accumulation
0.00 0.00 0.00 0.00 0.00 0.00 0.00 0.00 0.00 0.00 0.00 0.00 0.00 0.00 0.00 0.00 0.01 0.03 0.01 0.01 0.01 0.00 0.01 0.02 0.01 0.01 0.01 0.01 0.02 0.02 0.02 0.03 0.02 0.00 0.00 0.00 0.00 0.00 0.00 0.00 0.00 0.00 0.00
0.02 0.01 0.00 0.00 0.00 0.00 0.00 0.00 0.00 0.00 0.00 0.00 0.00 0.00 0.00 0.00 0.00 0.00 0.00 0.00 0.00 0.00 0.00 0.00 0.00 0.00 0.00 0.00 0.01 0.01 0.02 0.03 0.05 0.03 0.01 0.00 0.00 0.00 0.00 0.00 0.00 0.01 0.01
0.06 0.03 0.02 0.01 0.00 0.00 0.00 0.00 0.00 0.00 0.00 0.00 0.00 0.00 0.00 0.00 0.00 0.00 0.00 0.00 0.00 0.00 0.00 0.00 0.00 0.00 0.00 0.00 0.00 0.00 0.01 0.02 0.04 0.04 0.02 0.00 0.00 0.00 0.00 0.01 0.01 0.01 0.01
0.08 0.03 0.04 0.02 0.02 0.01 0.00 0.00 0.00 0.00 0.00 0.00 0.00 0.00 0.00 0.00 0.00 0.00 0.00 0.00 0.00 0.00 0.00 0.00 0.00 0.00 0.00 0.00 0.00 0.00 0.01 0.01 0.02 0.02 0.02 0.02 0.01 0.00 0.01 0.01 0.01 0.01 0.02
0.09 0.05 0.08 0.06 0.06 0.05 0.03 0.02 0.01 0.00 0.00 0.00 0.00 0.00 0.00 0.00 0.00 0.00 0.00 0.00 0.00 0.00 0.00 0.00 0.00 0.00 0.00 0.00 0.00 0.00 0.01 0.01 0.02 0.04 0.05 0.05 0.03 0.03 0.02 0.02 0.03 0.04 0.06
0.02 0.06 0.10 0.04 0.07 0.08 0.11 0.15 0.09 0.03 0.06 0.03 0.02 0.01 0.01 0.01 0.01 0.00 0.00 0.00 0.00 0.00 0.00 0.00 0.00 0.00 0.00 0.00 0.00 0.01 0.01 0.02 0.03 0.03 0.05 0.07 0.04 0.02 0.01 0.03 0.10 0.19 0.25
0.00 0.01 0.01 0.01 0.01 0.03 0.08 0.09 0.07 0.07 0.12 0.06 0.07 0.06 0.03 0.05 0.10 0.09 0.09 0.04 0.01 0.00 0.00 0.00 0.00 0.00 0.00 0.00 0.00 0.02 0.04 0.07 0.07 0.07 0.07 0.06 0.09 0.15 0.21 0.28 0.32 0.32 0.30
0.00 0.00 0.00 0.00 0.01 0.02 0.03 0.01 0.02 0.06 0.06 0.07 0.07 0.06 0.09 0.09 0.14 0.20 0.28 0.18 0.08 0.03 0.01 0.04 0.04 0.02 0.01 0.02 0.01 0.01 0.02 0.04 0.10 0.12 0.14 0.21 0.23 0.23 0.24 0.28 0.30 0.33 0.35
0.00 0.00 0.00 0.00 0.00 0.01 0.01 0.01 0.02 0.02 0.03 0.04 0.06 0.08 0.08 0.05 0.16 0.18 0.22 0.16 0.09 0.07 0.12 0.10 0.11 0.08 0.10 0.13 0.09 0.07 0.09 0.12 0.26 0.29 0.26 0.32 0.32 0.29 0.27 0.27 0.35 0.47 0.61
0.00 0.00 0.00 0.00 0.00 0.00 0.00 0.00 0.01 0.02 0.02 0.04 0.02 0.03 0.11 0.07 0.15 0.14 0.15 0.10 0.06 0.08 0.12 0.15 0.35 0.18 0.15 0.16 0.13 0.08 0.21 0.32 0.26 0.31 0.39 0.48 0.48 0.53 0.63 0.51 0.47 0.58 0.66
0.00 0.00 0.00 0.00 0.00 0.00 0.00 0.00 0.01 0.01 0.01 0.02 0.04 0.05 0.09 0.14 0.16 0.24 0.21 0.16 0.11 0.16 0.22 0.24 0.26 0.53 0.27 0.32 0.43 0.35 0.80 0.81 0.75 0.58 0.55 0.60 0.62 0.63 0.62 0.56 0.48 0.46 0.46
0.00 0.00 0.00 0.00 0.00 0.00 0.01 0.02 0.03 0.02 0.04 0.04 0.05 0.06 0.07 0.07 0.17 0.17 0.18 0.21 0.30 0.26 0.39 0.38 0.50 0.54 0.33 0.40 0.56 0.83 1.00 0.86 0.81 0.98 1.05 1.09 1.06 0.98 0.88 0.78 0.69 0.62 0.56
0.00 0.00 0.00 0.00 0.00 0.00 0.01 0.03 0.04 0.05 0.06 0.07 0.09 0.11 0.11 0.09 0.13 0.24 0.20 0.26 0.38 0.38 0.57 0.76 0.79 0.67 0.63 0.72 0.89 0.98 1.02 1.06 1.19 1.26 1.28 1.23 1.09 0.96 0.80 0.65 0.53 0.44 0.36
0.00 0.00 0.00 0.01 0.01 0.00 0.01 0.02 0.03 0.04 0.05 0.09 0.15 0.19 0.20 0.21 0.18 0.17 0.20 0.24 0.35 0.49 0.76 0.88 0.89 0.88 0.89 0.97 1.04 1.05 1.08 1.17 1.22 1.22 1.17 1.06 0.89 0.71 0.56 0.45 0.36 0.29 0.21
0.00 0.00 0.01 0.02 0.03 0.04 0.07 0.11 0.11 0.19 0.21 0.23 0.30 0.33 0.35 0.45 0.65 0.69 0.71 0.80 0.88 1.00 1.05 1.15 1.20 1.21 1.23 1.24 1.18 1.10 1.01 0.91 0.80 0.71 0.60 0.49 0.38 0.28 0.20 0.14 0.10 0.07 0.06
0.00 0.01 0.02 0.02 0.03 0.05 0.07 0.12 0.19 0.24 0.24 0.28 0.33 0.38 0.56 0.70 0.78 0.76 0.80 0.88 0.97 1.01 0.92 0.93 0.91 0.84 0.76 0.69 0.61 0.54 0.46 0.38 0.32 0.23 0.16 0.11 0.08 0.05 0.03 0.02 0.01 0.01 0.00
0.01 0.03 0.03 0.03 0.05 0.08 0.11 0.14 0.18 0.22 0.25 0.37 0.46 0.52 0.55 0.63 0.61 0.60 0.60 0.60 0.62 0.52 0.48 0.50 0.47 0.44 0.40 0.34 0.28 0.22 0.16 0.10 0.06 0.04 0.03 0.02 0.01 0.01 0.01 0.00 0.00 0.00 0.00
0.02 0.05 0.07 0.08 0.09 0.12 0.17 0.24 0.31 0.36 0.40 0.51 0.63 0.66 0.70 0.70 0.69 0.65 0.59 0.45 0.42 0.37 0.34 0.31 0.28 0.24 0.18 0.13 0.09 0.05 0.04 0.03 0.02 0.01 0.01 0.01 0.00 0.00 0.00 0.00 0.00 0.00 0.00
0.04 0.07 0.10 0.15 0.18 0.21 0.27 0.29 0.32 0.34 0.40 0.47 0.53 0.56 0.58 0.52 0.46 0.42 0.35 0.31 0.28 0.24 0.18 0.14 0.10 0.06 0.04 0.03 0.03 0.02 0.01 0.01 0.01 0.00 0.00 0.00 0.00 0.00 0.00 0.00 0.00 0.00 0.00
0.04 0.06 0.06 0.09 0.10 0.11 0.12 0.13 0.14 0.14 0.15 0.16 0.17 0.19 0.17 0.14 0.13 0.11 0.09 0.07 0.05 0.04 0.03 0.02 0.02 0.01 0.01 0.01 0.01 0.00 0.00 0.00 0.00 0.00 0.00 0.00 0.00 0.00 0.00 0.00 0.00 0.00 0.00
0.04 0.04 0.04 0.05 0.07 0.08 0.08 0.07 0.07 0.06 0.07 0.07 0.07 0.04 0.02 0.01 0.01 0.01 0.01 0.01 0.01 0.01 0.01 0.00 0.00 0.00 0.00 0.00 0.00 0.00 0.00 0.00 0.00 0.00 0.00 0.00 0.00 0.00 0.00 0.00 0.00 0.00 0.00
0.02 0.01 0.01 0.01 0.01 0.02 0.02 0.02 0.02 0.02 0.01 0.01 0.01 0.00 0.00 0.00 0.00 0.00 0.00 0.00 0.00 0.00 0.00 0.00 0.00 0.00 0.00 0.00 0.00 0.00 0.00 0.00 0.00 0.00 0.00 0.00 0.00 0.00 0.00 0.00 0.00 0.00 0.00
0.00 0.00 0.00 0.00 0.00 0.00 0.00 0.00 0.00 0.00 0.00 0.00 0.00 0.00 0.00 0.00 0.00 0.00 0.00 0.00 0.00 0.00 0.00 0.00 0.00 0.00 0.00 0.00 0.00 0.00 0.00 0.00 0.00 0.00 0.00 0.00 0.00 0.00 0.00 0.00 0.00 0.00 0.00
0.00 0.00 0.00 0.00 0.00 0.00 0.00 0.00 0.00 0.00 0.00 0.00 0.00 0.00 0.00 0.00 0.00 0.00 0.00 0.00 0.00 0.00 0.00 0.00 0.00 0.00 0.00 0.00 0.00 0.00 0.00 0.00 0.00 0.00 0.00 0.00 0.00 0.00 0.00 0.00 0.00 0.00 0.00
0.00 0.00 0.00 0.00 0.00 0.00 0.00 0.00 0.00 0.00 0.00 0.00 0.00 0.00 0.00 0.00 0.00 0.00 0.00 0.00 0.00 0.00 0.00 0.00 0.00 0.00 0.00 0.00 0.00 0.00 0.00 0.00 0.00 0.00 0.00 0.00 0.00 0.00 0.00 0.00 0.00 0.00 0.00
0.00 0.00 0.00 0.00 0.00 0.00 0.00 0.00 0.00 0.00 0.00 0.00 0.00 0.00 0.00 0.00 0.00 0.00 0.00 0.00 0.00 0.00 0.00 0.00 0.00 0.00 0.00 0.00 0.00 0.00 0.00 0.00 0.00 0.00 0.00 0.00 0.00 0.00 0.00 0.00 0.00 0.00 0.00

GFSGL_prec_precacc12_075.txt.gz
Total_Precipitation_Accumulation
0.00 0.00 0.00 0.00 0.00 0.00 0.00 0.00 0.00 0.00 0.01 0.00 0.00 0.00 0.00 0.01 0.00 0.04 0.09 0.05 0.03 0.02 0.03 0.04 0.04 0.04 0.06 0.04 0.02 0.02 0.02 0.03 0.03 0.00 0.00 0.00 0.00 0.00 0.00 0.00 0.00 0.00 0.00
0.02 0.01 0.00 0.00 0.00 0.00 0.00 0.00 0.00 0.00 0.00 0.00 0.00 0.00 0.00 0.00 0.00 0.00 0.01 0.04 0.04 0.03 0.01 0.01 0.01 0.02 0.02 0.02 0.02 0.02 0.02 0.01 0.02 0.01 0.00 0.00 0.00 0.00 0.00 0.00 0.00 0.00 0.00
0.09 0.03 0.02 0.01 0.00 0.00 0.00 0.00 0.00 0.00 0.00 0.00 0.00 0.00 0.00 0.00 0.00 0.00 0.00 0.00 0.00 0.00 0.00 0.00 0.00 0.00 0.00 0.00 0.00 0.00 0.00 0.00 0.01 0.01 0.00 0.00 0.00 0.00 0.00 0.01 0.01 0.00 0.00
0.08 0.05 0.06 0.03 0.02 0.01 0.00 0.00 0.00 0.00 0.00 0.00 0.00 0.00 0.00 0.00 0.00 0.00 0.00 0.00 0.00 0.00 0.00 0.00 0.00 0.00 0.00 0.00 0.00 0.00 0.00 0.00 0.00 0.00 0.00 0.00 0.00 0.00 0.00 0.00 0.00 0.01 0.01
0.03 0.04 0.09 0.07 0.07 0.06 0.04 0.02 0.01 0.00 0.00 0.00 0.00 0.00 0.00 0.00 0.00 0.00 0.00 0.00 0.00 0.00 0.00 0.00 0.00 0.00 0.00 0.00 0.00 0.00 0.00 0.00 0.00 0.00 0.01 0.01 0.00 0.01 0.00 0.00 0.02 0.02 0.02
0.00 0.03 0.07 0.04 0.08 0.09 0.13 0.16 0.10 0.04 0.08 0.04 0.03 0.03 0.03 0.04 0.06 0.02 0.01 0.00 0.00 0.00 0.00 0.00 0.00 0.00 0.00 0.00 0.00 0.00 0.00 0.00 0.00 0.01 0.01 0.00 0.00 0.00 0.00 0.01 0.04 0.08 0.12
0.03 0.00 0.01 0.00 0.01 0.03 0.08 0.09 0.07 0.08 0.13 0.09 0.11 0.10 0.08 0.12 0.20 0.11 0.12 0.04 0.01 0.01 0.00 0.00 0.00 0.00 0.00 0.00 0.00 0.00 0.00 0.02 0.02 0.02 0.02 0.01 0.02 0.02 0.04 0.04 0.06 0.09 0.12
0.00 0.00 0.00 0.00 0.00 0.00 0.00 0.01 0.02 0.06 0.06 0.07 0.08 0.07 0.11 0.12 0.18 0.20 0.27 0.18 0.08 0.03 0.02 0.05 0.05 0.03 0.04 0.06 0.02 0.02 0.01 0.02 0.04 0.04 0.06 0.10 0.13 0.15 0.16 0.21 0.25 0.31 0.35
0.00 0.00 0.00 0.00 0.00 0.00 0.00 0.00 0.02 0.02 0.03 0.03 0.04 0.07 0.07 0.05 0.16 0.18 0.22 0.15 0.09 0.08 0.13 0.18 0.21 0.10 0.12 0.15 0.09 0.06 0.07 0.12 0.23 0.18 0.17 0.31 0.35 0.27 0.22 0.19 0.28 0.54 0.80
0.00 0.00 0.00 0.00 0.00 0.00 0.00 0.00 0.01 0.02 0.02 0.03 0.02 0.03 0.10 0.07 0.14 0.12 0.12 0.07 0.03 0.06 0.12 0.20 0.41 0.18 0.10 0.12 0.09 0.06 0.18 0.41 0.29 0.28 0.32 0.42 0.44 0.51 0.62 0.47 0.47 0.79 1.10
0.00 0.00 0.00 0.00 0.00 0.00 0.00 0.00 0.00 0.00 0.01 0.01 0.03 0.04 0.06 0.11 0.11 0.16 0.14 0.13 0.08 0.13 0.19 0.21 0.24 0.48 0.23 0.25 0.35 0.25 0.65 0.69 0.64 0.48 0.49 0.56 0.59 0.64 0.73 0.74 0.71 0.72 0.77
0.00 0.00 0.00 0.00 0.00 0.00 0.00 0.00 0.00 0.00 0.00 0.01 0.02 0.05 0.05 0.05 0.13 0.12 0.13 0.16 0.23 0.23 0.34 0.33 0.41 0.45 0.26 0.33 0.49 0.75 0.92 0.81 0.78 0.96 1.09 1.18 1.20 1.17 1.12 1.00 0.87 0.76 0.69
0.00 0.00 0.00 0.00 0.00 0.00 0.00 0.00 0.00 0.00 0.01 0.02 0.06 0.10 0.10 0.07 0.10 0.17 0.14 0.18 0.28 0.31 0.45 0.57 0.55 0.45 0.42 0.51 0.68 0.80 0.88 0.95 1.11 1.23 1.30 1.28 1.18 1.06 0.89 0.74 0.62 0.50 0.41
0.00 0.00 0.00 0.00 0.00 0.00 0.00 0.00 0.01 0.01 0.01 0.05 0.10 0.13 0.12 0.13 0.11 0.11 0.14 0.17 0.24 0.32 0.50 0.59 0.62 0.62 0.64 0.75 0.85 0.90 0.96 1.08 1.15 1.18 1.15 1.07 0.92 0.74 0.60 0.49 0.39 0.31 0.22
0.00 0.00 0.00 0.00 0.00 0.01 0.03 0.05 0.05 0.10 0.07 0.07 0.12 0.16 0.18 0.26 0.39 0.38 0.38 0.43 0.47 0.58 0.66 0.74 0.81 0.86 0.90 0.95 0.97 0.97 0.92 0.85 0.76 0.70 0.60 0.50 0.40 0.29 0.21 0.14 0.10 0.07 0.06
0.00 0.00 0.00 0.00 0.00 0.01 0.02 0.04 0.07 0.10 0.09 0.11 0.13 0.16 0.29 0.42 0.42 0.40 0.46 0.50 0.56 0.60 0.57 0.59 0.60 0.60 0.60 0.56 0.51 0.47 0.42 0.36 0.31 0.24 0.18 0.12 0.09 0.06 0.04 0.02 0.01 0.01 0.00
0.00 0.00 0.00 0.00 0.00 0.00 0.01 0.03 0.06 0.08 0.09 0.14 0.18 0.21 0.25 0.33 0.33 0.33 0.32 0.31 0.34 0.31 0.31 0.34 0.34 0.33 0.32 0.29 0.25 0.20 0.16 0.10 0.06 0.04 0.04 0.03 0.02 0.01 0.01 0.00 0.00 0.00 0.00
0.00 0.00 0.00 0.01 0.01 0.01 0.01 0.03 0.06 0.09 0.11 0.15 0.20 0.21 0.25 0.29 0.29 0.27 0.25 0.18 0.19 0.19 0.20 0.20 0.20 0.18 0.16 0.12 0.08 0.05 0.04 0.03 0.02 0.01 0.01 0.01 0.00 0.00 0.00 0.00 0.00 0.00 0.00
0.00 0.00 0.00 0.01 0.01 0.02 0.02 0.03 0.05 0.06 0.08 0.10 0.13 0.14 0.19 0.19 0.17 0.17 0.16 0.15 0.16 0.16 0.14 0.12 0.09 0.06 0.04 0.03 0.03 0.02 0.01 0.01 0.01 0.00 0.00 0.00 0.00 0.00 0.00 0.00 0.00 0.00 0.00
0.00 0.00 0.00 0.01 0.01 0.02 0.02 0.03 0.04 0.05 0.05 0.06 0.06 0.08 0.08 0.07 0.07 0.07 0.06 0.05 0.04 0.03 0.02 0.02 0.02 0.01 0.01 0.01 0.01 0.00 0.00 0.00 0.00 0.00 0.00 0.00 0.00 0.00 0.00 0.00 0.00 0.00 0.00
0.00 0.00 0.01 0.01 0.01 0.01 0.01 0.01 0.01 0.01 0.02 0.02 0.03 0.01 0.00 0.00 0.01 0.01 0.01 0.01 0.01 0.01 0.00 0.00 0.00 0.00 0.00 0.00 0.00 0.00 0.00 0.00 0.00 0.00 0.00 0.00 0.00 0.00 0.00 0.00 0.00 0.00 0.00
0.00 0.00 0.00 0.00 0.00 0.00 0.00 0.00 0.00 0.00 0.00 0.00 0.00 0.00 0.00 0.00 0.00 0.00 0.00 0.00 0.00 0.00 0.00 0.00 0.00 0.00 0.00 0.00 0.00 0.00 0.00 0.00 0.00 0.00 0.00 0.00 0.00 0.00 0.00 0.00 0.00 0.00 0.00
0.00 0.00 0.00 0.00 0.00 0.00 0.00 0.00 0.00 0.00 0.00 0.00 0.00 0.00 0.00 0.00 0.00 0.00 0.00 0.00 0.00 0.00 0.00 0.00 0.00 0.00 0.00 0.00 0.00 0.00 0.00 0.00 0.00 0.00 0.00 0.00 0.00 0.00 0.00 0.00 0.00 0.00 0.00
0.00 0.00 0.00 0.00 0.00 0.00 0.00 0.00 0.00 0.00 0.00 0.00 0.00 0.00 0.00 0.00 0.00 0.00 0.00 0.00 0.00 0.00 0.00 0.00 0.00 0.00 0.00 0.00 0.00 0.00 0.00 0.00 0.00 0.00 0.00 0.00 0.00 0.00 0.00 0.00 0.00 0.00 0.00
0.00 0.00 0.00 0.00 0.00 0.00 0.00 0.00 0.00 0.00 0.00 0.00 0.00 0.00 0.00 0.00 0.00 0.00 0.00 0.00 0.00 0.00 0.00 0.00 0.00 0.00 0.00 0.00 0.00 0.00 0.00 0.00 0.00 0.00 0.00 0.00 0.00 0.00 0.00 0.00 0.00 0.00 0.00
0.00 0.00 0.00 0.00 0.00 0.00 0.00 0.00 0.00 0.00 0.00 0.00 0.00 0.00 0.00 0.00 0.00 0.00 0.00 0.00 0.00 0.00 0.00 0.00 0.00 0.00 0.00 0.00 0.00 0.00 0.00 0.00 0.00 0.00 0.00 0.00 0.00 0.00 0.00 0.00 0.00 0.00 0.00

GFSGL_prec_precacc12_078.txt.gz
Total_Precipitation_Accumulation
0.00 0.00 0.00 0.00 0.00 0.00 0.00 0.00 0.00 0.00 0.01 0.00 0.01 0.01 0.01 0.03 0.05 0.07 0.12 0.11 0.06 0.02 0.03 0.04 0.04 0.04 0.06 0.04 0.02 0.02 0.03 0.04 0.05 0.01 0.00 0.00 0.00 0.00 0.00 0.00 0.00 0.00 0.00
0.02 0.01 0.00 0.00 0.00 0.01 0.01 0.00 0.00 0.00 0.00 0.01 0.00 0.00 0.00 0.00 0.02 0.02 0.02 0.07 0.07 0.06 0.03 0.01 0.01 0.02 0.04 0.03 0.04 0.05 0.04 0.02 0.05 0.03 0.00 0.00 0.00 0.00 0.00 0.00 0.00 0.00 0.00
0.09 0.03 0.02 0.01 0.00 0.00 0.00 0.01 0.01 0.01 0.00 0.00 0.00 0.00 0.00 0.00 0.00 0.00 0.00 0.00 0.00 0.01 0.02 0.02 0.01 0.00 0.00 0.00 0.01 0.00 0.00 0.01 0.02 0.02 0.00 0.00 0.00 0.00 0.01 0.00 0.00 0.00 0.00
0.08 0.04 0.07 0.03 0.02 0.02 0.00 0.00 0.00 0.01 0.01 0.00 0.00 0.00 0.00 0.00 0.00 0.01 0.01 0.01 0.00 0.00 0.00 0.01 0.01 0.01 0.01 0.01 0.01 0.00 0.00 0.01 0.01 0.01 0.00 0.00 0.00 0.00 0.01 0.01 0.00 0.00 0.00
0.03 0.03 0.03 0.02 0.04 0.04 0.03 0.02 0.02 0.01 0.01 0.00 0.00 0.01 0.01 0.01 0.00 0.00 0.00 0.00 0.00 0.00 0.00 0.00 0.00 0.01 0.00 0.01 0.03 0.02 0.03 0.04 0.03 0.03 0.02 0.01 0.00 0.00 0.01 0.01 0.02 0.01 0.01
0.00 0.00 0.01 0.02 0.03 0.05 0.06 0.10 0.07 0.05 0.08 0.04 0.04 0.03 0.04 0.05 0.08 0.02 0.02 0.00 0.00 0.00 0.00 0.00 0.00 0.00 0.00 0.00 0.00 0.00 0.01 0.02 0.01 0.01 0.01 0.01 0.00 0.00 0.00 0.00 0.00 0.01 0.01
0.03 0.01 0.00 0.00 0.00 0.01 0.02 0.03 0.05 0.08 0.10 0.10 0.11 0.11 0.12 0.14 0.26 0.12 0.13 0.05 0.03 0.04 0.04 0.03 0.03 0.05 0.08 0.01 0.02 0.03 0.02 0.03 0.03 0.04 0.02 0.02 0.04 0.05 0.06 0.03 0.01 0.01 0.01
0.00 0.01 0.01 0.01 0.00 0.00 0.00 0.00 0.01 0.02 0.03 0.05 0.05 0.05 0.08 0.12 0.17 0.18 0.25 0.17 0.08 0.04 0.04 0.07 0.08 0.05 0.08 0.11 0.03 0.02 0.02 0.09 0.16 0.11 0.11 0.13 0.17 0.13 0.11 0.16 0.21 0.26 0.30
0.00 0.00 0.00 0.00 0.00 0.00 0.00 0.00 0.00 0.00 0.01 0.02 0.01 0.03 0.05 0.04 0.12 0.14 0.14 0.09 0.06 0.07 0.14 0.18 0.21 0.09 0.14 0.14 0.06 0.06 0.07 0.22 0.34 0.23 0.18 0.29 0.31 0.22 0.17 0.14 0.22 0.59 0.90
0.01 0.00 0.00 0.00 0.00 0.00 0.00 0.00 0.00 0.00 0.00 0.00 0.00 0.01 0.07 0.03 0.10 0.08 0.06 0.05 0.02 0.03 0.09 0.18 0.37 0.15 0.07 0.08 0.07 0.06 0.16 0.42 0.30 0.28 0.31 0.38 0.36 0.38 0.49 0.34 0.36 0.75 1.19
0.01 0.01 0.00 0.00 0.00 0.00 0.00 0.00 0.00 0.00 0.00 0.00 0.00 0.00 0.02 0.06 0.07 0.10 0.08 0.10 0.06 0.09 0.13 0.15 0.18 0.35 0.16 0.18 0.28 0.21 0.54 0.57 0.54 0.38 0.33 0.40 0.45 0.50 0.61 0.67 0.69 0.73 0.81
0.00 0.00 0.00 0.00 0.00 0.00 0.00 0.00 0.00 0.00 0.00 0.00 0.00 0.01 0.02 0.03 0.09 0.07 0.08 0.10 0.14 0.15 0.26 0.26 0.33 0.31 0.16 0.23 0.38 0.59 0.72 0.64 0.61 0.74 0.85 0.94 0.96 0.97 0.95 0.88 0.81 0.73 0.67
0.00 0.00 0.00 0.00 0.00 0.00 0.00 0.00 0.00 0.00 0.00 0.00 0.01 0.02 0.02 0.02 0.05 0.09 0.07 0.09 0.14 0.15 0.26 0.37 0.35 0.30 0.28 0.35 0.49 0.57 0.64 0.70 0.84 0.94 1.02 1.04 0.99 0.91 0.78 0.68 0.59 0.49 0.40
0.00 0.00 0.00 0.00 0.00 0.00 0.00 0.00 0.01 0.01 0.00 0.01 0.01 0.02 0.02 0.03 0.04 0.05 0.07 0.09 0.13 0.15 0.24 0.31 0.37 0.38 0.39 0.44 0.48 0.53 0.65 0.78 0.85 0.89 0.89 0.85 0.75 0.62 0.52 0.46 0.38 0.31 0.22
0.00 0.00 0.00 0.00 0.00 0.01 0.02 0.03 0.03 0.06 0.03 0.03 0.05 0.04 0.04 0.09 0.17 0.11 0.10 0.15 0.19 0.24 0.26 0.32 0.35 0.37 0.40 0.44 0.44 0.46 0.46 0.45 0.43 0.44 0.40 0.36 0.31 0.25 0.19 0.14 0.10 0.07 0.06
0.00 0.00 0.00 0.00 0.00 0.00 0.00 0.01 0.02 0.03 0.02 0.03 0.05 0.06 0.11 0.15 0.13 0.12 0.14 0.17 0.21 0.23 0.21 0.24 0.25 0.25 0.26 0.26 0.25 0.24 0.22 0.20 0.19 0.16 0.13 0.10 0.08 0.06 0.04 0.02 0.01 0.01 0.00
0.00 0.00 0.00 0.00 0.00 0.00 0.00 0.00 0.01 0.01 0.01 0.02 0.04 0.06 0.07 0.10 0.09 0.11 0.12 0.11 0.13 0.12 0.12 0.14 0.15 0.16 0.16 0.15 0.13 0.11 0.09 0.07 0.05 0.03 0.03 0.02 0.02 0.01 0.01 0.00 0.00 0.00 0.00
0.00 0.00 0.00 0.00 0.00 0.00 0.00 0.00 0.00 0.00 0.01 0.01 0.03 0.04 0.06 0.07 0.07 0.07 0.08 0.06 0.06 0.06 0.07 0.07 0.08 0.08 0.07 0.06 0.04 0.03 0.02 0.01 0.01 0.01 0.00 0.00 0.00 0.00 0.00 0.00 0.00 0.00 0.00
0.00 0.00 0.00 0.00 0.00 0.00 0.00 0.00 0.00 0.00 0.00 0.01 0.01 0.01 0.03 0.04 0.04 0.05 0.05 0.05 0.06 0.06 0.05 0.04 0.03 0.02 0.01 0.01 0.01 0.01 0.00 0.00 0.00 0.00 0.00 0.00 0.00 0.00 0.00 0.00 0.00 0.00 0.00
0.00 0.00 0.00 0.00 0.00 0.00 0.00 0.00 0.00 0.00 0.00 0.01 0.01 0.02 0.01 0.01 0.01 0.01 0.02 0.02 0.01 0.01 0.01 0.01 0.01 0.01 0.01 0.00 0.00 0.00 0.00 0.00 0.00 0.00 0.00 0.00 0.00 0.00 0.00 0.00 0.00 0.00 0.00
0.00 0.00 0.00 0.00 0.00 0.00 0.00 0.00 0.00 0.00 0.00 0.00 0.00 0.00 0.00 0.00 0.00 0.00 0.00 0.00 0.00 0.00 0.00 0.00 0.00 0.00 0.00 0.00 0.00 0.00 0.00 0.00 0.00 0.00 0.00 0.00 0.00 0.00 0.00 0.00 0.00 0.00 0.00
0.00 0.00 0.00 0.00 0.00 0.00 0.00 0.00 0.00 0.00 0.00 0.00 0.00 0.00 0.00 0.00 0.00 0.00 0.00 0.00 0.00 0.00 0.00 0.00 0.00 0.00 0.00 0.00 0.00 0.00 0.00 0.00 0.00 0.00 0.00 0.00 0.00 0.00 0.00 0.00 0.00 0.00 0.00
0.00 0.00 0.00 0.00 0.00 0.00 0.00 0.00 0.00 0.00 0.00 0.00 0.00 0.00 0.00 0.00 0.00 0.00 0.00 0.00 0.00 0.00 0.00 0.00 0.00 0.00 0.00 0.00 0.00 0.00 0.00 0.00 0.00 0.00 0.00 0.00 0.00 0.00 0.00 0.00 0.00 0.00 0.00
0.00 0.00 0.00 0.00 0.00 0.00 0.00 0.00 0.00 0.00 0.00 0.00 0.00 0.00 0.00 0.00 0.00 0.00 0.00 0.00 0.00 0.00 0.00 0.00 0.00 0.00 0.00 0.00 0.00 0.00 0.00 0.00 0.00 0.00 0.00 0.00 0.00 0.00 0.00 0.00 0.00 0.00 0.00
0.00 0.00 0.00 0.00 0.00 0.00 0.00 0.00 0.00 0.00 0.00 0.00 0.00 0.00 0.00 0.00 0.00 0.00 0.00 0.00 0.00 0.00 0.00 0.00 0.00 0.00 0.00 0.00 0.00 0.00 0.00 0.00 0.00 0.00 0.00 0.00 0.00 0.00 0.00 0.00 0.00 0.00 0.00
0.00 0.00 0.00 0.00 0.00 0.00 0.00 0.00 0.00 0.00 0.00 0.00 0.00 0.00 0.00 0.00 0.00 0.00 0.00 0.00 0.00 0.00 0.00 0.00 0.00 0.00 0.00 0.00 0.00 0.00 0.00 0.00 0.00 0.00 0.00 0.00 0.00 0.00 0.00 0.00 0.00 0.00 0.00

GFSGL_prec_precacc12_084.txt.gz
Total_Precipitation_Accumulation
0.06 0.01 0.01 0.00 0.01 0.01 0.01 0.01 0.01 0.02 0.03 0.03 0.05 0.03 0.05 0.14 0.19 0.19 0.18 0.14 0.10 0.06 0.03 0.03 0.04 0.05 0.06 0.05 0.03 0.04 0.04 0.05 0.05 0.01 0.00 0.00 0.00 0.00 0.00 0.00 0.00 0.00 0.00
0.05 0.03 0.01 0.00 0.01 0.02 0.01 0.01 0.01 0.01 0.01 0.02 0.04 0.04 0.02 0.03 0.09 0.16 0.16 0.16 0.09 0.10 0.08 0.04 0.03 0.05 0.06 0.05 0.04 0.05 0.03 0.02 0.04 0.02 0.00 0.00 0.00 0.00 0.00 0.00 0.00 0.00 0.00
0.12 0.06 0.02 0.02 0.01 0.01 0.01 0.02 0.02 0.01 0.00 0.00 0.02 0.04 0.02 0.01 0.03 0.06 0.06 0.09 0.06 0.03 0.05 0.05 0.02 0.03 0.03 0.03 0.02 0.01 0.00 0.00 0.01 0.02 0.00 0.00 0.00 0.01 0.01 0.01 0.00 0.00 0.00
0.11 0.05 0.04 0.02 0.01 0.01 0.01 0.02 0.02 0.02 0.01 0.01 0.01 0.02 0.02 0.02 0.04 0.05 0.04 0.05 0.08 0.06 0.06 0.08 0.05 0.02 0.02 0.02 0.02 0.01 0.01 0.02 0.03 0.03 0.01 0.01 0.02 0.01 0.04 0.02 0.01 0.01 0.01
0.10 0.09 0.06 0.03 0.02 0.03 0.02 0.01 0.01 0.01 0.01 0.02 0.01 0.02 0.02 0.02 0.02 0.02 0.03 0.06 0.08 0.10 0.10 0.09 0.10 0.12 0.11 0.13 0.13 0.12 0.15 0.14 0.13 0.15 0.11 0.06 0.05 0.07 0.09 0.08 0.12 0.08 0.06
0.04 0.03 0.02 0.03 0.02 0.03 0.03 0.02 0.02 0.03 0.03 0.03 0.05 0.04 0.04 0.05 0.10 0.03 0.02 0.01 0.03 0.06 0.10 0.10 0.04 0.03 0.02 0.04 0.03 0.03 0.05 0.07 0.06 0.08 0.09 0.08 0.04 0.04 0.04 0.05 0.07 0.09 0.06
0.09 0.05 0.03 0.04 0.03 0.02 0.02 0.02 0.04 0.04 0.04 0.05 0.07 0.08 0.11 0.11 0.21 0.06 0.05 0.02 0.02 0.04 0.05 0.05 0.04 0.08 0.15 0.02 0.07 0.08 0.07 0.13 0.14 0.14 0.10 0.12 0.20 0.24 0.22 0.15 0.11 0.13 0.14
0.07 0.07 0.06 0.06 0.07 0.05 0.05 0.07 0.06 0.05 0.04 0.04 0.04 0.04 0.04 0.07 0.10 0.04 0.04 0.01 0.01 0.02 0.04 0.05 0.06 0.06 0.15 0.18 0.06 0.09 0.12 0.22 0.31 0.24 0.27 0.36 0.37 0.27 0.22 0.27 0.33 0.37 0.40
0.16 0.10 0.07 0.04 0.06 0.08 0.06 0.04 0.05 0.08 0.09 0.07 0.05 0.03 0.02 0.03 0.07 0.04 0.03 0.00 0.02 0.04 0.05 0.11 0.13 0.04 0.12 0.11 0.03 0.02 0.06 0.23 0.41 0.25 0.16 0.24 0.28 0.20 0.15 0.13 0.23 0.55 0.81
0.10 0.11 0.08 0.09 0.04 0.02 0.02 0.02 0.01 0.01 0.03 0.06 0.03 0.01 0.01 0.00 0.01 0.00 0.00 0.00 0.00 0.00 0.02 0.06 0.11 0.03 0.02 0.02 0.01 0.01 0.07 0.30 0.23 0.23 0.25 0.28 0.27 0.28 0.32 0.23 0.25 0.49 0.81
0.12 0.10 0.10 0.12 0.11 0.04 0.01 0.01 0.00 0.00 0.00 0.00 0.00 0.00 0.00 0.00 0.00 0.00 0.00 0.00 0.00 0.00 0.00 0.01 0.03 0.05 0.02 0.03 0.03 0.02 0.10 0.17 0.22 0.18 0.16 0.19 0.20 0.22 0.28 0.33 0.35 0.38 0.44
0.13 0.11 0.09 0.05 0.10 0.13 0.04 0.01 0.01 0.01 0.00 0.00 0.00 0.01 0.01 0.00 0.00 0.00 0.00 0.00 0.00 0.00 0.01 0.01 0.03 0.03 0.01 0.02 0.03 0.06 0.09 0.11 0.12 0.15 0.19 0.23 0.26 0.29 0.32 0.28 0.23 0.18 0.18
0.23 0.23 0.17 0.12 0.07 0.04 0.03 0.02 0.02 0.01 0.01 0.01 0.01 0.01 0.01 0.01 0.01 0.00 0.00 0.00 0.00 0.01 0.01 0.01 0.00 0.00 0.00 0.01 0.02 0.02 0.03 0.03 0.06 0.09 0.15 0.18 0.20 0.18 0.15 0.13 0.10 0.07 0.05
0.00 0.00 0.00 0.01 0.02 0.02 0.03 0.03 0.03 0.04 0.04 0.05 0.05 0.04 0.03 0.02 0.01 0.01 0.01 0.00 0.00 0.00 0.00 0.00 0.00 0.00 0.00 0.01 0.01 0.02 0.03 0.04 0.05 0.06 0.07 0.08 0.07 0.06 0.05 0.05 0.04 0.02 0.01
0.00 0.00 0.00 0.00 0.00 0.00 0.01 0.01 0.01 0.03 0.01 0.01 0.02 0.02 0.02 0.03 0.04 0.01 0.00 0.00 0.00 0.00 0.00 0.00 0.00 0.00 0.00 0.00 0.01 0.01 0.01 0.02 0.02 0.03 0.03 0.03 0.02 0.02 0.01 0.01 0.00 0.00 0.00
0.00 0.00 0.00 0.00 0.00 0.00 0.00 0.01 0.01 0.02 0.01 0.01 0.02 0.02 0.03 0.03 0.01 0.00 0.00 0.00 0.00 0.00 0.00 0.00 0.00 0.00 0.00 0.00 0.00 0.00 0.01 0.01 0.01 0.01 0.01 0.01 0.01 0.01 0.00 0.00 0.00 0.00 0.00
0.00 0.00 0.00 0.00 0.00 0.00 0.00 0.00 0.01 0.01 0.01 0.01 0.01 0.01 0.01 0.01 0.00 0.00 0.00 0.00 0.00 0.00 0.00 0.00 0.00 0.00 0.00 0.00 0.00 0.00 0.00 0.00 0.00 0.00 0.00 0.00 0.00 0.00 0.00 0.00 0.00 0.00 0.00
0.00 0.00 0.00 0.01 0.01 0.01 0.01 0.01 0.01 0.02 0.01 0.01 0.00 0.01 0.01 0.00 0.00 0.00 0.00 0.00 0.00 0.00 0.00 0.00 0.00 0.00 0.00 0.00 0.00 0.00 0.00 0.00 0.00 0.00 0.00 0.00 0.00 0.00 0.00 0.00 0.00 0.00 0.00
0.00 0.01 0.01 0.00 0.00 0.00 0.00 0.00 0.00 0.00 0.00 0.00 0.00 0.00 0.00 0.00 0.00 0.00 0.00 0.00 0.00 0.00 0.00 0.00 0.00 0.00 0.00 0.00 0.00 0.00 0.00 0.00 0.00 0.00 0.00 0.00 0.00 0.00 0.00 0.00 0.00 0.00 0.00
0.00 0.00 0.00 0.00 0.00 0.00 0.00 0.00 0.00 0.00 0.00 0.00 0.00 0.00 0.00 0.00 0.00 0.00 0.00 0.00 0.00 0.00 0.00 0.00 0.00 0.00 0.00 0.00 0.00 0.00 0.00 0.00 0.00 0.00 0.00 0.00 0.00 0.00 0.00 0.00 0.00 0.00 0.00
0.00 0.00 0.00 0.00 0.00 0.00 0.00 0.00 0.00 0.00 0.00 0.00 0.00 0.00 0.00 0.00 0.00 0.00 0.00 0.00 0.00 0.00 0.00 0.00 0.00 0.00 0.00 0.00 0.00 0.00 0.00 0.00 0.00 0.00 0.00 0.00 0.00 0.00 0.00 0.00 0.00 0.00 0.00
0.00 0.00 0.00 0.00 0.00 0.00 0.00 0.00 0.00 0.00 0.00 0.00 0.00 0.00 0.00 0.00 0.00 0.00 0.00 0.00 0.00 0.00 0.00 0.00 0.00 0.00 0.00 0.00 0.00 0.00 0.00 0.00 0.00 0.00 0.00 0.00 0.00 0.00 0.00 0.00 0.00 0.00 0.00
0.00 0.00 0.00 0.00 0.00 0.00 0.00 0.00 0.00 0.00 0.00 0.00 0.00 0.00 0.00 0.00 0.00 0.00 0.00 0.01 0.00 0.01 0.00 0.00 0.00 0.00 0.00 0.00 0.01 0.00 0.00 0.00 0.00 0.00 0.00 0.00 0.00 0.00 0.00 0.00 0.00 0.00 0.00
0.00 0.00 0.00 0.00 0.00 0.00 0.01 0.01 0.00 0.00 0.00 0.01 0.01 0.00 0.00 0.00 0.01 0.00 0.00 0.00 0.00 0.01 0.00 0.00 0.00 0.00 0.00 0.00 0.00 0.00 0.00 0.00 0.00 0.00 0.00 0.00 0.00 0.00 0.00 0.00 0.00 0.00 0.00
0.00 0.00 0.00 0.00 0.01 0.01 0.01 0.00 0.01 0.01 0.01 0.01 0.01 0.01 0.00 0.00 0.00 0.01 0.01 0.00 0.00 0.00 0.00 0.00 0.00 0.00 0.00 0.00 0.00 0.00 0.00 0.00 0.00 0.00 0.00 0.00 0.00 0.00 0.00 0.00 0.00 0.00 0.00
0.00 0.00 0.00 0.00 0.00 0.01 0.01 0.01 0.01 0.01 0.01 0.01 0.01 0.01 0.01 0.00 0.00 0.00 0.00 0.00 0.00 0.00 0.00 0.00 0.00 0.00 0.00 0.00 0.01 0.00 0.00 0.00 0.00 0.00 0.00 0.00 0.01 0.00 0.00 0.00 0.00 0.00 0.00

GFSGL_prec_precacc12_087.txt.gz
Total_Precipitation_Accumulation
0.08 0.05 0.04 0.03 0.02 0.01 0.02 0.01 0.01 0.02 0.03 0.03 0.05 0.03 0.05 0.16 0.27 0.36 0.34 0.18 0.17 0.13 0.06 0.05 0.04 0.02 0.01 0.01 0.02 0.03 0.04 0.06 0.06 0.01 0.00 0.00 0.00 0.00 0.00 0.00 0.00 0.00 0.00
0.06 0.10 0.12 0.04 0.02 0.02 0.02 0.02 0.01 0.01 0.02 0.02 0.04 0.04 0.02 0.04 0.13 0.26 0.35 0.22 0.11 0.13 0.16 0.10 0.06 0.05 0.05 0.05 0.05 0.05 0.03 0.02 0.06 0.03 0.00 0.00 0.00 0.00 0.00 0.00 0.00 0.00 0.00
0.13 0.14 0.11 0.10 0.02 0.02 0.02 0.02 0.02 0.01 0.00 0.00 0.03 0.04 0.02 0.02 0.05 0.14 0.18 0.16 0.16 0.09 0.16 0.16 0.10 0.07 0.06 0.06 0.06 0.04 0.02 0.01 0.02 0.02 0.00 0.00 0.00 0.01 0.01 0.01 0.00 0.00 0.00
0.13 0.13 0.11 0.08 0.03 0.02 0.01 0.03 0.03 0.02 0.02 0.01 0.01 0.06 0.06 0.02 0.06 0.10 0.11 0.13 0.20 0.19 0.12 0.15 0.12 0.10 0.05 0.03 0.03 0.02 0.02 0.03 0.03 0.03 0.01 0.01 0.02 0.01 0.04 0.02 0.01 0.02 0.02
0.17 0.20 0.16 0.08 0.04 0.03 0.03 0.02 0.01 0.02 0.02 0.02 0.01 0.03 0.06 0.03 0.03 0.05 0.08 0.11 0.13 0.23 0.25 0.19 0.16 0.17 0.15 0.14 0.14 0.12 0.16 0.14 0.14 0.15 0.11 0.06 0.06 0.09 0.12 0.14 0.20 0.16 0.19
0.08 0.08 0.06 0.05 0.03 0.03 0.03 0.03 0.02 0.04 0.03 0.03 0.04 0.03 0.03 0.04 0.08 0.04 0.03 0.02 0.05 0.10 0.15 0.16 0.12 0.08 0.04 0.06 0.07 0.07 0.08 0.08 0.07 0.10 0.11 0.11 0.09 0.08 0.07 0.07 0.08 0.09 0.07
0.12 0.07 0.05 0.05 0.04 0.03 0.04 0.04 0.05 0.03 0.04 0.04 0.05 0.06 0.07 0.06 0.12 0.05 0.05 0.01 0.02 0.06 0.07 0.09 0.10 0.17 0.21 0.03 0.08 0.09 0.08 0.15 0.16 0.16 0.12 0.15 0.23 0.27 0.25 0.18 0.15 0.16 0.16
0.15 0.15 0.09 0.08 0.08 0.07 0.07 0.08 0.08 0.05 0.04 0.04 0.04 0.03 0.03 0.05 0.07 0.05 0.05 0.01 0.01 0.03 0.04 0.05 0.06 0.06 0.14 0.16 0.05 0.11 0.16 0.25 0.35 0.28 0.30 0.38 0.38 0.25 0.20 0.25 0.30 0.33 0.37
0.27 0.22 0.16 0.12 0.10 0.12 0.11 0.09 0.09 0.11 0.12 0.10 0.07 0.04 0.03 0.04 0.08 0.06 0.05 0.00 0.02 0.04 0.04 0.03 0.03 0.03 0.12 0.09 0.02 0.02 0.05 0.16 0.27 0.18 0.10 0.12 0.14 0.12 0.11 0.10 0.16 0.36 0.53
0.29 0.26 0.22 0.24 0.17 0.11 0.11 0.13 0.11 0.09 0.09 0.12 0.14 0.13 0.11 0.06 0.08 0.06 0.03 0.00 0.00 0.00 0.00 0.01 0.01 0.00 0.01 0.00 0.00 0.00 0.00 0.05 0.06 0.10 0.13 0.15 0.16 0.17 0.21 0.15 0.14 0.19 0.31
0.33 0.40 0.39 0.35 0.31 0.25 0.14 0.09 0.08 0.06 0.05 0.04 0.05 0.07 0.07 0.04 0.02 0.02 0.02 0.01 0.00 0.00 0.00 0.00 0.00 0.01 0.00 0.00 0.00 0.00 0.01 0.02 0.05 0.02 0.01 0.02 0.03 0.03 0.05 0.07 0.08 0.08 0.10
0.39 0.35 0.43 0.41 0.44 0.46 0.40 0.31 0.17 0.07 0.03 0.01 0.01 0.01 0.02 0.04 0.03 0.01 0.00 0.00 0.00 0.00 0.01 0.01 0.01 0.00 0.00 0.00 0.00 0.00 0.00 0.00 0.01 0.01 0.01 0.02 0.02 0.03 0.03 0.02 0.02 0.02 0.03
0.46 0.49 0.43 0.41 0.38 0.30 0.26 0.31 0.34 0.29 0.17 0.05 0.02 0.02 0.02 0.02 0.02 0.01 0.00 0.00 0.00 0.00 0.00 0.00 0.00 0.00 0.00 0.00 0.00 0.00 0.00 0.00 0.00 0.00 0.01 0.02 0.02 0.03 0.02 0.01 0.01 0.01 0.00
0.06 0.07 0.09 0.12 0.13 0.14 0.15 0.15 0.13 0.15 0.16 0.14 0.10 0.08 0.07 0.06 0.06 0.05 0.04 0.02 0.01 0.01 0.01 0.00 0.00 0.00 0.00 0.00 0.00 0.00 0.00 0.00 0.00 0.01 0.01 0.01 0.00 0.00 0.00 0.00 0.00 0.00 0.00
0.00 0.00 0.00 0.00 0.01 0.02 0.02 0.02 0.02 0.03 0.01 0.02 0.03 0.02 0.02 0.03 0.03 0.02 0.02 0.02 0.01 0.00 0.00 0.00 0.00 0.00 0.00 0.00 0.00 0.00 0.00 0.00 0.00 0.00 0.00 0.00 0.00 0.00 0.00 0.00 0.00 0.00 0.00
0.00 0.00 0.00 0.00 0.00 0.00 0.00 0.01 0.01 0.01 0.00 0.01 0.01 0.01 0.01 0.01 0.01 0.00 0.00 0.00 0.00 0.00 0.00 0.00 0.00 0.00 0.00 0.00 0.00 0.00 0.00 0.00 0.00 0.00 0.00 0.00 0.00 0.00 0.00 0.00 0.00 0.00 0.00
0.00 0.00 0.00 0.01 0.01 0.01 0.01 0.00 0.01 0.01 0.00 0.00 0.00 0.00 0.00 0.00 0.00 0.00 0.00 0.00 0.00 0.00 0.00 0.00 0.00 0.00 0.00 0.00 0.00 0.00 0.00 0.00 0.00 0.00 0.00 0.00 0.00 0.00 0.00 0.00 0.00 0.00 0.00
0.00 0.00 0.00 0.01 0.01 0.01 0.01 0.01 0.02 0.02 0.01 0.01 0.00 0.00 0.00 0.00 0.00 0.00 0.00 0.00 0.00 0.00 0.00 0.00 0.00 0.00 0.00 0.00 0.00 0.00 0.00 0.00 0.00 0.00 0.00 0.00 0.00 0.00 0.00 0.00 0.00 0.00 0.00
0.01 0.01 0.01 0.00 0.00 0.00 0.00 0.00 0.00 0.00 0.00 0.01 0.01 0.00 0.00 0.00 0.00 0.00 0.00 0.00 0.00 0.00 0.00 0.00 0.00 0.00 0.00 0.00 0.00 0.00 0.00 0.00 0.00 0.00 0.00 0.00 0.00 0.00 0.00 0.00 0.00 0.00 0.00
0.00 0.00 0.00 0.00 0.00 0.00 0.00 0.00 0.00 0.00 0.00 0.00 0.00 0.00 0.00 0.00 0.00 0.00 0.00 0.00 0.00 0.00 0.00 0.00 0.00 0.00 0.00 0.00 0.00 0.00 0.00 0.00 0.00 0.00 0.00 0.00 0.00 0.00 0.00 0.00 0.00 0.00 0.00
0.00 0.00 0.00 0.00 0.00 0.00 0.00 0.00 0.00 0.00 0.00 0.00 0.00 0.00 0.00 0.00 0.00 0.00 0.00 0.00 0.00 0.00 0.00 0.00 0.00 0.00 0.00 0.00 0.00 0.00 0.00 0.00 0.00 0.00 0.00 0.00 0.00 0.00 0.00 0.00 0.00 0.00 0.00
0.00 0.00 0.00 0.00 0.00 0.00 0.00 0.00 0.00 0.00 0.00 0.00 0.00 0.00 0.00 0.00 0.00 0.00 0.00 0.00 0.00 0.00 0.00 0.00 0.00 0.00 0.00 0.00 0.00 0.00 0.00 0.00 0.00 0.00 0.00 0.00 0.00 0.00 0.00 0.00 0.00 0.00 0.00
0.00 0.00 0.00 0.00 0.00 0.00 0.00 0.00 0.00 0.00 0.00 0.00 0.00 0.00 0.00 0.00 0.00 0.00 0.00 0.01 0.01 0.01 0.00 0.00 0.00 0.00 0.00 0.00 0.01 0.00 0.00 0.00 0.00 0.00 0.00 0.00 0.00 0.00 0.00 0.00 0.00 0.00 0.00
0.00 0.00 0.00 0.00 0.00 0.00 0.01 0.01 0.00 0.00 0.00 0.01 0.01 0.00 0.00 0.00 0.01 0.00 0.00 0.00 0.00 0.01 0.00 0.00 0.00 0.00 0.00 0.00 0.00 0.00 0.00 0.00 0.00 0.00 0.00 0.00 0.00 0.00 0.00 0.00 0.00 0.00 0.00
0.00 0.00 0.00 0.00 0.01 0.01 0.01 0.00 0.01 0.01 0.01 0.01 0.01 0.01 0.00 0.00 0.00 0.01 0.01 0.00 0.00 0.00 0.00 0.00 0.00 0.00 0.00 0.00 0.01 0.00 0.00 0.00 0.00 0.00 0.00 0.00 0.00 0.00 0.00 0.00 0.00 0.00 0.00
0.00 0.00 0.00 0.00 0.00 0.01 0.01 0.01 0.01 0.01 0.01 0.01 0.01 0.01 0.01 0.00 0.00 0.00 0.00 0.00 0.00 0.00 0.00 0.01 0.00 0.00 0.00 0.00 0.01 0.00 0.00 0.00 0.00 0.00 0.00 0.00 0.01 0.00 0.00 0.00 0.00 0.00 0.00

GFSGL_prec_precacc12_090.txt.gz
Total_Precipitation_Accumulation
0.39 0.19 0.06 0.04 0.03 0.03 0.03 0.02 0.02 0.02 0.02 0.03 0.04 0.01 0.04 0.14 0.28 0.47 0.54 0.30 0.28 0.28 0.21 0.16 0.14 0.09 0.05 0.03 0.02 0.03 0.03 0.04 0.04 0.00 0.01 0.00 0.00 0.00 0.00 0.00 0.01 0.01 0.01
0.33 0.22 0.16 0.07 0.09 0.04 0.02 0.02 0.02 0.01 0.01 0.02 0.04 0.03 0.01 0.03 0.16 0.38 0.54 0.41 0.24 0.28 0.30 0.20 0.16 0.15 0.11 0.08 0.04 0.02 0.01 0.01 0.03 0.01 0.00 0.01 0.01 0.00 0.00 0.00 0.00 0.00 0.00
0.52 0.27 0.15 0.15 0.08 0.03 0.02 0.03 0.03 0.02 0.01 0.01 0.03 0.04 0.02 0.01 0.07 0.30 0.36 0.41 0.30 0.23 0.31 0.27 0.20 0.16 0.15 0.11 0.08 0.05 0.03 0.02 0.02 0.01 0.00 0.00 0.00 0.00 0.01 0.00 0.00 0.00 0.00
0.42 0.30 0.17 0.13 0.06 0.02 0.02 0.03 0.03 0.03 0.02 0.01 0.01 0.06 0.06 0.02 0.08 0.15 0.20 0.28 0.38 0.34 0.24 0.30 0.30 0.22 0.11 0.05 0.04 0.04 0.05 0.07 0.05 0.04 0.01 0.00 0.01 0.01 0.03 0.01 0.01 0.01 0.03
0.33 0.40 0.22 0.11 0.06 0.04 0.03 0.02 0.02 0.02 0.01 0.01 0.01 0.03 0.06 0.02 0.03 0.06 0.10 0.16 0.31 0.47 0.44 0.34 0.25 0.26 0.24 0.20 0.17 0.14 0.14 0.12 0.11 0.12 0.09 0.06 0.06 0.08 0.12 0.14 0.18 0.16 0.19
0.14 0.16 0.14 0.09 0.06 0.03 0.03 0.03 0.03 0.03 0.03 0.03 0.04 0.03 0.05 0.03 0.08 0.06 0.05 0.06 0.09 0.15 0.20 0.20 0.16 0.12 0.06 0.08 0.09 0.08 0.08 0.08 0.08 0.10 0.11 0.11 0.09 0.08 0.07 0.07 0.09 0.10 0.09
0.23 0.15 0.11 0.10 0.08 0.04 0.04 0.05 0.06 0.04 0.04 0.04 0.05 0.06 0.05 0.04 0.08 0.05 0.04 0.02 0.04 0.04 0.04 0.07 0.08 0.13 0.16 0.04 0.08 0.07 0.07 0.13 0.14 0.13 0.10 0.14 0.21 0.25 0.24 0.22 0.20 0.22 0.23
0.24 0.25 0.14 0.10 0.11 0.09 0.08 0.11 0.13 0.08 0.07 0.07 0.06 0.05 0.03 0.06 0.09 0.08 0.09 0.02 0.02 0.02 0.03 0.03 0.04 0.06 0.13 0.16 0.08 0.11 0.15 0.18 0.23 0.22 0.25 0.33 0.31 0.21 0.19 0.22 0.26 0.27 0.27
0.38 0.33 0.34 0.32 0.24 0.19 0.14 0.11 0.11 0.14 0.14 0.12 0.10 0.07 0.04 0.05 0.10 0.08 0.08 0.02 0.03 0.05 0.04 0.04 0.04 0.03 0.12 0.09 0.03 0.02 0.04 0.05 0.14 0.09 0.04 0.05 0.06 0.05 0.05 0.06 0.10 0.14 0.19
0.33 0.38 0.41 0.47 0.44 0.35 0.28 0.22 0.16 0.14 0.13 0.15 0.18 0.17 0.17 0.09 0.14 0.11 0.08 0.03 0.04 0.02 0.02 0.03 0.05 0.02 0.04 0.02 0.01 0.00 0.00 0.01 0.00 0.02 0.03 0.03 0.02 0.03 0.04 0.01 0.00 0.01 0.03
0.42 0.48 0.53 0.57 0.60 0.52 0.34 0.25 0.23 0.18 0.17 0.16 0.15 0.17 0.16 0.15 0.18 0.16 0.14 0.09 0.08 0.06 0.06 0.05 0.04 0.03 0.01 0.01 0.00 0.00 0.00 0.00 0.00 0.00 0.00 0.00 0.00 0.00 0.00 0.00 0.00 0.00 0.01
0.53 0.45 0.54 0.57 0.64 0.74 0.74 0.60 0.38 0.25 0.19 0.14 0.12 0.11 0.11 0.14 0.14 0.15 0.08 0.03 0.03 0.02 0.02 0.01 0.01 0.00 0.00 0.00 0.00 0.00 0.00 0.00 0.00 0.00 0.00 0.00 0.00 0.00 0.00 0.00 0.00 0.00 0.00
0.54 0.58 0.52 0.49 0.51 0.48 0.50 0.60 0.66 0.61 0.45 0.26 0.13 0.08 0.07 0.06 0.05 0.04 0.05 0.05 0.04 0.03 0.02 0.01 0.00 0.00 0.00 0.00 0.00 0.00 0.00 0.00 0.00 0.00 0.00 0.01 0.00 0.00 0.00 0.00 0.00 0.00 0.00
0.09 0.11 0.16 0.20 0.22 0.23 0.26 0.28 0.30 0.35 0.39 0.42 0.38 0.31 0.22 0.15 0.11 0.08 0.06 0.04 0.03 0.03 0.02 0.01 0.01 0.00 0.00 0.00 0.00 0.00 0.00 0.00 0.00 0.00 0.00 0.00 0.00 0.00 0.00 0.00 0.00 0.00 0.00
0.01 0.02 0.03 0.05 0.08 0.09 0.09 0.09 0.10 0.12 0.11 0.11 0.13 0.14 0.15 0.16 0.15 0.11 0.07 0.05 0.03 0.02 0.01 0.01 0.01 0.00 0.00 0.00 0.00 0.00 0.00 0.00 0.00 0.00 0.00 0.00 0.00 0.00 0.00 0.00 0.00 0.00 0.00
0.00 0.00 0.00 0.00 0.00 0.00 0.00 0.01 0.01 0.01 0.01 0.00 0.01 0.01 0.01 0.01 0.00 0.00 0.00 0.00 0.00 0.00 0.00 0.00 0.00 0.00 0.00 0.00 0.00 0.00 0.00 0.00 0.00 0.00 0.00 0.00 0.00 0.00 0.00 0.00 0.00 0.00 0.00
0.00 0.01 0.01 0.01 0.01 0.01 0.01 0.00 0.01 0.01 0.00 0.00 0.00 0.00 0.00 0.00 0.00 0.00 0.00 0.00 0.00 0.00 0.00 0.00 0.00 0.00 0.00 0.00 0.00 0.00 0.00 0.00 0.00 0.00 0.00 0.00 0.00 0.00 0.00 0.00 0.00 0.00 0.00
0.00 0.00 0.00 0.01 0.01 0.01 0.01 0.01 0.01 0.02 0.01 0.01 0.00 0.00 0.00 0.00 0.00 0.00 0.00 0.00 0.00 0.00 0.00 0.00 0.00 0.00 0.00 0.00 0.00 0.00 0.00 0.00 0.00 0.00 0.00 0.00 0.00 0.00 0.00 0.00 0.00 0.00 0.00
0.01 0.01 0.00 0.00 0.00 0.00 0.00 0.00 0.00 0.00 0.00 0.01 0.01 0.00 0.00 0.00 0.00 0.00 0.00 0.00 0.00 0.00 0.00 0.00 0.00 0.00 0.00 0.00 0.00 0.00 0.00 0.00 0.00 0.00 0.00 0.00 0.00 0.00 0.00 0.00 0.00 0.00 0.00
0.00 0.00 0.00 0.00 0.00 0.00 0.00 0.00 0.00 0.00 0.00 0.00 0.00 0.00 0.00 0.00 0.00 0.00 0.00 0.00 0.00 0.00 0.00 0.00 0.00 0.00 0.00 0.00 0.00 0.00 0.00 0.00 0.00 0.00 0.00 0.00 0.00 0.00 0.00 0.00 0.00 0.00 0.00
0.00 0.00 0.00 0.00 0.00 0.00 0.00 0.00 0.00 0.00 0.00 0.00 0.00 0.00 0.00 0.00 0.00 0.00 0.00 0.00 0.00 0.00 0.00 0.00 0.00 0.00 0.00 0.00 0.00 0.00 0.00 0.00 0.00 0.00 0.00 0.00 0.00 0.00 0.00 0.00 0.00 0.00 0.00
0.00 0.00 0.00 0.00 0.00 0.00 0.00 0.00 0.00 0.00 0.00 0.00 0.00 0.00 0.00 0.00 0.00 0.00 0.00 0.00 0.00 0.00 0.00 0.00 0.00 0.00 0.00 0.00 0.00 0.00 0.00 0.00 0.00 0.00 0.00 0.00 0.00 0.00 0.00 0.00 0.00 0.00 0.00
0.00 0.00 0.00 0.00 0.00 0.00 0.00 0.00 0.00 0.00 0.00 0.00 0.00 0.00 0.00 0.00 0.00 0.00 0.00 0.00 0.00 0.00 0.00 0.00 0.00 0.00 0.00 0.00 0.01 0.00 0.00 0.00 0.00 0.00 0.00 0.00 0.00 0.00 0.00 0.00 0.00 0.00 0.00
0.00 0.00 0.00 0.00 0.00 0.00 0.00 0.00 0.00 0.00 0.00 0.00 0.00 0.00 0.00 0.00 0.00 0.00 0.00 0.00 0.00 0.01 0.00 0.00 0.00 0.00 0.00 0.00 0.00 0.00 0.00 0.00 0.00 0.00 0.00 0.00 0.00 0.00 0.00 0.00 0.00 0.00 0.00
0.00 0.00 0.00 0.00 0.00 0.00 0.01 0.00 0.00 0.00 0.01 0.01 0.00 0.00 0.00 0.00 0.00 0.00 0.00 0.00 0.00 0.00 0.00 0.00 0.00 0.00 0.00 0.00 0.00 0.00 0.00 0.00 0.00 0.00 0.00 0.00 0.00 0.01 0.00 0.00 0.00 0.00 0.00
0.00 0.00 0.00 0.00 0.00 0.01 0.01 0.01 0.01 0.01 0.01 0.01 0.01 0.01 0.01 0.00 0.01 0.00 0.00 0.00 0.00 0.00 0.00 0.00 0.00 0.00 0.00 0.00 0.00 0.00 0.00 0.00 0.00 0.00 0.00 0.00 0.01 0.00 0.00 0.00 0.00 0.00 0.00

GFSGL_prec_precacc12_093.txt.gz
Total_Precipitation_Accumulation
0.58 0.42 0.32 0.17 0.12 0.07 0.03 0.02 0.01 0.01 0.00 0.01 0.01 0.00 0.02 0.08 0.21 0.44 0.65 0.44 0.50 0.51 0.42 0.40 0.30 0.18 0.10 0.05 0.03 0.04 0.04 0.03 0.03 0.03 0.02 0.01 0.00 0.00 0.00 0.00 0.01 0.01 0.01
0.59 0.49 0.39 0.20 0.15 0.06 0.03 0.02 0.02 0.01 0.01 0.00 0.01 0.01 0.00 0.02 0.14 0.37 0.65 0.67 0.48 0.47 0.50 0.40 0.35 0.27 0.18 0.13 0.08 0.07 0.06 0.04 0.04 0.02 0.01 0.01 0.01 0.00 0.00 0.00 0.00 0.00 0.01
0.85 0.60 0.41 0.26 0.12 0.05 0.02 0.02 0.03 0.02 0.02 0.01 0.01 0.02 0.01 0.00 0.07 0.31 0.46 0.64 0.58 0.42 0.47 0.51 0.42 0.31 0.27 0.23 0.17 0.13 0.07 0.05 0.04 0.02 0.00 0.01 0.01 0.00 0.00 0.00 0.00 0.00 0.00
0.71 0.83 0.58 0.26 0.10 0.04 0.02 0.02 0.02 0.02 0.01 0.01 0.02 0.06 0.06 0.01 0.09 0.18 0.26 0.43 0.58 0.56 0.49 0.55 0.50 0.40 0.24 0.19 0.16 0.12 0.10 0.08 0.05 0.01 0.01 0.02 0.03 0.02 0.02 0.01 0.00 0.01 0.02
0.53 1.06 1.03 0.40 0.11 0.03 0.03 0.02 0.01 0.01 0.01 0.01 0.01 0.03 0.06 0.02 0.03 0.09 0.16 0.25 0.46 0.60 0.57 0.52 0.33 0.32 0.31 0.25 0.21 0.14 0.09 0.08 0.08 0.06 0.05 0.06 0.07 0.09 0.11 0.13 0.17 0.16 0.21
0.33 0.67 0.92 0.72 0.12 0.03 0.03 0.03 0.02 0.03 0.03 0.03 0.03 0.04 0.06 0.03 0.08 0.06 0.08 0.10 0.12 0.22 0.27 0.28 0.27 0.24 0.20 0.22 0.21 0.19 0.15 0.12 0.09 0.07 0.08 0.09 0.08 0.07 0.06 0.05 0.07 0.08 0.10
0.31 0.38 0.35 0.49 0.32 0.10 0.06 0.04 0.04 0.03 0.03 0.03 0.05 0.06 0.06 0.05 0.08 0.09 0.09 0.05 0.07 0.06 0.10 0.14 0.13 0.21 0.22 0.12 0.12 0.10 0.09 0.10 0.08 0.06 0.05 0.08 0.10 0.14 0.16 0.17 0.19 0.23 0.25
0.36 0.38 0.42 0.33 0.34 0.14 0.10 0.10 0.12 0.07 0.05 0.05 0.05 0.05 0.04 0.07 0.09 0.11 0.11 0.03 0.04 0.07 0.06 0.05 0.06 0.08 0.16 0.17 0.09 0.09 0.11 0.11 0.14 0.14 0.13 0.15 0.14 0.11 0.10 0.10 0.10 0.09 0.08
0.40 0.53 0.56 0.49 0.40 0.26 0.21 0.15 0.14 0.14 0.14 0.13 0.11 0.08 0.06 0.07 0.13 0.12 0.11 0.02 0.03 0.05 0.06 0.06 0.05 0.04 0.12 0.10 0.03 0.04 0.06 0.06 0.09 0.06 0.03 0.04 0.04 0.02 0.01 0.01 0.00 0.00 0.01
0.38 0.45 0.53 0.61 0.62 0.63 0.51 0.33 0.23 0.20 0.17 0.17 0.19 0.18 0.19 0.10 0.17 0.16 0.13 0.05 0.06 0.03 0.03 0.07 0.09 0.05 0.08 0.05 0.02 0.01 0.03 0.05 0.05 0.03 0.02 0.01 0.01 0.00 0.00 0.00 0.00 0.00 0.00
0.50 0.54 0.58 0.66 0.74 0.69 0.57 0.51 0.45 0.34 0.28 0.24 0.21 0.21 0.20 0.19 0.23 0.23 0.22 0.16 0.17 0.14 0.09 0.09 0.13 0.12 0.07 0.06 0.05 0.03 0.03 0.02 0.01 0.00 0.00 0.00 0.00 0.00 0.00 0.00 0.00 0.00 0.00
0.58 0.53 0.61 0.61 0.69 0.83 0.88 0.78 0.59 0.49 0.41 0.31 0.25 0.24 0.24 0.31 0.31 0.29 0.21 0.16 0.15 0.10 0.10 0.07 0.06 0.05 0.04 0.02 0.01 0.01 0.00 0.00 0.00 0.00 0.00 0.00 0.00 0.00 0.00 0.00 0.00 0.00 0.00
0.57 0.62 0.57 0.56 0.56 0.52 0.54 0.66 0.76 0.75 0.61 0.43 0.28 0.22 0.20 0.21 0.25 0.27 0.27 0.24 0.18 0.12 0.09 0.06 0.02 0.01 0.00 0.00 0.00 0.00 0.00 0.00 0.00 0.00 0.00 0.00 0.00 0.00 0.00 0.00 0.00 0.00 0.00
0.11 0.15 0.20 0.25 0.27 0.28 0.30 0.32 0.34 0.42 0.49 0.55 0.52 0.45 0.37 0.30 0.25 0.21 0.15 0.11 0.09 0.08 0.07 0.07 0.05 0.03 0.02 0.02 0.00 0.00 0.00 0.00 0.00 0.00 0.00 0.00 0.00 0.00 0.00 0.00 0.00 0.00 0.00
0.03 0.05 0.07 0.09 0.12 0.14 0.14 0.15 0.15 0.18 0.17 0.19 0.24 0.27 0.30 0.32 0.32 0.27 0.22 0.19 0.16 0.13 0.10 0.08 0.06 0.05 0.05 0.04 0.03 0.02 0.01 0.00 0.00 0.00 0.00 0.00 0.00 0.00 0.00 0.00 0.00 0.00 0.00
0.01 0.01 0.01 0.01 0.01 0.03 0.03 0.04 0.04 0.04 0.03 0.02 0.03 0.03 0.05 0.07 0.06 0.06 0.05 0.05 0.04 0.04 0.03 0.03 0.03 0.02 0.02 0.01 0.00 0.00 0.00 0.00 0.00 0.00 0.00 0.00 0.00 0.00 0.00 0.00 0.00 0.00 0.00
0.01 0.01 0.01 0.01 0.01 0.01 0.00 0.00 0.01 0.01 0.01 0.01 0.00 0.00 0.00 0.00 0.00 0.00 0.00 0.00 0.00 0.00 0.00 0.00 0.00 0.00 0.00 0.00 0.00 0.00 0.00 0.00 0.00 0.00 0.00 0.00 0.00 0.00 0.00 0.00 0.00 0.00 0.00
0.00 0.00 0.00 0.00 0.00 0.00 0.01 0.01 0.01 0.01 0.00 0.00 0.01 0.00 0.00 0.00 0.00 0.00 0.00 0.00 0.00 0.00 0.00 0.00 0.00 0.00 0.00 0.00 0.00 0.00 0.00 0.00 0.00 0.00 0.00 0.00 0.00 0.00 0.00 0.00 0.00 0.00 0.00
0.00 0.00 0.00 0.00 0.00 0.00 0.00 0.00 0.00 0.00 0.00 0.01 0.01 0.00 0.00 0.00 0.00 0.00 0.00 0.00 0.00 0.00 0.00 0.00 0.00 0.00 0.00 0.00 0.00 0.00 0.00 0.00 0.00 0.00 0.00 0.00 0.00 0.00 0.00 0.00 0.00 0.00 0.00
0.00 0.00 0.00 0.00 0.00 0.00 0.00 0.00 0.00 0.00 0.00 0.00 0.00 0.00 0.00 0.00 0.00 0.00 0.00 0.00 0.00 0.00 0.00 0.00 0.00 0.00 0.00 0.00 0.00 0.00 0.00 0.00 0.00 0.00 0.00 0.00 0.00 0.00 0.00 0.00 0.00 0.00 0.00
0.00 0.00 0.00 0.00 0.00 0.00 0.00 0.00 0.00 0.00 0.00 0.00 0.00 0.00 0.00 0.00 0.00 0.00 0.00 0.00 0.00 0.00 0.00 0.00 0.00 0.00 0.00 0.00 0.00 0.00 0.00 0.00 0.00 0.00 0.00 0.00 0.00 0.00 0.00 0.00 0.00 0.00 0.00
0.00 0.00 0.00 0.00 0.00 0.00 0.00 0.00 0.00 0.00 0.00 0.00 0.00 0.00 0.00 0.00 0.00 0.00 0.00 0.00 0.00 0.00 0.00 0.00 0.00 0.00 0.00 0.00 0.00 0.00 0.00 0.00 0.00 0.00 0.00 0.00 0.00 0.00 0.00 0.00 0.00 0.00 0.00
0.00 0.00 0.00 0.00 0.00 0.00 0.00 0.00 0.00 0.00 0.00 0.00 0.00 0.00 0.00 0.00 0.00 0.00 0.00 0.00 0.00 0.00 0.00 0.00 0.00 0.00 0.00 0.00 0.00 0.00 0.00 0.00 0.00 0.00 0.00 0.00 0.00 0.00 0.00 0.00 0.00 0.00 0.00
0.00 0.00 0.00 0.00 0.00 0.00 0.00 0.00 0.00 0.00 0.00 0.00 0.00 0.00 0.00 0.00 0.00 0.00 0.00 0.00 0.00 0.00 0.00 0.00 0.00 0.00 0.00 0.00 0.00 0.00 0.00 0.00 0.00 0.00 0.00 0.00 0.00 0.00 0.00 0.00 0.00 0.00 0.00
0.00 0.00 0.00 0.00 0.00 0.00 0.00 0.00 0.00 0.00 0.00 0.00 0.00 0.00 0.00 0.00 0.00 0.00 0.00 0.00 0.00 0.00 0.00 0.00 0.00 0.00 0.00 0.00 0.00 0.00 0.00 0.00 0.00 0.00 0.00 0.00 0.00 0.01 0.00 0.00 0.00 0.00 0.00
0.00 0.00 0.00 0.00 0.01 0.01 0.01 0.01 0.01 0.01 0.01 0.01 0.01 0.00 0.00 0.00 0.00 0.00 0.00 0.00 0.00 0.00 0.00 0.00 0.00 0.00 0.00 0.00 0.00 0.00 0.00 0.00 0.00 0.00 0.00 0.00 0.00 0.00 0.00 0.00 0.00 0.00 0.00

GFSGL_prec_precacc12_099.txt.gz
Total_Precipitation_Accumulation
0.75 0.70 0.58 0.38 0.28 0.21 0.20 0.14 0.22 0.16 0.16 0.04 0.02 0.01 0.01 0.02 0.07 0.19 0.37 0.34 0.46 0.58 0.58 0.55 0.43 0.31 0.31 0.24 0.18 0.15 0.12 0.08 0.08 0.13 0.03 0.01 0.01 0.01 0.01 0.00 0.01 0.01 0.01
0.70 0.59 0.41 0.36 0.40 0.20 0.15 0.11 0.07 0.06 0.04 0.01 0.01 0.01 0.01 0.01 0.06 0.19 0.39 0.52 0.47 0.49 0.57 0.62 0.65 0.46 0.34 0.31 0.27 0.23 0.15 0.12 0.06 0.10 0.10 0.03 0.02 0.02 0.02 0.02 0.02 0.01 0.01
0.96 0.68 0.55 0.40 0.33 0.20 0.11 0.09 0.06 0.03 0.02 0.02 0.01 0.00 0.00 0.00 0.03 0.18 0.30 0.55 0.58 0.56 0.52 0.62 0.60 0.56 0.47 0.33 0.26 0.27 0.23 0.18 0.15 0.10 0.10 0.06 0.04 0.03 0.02 0.02 0.03 0.02 0.01
0.78 0.89 0.70 0.62 0.51 0.26 0.16 0.09 0.05 0.03 0.01 0.01 0.01 0.01 0.01 0.00 0.04 0.10 0.18 0.34 0.49 0.60 0.64 0.66 0.72 0.62 0.50 0.39 0.32 0.29 0.29 0.25 0.18 0.16 0.12 0.10 0.08 0.07 0.07 0.06 0.05 0.03 0.03
0.61 1.06 1.13 0.80 0.63 0.63 0.50 0.27 0.06 0.02 0.01 0.01 0.01 0.01 0.01 0.00 0.02 0.06 0.14 0.21 0.42 0.53 0.57 0.65 0.57 0.64 0.63 0.53 0.43 0.37 0.30 0.24 0.20 0.17 0.16 0.14 0.13 0.14 0.14 0.15 0.14 0.10 0.11
0.49 0.78 1.13 1.62 0.94 0.89 0.98 0.93 0.39 0.05 0.03 0.01 0.01 0.02 0.03 0.02 0.05 0.04 0.08 0.12 0.15 0.23 0.31 0.42 0.63 0.67 0.69 0.71 0.66 0.57 0.49 0.34 0.25 0.18 0.17 0.17 0.14 0.13 0.18 0.24 0.23 0.20 0.21
0.33 0.69 0.80 0.95 1.37 0.96 1.03 1.02 0.97 0.24 0.04 0.04 0.03 0.03 0.03 0.03 0.06 0.07 0.09 0.07 0.11 0.08 0.13 0.25 0.37 0.70 0.75 0.58 0.63 0.63 0.59 0.49 0.33 0.26 0.20 0.17 0.13 0.13 0.15 0.20 0.18 0.19 0.18
0.28 0.43 0.62 0.49 0.91 1.21 0.87 0.80 0.72 0.31 0.08 0.06 0.05 0.04 0.03 0.04 0.07 0.10 0.12 0.04 0.10 0.14 0.10 0.10 0.15 0.29 0.61 0.66 0.56 0.57 0.51 0.43 0.38 0.28 0.22 0.21 0.19 0.16 0.13 0.14 0.14 0.13 0.14
0.24 0.43 0.61 0.72 0.78 0.87 1.09 0.86 0.70 0.39 0.10 0.05 0.04 0.04 0.03 0.04 0.07 0.10 0.10 0.02 0.03 0.06 0.12 0.13 0.11 0.07 0.19 0.31 0.26 0.27 0.30 0.31 0.29 0.27 0.21 0.17 0.16 0.14 0.11 0.08 0.07 0.08 0.09
0.18 0.27 0.41 0.57 0.80 1.01 1.10 1.07 0.88 0.65 0.30 0.15 0.10 0.07 0.10 0.05 0.11 0.13 0.13 0.06 0.09 0.06 0.06 0.13 0.19 0.14 0.18 0.15 0.11 0.12 0.17 0.21 0.23 0.21 0.16 0.11 0.08 0.08 0.06 0.04 0.07 0.07 0.08
0.22 0.18 0.22 0.33 0.52 0.68 0.82 0.90 0.98 0.92 0.68 0.42 0.32 0.26 0.21 0.24 0.26 0.25 0.25 0.17 0.19 0.18 0.15 0.15 0.19 0.20 0.14 0.14 0.11 0.08 0.11 0.09 0.11 0.09 0.10 0.11 0.08 0.05 0.03 0.02 0.02 0.02 0.02
0.22 0.20 0.20 0.21 0.28 0.41 0.56 0.63 0.66 0.73 0.82 0.75 0.55 0.50 0.45 0.48 0.49 0.44 0.33 0.26 0.24 0.17 0.20 0.18 0.22 0.21 0.16 0.13 0.09 0.12 0.09 0.04 0.01 0.01 0.02 0.01 0.01 0.02 0.03 0.03 0.01 0.01 0.00
0.13 0.15 0.17 0.16 0.19 0.24 0.30 0.37 0.46 0.52 0.54 0.57 0.53 0.47 0.48 0.49 0.53 0.51 0.49 0.45 0.38 0.26 0.26 0.29 0.28 0.18 0.11 0.10 0.09 0.05 0.01 0.00 0.00 0.00 0.00 0.01 0.01 0.00 0.00 0.00 0.00 0.00 0.00
0.05 0.08 0.12 0.13 0.14 0.15 0.15 0.19 0.23 0.31 0.38 0.46 0.49 0.47 0.45 0.39 0.38 0.37 0.32 0.29 0.27 0.26 0.27 0.23 0.18 0.13 0.10 0.08 0.06 0.03 0.02 0.01 0.01 0.02 0.02 0.01 0.01 0.01 0.00 0.00 0.00 0.00 0.00
0.03 0.05 0.07 0.09 0.12 0.13 0.14 0.16 0.16 0.20 0.19 0.22 0.28 0.31 0.34 0.38 0.43 0.37 0.32 0.28 0.27 0.26 0.25 0.25 0.25 0.23 0.21 0.19 0.15 0.13 0.10 0.07 0.07 0.06 0.05 0.04 0.04 0.03 0.02 0.02 0.01 0.01 0.01
0.01 0.01 0.01 0.01 0.02 0.03 0.03 0.05 0.06 0.08 0.06 0.05 0.06 0.07 0.10 0.13 0.12 0.11 0.11 0.10 0.09 0.08 0.07 0.09 0.11 0.11 0.10 0.09 0.08 0.08 0.07 0.06 0.05 0.04 0.03 0.02 0.02 0.01 0.01 0.01 0.00 0.00 0.00
0.00 0.00 0.00 0.00 0.00 0.01 0.00 0.00 0.01 0.02 0.02 0.03 0.02 0.02 0.02 0.01 0.00 0.00 0.00 0.00 0.00 0.00 0.01 0.01 0.02 0.02 0.02 0.02 0.03 0.03 0.04 0.04 0.04 0.03 0.03 0.02 0.02 0.01 0.01 0.01 0.00 0.00 0.00
0.00 0.00 0.00 0.00 0.00 0.00 0.00 0.00 0.00 0.00 0.00 0.01 0.02 0.01 0.00 0.00 0.00 0.00 0.00 0.00 0.00 0.00 0.00 0.00 0.00 0.00 0.00 0.00 0.00 0.00 0.00 0.00 0.00 0.00 0.00 0.00 0.00 0.00 0.00 0.00 0.00 0.00 0.00
0.00 0.00 0.00 0.00 0.00 0.00 0.00 0.00 0.00 0.00 0.00 0.00 0.00 0.00 0.00 0.00 0.00 0.00 0.00 0.00 0.00 0.00 0.00 0.00 0.00 0.00 0.00 0.00 0.00 0.00 0.00 0.00 0.00 0.00 0.00 0.00 0.00 0.00 0.00 0.00 0.00 0.00 0.00
0.00 0.00 0.00 0.00 0.00 0.00 0.00 0.00 0.00 0.00 0.00 0.00 0.00 0.00 0.00 0.00 0.00 0.00 0.00 0.00 0.00 0.00 0.00 0.00 0.00 0.00 0.00 0.00 0.00 0.00 0.00 0.00 0.00 0.00 0.00 0.00 0.00 0.00 0.00 0.00 0.00 0.00 0.00
0.00 0.00 0.00 0.00 0.00 0.00 0.00 0.00 0.00 0.00 0.00 0.00 0.00 0.00 0.00 0.00 0.00 0.00 0.00 0.00 0.00 0.00 0.00 0.00 0.00 0.00 0.00 0.00 0.00 0.00 0.00 0.00 0.00 0.00 0.00 0.00 0.00 0.00 0.00 0.00 0.00 0.00 0.00
0.00 0.00 0.00 0.00 0.00 0.00 0.00 0.00 0.00 0.00 0.00 0.00 0.00 0.00 0.00 0.00 0.00 0.00 0.00 0.00 0.00 0.00 0.00 0.00 0.00 0.00 0.00 0.00 0.00 0.00 0.00 0.00 0.00 0.00 0.00 0.00 0.00 0.00 0.00 0.00 0.00 0.00 0.00
0.00 0.00 0.00 0.00 0.00 0.00 0.00 0.00 0.00 0.00 0.00 0.00 0.00 0.00 0.00 0.00 0.00 0.00 0.00 0.00 0.00 0.00 0.00 0.00 0.00 0.00 0.00 0.00 0.00 0.00 0.00 0.00 0.00 0.00 0.00 0.00 0.00 0.00 0.00 0.00 0.00 0.00 0.00
0.00 0.00 0.00 0.00 0.00 0.00 0.00 0.00 0.00 0.00 0.00 0.00 0.00 0.00 0.00 0.00 0.00 0.00 0.00 0.00 0.00 0.00 0.00 0.00 0.00 0.00 0.00 0.00 0.00 0.00 0.00 0.00 0.00 0.00 0.00 0.00 0.00 0.00 0.00 0.00 0.00 0.00 0.00
0.00 0.00 0.00 0.00 0.00 0.00 0.01 0.01 0.01 0.01 0.01 0.00 0.00 0.00 0.00 0.00 0.00 0.00 0.00 0.00 0.00 0.00 0.00 0.00 0.00 0.00 0.00 0.00 0.00 0.00 0.00 0.00 0.00 0.00 0.00 0.00 0.00 0.00 0.00 0.00 0.00 0.00 0.00
0.00 0.00 0.00 0.00 0.01 0.01 0.01 0.02 0.02 0.01 0.01 0.01 0.01 0.01 0.01 0.01 0.00 0.00 0.00 0.00 0.00 0.00 0.00 0.00 0.00 0.00 0.00 0.00 0.00 0.00 0.00 0.00 0.00 0.00 0.00 0.00 0.00 0.00 0.00 0.00 0.00 0.00 0.00

GFSGL_prec_precacc12_102.txt.gz
Total_Precipitation_Accumulation
0.55 0.69 0.63 0.43 0.32 0.24 0.24 0.19 0.26 0.19 0.21 0.12 0.11 0.11 0.16 0.17 0.14 0.12 0.16 0.18 0.32 0.43 0.45 0.45 0.33 0.24 0.28 0.23 0.19 0.16 0.12 0.10 0.13 0.20 0.10 0.08 0.07 0.04 0.03 0.01 0.00 0.00 0.00
0.52 0.64 0.57 0.49 0.49 0.33 0.24 0.21 0.16 0.12 0.09 0.06 0.06 0.09 0.08 0.06 0.03 0.07 0.20 0.31 0.33 0.32 0.42 0.53 0.56 0.36 0.28 0.29 0.27 0.26 0.19 0.15 0.09 0.15 0.16 0.10 0.06 0.04 0.07 0.06 0.05 0.02 0.01
0.63 0.68 0.61 0.44 0.45 0.40 0.34 0.24 0.19 0.05 0.02 0.01 0.02 0.02 0.04 0.04 0.02 0.03 0.12 0.30 0.44 0.43 0.36 0.50 0.50 0.48 0.40 0.33 0.30 0.30 0.27 0.21 0.17 0.11 0.14 0.09 0.06 0.06 0.07 0.05 0.04 0.02 0.01
0.56 0.76 0.81 0.76 0.66 0.41 0.32 0.22 0.13 0.07 0.01 0.01 0.01 0.01 0.01 0.01 0.02 0.06 0.08 0.18 0.32 0.45 0.53 0.50 0.53 0.51 0.45 0.39 0.34 0.32 0.31 0.29 0.24 0.21 0.15 0.13 0.11 0.11 0.09 0.06 0.05 0.03 0.03
0.75 1.02 1.10 0.92 0.78 0.77 0.60 0.39 0.17 0.05 0.02 0.01 0.01 0.00 0.01 0.00 0.01 0.05 0.12 0.16 0.24 0.29 0.38 0.50 0.48 0.55 0.57 0.56 0.46 0.39 0.34 0.31 0.30 0.27 0.22 0.19 0.16 0.16 0.16 0.16 0.14 0.10 0.11
0.46 0.80 1.18 1.64 0.93 0.91 1.06 1.02 0.63 0.18 0.08 0.03 0.01 0.01 0.01 0.01 0.03 0.03 0.06 0.08 0.11 0.18 0.25 0.38 0.60 0.66 0.70 0.77 0.78 0.70 0.60 0.47 0.34 0.25 0.21 0.19 0.16 0.15 0.18 0.24 0.23 0.22 0.22
0.22 0.71 0.89 1.06 1.42 1.05 1.17 1.28 1.40 0.97 0.48 0.19 0.04 0.02 0.02 0.02 0.04 0.06 0.08 0.05 0.08 0.06 0.12 0.24 0.36 0.72 0.81 0.66 0.74 0.74 0.75 0.70 0.54 0.42 0.31 0.23 0.17 0.16 0.18 0.22 0.20 0.18 0.17
0.20 0.33 0.59 0.53 0.93 1.24 0.90 0.88 0.93 0.95 0.80 0.45 0.13 0.04 0.02 0.03 0.05 0.07 0.10 0.04 0.10 0.13 0.09 0.09 0.15 0.28 0.62 0.70 0.65 0.71 0.73 0.68 0.69 0.48 0.35 0.33 0.29 0.27 0.23 0.20 0.20 0.22 0.24
0.16 0.35 0.47 0.57 0.67 0.84 1.12 0.97 0.94 0.78 0.63 0.41 0.16 0.05 0.02 0.03 0.05 0.07 0.08 0.01 0.02 0.05 0.11 0.13 0.11 0.06 0.16 0.33 0.35 0.42 0.49 0.56 0.55 0.55 0.49 0.41 0.40 0.40 0.34 0.26 0.21 0.17 0.16
0.14 0.18 0.26 0.38 0.56 0.82 1.07 1.22 1.16 1.04 0.81 0.58 0.27 0.07 0.06 0.02 0.06 0.09 0.10 0.04 0.06 0.04 0.04 0.11 0.19 0.16 0.19 0.15 0.14 0.19 0.23 0.29 0.33 0.36 0.34 0.32 0.27 0.24 0.24 0.16 0.17 0.17 0.16
0.14 0.10 0.08 0.13 0.25 0.44 0.70 0.96 1.17 1.29 1.15 0.81 0.59 0.35 0.21 0.18 0.12 0.13 0.15 0.10 0.13 0.11 0.10 0.11 0.17 0.20 0.14 0.15 0.14 0.13 0.20 0.18 0.20 0.16 0.18 0.20 0.19 0.16 0.14 0.14 0.10 0.07 0.08
0.09 0.10 0.09 0.06 0.08 0.14 0.22 0.37 0.54 0.75 1.02 1.13 0.89 0.73 0.61 0.57 0.52 0.42 0.33 0.29 0.25 0.16 0.21 0.18 0.24 0.22 0.18 0.15 0.12 0.18 0.15 0.07 0.04 0.05 0.05 0.06 0.07 0.08 0.11 0.13 0.12 0.08 0.05
0.04 0.06 0.08 0.08 0.07 0.06 0.06 0.09 0.14 0.22 0.31 0.45 0.60 0.66 0.67 0.67 0.69 0.65 0.59 0.52 0.44 0.32 0.33 0.35 0.32 0.19 0.12 0.12 0.13 0.08 0.03 0.01 0.01 0.01 0.02 0.02 0.03 0.04 0.05 0.06 0.07 0.09 0.08
0.02 0.04 0.05 0.05 0.05 0.05 0.05 0.06 0.07 0.10 0.14 0.20 0.23 0.27 0.34 0.36 0.38 0.40 0.38 0.36 0.36 0.34 0.35 0.30 0.23 0.16 0.12 0.12 0.10 0.09 0.08 0.06 0.05 0.05 0.06 0.05 0.04 0.05 0.05 0.05 0.05 0.05 0.06
0.02 0.03 0.04 0.04 0.05 0.06 0.07 0.09 0.08 0.12 0.10 0.13 0.18 0.20 0.22 0.26 0.34 0.31 0.29 0.28 0.29 0.30 0.30 0.31 0.29 0.27 0.25 0.23 0.19 0.18 0.15 0.12 0.12 0.12 0.10 0.08 0.07 0.05 0.04 0.03 0.03 0.02 0.02
0.00 0.01 0.01 0.01 0.02 0.03 0.03 0.05 0.06 0.08 0.06 0.05 0.06 0.07 0.11 0.13 0.12 0.11 0.11 0.10 0.10 0.10 0.09 0.11 0.13 0.13 0.13 0.12 0.11 0.10 0.09 0.08 0.07 0.06 0.05 0.04 0.04 0.03 0.02 0.01 0.01 0.01 0.01
0.00 0.00 0.00 0.00 0.00 0.01 0.00 0.00 0.02 0.02 0.02 0.03 0.02 0.02 0.02 0.01 0.00 0.00 0.00 0.00 0.00 0.00 0.01 0.01 0.02 0.02 0.02 0.03 0.03 0.03 0.04 0.04 0.04 0.04 0.03 0.03 0.02 0.02 0.02 0.01 0.01 0.00 0.00
0.00 0.00 0.00 0.00 0.00 0.00 0.00 0.00 0.00 0.00 0.00 0.01 0.01 0.01 0.00 0.00 0.00 0.00 0.00 0.00 0.00 0.00 0.00 0.00 0.00 0.00 0.00 0.00 0.00 0.00 0.00 0.00 0.00 0.00 0.00 0.00 0.00 0.00 0.00 0.00 0.00 0.00 0.00
0.00 0.00 0.00 0.00 0.00 0.00 0.00 0.00 0.00 0.00 0.00 0.00 0.00 0.00 0.00 0.00 0.00 0.00 0.00 0.00 0.00 0.00 0.00 0.00 0.00 0.00 0.00 0.00 0.00 0.00 0.00 0.00 0.00 0.00 0.00 0.00 0.00 0.00 0.00 0.00 0.00 0.00 0.00
0.00 0.00 0.00 0.00 0.00 0.00 0.00 0.00 0.00 0.00 0.00 0.00 0.00 0.00 0.00 0.00 0.00 0.00 0.00 0.00 0.00 0.00 0.00 0.00 0.00 0.00 0.00 0.00 0.00 0.00 0.00 0.00 0.00 0.00 0.00 0.00 0.00 0.00 0.00 0.00 0.00 0.00 0.00
0.00 0.00 0.00 0.00 0.00 0.00 0.00 0.00 0.00 0.00 0.00 0.00 0.00 0.00 0.00 0.00 0.00 0.00 0.00 0.00 0.00 0.00 0.00 0.00 0.00 0.00 0.00 0.00 0.00 0.00 0.00 0.00 0.00 0.00 0.00 0.00 0.00 0.00 0.00 0.00 0.00 0.00 0.00
0.00 0.00 0.00 0.00 0.00 0.00 0.00 0.00 0.00 0.00 0.00 0.00 0.00 0.00 0.00 0.00 0.00 0.00 0.00 0.00 0.00 0.00 0.00 0.00 0.00 0.00 0.00 0.00 0.00 0.00 0.00 0.00 0.00 0.00 0.00 0.00 0.00 0.00 0.00 0.00 0.00 0.00 0.00
0.00 0.00 0.00 0.00 0.00 0.00 0.00 0.00 0.00 0.00 0.00 0.00 0.00 0.00 0.00 0.00 0.00 0.00 0.00 0.00 0.00 0.00 0.00 0.00 0.00 0.00 0.00 0.00 0.00 0.00 0.00 0.00 0.00 0.00 0.00 0.00 0.00 0.00 0.00 0.00 0.00 0.00 0.00
0.00 0.00 0.00 0.00 0.00 0.00 0.01 0.01 0.01 0.00 0.00 0.00 0.00 0.00 0.00 0.00 0.00 0.00 0.00 0.00 0.00 0.00 0.00 0.00 0.00 0.00 0.00 0.00 0.00 0.00 0.00 0.00 0.00 0.00 0.00 0.00 0.00 0.00 0.00 0.00 0.00 0.00 0.00
0.00 0.00 0.00 0.01 0.01 0.01 0.01 0.01 0.02 0.02 0.02 0.01 0.01 0.01 0.01 0.00 0.00 0.00 0.00 0.00 0.00 0.00 0.00 0.00 0.00 0.00 0.00 0.00 0.00 0.00 0.00 0.00 0.00 0.00 0.00 0.00 0.00 0.00 0.00 0.00 0.00 0.00 0.00
0.00 0.00 0.00 0.01 0.01 0.01 0.02 0.02 0.02 0.02 0.02 0.02 0.02 0.01 0.01 0.01 0.01 0.01 0.00 0.00 0.00 0.00 0.00 0.00 0.00 0.00 0.00 0.00 0.00 0.00 0.00 0.00 0.00 0.00 0.00 0.00 0.00 0.00 0.00 0.00 0.00 0.00 0.00

GFSGL_prec_precacc12_105.txt.gz
Total_Precipitation_Accumulation
0.33 0.47 0.41 0.34 0.34 0.31 0.36 0.32 0.33 0.24 0.27 0.19 0.17 0.15 0.17 0.23 0.37 0.41 0.29 0.23 0.16 0.21 0.24 0.22 0.18 0.17 0.25 0.23 0.19 0.16 0.13 0.12 0.14 0.18 0.09 0.08 0.08 0.08 0.07 0.05 0.02 0.02 0.01
0.24 0.37 0.36 0.42 0.49 0.40 0.34 0.33 0.22 0.17 0.18 0.16 0.06 0.10 0.09 0.12 0.20 0.58 0.58 0.44 0.20 0.13 0.22 0.34 0.38 0.26 0.23 0.26 0.25 0.23 0.17 0.16 0.11 0.16 0.16 0.11 0.08 0.07 0.12 0.15 0.16 0.11 0.01
0.27 0.36 0.37 0.37 0.50 0.49 0.45 0.36 0.31 0.14 0.07 0.09 0.05 0.03 0.05 0.05 0.05 0.07 0.31 0.35 0.25 0.25 0.19 0.26 0.30 0.33 0.29 0.22 0.21 0.23 0.24 0.21 0.26 0.21 0.17 0.11 0.08 0.09 0.18 0.27 0.19 0.07 0.01
0.47 0.36 0.48 0.73 0.74 0.56 0.49 0.46 0.37 0.30 0.08 0.07 0.05 0.03 0.02 0.03 0.05 0.05 0.04 0.07 0.13 0.24 0.29 0.27 0.35 0.35 0.33 0.26 0.22 0.25 0.29 0.31 0.27 0.24 0.20 0.16 0.12 0.13 0.16 0.13 0.08 0.06 0.05
0.62 0.59 0.52 0.78 0.99 1.16 1.23 0.97 0.43 0.38 0.19 0.08 0.05 0.01 0.01 0.00 0.01 0.02 0.05 0.05 0.06 0.15 0.23 0.30 0.35 0.45 0.45 0.47 0.36 0.33 0.33 0.32 0.33 0.32 0.30 0.26 0.22 0.20 0.19 0.18 0.17 0.11 0.13
0.27 0.32 0.49 1.07 0.95 1.03 1.29 1.39 0.88 0.46 0.35 0.10 0.06 0.03 0.01 0.00 0.03 0.03 0.04 0.05 0.08 0.12 0.18 0.30 0.49 0.53 0.55 0.62 0.67 0.66 0.58 0.47 0.42 0.34 0.29 0.25 0.22 0.19 0.21 0.27 0.26 0.24 0.23
0.15 0.47 0.67 0.80 1.35 1.09 1.22 1.39 1.59 1.13 0.75 0.54 0.18 0.05 0.02 0.01 0.03 0.03 0.05 0.02 0.05 0.04 0.06 0.15 0.30 0.62 0.68 0.58 0.72 0.77 0.86 0.90 0.69 0.56 0.43 0.30 0.23 0.21 0.23 0.25 0.21 0.18 0.15
0.09 0.22 0.32 0.36 0.83 1.31 0.96 0.91 0.96 1.14 1.16 0.96 0.45 0.17 0.05 0.02 0.05 0.04 0.07 0.03 0.08 0.09 0.06 0.06 0.13 0.25 0.57 0.65 0.66 0.81 0.86 0.84 0.89 0.68 0.56 0.54 0.42 0.37 0.31 0.24 0.25 0.29 0.34
0.13 0.18 0.30 0.42 0.53 0.77 1.06 0.93 0.94 0.81 0.80 0.87 0.77 0.46 0.24 0.11 0.12 0.10 0.06 0.01 0.02 0.05 0.08 0.11 0.10 0.06 0.15 0.32 0.35 0.43 0.57 0.73 0.78 0.79 0.71 0.60 0.61 0.64 0.56 0.43 0.42 0.33 0.34
0.11 0.15 0.18 0.26 0.40 0.54 0.86 1.16 1.21 1.15 0.93 0.76 0.67 0.54 0.41 0.22 0.16 0.10 0.07 0.02 0.05 0.05 0.04 0.08 0.16 0.14 0.16 0.13 0.13 0.19 0.24 0.34 0.47 0.52 0.49 0.49 0.46 0.47 0.48 0.37 0.37 0.35 0.31
0.05 0.04 0.03 0.03 0.11 0.28 0.48 0.77 1.09 1.36 1.37 1.08 0.95 0.78 0.55 0.45 0.25 0.14 0.11 0.04 0.05 0.05 0.08 0.08 0.09 0.12 0.09 0.12 0.12 0.11 0.22 0.20 0.24 0.23 0.27 0.30 0.30 0.28 0.31 0.31 0.26 0.22 0.21
0.01 0.01 0.01 0.01 0.02 0.04 0.08 0.20 0.38 0.63 0.99 1.28 1.16 1.07 0.98 0.82 0.66 0.49 0.34 0.26 0.19 0.13 0.16 0.13 0.20 0.19 0.15 0.15 0.14 0.22 0.20 0.10 0.05 0.09 0.12 0.13 0.14 0.17 0.22 0.26 0.27 0.25 0.18
0.00 0.00 0.01 0.01 0.01 0.02 0.01 0.02 0.04 0.10 0.19 0.38 0.62 0.78 0.88 0.91 0.87 0.78 0.68 0.57 0.46 0.35 0.38 0.41 0.36 0.21 0.13 0.13 0.15 0.11 0.05 0.02 0.03 0.04 0.06 0.10 0.13 0.14 0.13 0.14 0.15 0.19 0.19
0.00 0.00 0.00 0.00 0.01 0.00 0.01 0.02 0.02 0.04 0.05 0.08 0.12 0.18 0.27 0.31 0.36 0.41 0.45 0.48 0.48 0.45 0.45 0.40 0.32 0.25 0.20 0.18 0.14 0.13 0.11 0.09 0.08 0.09 0.12 0.12 0.11 0.10 0.11 0.11 0.11 0.13 0.16
0.00 0.00 0.00 0.00 0.00 0.01 0.02 0.03 0.04 0.06 0.04 0.04 0.07 0.07 0.08 0.12 0.21 0.20 0.19 0.19 0.21 0.25 0.29 0.31 0.32 0.31 0.28 0.27 0.25 0.24 0.21 0.17 0.17 0.18 0.16 0.15 0.13 0.10 0.09 0.07 0.06 0.06 0.07
0.00 0.00 0.00 0.00 0.00 0.00 0.00 0.02 0.03 0.05 0.03 0.03 0.04 0.04 0.07 0.07 0.06 0.06 0.06 0.07 0.07 0.08 0.07 0.11 0.13 0.15 0.15 0.15 0.15 0.14 0.13 0.12 0.11 0.09 0.07 0.06 0.06 0.06 0.05 0.04 0.03 0.02 0.03
0.00 0.00 0.00 0.00 0.00 0.00 0.00 0.00 0.01 0.02 0.01 0.03 0.02 0.02 0.01 0.01 0.00 0.00 0.00 0.00 0.00 0.00 0.01 0.02 0.03 0.03 0.03 0.03 0.03 0.04 0.05 0.05 0.04 0.04 0.03 0.03 0.02 0.02 0.02 0.01 0.01 0.00 0.00
0.00 0.00 0.00 0.00 0.00 0.00 0.00 0.00 0.01 0.00 0.00 0.01 0.01 0.00 0.00 0.00 0.00 0.00 0.00 0.00 0.00 0.00 0.00 0.00 0.00 0.00 0.00 0.00 0.00 0.00 0.00 0.00 0.00 0.00 0.00 0.00 0.00 0.00 0.00 0.00 0.00 0.00 0.00
0.00 0.00 0.00 0.00 0.00 0.00 0.00 0.00 0.00 0.00 0.00 0.00 0.00 0.00 0.00 0.00 0.00 0.00 0.00 0.00 0.00 0.00 0.00 0.00 0.00 0.00 0.00 0.00 0.00 0.00 0.00 0.00 0.00 0.00 0.00 0.00 0.00 0.00 0.00 0.00 0.00 0.00 0.00
0.00 0.00 0.00 0.00 0.00 0.00 0.00 0.00 0.00 0.00 0.00 0.00 0.00 0.00 0.00 0.00 0.00 0.00 0.00 0.00 0.00 0.00 0.00 0.00 0.00 0.00 0.00 0.00 0.00 0.00 0.00 0.00 0.00 0.00 0.00 0.00 0.00 0.00 0.00 0.00 0.00 0.00 0.00
0.00 0.00 0.00 0.00 0.00 0.00 0.00 0.00 0.00 0.00 0.00 0.00 0.00 0.00 0.00 0.00 0.00 0.00 0.00 0.00 0.00 0.00 0.00 0.00 0.00 0.00 0.00 0.00 0.00 0.00 0.00 0.00 0.00 0.00 0.00 0.00 0.00 0.00 0.00 0.00 0.00 0.00 0.00
0.00 0.00 0.00 0.00 0.00 0.00 0.00 0.00 0.00 0.00 0.00 0.00 0.00 0.00 0.00 0.00 0.00 0.00 0.00 0.01 0.01 0.00 0.00 0.00 0.00 0.00 0.00 0.00 0.00 0.00 0.00 0.00 0.00 0.00 0.00 0.00 0.00 0.00 0.00 0.00 0.00 0.00 0.00
0.00 0.00 0.00 0.00 0.00 0.00 0.00 0.00 0.01 0.01 0.01 0.01 0.01 0.01 0.01 0.01 0.00 0.00 0.01 0.01 0.00 0.01 0.00 0.00 0.00 0.00 0.00 0.00 0.00 0.00 0.00 0.00 0.00 0.00 0.00 0.00 0.00 0.00 0.00 0.00 0.00 0.00 0.00
0.00 0.00 0.00 0.00 0.00 0.01 0.01 0.01 0.01 0.01 0.01 0.01 0.01 0.01 0.01 0.01 0.01 0.01 0.01 0.01 0.01 0.01 0.00 0.00 0.00 0.00 0.00 0.00 0.00 0.00 0.00 0.00 0.00 0.00 0.00 0.00 0.00 0.00 0.00 0.00 0.00 0.00 0.00
0.00 0.00 0.00 0.01 0.01 0.01 0.02 0.02 0.02 0.02 0.03 0.02 0.02 0.02 0.02 0.01 0.01 0.01 0.01 0.01 0.00 0.01 0.00 0.00 0.00 0.00 0.00 0.00 0.00 0.00 0.00 0.00 0.00 0.00 0.00 0.00 0.00 0.00 0.00 0.00 0.00 0.00 0.00
0.00 0.00 0.00 0.01 0.01 0.01 0.02 0.02 0.02 0.02 0.02 0.03 0.03 0.03 0.02 0.02 0.02 0.02 0.02 0.01 0.01 0.01 0.00 0.01 0.00 0.00 0.00 0.00 0.00 0.00 0.00 0.00 0.00 0.00 0.00 0.00 0.00 0.00 0.00 0.00 0.00 0.00 0.00

GFSGL_prec_precacc12_108.txt.gz
Total_Precipitation_Accumulation
0.24 0.30 0.25 0.24 0.26 0.24 0.27 0.35 0.44 0.39 0.41 0.32 0.29 0.22 0.20 0.25 0.45 0.47 0.29 0.33 0.30 0.23 0.21 0.19 0.15 0.12 0.09 0.07 0.09 0.12 0.09 0.11 0.15 0.14 0.10 0.08 0.09 0.10 0.07 0.05 0.02 0.02 0.01
0.18 0.28 0.26 0.33 0.36 0.31 0.33 0.43 0.39 0.34 0.44 0.49 0.31 0.19 0.18 0.16 0.27 0.63 0.60 0.45 0.32 0.37 0.44 0.34 0.25 0.19 0.11 0.09 0.16 0.17 0.14 0.10 0.10 0.10 0.10 0.10 0.08 0.06 0.11 0.14 0.16 0.14 0.03
0.16 0.25 0.18 0.17 0.35 0.41 0.41 0.41 0.40 0.27 0.27 0.45 0.48 0.41 0.31 0.15 0.08 0.11 0.35 0.43 0.20 0.13 0.36 0.53 0.28 0.20 0.12 0.13 0.18 0.19 0.18 0.15 0.19 0.20 0.15 0.08 0.06 0.07 0.18 0.32 0.27 0.12 0.04
0.36 0.26 0.34 0.38 0.45 0.47 0.49 0.49 0.42 0.35 0.15 0.18 0.31 0.35 0.35 0.20 0.09 0.05 0.04 0.13 0.31 0.12 0.11 0.17 0.17 0.18 0.13 0.14 0.16 0.18 0.21 0.24 0.21 0.25 0.24 0.17 0.12 0.14 0.25 0.21 0.14 0.11 0.09
0.55 0.52 0.34 0.43 0.60 0.86 1.27 1.22 0.68 0.55 0.37 0.28 0.20 0.18 0.25 0.15 0.10 0.06 0.03 0.06 0.13 0.20 0.09 0.08 0.11 0.15 0.20 0.25 0.23 0.24 0.27 0.27 0.29 0.29 0.29 0.27 0.23 0.23 0.25 0.18 0.15 0.15 0.22
0.21 0.22 0.26 0.20 0.31 0.52 0.97 1.53 1.12 0.73 0.75 0.42 0.46 0.24 0.16 0.09 0.11 0.11 0.08 0.05 0.06 0.09 0.21 0.14 0.18 0.25 0.30 0.35 0.45 0.47 0.46 0.38 0.33 0.29 0.26 0.23 0.20 0.16 0.17 0.22 0.20 0.23 0.28
0.08 0.19 0.23 0.41 0.41 0.46 0.81 1.38 1.67 1.32 0.95 0.91 0.52 0.32 0.16 0.12 0.17 0.15 0.08 0.03 0.03 0.04 0.05 0.07 0.10 0.28 0.43 0.40 0.50 0.55 0.65 0.72 0.61 0.52 0.43 0.29 0.27 0.25 0.24 0.26 0.24 0.21 0.18
0.06 0.13 0.16 0.23 0.36 0.57 0.70 0.93 1.01 1.17 1.20 1.03 0.64 0.46 0.28 0.14 0.15 0.12 0.14 0.03 0.03 0.04 0.03 0.03 0.05 0.12 0.37 0.47 0.47 0.59 0.70 0.77 0.88 0.79 0.68 0.61 0.58 0.56 0.38 0.32 0.39 0.40 0.42
0.09 0.13 0.17 0.21 0.21 0.36 0.69 0.78 0.90 0.78 0.81 0.96 0.88 0.58 0.45 0.33 0.27 0.21 0.15 0.03 0.02 0.03 0.05 0.06 0.06 0.02 0.08 0.22 0.27 0.34 0.48 0.69 0.84 0.91 0.84 0.71 0.78 0.96 0.72 0.57 0.60 0.46 0.48
0.07 0.15 0.18 0.15 0.18 0.35 0.63 0.90 1.08 1.09 0.94 0.83 0.81 0.78 0.76 0.61 0.55 0.39 0.29 0.12 0.05 0.04 0.03 0.06 0.10 0.08 0.10 0.10 0.12 0.17 0.20 0.30 0.42 0.53 0.60 0.68 0.69 0.74 0.74 0.59 0.59 0.57 0.49
0.03 0.02 0.01 0.02 0.05 0.16 0.35 0.61 0.97 1.26 1.34 1.12 1.02 0.93 0.79 0.79 0.75 0.66 0.46 0.26 0.16 0.09 0.05 0.05 0.06 0.09 0.08 0.11 0.11 0.10 0.20 0.18 0.23 0.22 0.30 0.43 0.48 0.49 0.54 0.53 0.48 0.42 0.39
0.00 0.00 0.00 0.00 0.01 0.02 0.02 0.12 0.29 0.53 0.90 1.21 1.15 1.14 1.12 1.05 1.01 0.88 0.73 0.56 0.36 0.21 0.16 0.08 0.15 0.14 0.12 0.13 0.14 0.22 0.20 0.10 0.05 0.09 0.13 0.16 0.21 0.27 0.33 0.38 0.40 0.38 0.36
0.00 0.00 0.00 0.00 0.00 0.00 0.00 0.00 0.01 0.04 0.11 0.27 0.50 0.69 0.83 0.93 0.97 0.96 0.90 0.79 0.65 0.50 0.48 0.45 0.32 0.16 0.12 0.15 0.18 0.14 0.07 0.04 0.03 0.05 0.09 0.15 0.17 0.21 0.23 0.24 0.25 0.31 0.31
0.00 0.00 0.00 0.00 0.00 0.00 0.00 0.00 0.00 0.01 0.01 0.03 0.06 0.12 0.22 0.29 0.36 0.44 0.49 0.54 0.58 0.56 0.56 0.54 0.48 0.40 0.34 0.32 0.26 0.22 0.18 0.15 0.13 0.14 0.16 0.18 0.17 0.17 0.19 0.23 0.26 0.27 0.28
0.00 0.00 0.00 0.00 0.00 0.00 0.01 0.02 0.02 0.03 0.01 0.01 0.03 0.03 0.03 0.06 0.13 0.15 0.16 0.19 0.22 0.26 0.30 0.31 0.30 0.29 0.29 0.32 0.32 0.32 0.30 0.27 0.25 0.26 0.24 0.22 0.19 0.17 0.16 0.15 0.14 0.16 0.18
0.00 0.00 0.00 0.00 0.00 0.00 0.00 0.01 0.02 0.03 0.01 0.01 0.01 0.01 0.02 0.02 0.01 0.01 0.02 0.03 0.05 0.07 0.08 0.11 0.14 0.15 0.15 0.16 0.16 0.17 0.17 0.18 0.18 0.17 0.16 0.14 0.12 0.11 0.10 0.09 0.08 0.07 0.08
0.00 0.00 0.00 0.00 0.00 0.00 0.00 0.00 0.01 0.01 0.00 0.01 0.01 0.00 0.00 0.00 0.00 0.00 0.00 0.00 0.00 0.00 0.00 0.01 0.03 0.03 0.04 0.04 0.05 0.05 0.06 0.07 0.06 0.06 0.07 0.08 0.07 0.07 0.06 0.05 0.04 0.03 0.03
0.00 0.00 0.01 0.00 0.00 0.00 0.01 0.01 0.00 0.00 0.00 0.00 0.00 0.00 0.00 0.00 0.00 0.00 0.00 0.00 0.00 0.00 0.00 0.00 0.00 0.00 0.00 0.00 0.00 0.01 0.01 0.01 0.01 0.01 0.01 0.01 0.00 0.00 0.01 0.01 0.00 0.00 0.00
0.00 0.00 0.01 0.01 0.00 0.00 0.00 0.00 0.00 0.00 0.00 0.00 0.00 0.00 0.00 0.00 0.00 0.00 0.00 0.00 0.00 0.00 0.00 0.00 0.00 0.00 0.00 0.00 0.00 0.00 0.00 0.00 0.00 0.00 0.00 0.00 0.00 0.00 0.00 0.00 0.00 0.00 0.00
0.00 0.00 0.00 0.00 0.00 0.00 0.00 0.00 0.00 0.00 0.00 0.00 0.00 0.00 0.00 0.00 0.00 0.00 0.00 0.00 0.00 0.00 0.00 0.00 0.00 0.00 0.00 0.00 0.00 0.00 0.00 0.00 0.00 0.00 0.00 0.00 0.00 0.00 0.00 0.00 0.00 0.00 0.00
0.00 0.00 0.00 0.00 0.00 0.00 0.00 0.00 0.00 0.00 0.00 0.00 0.01 0.00 0.00 0.00 0.00 0.00 0.00 0.00 0.00 0.00 0.01 0.00 0.00 0.00 0.00 0.00 0.00 0.00 0.00 0.00 0.00 0.00 0.00 0.00 0.00 0.00 0.00 0.00 0.00 0.00 0.00
0.00 0.00 0.00 0.00 0.00 0.00 0.00 0.00 0.01 0.00 0.00 0.00 0.00 0.00 0.00 0.00 0.00 0.00 0.00 0.01 0.01 0.00 0.00 0.01 0.00 0.00 0.00 0.00 0.00 0.00 0.00 0.00 0.00 0.00 0.00 0.00 0.00 0.00 0.00 0.00 0.00 0.00 0.00
0.00 0.00 0.00 0.00 0.00 0.00 0.01 0.01 0.01 0.01 0.01 0.01 0.02 0.01 0.01 0.01 0.01 0.01 0.01 0.01 0.01 0.01 0.01 0.01 0.01 0.00 0.00 0.00 0.00 0.00 0.00 0.00 0.00 0.00 0.00 0.00 0.00 0.00 0.00 0.00 0.00 0.00 0.00
0.00 0.00 0.00 0.00 0.00 0.01 0.01 0.02 0.02 0.01 0.01 0.02 0.03 0.03 0.02 0.02 0.02 0.02 0.01 0.01 0.01 0.01 0.01 0.00 0.00 0.00 0.00 0.01 0.01 0.00 0.00 0.00 0.00 0.00 0.00 0.00 0.00 0.00 0.00 0.00 0.00 0.00 0.00
0.00 0.00 0.01 0.01 0.01 0.01 0.02 0.02 0.02 0.03 0.03 0.03 0.03 0.03 0.03 0.03 0.03 0.03 0.03 0.01 0.01 0.01 0.01 0.00 0.00 0.00 0.00 0.00 0.00 0.00 0.00 0.00 0.00 0.00 0.00 0.00 0.00 0.00 0.00 0.00 0.00 0.00 0.00
0.01 0.01 0.01 0.01 0.01 0.01 0.02 0.02 0.02 0.02 0.03 0.03 0.03 0.03 0.03 0.03 0.03 0.03 0.04 0.02 0.01 0.01 0.01 0.01 0.00 0.00 0.00 0.01 0.00 0.00 0.00 0.00 0.00 0.00 0.00 0.00 0.00 0.00 0.00 0.00 0.00 0.00 0.00

GFSGL_prec_precacc12_111.txt.gz
Total_Precipitation_Accumulation
0.10 0.14 0.12 0.11 0.21 0.21 0.25 0.33 0.30 0.30 0.30 0.35 0.35 0.46 0.36 0.46 0.59 0.55 0.32 0.34 0.34 0.40 0.39 0.35 0.26 0.21 0.22 0.18 0.16 0.16 0.08 0.07 0.10 0.10 0.09 0.08 0.10 0.11 0.12 0.10 0.05 0.02 0.02
0.10 0.18 0.22 0.22 0.23 0.27 0.31 0.40 0.36 0.31 0.44 0.57 0.45 0.50 0.42 0.34 0.38 0.75 0.68 0.47 0.40 0.59 0.73 0.55 0.40 0.35 0.26 0.21 0.13 0.12 0.11 0.08 0.08 0.08 0.08 0.10 0.08 0.06 0.11 0.15 0.17 0.17 0.04
0.08 0.15 0.12 0.13 0.27 0.32 0.36 0.35 0.36 0.26 0.28 0.52 0.59 0.63 0.68 0.46 0.31 0.23 0.42 0.49 0.31 0.39 0.52 0.63 0.51 0.34 0.22 0.19 0.17 0.12 0.10 0.10 0.18 0.18 0.10 0.07 0.07 0.07 0.18 0.31 0.26 0.12 0.05
0.31 0.19 0.28 0.30 0.31 0.33 0.36 0.42 0.37 0.34 0.16 0.24 0.46 0.55 0.81 0.83 0.66 0.27 0.17 0.23 0.38 0.26 0.18 0.13 0.17 0.22 0.20 0.22 0.16 0.13 0.14 0.18 0.17 0.20 0.20 0.14 0.11 0.12 0.25 0.19 0.14 0.13 0.11
0.41 0.42 0.30 0.38 0.51 0.64 0.86 0.96 0.63 0.54 0.37 0.28 0.25 0.27 0.56 0.88 0.43 0.27 0.13 0.12 0.20 0.26 0.10 0.07 0.06 0.10 0.16 0.23 0.20 0.13 0.15 0.19 0.24 0.23 0.23 0.23 0.22 0.23 0.26 0.16 0.13 0.14 0.23
0.06 0.14 0.23 0.16 0.13 0.22 0.40 0.63 0.76 0.70 0.76 0.51 0.54 0.36 0.26 0.45 0.55 0.30 0.33 0.16 0.17 0.10 0.19 0.11 0.09 0.09 0.09 0.14 0.21 0.27 0.26 0.28 0.29 0.24 0.19 0.17 0.16 0.12 0.11 0.11 0.11 0.18 0.26
0.05 0.15 0.19 0.30 0.30 0.29 0.32 0.45 0.74 1.12 0.94 0.93 0.61 0.47 0.37 0.31 0.61 0.39 0.38 0.18 0.11 0.07 0.05 0.13 0.06 0.07 0.13 0.13 0.20 0.22 0.33 0.49 0.47 0.41 0.32 0.20 0.20 0.19 0.16 0.14 0.14 0.15 0.16
0.07 0.08 0.10 0.17 0.24 0.29 0.28 0.28 0.40 0.94 1.20 1.07 0.73 0.55 0.39 0.34 0.35 0.59 0.47 0.21 0.10 0.09 0.07 0.05 0.05 0.03 0.07 0.12 0.18 0.29 0.37 0.47 0.61 0.60 0.53 0.51 0.49 0.52 0.37 0.31 0.44 0.50 0.52
0.07 0.13 0.17 0.18 0.16 0.15 0.17 0.24 0.38 0.51 0.79 0.99 0.91 0.60 0.50 0.44 0.50 0.47 0.47 0.28 0.18 0.07 0.04 0.06 0.07 0.05 0.07 0.07 0.11 0.19 0.31 0.49 0.64 0.74 0.71 0.64 0.76 1.06 0.76 0.59 0.67 0.55 0.61
0.04 0.12 0.15 0.12 0.14 0.16 0.27 0.41 0.54 0.69 0.84 0.79 0.81 0.82 0.84 0.74 0.73 0.65 0.67 0.42 0.18 0.15 0.11 0.06 0.13 0.10 0.09 0.04 0.05 0.07 0.10 0.18 0.30 0.43 0.52 0.63 0.68 0.81 0.79 0.59 0.57 0.61 0.52
0.01 0.01 0.01 0.01 0.03 0.06 0.12 0.32 0.54 0.81 1.01 0.97 0.92 0.89 0.81 0.87 0.92 0.95 0.79 0.60 0.48 0.28 0.17 0.12 0.09 0.12 0.08 0.08 0.08 0.08 0.17 0.14 0.17 0.16 0.25 0.37 0.46 0.51 0.60 0.64 0.61 0.58 0.53
0.00 0.00 0.00 0.00 0.01 0.01 0.01 0.05 0.16 0.34 0.60 0.91 0.98 0.99 1.06 1.03 1.04 1.03 1.03 0.99 0.84 0.62 0.50 0.29 0.23 0.14 0.10 0.10 0.11 0.20 0.18 0.10 0.04 0.09 0.11 0.15 0.20 0.28 0.35 0.42 0.49 0.50 0.54
0.00 0.00 0.00 0.00 0.00 0.00 0.00 0.00 0.01 0.04 0.10 0.22 0.41 0.61 0.76 0.85 0.91 0.96 0.97 0.94 0.87 0.79 0.80 0.75 0.52 0.27 0.17 0.15 0.16 0.13 0.08 0.04 0.04 0.05 0.09 0.15 0.18 0.23 0.27 0.30 0.30 0.35 0.41
0.00 0.00 0.00 0.00 0.00 0.00 0.00 0.00 0.00 0.01 0.01 0.03 0.05 0.10 0.18 0.24 0.31 0.40 0.49 0.58 0.65 0.66 0.66 0.65 0.60 0.53 0.47 0.46 0.35 0.27 0.20 0.18 0.16 0.16 0.18 0.19 0.19 0.20 0.23 0.28 0.34 0.36 0.35
0.00 0.00 0.00 0.00 0.00 0.00 0.01 0.01 0.01 0.02 0.01 0.01 0.03 0.02 0.03 0.05 0.10 0.12 0.14 0.17 0.22 0.28 0.33 0.35 0.35 0.36 0.37 0.41 0.42 0.42 0.40 0.35 0.31 0.31 0.29 0.27 0.23 0.20 0.21 0.21 0.20 0.21 0.26
0.00 0.00 0.00 0.00 0.00 0.00 0.00 0.01 0.01 0.01 0.00 0.00 0.00 0.01 0.01 0.01 0.00 0.00 0.01 0.02 0.04 0.06 0.07 0.10 0.14 0.16 0.19 0.22 0.23 0.25 0.24 0.24 0.25 0.23 0.21 0.19 0.19 0.19 0.17 0.17 0.16 0.16 0.16
0.00 0.00 0.00 0.00 0.00 0.00 0.00 0.00 0.01 0.01 0.00 0.00 0.00 0.00 0.00 0.00 0.00 0.00 0.00 0.00 0.00 0.00 0.00 0.01 0.02 0.03 0.04 0.05 0.07 0.08 0.10 0.11 0.11 0.11 0.11 0.12 0.11 0.11 0.10 0.11 0.09 0.08 0.09
0.00 0.00 0.01 0.00 0.00 0.00 0.01 0.01 0.00 0.00 0.00 0.00 0.00 0.00 0.00 0.00 0.00 0.00 0.00 0.00 0.00 0.00 0.00 0.00 0.00 0.00 0.00 0.00 0.01 0.01 0.02 0.03 0.04 0.05 0.05 0.05 0.04 0.04 0.05 0.04 0.04 0.04 0.04
0.00 0.00 0.01 0.01 0.00 0.00 0.00 0.00 0.00 0.00 0.00 0.00 0.00 0.00 0.00 0.00 0.00 0.00 0.00 0.00 0.00 0.00 0.00 0.00 0.00 0.00 0.00 0.00 0.00 0.00 0.00 0.00 0.00 0.00 0.00 0.01 0.01 0.01 0.01 0.01 0.01 0.01 0.02
0.00 0.00 0.00 0.00 0.00 0.00 0.00 0.00 0.00 0.00 0.00 0.00 0.00 0.00 0.00 0.00 0.00 0.00 0.00 0.00 0.00 0.00 0.00 0.01 0.00 0.00 0.00 0.00 0.00 0.00 0.00 0.00 0.00 0.00 0.00 0.00 0.00 0.00 0.00 0.00 0.00 0.00 0.00
0.00 0.00 0.00 0.00 0.00 0.00 0.00 0.00 0.00 0.00 0.00 0.00 0.01 0.00 0.00 0.00 0.00 0.00 0.00 0.00 0.00 0.00 0.01 0.01 0.01 0.00 0.00 0.00 0.00 0.00 0.00 0.00 0.00 0.00 0.00 0.00 0.00 0.00 0.00 0.00 0.00 0.00 0.00
0.00 0.00 0.00 0.00 0.00 0.00 0.00 0.00 0.01 0.00 0.00 0.01 0.01 0.01 0.00 0.00 0.00 0.00 0.00 0.01 0.01 0.00 0.00 0.01 0.01 0.00 0.00 0.00 0.00 0.00 0.00 0.00 0.00 0.00 0.00 0.00 0.00 0.00 0.00 0.00 0.00 0.00 0.00
0.00 0.00 0.00 0.00 0.00 0.00 0.01 0.01 0.01 0.01 0.01 0.01 0.02 0.02 0.02 0.01 0.01 0.01 0.01 0.01 0.01 0.01 0.01 0.01 0.01 0.00 0.00 0.01 0.00 0.00 0.00 0.00 0.00 0.00 0.00 0.00 0.00 0.00 0.00 0.00 0.00 0.00 0.00
0.00 0.00 0.00 0.00 0.00 0.01 0.01 0.02 0.02 0.01 0.01 0.02 0.03 0.03 0.03 0.02 0.03 0.03 0.02 0.01 0.01 0.01 0.01 0.00 0.00 0.00 0.00 0.01 0.01 0.00 0.00 0.00 0.00 0.00 0.00 0.00 0.00 0.00 0.00 0.00 0.00 0.00 0.00
0.00 0.00 0.01 0.01 0.01 0.01 0.01 0.02 0.02 0.02 0.02 0.03 0.03 0.03 0.03 0.03 0.03 0.03 0.05 0.02 0.01 0.01 0.01 0.00 0.00 0.00 0.00 0.00 0.00 0.00 0.00 0.00 0.00 0.00 0.00 0.00 0.00 0.00 0.00 0.00 0.00 0.00 0.00
0.01 0.01 0.01 0.01 0.01 0.02 0.02 0.02 0.02 0.02 0.03 0.03 0.02 0.03 0.03 0.03 0.03 0.03 0.04 0.03 0.01 0.01 0.01 0.01 0.00 0.00 0.00 0.01 0.00 0.00 0.00 0.00 0.00 0.00 0.00 0.00 0.00 0.00 0.00 0.00 0.00 0.00 0.00

GFSGL_prec_precacc12_114.txt.gz
Total_Precipitation_Accumulation
0.00 0.02 0.04 0.05 0.15 0.17 0.19 0.28 0.27 0.28 0.27 0.28 0.27 0.36 0.23 0.31 0.51 0.54 0.40 0.50 0.50 0.48 0.66 0.46 0.30 0.26 0.25 0.24 0.25 0.23 0.18 0.13 0.07 0.03 0.02 0.01 0.04 0.08 0.10 0.10 0.06 0.04 0.04
0.00 0.00 0.02 0.06 0.08 0.12 0.21 0.29 0.27 0.25 0.39 0.51 0.40 0.42 0.39 0.37 0.48 0.81 0.78 0.59 0.51 0.64 0.82 0.72 0.45 0.40 0.31 0.28 0.22 0.16 0.14 0.15 0.12 0.06 0.02 0.02 0.03 0.04 0.07 0.12 0.16 0.17 0.08
0.01 0.01 0.02 0.05 0.09 0.11 0.13 0.19 0.22 0.22 0.27 0.51 0.58 0.61 0.66 0.48 0.38 0.33 0.58 0.72 0.48 0.46 0.62 0.78 0.64 0.46 0.40 0.47 0.43 0.24 0.13 0.11 0.19 0.19 0.08 0.04 0.04 0.05 0.13 0.29 0.26 0.12 0.05
0.22 0.15 0.09 0.12 0.13 0.18 0.19 0.27 0.29 0.29 0.16 0.24 0.45 0.54 0.80 0.83 0.78 0.60 0.55 0.45 0.58 0.43 0.34 0.31 0.43 0.43 0.27 0.27 0.29 0.34 0.34 0.24 0.13 0.18 0.18 0.12 0.08 0.09 0.23 0.19 0.14 0.13 0.10
0.10 0.25 0.25 0.23 0.33 0.49 0.75 0.83 0.52 0.50 0.36 0.28 0.24 0.28 0.59 0.95 0.58 0.44 0.33 0.53 0.55 0.56 0.32 0.23 0.22 0.32 0.24 0.20 0.25 0.19 0.18 0.20 0.18 0.17 0.19 0.19 0.20 0.22 0.24 0.16 0.14 0.15 0.22
0.03 0.04 0.10 0.09 0.11 0.19 0.32 0.53 0.51 0.56 0.70 0.49 0.54 0.36 0.26 0.48 0.69 0.46 0.44 0.36 0.52 0.47 0.37 0.21 0.17 0.09 0.07 0.12 0.17 0.29 0.29 0.25 0.22 0.18 0.17 0.16 0.13 0.11 0.10 0.10 0.11 0.19 0.27
0.04 0.04 0.05 0.15 0.20 0.21 0.17 0.18 0.31 0.37 0.49 0.78 0.59 0.48 0.37 0.32 0.65 0.49 0.53 0.66 0.53 0.33 0.23 0.20 0.08 0.06 0.11 0.07 0.15 0.20 0.30 0.33 0.29 0.26 0.23 0.14 0.15 0.14 0.11 0.08 0.08 0.10 0.12
0.06 0.08 0.08 0.13 0.22 0.26 0.26 0.20 0.17 0.29 0.47 0.67 0.65 0.56 0.41 0.39 0.40 0.66 0.67 0.66 0.60 0.40 0.30 0.14 0.09 0.05 0.08 0.17 0.22 0.20 0.18 0.23 0.31 0.37 0.37 0.35 0.36 0.39 0.24 0.26 0.39 0.45 0.46
0.05 0.10 0.14 0.15 0.15 0.12 0.13 0.13 0.15 0.13 0.25 0.65 0.81 0.62 0.54 0.51 0.60 0.57 0.61 0.53 0.73 0.59 0.35 0.26 0.19 0.14 0.17 0.16 0.13 0.16 0.14 0.24 0.37 0.45 0.44 0.40 0.51 0.82 0.60 0.48 0.61 0.53 0.65
0.04 0.09 0.11 0.08 0.11 0.12 0.15 0.17 0.22 0.26 0.32 0.36 0.62 0.79 0.84 0.77 0.80 0.75 0.77 0.60 0.46 0.56 0.43 0.27 0.26 0.22 0.20 0.16 0.09 0.09 0.11 0.12 0.20 0.28 0.34 0.41 0.50 0.65 0.65 0.48 0.48 0.56 0.54
0.01 0.00 0.00 0.00 0.01 0.03 0.04 0.10 0.20 0.31 0.41 0.47 0.56 0.70 0.72 0.84 0.95 1.01 0.89 0.80 0.78 0.54 0.45 0.42 0.30 0.23 0.23 0.24 0.20 0.14 0.14 0.07 0.09 0.10 0.17 0.28 0.35 0.40 0.49 0.53 0.55 0.56 0.52
0.00 0.00 0.00 0.00 0.00 0.00 0.00 0.01 0.06 0.14 0.23 0.40 0.53 0.67 0.80 0.85 0.91 0.93 0.98 1.00 0.91 0.78 0.74 0.53 0.47 0.37 0.27 0.22 0.21 0.25 0.18 0.09 0.02 0.05 0.08 0.11 0.15 0.22 0.28 0.33 0.40 0.46 0.55
0.00 0.00 0.00 0.00 0.00 0.00 0.00 0.00 0.00 0.02 0.06 0.14 0.23 0.36 0.52 0.64 0.72 0.79 0.84 0.83 0.80 0.78 0.85 0.89 0.76 0.55 0.44 0.36 0.29 0.22 0.13 0.05 0.04 0.05 0.09 0.15 0.17 0.20 0.23 0.24 0.24 0.29 0.36
0.00 0.00 0.00 0.00 0.00 0.00 0.00 0.00 0.00 0.00 0.00 0.02 0.04 0.08 0.13 0.19 0.25 0.33 0.41 0.49 0.55 0.57 0.59 0.62 0.63 0.62 0.64 0.65 0.56 0.43 0.31 0.23 0.18 0.16 0.17 0.18 0.17 0.18 0.20 0.25 0.30 0.32 0.31
0.00 0.00 0.00 0.00 0.00 0.00 0.01 0.01 0.01 0.01 0.01 0.01 0.03 0.02 0.02 0.04 0.07 0.09 0.12 0.14 0.18 0.23 0.28 0.30 0.30 0.32 0.35 0.41 0.46 0.50 0.51 0.47 0.39 0.35 0.30 0.29 0.26 0.22 0.23 0.23 0.23 0.23 0.27
0.00 0.00 0.00 0.00 0.00 0.00 0.00 0.01 0.01 0.00 0.00 0.00 0.00 0.01 0.01 0.00 0.00 0.00 0.01 0.02 0.03 0.04 0.06 0.08 0.11 0.14 0.17 0.20 0.23 0.26 0.29 0.32 0.35 0.34 0.31 0.28 0.26 0.25 0.24 0.23 0.22 0.21 0.22
0.00 0.00 0.00 0.00 0.00 0.00 0.00 0.00 0.01 0.01 0.00 0.00 0.00 0.00 0.01 0.00 0.00 0.00 0.00 0.00 0.00 0.00 0.00 0.01 0.02 0.03 0.04 0.05 0.07 0.08 0.11 0.14 0.15 0.17 0.19 0.21 0.19 0.18 0.17 0.17 0.17 0.15 0.15
0.00 0.00 0.01 0.00 0.00 0.00 0.00 0.00 0.00 0.00 0.00 0.00 0.00 0.00 0.00 0.00 0.00 0.00 0.00 0.00 0.00 0.00 0.00 0.00 0.00 0.00 0.00 0.00 0.01 0.02 0.03 0.03 0.04 0.05 0.06 0.08 0.08 0.09 0.10 0.09 0.09 0.10 0.10
0.00 0.00 0.01 0.01 0.00 0.00 0.00 0.00 0.00 0.00 0.00 0.00 0.00 0.00 0.00 0.00 0.00 0.00 0.00 0.00 0.00 0.01 0.01 0.00 0.00 0.00 0.00 0.00 0.00 0.00 0.00 0.00 0.00 0.00 0.00 0.01 0.01 0.01 0.02 0.03 0.05 0.06 0.07
0.00 0.00 0.00 0.00 0.00 0.00 0.00 0.00 0.00 0.00 0.00 0.00 0.00 0.00 0.00 0.00 0.00 0.00 0.00 0.00 0.00 0.00 0.01 0.01 0.00 0.00 0.00 0.00 0.00 0.00 0.00 0.00 0.00 0.00 0.00 0.00 0.00 0.00 0.00 0.00 0.01 0.02 0.03
0.00 0.00 0.00 0.00 0.00 0.00 0.00 0.00 0.00 0.00 0.00 0.00 0.01 0.01 0.00 0.00 0.00 0.00 0.00 0.00 0.00 0.00 0.01 0.01 0.01 0.00 0.00 0.00 0.00 0.00 0.00 0.00 0.00 0.00 0.00 0.00 0.00 0.00 0.00 0.00 0.00 0.00 0.00
0.00 0.00 0.00 0.00 0.00 0.00 0.00 0.00 0.00 0.00 0.00 0.01 0.01 0.01 0.00 0.01 0.01 0.00 0.00 0.01 0.01 0.00 0.00 0.01 0.01 0.00 0.00 0.00 0.00 0.00 0.00 0.00 0.00 0.00 0.00 0.00 0.00 0.00 0.00 0.00 0.00 0.00 0.00
0.00 0.00 0.00 0.00 0.00 0.00 0.00 0.00 0.01 0.01 0.01 0.01 0.02 0.02 0.01 0.01 0.02 0.01 0.01 0.01 0.01 0.01 0.00 0.00 0.01 0.00 0.00 0.01 0.00 0.00 0.00 0.00 0.00 0.01 0.01 0.00 0.00 0.00 0.00 0.00 0.00 0.00 0.00
0.00 0.00 0.00 0.00 0.00 0.00 0.01 0.01 0.01 0.01 0.01 0.01 0.02 0.03 0.02 0.02 0.02 0.03 0.02 0.00 0.01 0.01 0.01 0.00 0.00 0.00 0.00 0.01 0.01 0.00 0.00 0.00 0.00 0.00 0.00 0.00 0.00 0.00 0.00 0.00 0.00 0.00 0.00
0.00 0.00 0.00 0.00 0.01 0.01 0.01 0.01 0.01 0.01 0.02 0.02 0.03 0.02 0.02 0.02 0.02 0.03 0.05 0.02 0.00 0.01 0.01 0.00 0.00 0.00 0.00 0.00 0.00 0.00 0.00 0.00 0.00 0.00 0.00 0.00 0.00 0.00 0.00 0.00 0.00 0.00 0.00
0.01 0.00 0.01 0.01 0.01 0.01 0.01 0.02 0.02 0.01 0.02 0.02 0.02 0.03 0.04 0.03 0.02 0.03 0.03 0.03 0.01 0.01 0.00 0.01 0.00 0.00 0.00 0.01 0.00 0.00 0.00 0.00 0.00 0.00 0.00 0.00 0.00 0.00 0.00 0.00 0.00 0.00 0.00

GFSGL_prec_precacc12_117.txt.gz
Total_Precipitation_Accumulation
0.00 0.00 0.00 0.01 0.04 0.05 0.07 0.16 0.19 0.23 0.21 0.21 0.21 0.33 0.22 0.27 0.28 0.23 0.15 0.31 0.44 0.50 0.67 0.49 0.30 0.30 0.26 0.34 0.42 0.38 0.27 0.20 0.11 0.04 0.01 0.01 0.02 0.04 0.06 0.07 0.04 0.03 0.03
0.00 0.00 0.00 0.00 0.01 0.02 0.11 0.17 0.20 0.20 0.29 0.41 0.40 0.41 0.38 0.31 0.32 0.27 0.23 0.20 0.39 0.64 0.85 0.80 0.48 0.43 0.40 0.37 0.37 0.31 0.22 0.24 0.29 0.16 0.04 0.02 0.01 0.01 0.02 0.04 0.05 0.09 0.07
0.00 0.00 0.00 0.00 0.00 0.00 0.01 0.06 0.10 0.14 0.22 0.44 0.54 0.60 0.65 0.46 0.34 0.27 0.29 0.48 0.43 0.45 0.63 0.81 0.67 0.51 0.45 0.52 0.49 0.31 0.23 0.16 0.16 0.16 0.10 0.07 0.03 0.01 0.01 0.08 0.11 0.07 0.05
0.00 0.00 0.01 0.01 0.01 0.01 0.02 0.04 0.05 0.06 0.08 0.18 0.40 0.53 0.79 0.81 0.74 0.57 0.53 0.42 0.59 0.46 0.38 0.33 0.43 0.47 0.30 0.30 0.33 0.39 0.38 0.27 0.14 0.19 0.17 0.11 0.06 0.06 0.16 0.13 0.12 0.11 0.08
0.00 0.00 0.02 0.07 0.07 0.11 0.12 0.25 0.26 0.17 0.18 0.20 0.20 0.27 0.58 0.95 0.58 0.45 0.33 0.53 0.55 0.57 0.54 0.53 0.38 0.45 0.42 0.29 0.29 0.19 0.19 0.27 0.28 0.18 0.18 0.15 0.13 0.16 0.22 0.14 0.11 0.12 0.17
0.00 0.02 0.01 0.01 0.03 0.06 0.09 0.17 0.26 0.28 0.43 0.41 0.49 0.33 0.26 0.48 0.70 0.47 0.46 0.38 0.56 0.63 0.57 0.43 0.64 0.79 0.40 0.26 0.22 0.24 0.23 0.20 0.16 0.24 0.22 0.16 0.10 0.07 0.09 0.09 0.08 0.16 0.25
0.01 0.03 0.02 0.02 0.03 0.10 0.11 0.08 0.12 0.22 0.22 0.43 0.44 0.45 0.37 0.34 0.68 0.51 0.60 0.73 0.58 0.42 0.53 0.52 0.35 0.57 0.66 0.35 0.14 0.16 0.27 0.34 0.33 0.26 0.19 0.18 0.16 0.09 0.06 0.05 0.06 0.08 0.11
0.03 0.04 0.05 0.06 0.08 0.13 0.16 0.15 0.13 0.11 0.12 0.17 0.35 0.45 0.39 0.43 0.44 0.72 0.74 0.73 0.67 0.47 0.40 0.44 0.45 0.35 0.35 0.25 0.22 0.17 0.12 0.26 0.40 0.44 0.36 0.22 0.25 0.26 0.14 0.19 0.32 0.36 0.33
0.03 0.07 0.10 0.12 0.13 0.11 0.12 0.12 0.13 0.08 0.08 0.19 0.21 0.21 0.36 0.49 0.62 0.65 0.72 0.65 0.81 0.68 0.48 0.47 0.39 0.38 0.33 0.34 0.20 0.38 0.31 0.21 0.32 0.33 0.26 0.24 0.31 0.58 0.39 0.31 0.40 0.37 0.49
0.02 0.05 0.07 0.06 0.09 0.11 0.12 0.12 0.10 0.10 0.16 0.16 0.20 0.32 0.48 0.60 0.73 0.77 0.86 0.72 0.58 0.71 0.63 0.54 0.63 0.53 0.46 0.37 0.21 0.21 0.43 0.36 0.19 0.29 0.32 0.25 0.31 0.43 0.43 0.29 0.30 0.39 0.41
0.00 0.00 0.00 0.00 0.01 0.02 0.02 0.03 0.06 0.08 0.09 0.11 0.14 0.23 0.35 0.53 0.77 0.94 0.86 0.82 0.86 0.65 0.59 0.64 0.61 0.59 0.57 0.54 0.39 0.30 0.33 0.34 0.35 0.19 0.19 0.21 0.24 0.28 0.32 0.37 0.39 0.43 0.40
0.00 0.00 0.00 0.00 0.00 0.00 0.00 0.00 0.01 0.02 0.04 0.08 0.12 0.19 0.30 0.43 0.59 0.71 0.84 0.91 0.85 0.77 0.77 0.65 0.67 0.62 0.55 0.50 0.50 0.46 0.32 0.26 0.21 0.22 0.13 0.08 0.09 0.13 0.16 0.19 0.25 0.30 0.43
0.00 0.00 0.00 0.00 0.00 0.00 0.00 0.00 0.00 0.00 0.00 0.03 0.06 0.11 0.17 0.25 0.34 0.44 0.52 0.60 0.64 0.66 0.74 0.80 0.73 0.58 0.52 0.54 0.54 0.48 0.37 0.27 0.23 0.19 0.15 0.11 0.09 0.11 0.15 0.17 0.16 0.19 0.25
0.00 0.00 0.00 0.00 0.00 0.00 0.00 0.00 0.00 0.00 0.00 0.01 0.01 0.02 0.05 0.09 0.13 0.20 0.25 0.30 0.37 0.41 0.44 0.47 0.49 0.51 0.55 0.60 0.58 0.52 0.46 0.45 0.40 0.36 0.28 0.20 0.15 0.14 0.15 0.20 0.25 0.26 0.23
0.00 0.00 0.00 0.00 0.00 0.00 0.01 0.02 0.01 0.00 0.00 0.01 0.03 0.02 0.01 0.02 0.03 0.04 0.07 0.09 0.12 0.16 0.20 0.21 0.21 0.24 0.27 0.32 0.37 0.44 0.49 0.50 0.47 0.46 0.44 0.42 0.34 0.25 0.22 0.22 0.22 0.22 0.25
0.00 0.00 0.00 0.00 0.00 0.00 0.00 0.00 0.01 0.00 0.00 0.00 0.00 0.01 0.00 0.00 0.00 0.00 0.00 0.00 0.02 0.03 0.04 0.06 0.08 0.10 0.13 0.16 0.19 0.22 0.25 0.30 0.35 0.36 0.36 0.35 0.35 0.36 0.34 0.30 0.28 0.26 0.26
0.00 0.00 0.00 0.00 0.00 0.00 0.00 0.00 0.00 0.00 0.00 0.00 0.00 0.00 0.01 0.00 0.00 0.00 0.00 0.00 0.00 0.00 0.00 0.00 0.02 0.03 0.04 0.05 0.07 0.08 0.11 0.14 0.15 0.17 0.21 0.23 0.23 0.24 0.26 0.28 0.30 0.26 0.25
0.00 0.00 0.00 0.00 0.00 0.00 0.00 0.00 0.00 0.00 0.00 0.00 0.00 0.00 0.00 0.00 0.00 0.00 0.00 0.00 0.00 0.00 0.00 0.00 0.01 0.01 0.01 0.01 0.01 0.02 0.03 0.03 0.04 0.05 0.07 0.08 0.09 0.12 0.14 0.15 0.17 0.20 0.20
0.00 0.00 0.00 0.00 0.00 0.00 0.00 0.00 0.00 0.00 0.00 0.00 0.00 0.00 0.00 0.00 0.00 0.00 0.00 0.00 0.00 0.01 0.01 0.00 0.00 0.00 0.00 0.00 0.01 0.00 0.00 0.01 0.01 0.00 0.00 0.01 0.01 0.02 0.05 0.07 0.09 0.11 0.13
0.00 0.00 0.00 0.00 0.00 0.00 0.00 0.00 0.00 0.00 0.00 0.01 0.00 0.00 0.00 0.00 0.00 0.00 0.00 0.00 0.00 0.00 0.01 0.01 0.00 0.00 0.00 0.00 0.01 0.00 0.00 0.00 0.00 0.00 0.00 0.00 0.00 0.00 0.00 0.01 0.03 0.05 0.06
0.00 0.00 0.00 0.00 0.00 0.00 0.00 0.00 0.00 0.00 0.00 0.00 0.01 0.01 0.00 0.00 0.00 0.00 0.00 0.00 0.00 0.00 0.00 0.01 0.01 0.00 0.00 0.00 0.00 0.00 0.00 0.00 0.00 0.00 0.00 0.00 0.00 0.00 0.00 0.00 0.00 0.00 0.00
0.00 0.00 0.00 0.00 0.00 0.00 0.00 0.00 0.00 0.00 0.00 0.00 0.01 0.01 0.00 0.00 0.00 0.00 0.00 0.00 0.00 0.00 0.00 0.01 0.01 0.00 0.00 0.00 0.00 0.00 0.00 0.00 0.00 0.00 0.00 0.00 0.00 0.00 0.00 0.00 0.00 0.00 0.00
0.00 0.00 0.00 0.00 0.00 0.00 0.00 0.00 0.00 0.00 0.00 0.01 0.01 0.02 0.01 0.01 0.01 0.01 0.00 0.00 0.00 0.00 0.00 0.00 0.00 0.00 0.00 0.01 0.00 0.00 0.00 0.00 0.00 0.01 0.01 0.01 0.00 0.00 0.00 0.00 0.00 0.00 0.00
0.00 0.00 0.00 0.00 0.00 0.00 0.00 0.01 0.01 0.00 0.00 0.01 0.02 0.02 0.02 0.02 0.01 0.02 0.02 0.00 0.00 0.00 0.00 0.00 0.00 0.00 0.00 0.01 0.00 0.00 0.00 0.00 0.00 0.01 0.01 0.01 0.01 0.00 0.00 0.00 0.00 0.00 0.00
0.00 0.00 0.00 0.00 0.00 0.00 0.00 0.00 0.00 0.01 0.01 0.01 0.02 0.01 0.02 0.02 0.02 0.02 0.04 0.02 0.01 0.01 0.00 0.00 0.00 0.00 0.00 0.00 0.00 0.00 0.00 0.00 0.00 0.00 0.00 0.00 0.01 0.00 0.00 0.00 0.00 0.00 0.00
0.01 0.00 0.00 0.01 0.01 0.01 0.01 0.01 0.01 0.01 0.01 0.01 0.01 0.02 0.03 0.02 0.02 0.02 0.03 0.04 0.01 0.01 0.00 0.00 0.00 0.00 0.00 0.01 0.00 0.00 0.00 0.00 0.00 0.00 0.00 0.00 0.00 0.00 0.00 0.00 0.00 0.00 0.00

GFSGL_prec_precacc12_120.txt.gz
Total_Precipitation_Accumulation
0.00 0.00 0.00 0.00 0.00 0.00 0.01 0.02 0.03 0.06 0.06 0.07 0.09 0.26 0.18 0.24 0.20 0.17 0.14 0.19 0.23 0.32 0.52 0.36 0.22 0.26 0.27 0.36 0.43 0.40 0.33 0.27 0.13 0.06 0.03 0.04 0.03 0.03 0.06 0.07 0.04 0.02 0.03
0.00 0.00 0.00 0.00 0.00 0.00 0.00 0.00 0.01 0.02 0.03 0.08 0.15 0.32 0.29 0.27 0.24 0.22 0.21 0.17 0.20 0.31 0.45 0.57 0.36 0.37 0.38 0.40 0.42 0.37 0.31 0.34 0.39 0.27 0.20 0.14 0.08 0.04 0.03 0.04 0.04 0.05 0.06
0.00 0.00 0.00 0.00 0.00 0.00 0.00 0.00 0.00 0.00 0.01 0.07 0.12 0.22 0.39 0.37 0.32 0.24 0.25 0.35 0.34 0.38 0.35 0.38 0.54 0.49 0.46 0.53 0.51 0.35 0.28 0.25 0.23 0.26 0.25 0.21 0.15 0.08 0.04 0.02 0.02 0.01 0.03
0.00 0.00 0.00 0.00 0.00 0.00 0.00 0.00 0.00 0.00 0.01 0.06 0.14 0.20 0.46 0.64 0.70 0.56 0.53 0.35 0.33 0.39 0.37 0.36 0.49 0.55 0.34 0.31 0.34 0.39 0.40 0.30 0.18 0.17 0.16 0.19 0.15 0.09 0.08 0.04 0.03 0.05 0.04
0.00 0.00 0.00 0.00 0.00 0.00 0.00 0.00 0.00 0.00 0.00 0.01 0.05 0.11 0.34 0.80 0.50 0.39 0.31 0.48 0.44 0.39 0.48 0.52 0.39 0.50 0.46 0.32 0.31 0.20 0.20 0.29 0.29 0.17 0.14 0.11 0.14 0.16 0.16 0.11 0.08 0.07 0.07
0.00 0.01 0.00 0.00 0.00 0.00 0.00 0.00 0.00 0.01 0.03 0.10 0.09 0.13 0.11 0.40 0.62 0.39 0.41 0.34 0.52 0.58 0.39 0.37 0.63 0.78 0.39 0.28 0.29 0.30 0.26 0.23 0.19 0.23 0.18 0.11 0.06 0.05 0.08 0.09 0.08 0.11 0.15
0.01 0.01 0.01 0.01 0.01 0.02 0.02 0.02 0.03 0.02 0.02 0.05 0.10 0.18 0.23 0.24 0.53 0.38 0.55 0.71 0.57 0.43 0.53 0.52 0.36 0.58 0.70 0.55 0.41 0.41 0.49 0.47 0.33 0.22 0.13 0.14 0.11 0.07 0.06 0.04 0.03 0.05 0.07
0.02 0.01 0.02 0.03 0.04 0.04 0.03 0.04 0.06 0.07 0.07 0.09 0.15 0.15 0.16 0.31 0.32 0.62 0.65 0.73 0.69 0.51 0.47 0.53 0.54 0.50 0.64 0.55 0.44 0.38 0.33 0.42 0.50 0.41 0.25 0.12 0.14 0.16 0.14 0.16 0.20 0.22 0.20
0.02 0.03 0.04 0.04 0.05 0.06 0.06 0.06 0.08 0.07 0.06 0.10 0.11 0.10 0.15 0.26 0.46 0.52 0.63 0.67 0.88 0.76 0.56 0.55 0.47 0.50 0.59 0.71 0.61 0.64 0.46 0.28 0.36 0.38 0.39 0.42 0.37 0.47 0.36 0.25 0.30 0.31 0.37
0.01 0.01 0.02 0.02 0.03 0.04 0.06 0.08 0.08 0.07 0.09 0.06 0.05 0.08 0.13 0.20 0.34 0.46 0.62 0.63 0.58 0.75 0.68 0.61 0.73 0.70 0.64 0.59 0.54 0.52 0.62 0.49 0.36 0.43 0.36 0.28 0.33 0.47 0.49 0.24 0.14 0.22 0.24
0.00 0.00 0.00 0.00 0.00 0.00 0.00 0.01 0.02 0.04 0.03 0.02 0.03 0.04 0.08 0.15 0.25 0.40 0.49 0.60 0.73 0.59 0.59 0.67 0.69 0.72 0.76 0.78 0.70 0.60 0.61 0.56 0.53 0.42 0.46 0.40 0.30 0.21 0.24 0.31 0.33 0.32 0.26
0.00 0.00 0.00 0.00 0.00 0.00 0.00 0.00 0.00 0.00 0.00 0.01 0.01 0.01 0.04 0.08 0.13 0.22 0.38 0.54 0.63 0.64 0.70 0.63 0.65 0.61 0.58 0.62 0.68 0.72 0.60 0.49 0.43 0.44 0.45 0.43 0.38 0.31 0.19 0.17 0.17 0.21 0.28
0.00 0.00 0.00 0.00 0.00 0.00 0.00 0.00 0.00 0.00 0.00 0.00 0.00 0.01 0.02 0.03 0.06 0.10 0.16 0.24 0.32 0.41 0.52 0.62 0.62 0.53 0.49 0.52 0.56 0.55 0.50 0.43 0.42 0.44 0.44 0.43 0.38 0.33 0.23 0.14 0.12 0.10 0.14
0.00 0.00 0.00 0.00 0.00 0.00 0.00 0.00 0.00 0.00 0.00 0.01 0.01 0.01 0.00 0.00 0.01 0.03 0.06 0.10 0.14 0.17 0.21 0.25 0.28 0.33 0.40 0.46 0.47 0.45 0.44 0.48 0.49 0.49 0.49 0.47 0.42 0.37 0.31 0.23 0.17 0.16 0.14
0.00 0.00 0.00 0.00 0.00 0.00 0.01 0.02 0.01 0.00 0.00 0.01 0.02 0.01 0.01 0.02 0.02 0.00 0.00 0.01 0.03 0.06 0.08 0.10 0.12 0.14 0.17 0.21 0.25 0.32 0.38 0.41 0.41 0.43 0.44 0.46 0.47 0.42 0.39 0.35 0.29 0.20 0.18
0.00 0.00 0.00 0.00 0.00 0.00 0.00 0.00 0.01 0.00 0.00 0.00 0.00 0.01 0.00 0.00 0.00 0.00 0.00 0.00 0.00 0.00 0.00 0.01 0.03 0.05 0.08 0.11 0.13 0.15 0.17 0.21 0.26 0.28 0.29 0.30 0.34 0.40 0.45 0.46 0.44 0.38 0.33
0.00 0.00 0.00 0.00 0.00 0.00 0.00 0.00 0.00 0.00 0.00 0.00 0.00 0.00 0.01 0.00 0.00 0.00 0.00 0.00 0.00 0.00 0.00 0.00 0.00 0.01 0.01 0.02 0.04 0.06 0.08 0.11 0.12 0.13 0.16 0.19 0.20 0.23 0.26 0.31 0.36 0.37 0.38
0.00 0.00 0.00 0.00 0.00 0.00 0.00 0.00 0.00 0.00 0.00 0.00 0.00 0.00 0.00 0.00 0.00 0.00 0.00 0.00 0.00 0.00 0.00 0.00 0.01 0.01 0.01 0.01 0.01 0.01 0.02 0.02 0.03 0.04 0.06 0.08 0.09 0.13 0.15 0.18 0.21 0.24 0.26
0.00 0.00 0.00 0.00 0.00 0.00 0.00 0.00 0.00 0.00 0.00 0.00 0.00 0.00 0.00 0.00 0.00 0.00 0.00 0.00 0.00 0.01 0.01 0.00 0.00 0.00 0.00 0.00 0.01 0.00 0.00 0.01 0.01 0.00 0.01 0.01 0.01 0.02 0.05 0.08 0.11 0.14 0.16
0.00 0.00 0.00 0.00 0.00 0.00 0.00 0.00 0.00 0.00 0.00 0.00 0.01 0.01 0.00 0.00 0.00 0.00 0.00 0.00 0.00 0.00 0.01 0.01 0.00 0.00 0.00 0.00 0.00 0.00 0.00 0.00 0.00 0.00 0.00 0.00 0.00 0.00 0.00 0.01 0.03 0.05 0.08
0.00 0.00 0.00 0.00 0.00 0.00 0.00 0.00 0.00 0.00 0.00 0.00 0.01 0.01 0.00 0.00 0.00 0.00 0.00 0.00 0.00 0.00 0.00 0.01 0.00 0.00 0.00 0.00 0.00 0.00 0.00 0.00 0.00 0.00 0.01 0.00 0.00 0.00 0.00 0.00 0.00 0.00 0.01
0.00 0.00 0.00 0.00 0.00 0.00 0.00 0.00 0.00 0.00 0.00 0.00 0.00 0.01 0.00 0.00 0.00 0.00 0.00 0.00 0.00 0.00 0.00 0.00 0.00 0.00 0.00 0.00 0.00 0.00 0.00 0.00 0.00 0.00 0.00 0.00 0.00 0.00 0.00 0.00 0.00 0.00 0.00
0.00 0.00 0.00 0.00 0.00 0.00 0.00 0.00 0.00 0.00 0.00 0.00 0.00 0.01 0.01 0.01 0.01 0.01 0.00 0.00 0.00 0.00 0.00 0.00 0.00 0.00 0.00 0.00 0.00 0.00 0.00 0.00 0.00 0.01 0.01 0.01 0.01 0.01 0.00 0.00 0.00 0.00 0.00
0.00 0.00 0.00 0.00 0.00 0.00 0.00 0.00 0.00 0.00 0.00 0.00 0.00 0.01 0.01 0.01 0.01 0.01 0.01 0.00 0.00 0.00 0.00 0.00 0.00 0.00 0.00 0.00 0.00 0.00 0.00 0.00 0.00 0.01 0.01 0.01 0.01 0.00 0.00 0.00 0.00 0.00 0.00
0.00 0.00 0.00 0.00 0.00 0.00 0.00 0.00 0.00 0.00 0.00 0.00 0.00 0.01 0.01 0.01 0.00 0.00 0.02 0.02 0.01 0.00 0.00 0.00 0.00 0.00 0.00 0.00 0.00 0.00 0.00 0.00 0.00 0.00 0.00 0.00 0.01 0.00 0.00 0.00 0.00 0.00 0.00
0.00 0.00 0.00 0.00 0.00 0.00 0.00 0.01 0.01 0.00 0.01 0.01 0.01 0.01 0.02 0.01 0.01 0.01 0.01 0.02 0.01 0.00 0.00 0.00 0.00 0.00 0.00 0.00 0.00 0.00 0.00 0.00 0.00 0.00 0.00 0.00 0.00 0.00 0.00 0.00 0.00 0.00 0.00

GFSGL_prec_precacc12_123.txt.gz
Total_Precipitation_Accumulation
0.00 0.00 0.00 0.00 0.00 0.00 0.00 0.00 0.00 0.01 0.01 0.01 0.01 0.01 0.02 0.03 0.05 0.07 0.10 0.17 0.18 0.15 0.32 0.19 0.09 0.15 0.12 0.24 0.34 0.31 0.32 0.30 0.14 0.08 0.04 0.04 0.03 0.03 0.04 0.02 0.01 0.02 0.02
0.00 0.00 0.00 0.00 0.00 0.00 0.00 0.00 0.00 0.00 0.00 0.00 0.00 0.00 0.04 0.08 0.12 0.09 0.13 0.14 0.13 0.09 0.16 0.31 0.13 0.14 0.22 0.27 0.36 0.34 0.30 0.35 0.41 0.29 0.21 0.15 0.09 0.06 0.05 0.05 0.04 0.02 0.04
0.00 0.00 0.00 0.00 0.00 0.00 0.00 0.00 0.00 0.00 0.00 0.00 0.00 0.00 0.02 0.05 0.09 0.11 0.18 0.28 0.23 0.12 0.17 0.24 0.22 0.26 0.32 0.45 0.45 0.32 0.27 0.26 0.26 0.29 0.29 0.25 0.24 0.16 0.09 0.05 0.03 0.01 0.02
0.00 0.00 0.00 0.00 0.00 0.00 0.00 0.00 0.00 0.00 0.00 0.00 0.00 0.00 0.00 0.01 0.13 0.34 0.39 0.25 0.25 0.25 0.28 0.32 0.40 0.43 0.22 0.18 0.28 0.38 0.42 0.32 0.21 0.19 0.19 0.22 0.18 0.18 0.24 0.16 0.05 0.01 0.01
0.00 0.00 0.00 0.00 0.00 0.00 0.00 0.00 0.00 0.00 0.00 0.00 0.00 0.01 0.03 0.08 0.17 0.19 0.21 0.42 0.37 0.33 0.46 0.49 0.37 0.47 0.40 0.26 0.28 0.21 0.24 0.36 0.34 0.21 0.19 0.19 0.15 0.14 0.14 0.16 0.14 0.06 0.02
0.00 0.00 0.00 0.00 0.00 0.00 0.00 0.00 0.00 0.00 0.00 0.00 0.01 0.01 0.01 0.04 0.18 0.19 0.16 0.23 0.39 0.55 0.39 0.33 0.58 0.74 0.36 0.25 0.30 0.33 0.35 0.32 0.26 0.29 0.23 0.15 0.07 0.04 0.07 0.09 0.10 0.11 0.12
0.00 0.00 0.00 0.01 0.01 0.01 0.01 0.01 0.01 0.01 0.00 0.01 0.01 0.02 0.03 0.04 0.09 0.14 0.24 0.56 0.49 0.39 0.51 0.42 0.31 0.55 0.65 0.53 0.39 0.41 0.50 0.49 0.38 0.32 0.28 0.23 0.14 0.07 0.06 0.06 0.05 0.06 0.10
0.01 0.01 0.01 0.02 0.02 0.03 0.02 0.02 0.03 0.03 0.02 0.04 0.05 0.07 0.06 0.11 0.12 0.15 0.31 0.55 0.62 0.45 0.43 0.49 0.50 0.49 0.64 0.53 0.44 0.39 0.41 0.51 0.61 0.56 0.44 0.26 0.26 0.26 0.17 0.14 0.12 0.12 0.09
0.01 0.01 0.01 0.01 0.01 0.01 0.01 0.02 0.03 0.02 0.02 0.05 0.07 0.08 0.10 0.15 0.22 0.25 0.29 0.41 0.71 0.70 0.53 0.51 0.42 0.47 0.58 0.73 0.66 0.72 0.58 0.45 0.57 0.58 0.63 0.66 0.53 0.44 0.40 0.26 0.20 0.21 0.24
0.01 0.00 0.00 0.00 0.00 0.00 0.00 0.01 0.01 0.01 0.03 0.03 0.02 0.03 0.04 0.07 0.14 0.18 0.23 0.33 0.45 0.62 0.59 0.57 0.67 0.67 0.63 0.62 0.62 0.64 0.79 0.72 0.57 0.60 0.50 0.38 0.42 0.51 0.62 0.39 0.21 0.18 0.19
0.00 0.00 0.00 0.00 0.00 0.00 0.00 0.00 0.00 0.00 0.00 0.00 0.00 0.01 0.01 0.03 0.05 0.09 0.13 0.26 0.41 0.39 0.47 0.59 0.64 0.66 0.75 0.80 0.76 0.73 0.81 0.82 0.75 0.60 0.60 0.52 0.42 0.31 0.33 0.42 0.44 0.35 0.28
0.00 0.00 0.00 0.00 0.00 0.00 0.00 0.00 0.00 0.00 0.00 0.00 0.00 0.00 0.00 0.00 0.00 0.01 0.04 0.07 0.12 0.21 0.33 0.40 0.52 0.55 0.55 0.62 0.69 0.74 0.65 0.60 0.58 0.61 0.60 0.57 0.54 0.50 0.41 0.36 0.32 0.38 0.40
0.00 0.00 0.00 0.00 0.00 0.00 0.00 0.00 0.00 0.00 0.00 0.00 0.00 0.00 0.00 0.00 0.00 0.00 0.00 0.01 0.04 0.08 0.14 0.24 0.31 0.35 0.39 0.46 0.51 0.53 0.51 0.47 0.50 0.53 0.56 0.58 0.58 0.56 0.47 0.35 0.34 0.32 0.30
0.00 0.00 0.00 0.00 0.00 0.00 0.00 0.00 0.00 0.00 0.00 0.01 0.00 0.01 0.00 0.00 0.00 0.00 0.00 0.00 0.00 0.01 0.03 0.05 0.08 0.13 0.20 0.26 0.33 0.37 0.41 0.46 0.49 0.52 0.54 0.55 0.52 0.50 0.50 0.47 0.36 0.32 0.31
0.00 0.00 0.00 0.00 0.00 0.00 0.01 0.02 0.00 0.00 0.00 0.01 0.02 0.01 0.01 0.02 0.02 0.00 0.00 0.00 0.00 0.00 0.00 0.00 0.00 0.01 0.02 0.05 0.09 0.15 0.22 0.28 0.31 0.35 0.38 0.42 0.45 0.44 0.45 0.48 0.49 0.41 0.31
0.00 0.00 0.00 0.00 0.00 0.00 0.00 0.00 0.00 0.00 0.00 0.00 0.00 0.01 0.00 0.00 0.00 0.00 0.00 0.00 0.00 0.00 0.00 0.00 0.00 0.00 0.01 0.01 0.02 0.04 0.07 0.11 0.17 0.20 0.22 0.24 0.27 0.33 0.40 0.45 0.48 0.51 0.50
0.00 0.00 0.00 0.00 0.00 0.00 0.00 0.00 0.00 0.00 0.00 0.00 0.00 0.00 0.00 0.00 0.00 0.00 0.00 0.00 0.00 0.00 0.00 0.00 0.00 0.01 0.01 0.00 0.01 0.01 0.02 0.03 0.05 0.07 0.11 0.14 0.16 0.18 0.22 0.27 0.35 0.40 0.45
0.00 0.00 0.00 0.00 0.00 0.00 0.00 0.00 0.00 0.00 0.00 0.00 0.00 0.00 0.00 0.00 0.00 0.00 0.00 0.00 0.00 0.00 0.00 0.00 0.01 0.01 0.01 0.01 0.01 0.01 0.01 0.00 0.00 0.01 0.02 0.04 0.06 0.09 0.11 0.15 0.19 0.24 0.29
0.00 0.00 0.00 0.00 0.00 0.00 0.00 0.00 0.00 0.00 0.00 0.00 0.00 0.00 0.00 0.00 0.00 0.00 0.00 0.00 0.00 0.00 0.00 0.00 0.00 0.00 0.00 0.00 0.01 0.00 0.00 0.01 0.01 0.00 0.00 0.01 0.00 0.02 0.04 0.07 0.10 0.14 0.17
0.00 0.00 0.00 0.00 0.00 0.00 0.00 0.00 0.00 0.00 0.00 0.00 0.01 0.01 0.00 0.00 0.00 0.00 0.00 0.00 0.00 0.00 0.00 0.00 0.00 0.00 0.00 0.00 0.00 0.00 0.00 0.00 0.00 0.00 0.00 0.00 0.00 0.00 0.00 0.01 0.03 0.05 0.08
0.00 0.00 0.00 0.00 0.00 0.00 0.00 0.00 0.00 0.00 0.00 0.00 0.01 0.01 0.00 0.00 0.00 0.00 0.00 0.00 0.00 0.00 0.00 0.00 0.00 0.00 0.00 0.00 0.00 0.00 0.00 0.00 0.00 0.00 0.01 0.01 0.01 0.01 0.00 0.00 0.00 0.00 0.01
0.00 0.00 0.00 0.00 0.00 0.00 0.00 0.00 0.00 0.00 0.00 0.00 0.00 0.01 0.00 0.00 0.00 0.00 0.00 0.00 0.00 0.00 0.00 0.00 0.00 0.00 0.00 0.00 0.00 0.00 0.00 0.00 0.00 0.00 0.00 0.00 0.01 0.00 0.00 0.00 0.00 0.00 0.00
0.00 0.00 0.00 0.00 0.00 0.00 0.00 0.00 0.00 0.00 0.00 0.00 0.00 0.00 0.00 0.00 0.01 0.01 0.00 0.00 0.00 0.01 0.00 0.00 0.00 0.00 0.00 0.00 0.00 0.00 0.00 0.00 0.00 0.01 0.01 0.01 0.01 0.01 0.01 0.00 0.00 0.00 0.00
0.00 0.00 0.00 0.00 0.00 0.00 0.00 0.00 0.00 0.00 0.00 0.00 0.00 0.00 0.00 0.00 0.00 0.00 0.00 0.00 0.00 0.00 0.00 0.00 0.00 0.00 0.00 0.00 0.00 0.00 0.00 0.00 0.00 0.01 0.01 0.01 0.01 0.00 0.00 0.00 0.00 0.00 0.00
0.00 0.00 0.00 0.00 0.00 0.00 0.00 0.00 0.00 0.00 0.00 0.00 0.00 0.01 0.01 0.00 0.00 0.00 0.00 0.01 0.01 0.00 0.00 0.00 0.00 0.00 0.00 0.00 0.00 0.00 0.00 0.00 0.00 0.00 0.00 0.00 0.01 0.00 0.00 0.00 0.00 0.00 0.00
0.00 0.00 0.00 0.00 0.00 0.00 0.00 0.00 0.00 0.00 0.00 0.00 0.01 0.01 0.02 0.01 0.01 0.01 0.00 0.01 0.01 0.00 0.00 0.00 0.00 0.00 0.00 0.00 0.00 0.00 0.00 0.00 0.00 0.00 0.00 0.00 0.00 0.00 0.00 0.00 0.00 0.00 0.00

GFSGL_prec_precacc12_126.txt.gz
Total_Precipitation_Accumulation
0.00 0.00 0.00 0.00 0.00 0.00 0.00 0.00 0.00 0.00 0.00 0.00 0.00 0.00 0.01 0.01 0.01 0.01 0.01 0.00 0.01 0.05 0.04 0.07 0.05 0.10 0.09 0.18 0.26 0.26 0.25 0.26 0.15 0.09 0.05 0.07 0.06 0.05 0.05 0.03 0.01 0.00 0.00
0.00 0.00 0.00 0.00 0.00 0.00 0.00 0.00 0.00 0.00 0.00 0.00 0.00 0.00 0.00 0.00 0.00 0.01 0.01 0.01 0.01 0.03 0.07 0.12 0.08 0.09 0.15 0.18 0.27 0.28 0.25 0.26 0.36 0.28 0.21 0.16 0.11 0.08 0.07 0.07 0.03 0.01 0.01
0.00 0.00 0.00 0.00 0.00 0.00 0.00 0.00 0.00 0.00 0.00 0.00 0.00 0.00 0.00 0.00 0.00 0.00 0.02 0.05 0.05 0.04 0.06 0.09 0.10 0.14 0.12 0.12 0.14 0.16 0.20 0.23 0.24 0.30 0.29 0.26 0.26 0.20 0.14 0.08 0.05 0.02 0.01
0.00 0.00 0.00 0.00 0.00 0.00 0.00 0.00 0.00 0.00 0.00 0.00 0.00 0.00 0.01 0.00 0.00 0.00 0.01 0.03 0.04 0.08 0.11 0.13 0.15 0.20 0.15 0.10 0.11 0.12 0.16 0.19 0.18 0.19 0.21 0.24 0.19 0.19 0.27 0.21 0.07 0.02 0.01
0.00 0.00 0.00 0.00 0.00 0.00 0.00 0.00 0.00 0.00 0.00 0.00 0.00 0.00 0.00 0.01 0.02 0.01 0.01 0.00 0.01 0.03 0.24 0.33 0.20 0.25 0.29 0.19 0.14 0.10 0.15 0.27 0.31 0.21 0.21 0.24 0.24 0.18 0.16 0.16 0.14 0.09 0.05
0.00 0.00 0.00 0.00 0.00 0.00 0.00 0.00 0.00 0.00 0.00 0.00 0.00 0.00 0.01 0.01 0.02 0.02 0.03 0.03 0.05 0.18 0.21 0.23 0.48 0.72 0.35 0.20 0.20 0.18 0.22 0.23 0.25 0.35 0.30 0.23 0.16 0.16 0.14 0.13 0.13 0.14 0.14
0.00 0.00 0.00 0.00 0.00 0.00 0.00 0.00 0.00 0.00 0.00 0.00 0.01 0.01 0.02 0.03 0.03 0.03 0.08 0.08 0.07 0.13 0.34 0.35 0.29 0.53 0.60 0.49 0.32 0.31 0.39 0.45 0.36 0.31 0.33 0.43 0.35 0.31 0.28 0.19 0.15 0.09 0.09
0.00 0.00 0.00 0.00 0.00 0.00 0.00 0.00 0.00 0.00 0.01 0.02 0.02 0.03 0.03 0.06 0.06 0.07 0.09 0.11 0.12 0.14 0.20 0.41 0.47 0.47 0.58 0.40 0.26 0.32 0.38 0.50 0.62 0.58 0.45 0.31 0.33 0.32 0.25 0.22 0.17 0.13 0.09
0.00 0.00 0.00 0.00 0.00 0.00 0.00 0.00 0.00 0.00 0.00 0.01 0.02 0.03 0.05 0.09 0.12 0.15 0.15 0.16 0.16 0.17 0.22 0.31 0.30 0.39 0.47 0.61 0.55 0.60 0.56 0.45 0.59 0.62 0.68 0.75 0.62 0.53 0.43 0.38 0.42 0.36 0.24
0.00 0.00 0.00 0.00 0.00 0.00 0.00 0.00 0.00 0.00 0.00 0.00 0.00 0.01 0.02 0.04 0.06 0.08 0.11 0.13 0.16 0.21 0.27 0.35 0.50 0.51 0.49 0.48 0.54 0.57 0.73 0.74 0.63 0.66 0.58 0.50 0.57 0.68 0.78 0.66 0.58 0.41 0.27
0.00 0.00 0.00 0.00 0.00 0.00 0.00 0.00 0.00 0.00 0.00 0.00 0.00 0.00 0.00 0.00 0.00 0.01 0.01 0.04 0.10 0.14 0.19 0.28 0.43 0.53 0.59 0.62 0.61 0.62 0.78 0.84 0.79 0.67 0.70 0.64 0.54 0.45 0.50 0.62 0.68 0.61 0.49
0.00 0.00 0.00 0.00 0.00 0.00 0.00 0.00 0.00 0.00 0.00 0.00 0.00 0.00 0.00 0.00 0.00 0.00 0.00 0.00 0.01 0.03 0.08 0.15 0.26 0.31 0.36 0.47 0.56 0.63 0.59 0.57 0.59 0.64 0.65 0.64 0.64 0.64 0.57 0.53 0.46 0.49 0.48
0.00 0.00 0.00 0.00 0.00 0.00 0.00 0.00 0.00 0.00 0.00 0.00 0.00 0.00 0.00 0.00 0.00 0.00 0.00 0.00 0.00 0.00 0.01 0.02 0.03 0.06 0.12 0.23 0.34 0.41 0.45 0.46 0.49 0.53 0.57 0.60 0.63 0.67 0.62 0.51 0.49 0.44 0.39
0.00 0.00 0.00 0.00 0.00 0.00 0.00 0.00 0.00 0.00 0.00 0.01 0.00 0.01 0.00 0.00 0.00 0.00 0.00 0.00 0.00 0.00 0.00 0.00 0.00 0.00 0.01 0.03 0.08 0.15 0.24 0.35 0.44 0.49 0.52 0.53 0.52 0.51 0.52 0.52 0.46 0.45 0.45
0.00 0.00 0.00 0.00 0.00 0.00 0.00 0.01 0.00 0.00 0.00 0.01 0.01 0.00 0.00 0.01 0.01 0.00 0.00 0.00 0.00 0.00 0.00 0.00 0.00 0.00 0.00 0.00 0.01 0.03 0.06 0.11 0.17 0.25 0.32 0.36 0.40 0.41 0.42 0.46 0.49 0.45 0.40
0.00 0.00 0.00 0.00 0.00 0.00 0.00 0.00 0.00 0.00 0.00 0.00 0.00 0.00 0.00 0.00 0.00 0.00 0.00 0.00 0.00 0.00 0.00 0.00 0.00 0.00 0.00 0.00 0.00 0.00 0.00 0.02 0.04 0.07 0.10 0.14 0.18 0.26 0.33 0.38 0.43 0.49 0.50
0.00 0.00 0.00 0.00 0.00 0.00 0.00 0.00 0.00 0.00 0.00 0.00 0.00 0.00 0.00 0.00 0.00 0.00 0.00 0.00 0.00 0.00 0.00 0.00 0.00 0.00 0.00 0.00 0.00 0.00 0.01 0.01 0.01 0.01 0.02 0.04 0.07 0.11 0.15 0.20 0.27 0.35 0.42
0.00 0.00 0.00 0.00 0.00 0.00 0.00 0.00 0.00 0.00 0.00 0.00 0.00 0.00 0.00 0.00 0.00 0.00 0.00 0.00 0.00 0.00 0.00 0.00 0.00 0.00 0.00 0.00 0.00 0.00 0.00 0.00 0.00 0.00 0.00 0.01 0.02 0.04 0.07 0.10 0.15 0.19 0.24
0.00 0.00 0.00 0.00 0.00 0.00 0.00 0.00 0.00 0.00 0.00 0.00 0.00 0.00 0.00 0.00 0.00 0.00 0.00 0.00 0.00 0.00 0.00 0.00 0.00 0.00 0.00 0.00 0.00 0.00 0.00 0.00 0.00 0.00 0.00 0.01 0.01 0.01 0.03 0.05 0.07 0.09 0.12
0.00 0.00 0.00 0.00 0.00 0.00 0.00 0.00 0.00 0.00 0.00 0.00 0.01 0.01 0.00 0.00 0.00 0.00 0.00 0.00 0.00 0.00 0.00 0.00 0.00 0.00 0.00 0.00 0.00 0.00 0.00 0.00 0.00 0.00 0.01 0.01 0.01 0.01 0.01 0.02 0.02 0.03 0.06
0.00 0.00 0.00 0.00 0.00 0.00 0.00 0.00 0.00 0.00 0.00 0.00 0.00 0.00 0.00 0.00 0.00 0.00 0.00 0.01 0.01 0.01 0.01 0.00 0.00 0.00 0.00 0.00 0.00 0.00 0.00 0.00 0.00 0.00 0.00 0.01 0.01 0.01 0.00 0.00 0.00 0.00 0.01
0.00 0.00 0.00 0.00 0.00 0.00 0.00 0.00 0.00 0.00 0.00 0.00 0.00 0.00 0.00 0.00 0.00 0.00 0.00 0.01 0.01 0.01 0.01 0.01 0.01 0.00 0.01 0.01 0.01 0.01 0.00 0.00 0.00 0.00 0.00 0.00 0.01 0.01 0.00 0.00 0.00 0.00 0.00
0.00 0.00 0.00 0.00 0.00 0.00 0.00 0.00 0.00 0.00 0.00 0.00 0.00 0.00 0.00 0.00 0.00 0.00 0.01 0.01 0.01 0.01 0.01 0.01 0.01 0.00 0.00 0.01 0.01 0.01 0.01 0.01 0.01 0.01 0.01 0.01 0.01 0.01 0.01 0.01 0.00 0.00 0.00
0.00 0.00 0.00 0.00 0.00 0.00 0.00 0.00 0.00 0.00 0.00 0.00 0.00 0.00 0.00 0.01 0.01 0.00 0.00 0.00 0.00 0.00 0.00 0.00 0.01 0.00 0.00 0.00 0.01 0.01 0.01 0.01 0.01 0.01 0.01 0.01 0.01 0.01 0.01 0.00 0.00 0.00 0.00
0.00 0.00 0.00 0.00 0.00 0.00 0.00 0.00 0.00 0.00 0.00 0.00 0.00 0.01 0.00 0.00 0.00 0.00 0.00 0.00 0.01 0.00 0.00 0.00 0.00 0.00 0.00 0.00 0.00 0.00 0.00 0.00 0.01 0.00 0.00 0.01 0.01 0.01 0.00 0.00 0.00 0.00 0.00
0.00 0.00 0.00 0.00 0.00 0.00 0.00 0.00 0.00 0.00 0.00 0.00 0.00 0.01 0.00 0.00 0.00 0.00 0.00 0.01 0.01 0.00 0.00 0.00 0.00 0.00 0.00 0.00 0.00 0.00 0.00 0.00 0.00 0.00 0.00 0.00 0.00 0.00 0.00 0.00 0.00 0.00 0.00

GFSGL_prec_precacc12_129.txt.gz
Total_Precipitation_Accumulation
0.00 0.00 0.00 0.00 0.00 0.00 0.00 0.00 0.00 0.00 0.00 0.00 0.00 0.00 0.00 0.00 0.00 0.00 0.00 0.00 0.01 0.02 0.03 0.03 0.04 0.04 0.06 0.07 0.08 0.11 0.16 0.21 0.13 0.07 0.07 0.07 0.06 0.05 0.04 0.05 0.04 0.03 0.03
0.00 0.00 0.00 0.00 0.00 0.00 0.00 0.00 0.00 0.00 0.00 0.00 0.00 0.00 0.00 0.00 0.00 0.00 0.00 0.00 0.01 0.01 0.03 0.04 0.04 0.04 0.04 0.08 0.12 0.13 0.16 0.16 0.19 0.19 0.20 0.16 0.12 0.10 0.09 0.09 0.06 0.03 0.03
0.00 0.00 0.00 0.00 0.00 0.00 0.00 0.00 0.00 0.00 0.00 0.00 0.00 0.00 0.00 0.00 0.00 0.00 0.00 0.00 0.01 0.02 0.04 0.06 0.06 0.08 0.07 0.07 0.09 0.10 0.11 0.16 0.19 0.25 0.25 0.22 0.25 0.21 0.15 0.09 0.08 0.05 0.04
0.00 0.00 0.00 0.00 0.00 0.00 0.00 0.00 0.00 0.00 0.00 0.00 0.00 0.00 0.01 0.00 0.00 0.00 0.00 0.00 0.00 0.02 0.04 0.08 0.12 0.13 0.10 0.06 0.06 0.06 0.10 0.12 0.14 0.16 0.20 0.24 0.22 0.22 0.30 0.26 0.11 0.05 0.04
0.00 0.00 0.00 0.00 0.00 0.00 0.00 0.00 0.00 0.00 0.00 0.00 0.00 0.00 0.00 0.00 0.01 0.00 0.00 0.00 0.00 0.00 0.00 0.01 0.04 0.11 0.12 0.09 0.09 0.08 0.10 0.14 0.14 0.12 0.14 0.18 0.23 0.22 0.21 0.20 0.18 0.15 0.10
0.00 0.00 0.00 0.00 0.00 0.00 0.00 0.00 0.00 0.00 0.00 0.00 0.00 0.00 0.00 0.01 0.01 0.00 0.00 0.00 0.00 0.00 0.00 0.00 0.01 0.01 0.02 0.05 0.14 0.17 0.20 0.21 0.20 0.20 0.18 0.18 0.15 0.18 0.16 0.16 0.15 0.17 0.16
0.00 0.00 0.00 0.00 0.00 0.00 0.00 0.00 0.00 0.00 0.00 0.00 0.00 0.00 0.00 0.00 0.00 0.00 0.00 0.01 0.01 0.03 0.04 0.03 0.02 0.02 0.05 0.20 0.28 0.29 0.28 0.24 0.17 0.17 0.24 0.32 0.28 0.31 0.30 0.23 0.20 0.20 0.17
0.00 0.00 0.00 0.00 0.00 0.00 0.00 0.00 0.00 0.00 0.00 0.01 0.00 0.00 0.00 0.01 0.00 0.00 0.01 0.03 0.05 0.07 0.10 0.11 0.11 0.17 0.31 0.32 0.23 0.25 0.31 0.31 0.34 0.33 0.26 0.25 0.31 0.33 0.25 0.23 0.21 0.25 0.24
0.00 0.00 0.00 0.00 0.00 0.00 0.00 0.00 0.00 0.00 0.00 0.00 0.01 0.01 0.00 0.00 0.00 0.01 0.02 0.04 0.07 0.09 0.09 0.09 0.10 0.15 0.30 0.42 0.47 0.34 0.28 0.28 0.37 0.47 0.63 0.70 0.60 0.50 0.42 0.37 0.42 0.36 0.28
0.00 0.00 0.00 0.00 0.00 0.00 0.00 0.00 0.00 0.00 0.00 0.00 0.00 0.00 0.00 0.00 0.00 0.00 0.00 0.01 0.03 0.05 0.05 0.08 0.11 0.19 0.21 0.26 0.42 0.45 0.38 0.39 0.46 0.47 0.44 0.48 0.57 0.68 0.76 0.67 0.62 0.46 0.35
0.00 0.00 0.00 0.00 0.00 0.00 0.00 0.00 0.00 0.00 0.00 0.00 0.00 0.00 0.00 0.00 0.00 0.00 0.00 0.01 0.01 0.01 0.02 0.04 0.10 0.16 0.23 0.30 0.39 0.45 0.54 0.53 0.49 0.51 0.60 0.61 0.54 0.46 0.52 0.66 0.77 0.76 0.66
0.00 0.00 0.00 0.00 0.00 0.00 0.00 0.00 0.00 0.00 0.00 0.00 0.00 0.00 0.00 0.00 0.00 0.00 0.00 0.00 0.00 0.01 0.01 0.02 0.04 0.04 0.08 0.17 0.24 0.36 0.40 0.37 0.39 0.43 0.54 0.61 0.64 0.65 0.60 0.58 0.57 0.64 0.68
0.00 0.00 0.00 0.00 0.00 0.00 0.00 0.00 0.00 0.00 0.00 0.00 0.00 0.00 0.00 0.00 0.00 0.00 0.00 0.00 0.00 0.00 0.00 0.00 0.00 0.01 0.01 0.03 0.06 0.13 0.19 0.24 0.29 0.36 0.47 0.56 0.62 0.67 0.63 0.55 0.54 0.53 0.52
0.00 0.00 0.00 0.00 0.00 0.00 0.00 0.00 0.00 0.00 0.00 0.00 0.00 0.00 0.00 0.00 0.00 0.00 0.00 0.00 0.00 0.00 0.00 0.00 0.00 0.00 0.00 0.00 0.01 0.02 0.05 0.11 0.18 0.26 0.35 0.44 0.48 0.50 0.51 0.52 0.47 0.47 0.49
0.00 0.00 0.00 0.00 0.00 0.00 0.00 0.00 0.00 0.00 0.00 0.00 0.00 0.00 0.00 0.00 0.00 0.00 0.00 0.00 0.00 0.00 0.00 0.00 0.00 0.00 0.00 0.00 0.00 0.00 0.01 0.02 0.05 0.08 0.12 0.17 0.26 0.33 0.38 0.43 0.47 0.43 0.41
0.00 0.00 0.00 0.00 0.00 0.00 0.00 0.00 0.00 0.00 0.00 0.00 0.00 0.00 0.00 0.00 0.00 0.00 0.00 0.00 0.00 0.00 0.00 0.00 0.00 0.00 0.00 0.00 0.00 0.00 0.00 0.00 0.01 0.02 0.03 0.05 0.07 0.13 0.20 0.28 0.36 0.43 0.45
0.00 0.00 0.00 0.00 0.00 0.00 0.00 0.00 0.00 0.00 0.00 0.00 0.00 0.00 0.00 0.00 0.00 0.00 0.00 0.00 0.00 0.00 0.00 0.00 0.00 0.00 0.00 0.00 0.00 0.00 0.00 0.00 0.00 0.00 0.01 0.02 0.04 0.05 0.07 0.09 0.15 0.24 0.33
0.00 0.00 0.00 0.00 0.00 0.00 0.00 0.00 0.00 0.00 0.01 0.01 0.00 0.00 0.00 0.00 0.00 0.00 0.00 0.00 0.00 0.00 0.00 0.00 0.00 0.00 0.00 0.00 0.00 0.00 0.00 0.00 0.00 0.00 0.00 0.01 0.01 0.02 0.03 0.04 0.07 0.09 0.14
0.00 0.00 0.00 0.00 0.00 0.00 0.00 0.00 0.00 0.00 0.00 0.00 0.00 0.00 0.00 0.00 0.00 0.00 0.00 0.00 0.00 0.00 0.00 0.00 0.00 0.00 0.00 0.00 0.00 0.00 0.00 0.00 0.00 0.00 0.01 0.01 0.02 0.01 0.01 0.02 0.03 0.04 0.06
0.00 0.00 0.00 0.00 0.00 0.00 0.00 0.00 0.00 0.00 0.00 0.00 0.00 0.00 0.00 0.00 0.00 0.00 0.00 0.00 0.00 0.00 0.00 0.00 0.00 0.00 0.00 0.00 0.00 0.00 0.00 0.00 0.00 0.00 0.01 0.01 0.02 0.01 0.01 0.01 0.01 0.01 0.03
0.00 0.00 0.00 0.00 0.00 0.00 0.00 0.00 0.00 0.00 0.00 0.00 0.00 0.00 0.00 0.00 0.00 0.00 0.00 0.01 0.01 0.01 0.01 0.01 0.00 0.01 0.00 0.00 0.00 0.00 0.00 0.00 0.00 0.00 0.01 0.01 0.02 0.02 0.01 0.01 0.01 0.00 0.01
0.00 0.00 0.00 0.00 0.00 0.00 0.00 0.00 0.00 0.00 0.00 0.00 0.00 0.00 0.00 0.00 0.00 0.00 0.00 0.01 0.01 0.01 0.01 0.01 0.01 0.01 0.01 0.01 0.01 0.01 0.01 0.01 0.01 0.01 0.01 0.01 0.01 0.01 0.01 0.01 0.01 0.01 0.01
0.00 0.00 0.00 0.00 0.00 0.00 0.00 0.00 0.00 0.00 0.00 0.00 0.00 0.00 0.00 0.01 0.01 0.00 0.01 0.01 0.01 0.01 0.01 0.01 0.01 0.00 0.00 0.01 0.01 0.02 0.02 0.01 0.01 0.02 0.02 0.01 0.01 0.02 0.01 0.01 0.01 0.01 0.01
0.00 0.00 0.00 0.00 0.00 0.00 0.00 0.00 0.00 0.00 0.00 0.00 0.00 0.00 0.00 0.01 0.01 0.01 0.01 0.01 0.00 0.00 0.00 0.00 0.01 0.00 0.00 0.00 0.01 0.01 0.01 0.01 0.01 0.01 0.01 0.02 0.01 0.01 0.01 0.01 0.01 0.01 0.01
0.00 0.00 0.00 0.00 0.00 0.00 0.00 0.00 0.00 0.00 0.00 0.00 0.00 0.01 0.00 0.00 0.00 0.00 0.00 0.00 0.00 0.00 0.00 0.00 0.00 0.00 0.00 0.00 0.00 0.00 0.00 0.00 0.01 0.01 0.01 0.01 0.01 0.01 0.01 0.01 0.01 0.01 0.01
0.00 0.00 0.00 0.00 0.00 0.00 0.00 0.00 0.00 0.00 0.00 0.00 0.00 0.01 0.00 0.00 0.00 0.00 0.00 0.00 0.00 0.00 0.00 0.00 0.00 0.00 0.00 0.00 0.00 0.00 0.00 0.01 0.01 0.01 0.01 0.01 0.01 0.01 0.01 0.01 0.01 0.01 0.01

GFSGL_prec_precacc12_132.txt.gz
Total_Precipitation_Accumulation
0.00 0.00 0.00 0.00 0.00 0.00 0.00 0.00 0.00 0.00 0.00 0.00 0.00 0.00 0.00 0.00 0.00 0.00 0.00 0.00 0.00 0.01 0.01 0.02 0.03 0.03 0.04 0.05 0.07 0.09 0.11 0.15 0.11 0.05 0.04 0.04 0.03 0.04 0.04 0.07 0.06 0.04 0.07
0.00 0.00 0.00 0.00 0.00 0.00 0.00 0.00 0.00 0.00 0.00 0.00 0.00 0.00 0.00 0.00 0.00 0.00 0.00 0.00 0.00 0.01 0.01 0.02 0.04 0.04 0.05 0.05 0.07 0.08 0.08 0.08 0.09 0.07 0.04 0.04 0.05 0.06 0.09 0.10 0.07 0.04 0.05
0.00 0.00 0.00 0.00 0.00 0.00 0.00 0.00 0.00 0.00 0.00 0.00 0.00 0.00 0.00 0.00 0.00 0.00 0.00 0.00 0.00 0.01 0.02 0.03 0.04 0.04 0.04 0.05 0.06 0.06 0.06 0.08 0.12 0.12 0.08 0.06 0.12 0.14 0.11 0.11 0.09 0.06 0.04
0.00 0.00 0.00 0.00 0.00 0.00 0.00 0.00 0.00 0.00 0.00 0.00 0.00 0.00 0.01 0.00 0.00 0.00 0.00 0.00 0.00 0.00 0.01 0.01 0.03 0.04 0.05 0.05 0.05 0.06 0.07 0.07 0.07 0.09 0.12 0.11 0.10 0.15 0.26 0.24 0.11 0.05 0.04
0.00 0.00 0.00 0.00 0.00 0.00 0.00 0.00 0.00 0.00 0.00 0.00 0.00 0.00 0.00 0.00 0.01 0.00 0.00 0.00 0.00 0.00 0.00 0.00 0.01 0.05 0.06 0.05 0.06 0.07 0.08 0.09 0.10 0.09 0.12 0.17 0.16 0.15 0.16 0.18 0.18 0.14 0.10
0.00 0.00 0.00 0.00 0.00 0.00 0.00 0.00 0.00 0.00 0.00 0.00 0.00 0.00 0.00 0.00 0.00 0.00 0.00 0.00 0.00 0.00 0.00 0.00 0.00 0.01 0.02 0.03 0.06 0.10 0.16 0.16 0.15 0.17 0.16 0.17 0.15 0.18 0.14 0.14 0.15 0.17 0.16
0.00 0.00 0.00 0.00 0.00 0.00 0.00 0.00 0.00 0.00 0.00 0.00 0.00 0.00 0.00 0.00 0.00 0.00 0.00 0.00 0.00 0.01 0.01 0.01 0.00 0.01 0.01 0.00 0.01 0.03 0.05 0.08 0.10 0.14 0.24 0.33 0.28 0.28 0.27 0.21 0.20 0.20 0.17
0.00 0.00 0.00 0.00 0.00 0.00 0.00 0.00 0.00 0.00 0.01 0.01 0.00 0.00 0.00 0.00 0.00 0.00 0.00 0.00 0.00 0.00 0.01 0.01 0.02 0.02 0.03 0.02 0.01 0.03 0.09 0.12 0.15 0.20 0.24 0.25 0.28 0.26 0.19 0.16 0.18 0.23 0.23
0.00 0.00 0.00 0.00 0.00 0.00 0.00 0.00 0.00 0.00 0.00 0.00 0.00 0.00 0.00 0.00 0.00 0.00 0.00 0.00 0.00 0.00 0.00 0.01 0.01 0.02 0.04 0.05 0.06 0.08 0.13 0.19 0.24 0.26 0.34 0.39 0.34 0.29 0.28 0.30 0.33 0.28 0.23
0.00 0.00 0.00 0.00 0.00 0.00 0.00 0.00 0.00 0.00 0.00 0.00 0.00 0.00 0.00 0.00 0.00 0.00 0.00 0.00 0.00 0.00 0.00 0.00 0.00 0.02 0.02 0.04 0.09 0.13 0.19 0.27 0.27 0.24 0.23 0.23 0.29 0.36 0.43 0.49 0.57 0.43 0.34
0.00 0.00 0.00 0.00 0.00 0.00 0.00 0.00 0.00 0.00 0.00 0.00 0.00 0.00 0.00 0.00 0.00 0.00 0.00 0.00 0.00 0.00 0.00 0.01 0.01 0.01 0.02 0.03 0.07 0.14 0.25 0.31 0.28 0.25 0.25 0.25 0.27 0.31 0.37 0.50 0.61 0.69 0.68
0.00 0.00 0.00 0.00 0.00 0.00 0.00 0.00 0.00 0.00 0.00 0.00 0.00 0.00 0.00 0.00 0.00 0.00 0.00 0.00 0.00 0.00 0.01 0.01 0.00 0.00 0.00 0.01 0.03 0.06 0.08 0.12 0.17 0.20 0.21 0.23 0.29 0.37 0.46 0.48 0.52 0.60 0.67
0.00 0.00 0.00 0.00 0.00 0.00 0.00 0.00 0.00 0.00 0.00 0.00 0.00 0.00 0.00 0.00 0.00 0.00 0.00 0.00 0.00 0.00 0.00 0.00 0.00 0.00 0.00 0.00 0.00 0.01 0.03 0.06 0.09 0.11 0.15 0.20 0.28 0.37 0.45 0.48 0.49 0.51 0.51
0.00 0.00 0.00 0.00 0.00 0.00 0.00 0.00 0.00 0.00 0.00 0.00 0.00 0.01 0.00 0.00 0.00 0.00 0.00 0.00 0.00 0.00 0.00 0.00 0.00 0.00 0.00 0.00 0.00 0.00 0.01 0.02 0.05 0.08 0.10 0.12 0.15 0.19 0.26 0.37 0.40 0.43 0.46
0.00 0.00 0.00 0.00 0.00 0.00 0.00 0.00 0.00 0.00 0.00 0.00 0.01 0.01 0.00 0.00 0.00 0.00 0.00 0.00 0.00 0.00 0.00 0.00 0.00 0.00 0.00 0.00 0.00 0.00 0.00 0.00 0.01 0.02 0.04 0.04 0.06 0.08 0.14 0.23 0.32 0.35 0.36
0.00 0.00 0.00 0.00 0.00 0.00 0.00 0.00 0.00 0.00 0.00 0.00 0.00 0.00 0.00 0.00 0.00 0.00 0.00 0.00 0.00 0.00 0.00 0.00 0.00 0.00 0.00 0.00 0.00 0.00 0.00 0.00 0.00 0.00 0.01 0.01 0.02 0.03 0.05 0.08 0.15 0.26 0.33
0.00 0.00 0.00 0.00 0.00 0.00 0.00 0.00 0.00 0.00 0.00 0.00 0.00 0.00 0.00 0.00 0.00 0.00 0.00 0.00 0.00 0.00 0.00 0.00 0.00 0.00 0.00 0.00 0.00 0.00 0.00 0.00 0.00 0.00 0.01 0.01 0.01 0.01 0.02 0.03 0.06 0.11 0.17
0.00 0.00 0.00 0.00 0.00 0.00 0.00 0.00 0.00 0.01 0.02 0.03 0.01 0.00 0.00 0.00 0.00 0.00 0.00 0.00 0.00 0.00 0.00 0.00 0.00 0.00 0.00 0.00 0.00 0.00 0.00 0.00 0.00 0.00 0.01 0.01 0.01 0.01 0.01 0.01 0.02 0.05 0.07
0.00 0.00 0.00 0.00 0.00 0.00 0.00 0.00 0.00 0.00 0.00 0.01 0.00 0.00 0.00 0.00 0.00 0.00 0.00 0.00 0.00 0.00 0.00 0.00 0.00 0.00 0.00 0.00 0.00 0.00 0.01 0.00 0.01 0.01 0.01 0.01 0.02 0.01 0.01 0.01 0.01 0.01 0.03
0.00 0.00 0.00 0.00 0.00 0.00 0.00 0.00 0.00 0.00 0.00 0.00 0.00 0.00 0.00 0.00 0.00 0.00 0.00 0.00 0.00 0.00 0.00 0.00 0.00 0.00 0.00 0.00 0.00 0.00 0.00 0.00 0.00 0.00 0.01 0.01 0.02 0.02 0.02 0.01 0.01 0.01 0.01
0.00 0.00 0.00 0.00 0.00 0.00 0.00 0.00 0.00 0.00 0.00 0.00 0.00 0.00 0.00 0.00 0.00 0.00 0.00 0.01 0.01 0.01 0.01 0.01 0.01 0.01 0.00 0.00 0.00 0.01 0.00 0.01 0.01 0.00 0.01 0.01 0.01 0.02 0.01 0.01 0.01 0.01 0.01
0.00 0.00 0.00 0.00 0.00 0.00 0.00 0.00 0.00 0.00 0.00 0.00 0.00 0.00 0.00 0.00 0.00 0.00 0.00 0.01 0.01 0.01 0.01 0.01 0.01 0.01 0.01 0.01 0.01 0.02 0.01 0.01 0.01 0.01 0.01 0.01 0.01 0.01 0.01 0.01 0.01 0.01 0.01
0.00 0.00 0.00 0.00 0.00 0.00 0.00 0.00 0.00 0.00 0.00 0.00 0.00 0.00 0.00 0.00 0.00 0.00 0.01 0.01 0.01 0.01 0.01 0.01 0.01 0.01 0.00 0.01 0.01 0.02 0.02 0.02 0.02 0.02 0.02 0.01 0.01 0.01 0.02 0.02 0.01 0.01 0.01
0.00 0.00 0.00 0.00 0.00 0.00 0.00 0.00 0.00 0.00 0.00 0.00 0.00 0.00 0.00 0.00 0.00 0.00 0.00 0.00 0.00 0.00 0.00 0.00 0.01 0.00 0.00 0.00 0.01 0.01 0.01 0.01 0.01 0.01 0.01 0.02 0.01 0.01 0.02 0.02 0.01 0.01 0.01
0.00 0.00 0.00 0.00 0.00 0.00 0.00 0.00 0.00 0.00 0.00 0.00 0.00 0.00 0.00 0.00 0.00 0.00 0.00 0.00 0.00 0.00 0.00 0.00 0.00 0.00 0.00 0.00 0.00 0.00 0.00 0.01 0.01 0.01 0.01 0.01 0.01 0.02 0.02 0.02 0.01 0.01 0.01
0.00 0.00 0.00 0.00 0.00 0.00 0.00 0.00 0.00 0.00 0.00 0.00 0.00 0.00 0.00 0.00 0.00 0.00 0.00 0.00 0.00 0.00 0.00 0.00 0.00 0.00 0.00 0.00 0.00 0.00 0.00 0.01 0.01 0.01 0.01 0.02 0.02 0.02 0.02 0.01 0.01 0.01 0.01

GFSGL_prec_precacc12_138.txt.gz
Total_Precipitation_Accumulation
0.00 0.00 0.00 0.00 0.00 0.00 0.00 0.00 0.00 0.00 0.00 0.00 0.00 0.00 0.00 0.00 0.00 0.01 0.01 0.02 0.03 0.05 0.02 0.03 0.02 0.01 0.02 0.01 0.02 0.04 0.06 0.09 0.06 0.02 0.02 0.01 0.01 0.01 0.01 0.04 0.06 0.04 0.07
0.00 0.00 0.00 0.00 0.00 0.00 0.00 0.00 0.00 0.00 0.00 0.00 0.00 0.00 0.00 0.00 0.00 0.01 0.01 0.00 0.00 0.01 0.01 0.01 0.02 0.02 0.03 0.03 0.03 0.04 0.05 0.06 0.06 0.03 0.01 0.01 0.02 0.02 0.03 0.04 0.04 0.04 0.05
0.00 0.00 0.00 0.00 0.00 0.00 0.00 0.00 0.00 0.00 0.00 0.00 0.00 0.00 0.00 0.00 0.00 0.00 0.00 0.00 0.00 0.00 0.01 0.00 0.01 0.01 0.02 0.02 0.03 0.04 0.03 0.04 0.06 0.06 0.02 0.01 0.00 0.00 0.01 0.03 0.04 0.04 0.04
0.00 0.00 0.00 0.00 0.00 0.00 0.00 0.00 0.00 0.00 0.00 0.00 0.00 0.00 0.00 0.00 0.00 0.00 0.00 0.00 0.00 0.00 0.00 0.00 0.00 0.00 0.01 0.01 0.01 0.01 0.01 0.01 0.02 0.03 0.05 0.06 0.05 0.04 0.04 0.05 0.04 0.04 0.03
0.00 0.00 0.00 0.00 0.00 0.00 0.00 0.00 0.00 0.00 0.00 0.00 0.00 0.00 0.00 0.00 0.00 0.00 0.00 0.00 0.00 0.00 0.00 0.00 0.00 0.00 0.00 0.01 0.01 0.03 0.01 0.00 0.01 0.01 0.02 0.02 0.03 0.07 0.07 0.05 0.04 0.05 0.05
0.00 0.00 0.00 0.00 0.00 0.00 0.00 0.00 0.00 0.00 0.00 0.00 0.00 0.00 0.00 0.00 0.00 0.00 0.00 0.00 0.00 0.00 0.00 0.00 0.00 0.00 0.00 0.00 0.00 0.01 0.03 0.03 0.03 0.02 0.02 0.03 0.05 0.06 0.05 0.06 0.05 0.04 0.03
0.00 0.00 0.00 0.00 0.00 0.00 0.00 0.00 0.00 0.00 0.00 0.00 0.00 0.00 0.00 0.00 0.00 0.00 0.00 0.00 0.00 0.00 0.00 0.00 0.00 0.00 0.00 0.00 0.00 0.00 0.01 0.01 0.03 0.04 0.04 0.06 0.05 0.06 0.05 0.05 0.08 0.13 0.09
0.00 0.00 0.00 0.00 0.00 0.00 0.00 0.00 0.00 0.00 0.00 0.00 0.00 0.00 0.00 0.00 0.00 0.00 0.00 0.00 0.00 0.00 0.00 0.00 0.00 0.00 0.00 0.00 0.00 0.00 0.00 0.01 0.01 0.02 0.04 0.05 0.06 0.04 0.02 0.03 0.04 0.12 0.15
0.00 0.00 0.00 0.00 0.00 0.00 0.00 0.00 0.00 0.00 0.00 0.00 0.00 0.00 0.00 0.00 0.00 0.00 0.00 0.00 0.00 0.00 0.00 0.00 0.00 0.00 0.00 0.00 0.00 0.00 0.00 0.00 0.00 0.00 0.01 0.01 0.01 0.01 0.01 0.01 0.02 0.02 0.07
0.00 0.00 0.00 0.00 0.00 0.00 0.00 0.00 0.00 0.00 0.00 0.00 0.00 0.00 0.00 0.00 0.00 0.00 0.00 0.00 0.00 0.00 0.00 0.00 0.00 0.00 0.00 0.00 0.00 0.00 0.00 0.00 0.00 0.00 0.00 0.00 0.00 0.00 0.01 0.04 0.08 0.09 0.12
0.00 0.00 0.00 0.00 0.00 0.00 0.00 0.00 0.01 0.01 0.00 0.01 0.00 0.00 0.00 0.00 0.00 0.00 0.00 0.00 0.00 0.00 0.00 0.00 0.00 0.00 0.00 0.00 0.00 0.00 0.00 0.00 0.00 0.00 0.00 0.00 0.00 0.01 0.02 0.05 0.10 0.19 0.24
0.00 0.00 0.00 0.00 0.00 0.00 0.00 0.01 0.01 0.01 0.00 0.00 0.00 0.00 0.00 0.00 0.00 0.00 0.00 0.00 0.00 0.00 0.00 0.00 0.00 0.00 0.00 0.00 0.00 0.00 0.00 0.00 0.00 0.00 0.00 0.00 0.00 0.01 0.03 0.06 0.11 0.16 0.23
0.00 0.00 0.00 0.00 0.00 0.00 0.00 0.00 0.00 0.00 0.00 0.00 0.00 0.00 0.00 0.00 0.00 0.00 0.00 0.00 0.00 0.00 0.00 0.00 0.00 0.00 0.00 0.00 0.00 0.00 0.00 0.00 0.00 0.00 0.00 0.01 0.01 0.01 0.02 0.04 0.06 0.09 0.14
0.00 0.00 0.00 0.00 0.00 0.00 0.00 0.00 0.00 0.00 0.00 0.00 0.00 0.00 0.00 0.00 0.00 0.00 0.00 0.00 0.00 0.00 0.00 0.00 0.00 0.00 0.00 0.00 0.00 0.00 0.00 0.00 0.00 0.00 0.01 0.00 0.00 0.00 0.00 0.01 0.02 0.04 0.06
0.00 0.00 0.00 0.00 0.00 0.00 0.00 0.00 0.00 0.00 0.00 0.00 0.00 0.01 0.00 0.00 0.00 0.00 0.00 0.00 0.00 0.00 0.00 0.00 0.00 0.00 0.00 0.00 0.00 0.00 0.00 0.00 0.00 0.00 0.00 0.00 0.00 0.00 0.00 0.00 0.00 0.01 0.03
0.00 0.00 0.00 0.00 0.00 0.00 0.00 0.00 0.00 0.00 0.00 0.00 0.00 0.00 0.00 0.00 0.00 0.00 0.00 0.00 0.00 0.00 0.00 0.00 0.00 0.00 0.00 0.00 0.00 0.00 0.00 0.00 0.00 0.00 0.00 0.00 0.00 0.00 0.01 0.00 0.00 0.00 0.00
0.00 0.00 0.00 0.00 0.00 0.00 0.00 0.00 0.00 0.00 0.00 0.00 0.00 0.00 0.00 0.00 0.00 0.00 0.00 0.00 0.00 0.00 0.00 0.00 0.00 0.00 0.00 0.00 0.00 0.00 0.00 0.00 0.00 0.00 0.00 0.00 0.00 0.00 0.01 0.01 0.01 0.00 0.00
0.00 0.00 0.00 0.00 0.00 0.00 0.00 0.00 0.00 0.01 0.02 0.03 0.01 0.00 0.00 0.00 0.00 0.00 0.00 0.00 0.00 0.00 0.00 0.00 0.00 0.00 0.00 0.00 0.00 0.00 0.00 0.00 0.00 0.00 0.00 0.00 0.01 0.01 0.01 0.01 0.01 0.01 0.00
0.00 0.00 0.00 0.00 0.00 0.00 0.00 0.00 0.00 0.00 0.00 0.01 0.00 0.00 0.00 0.00 0.00 0.00 0.00 0.00 0.00 0.00 0.00 0.00 0.00 0.00 0.00 0.00 0.00 0.00 0.01 0.01 0.01 0.01 0.01 0.01 0.01 0.01 0.01 0.01 0.01 0.01 0.00
0.00 0.00 0.00 0.00 0.00 0.00 0.00 0.00 0.00 0.00 0.00 0.00 0.00 0.00 0.00 0.00 0.00 0.00 0.00 0.00 0.00 0.00 0.00 0.00 0.00 0.00 0.00 0.00 0.00 0.00 0.01 0.00 0.00 0.00 0.01 0.01 0.01 0.01 0.01 0.01 0.01 0.01 0.00
0.00 0.00 0.00 0.00 0.00 0.00 0.00 0.00 0.00 0.00 0.00 0.00 0.00 0.00 0.00 0.00 0.00 0.00 0.00 0.00 0.00 0.00 0.00 0.00 0.00 0.00 0.00 0.00 0.00 0.00 0.01 0.01 0.01 0.00 0.01 0.01 0.01 0.01 0.01 0.01 0.01 0.01 0.01
0.00 0.00 0.00 0.00 0.00 0.00 0.00 0.00 0.00 0.00 0.00 0.00 0.00 0.00 0.00 0.00 0.00 0.00 0.00 0.00 0.00 0.00 0.00 0.00 0.00 0.00 0.00 0.00 0.00 0.01 0.01 0.01 0.01 0.01 0.01 0.01 0.01 0.01 0.01 0.01 0.01 0.01 0.01
0.00 0.00 0.00 0.00 0.00 0.00 0.00 0.00 0.00 0.00 0.00 0.00 0.00 0.00 0.00 0.00 0.00 0.00 0.00 0.00 0.00 0.00 0.00 0.00 0.00 0.00 0.00 0.00 0.00 0.01 0.01 0.01 0.01 0.01 0.02 0.01 0.01 0.01 0.01 0.02 0.02 0.01 0.01
0.00 0.00 0.00 0.00 0.00 0.00 0.00 0.00 0.00 0.00 0.00 0.00 0.00 0.00 0.00 0.00 0.00 0.00 0.00 0.00 0.00 0.00 0.00 0.00 0.00 0.00 0.00 0.00 0.00 0.00 0.00 0.00 0.01 0.01 0.01 0.02 0.01 0.01 0.02 0.02 0.02 0.01 0.01
0.00 0.00 0.00 0.00 0.00 0.00 0.00 0.00 0.00 0.00 0.00 0.00 0.00 0.00 0.00 0.00 0.00 0.00 0.00 0.00 0.00 0.00 0.00 0.00 0.00 0.00 0.00 0.00 0.00 0.00 0.00 0.00 0.00 0.01 0.01 0.01 0.02 0.02 0.02 0.03 0.01 0.01 0.01
0.00 0.00 0.00 0.00 0.00 0.00 0.00 0.00 0.00 0.00 0.00 0.00 0.00 0.00 0.00 0.00 0.00 0.00 0.00 0.00 0.00 0.00 0.00 0.00 0.00 0.00 0.00 0.00 0.00 0.00 0.00 0.00 0.00 0.00 0.01 0.02 0.03 0.03 0.03 0.02 0.01 0.01 0.01

GFSGL_prec_precacc12_141.txt.gz
Total_Precipitation_Accumulation
0.00 0.00 0.00 0.00 0.00 0.00 0.00 0.00 0.00 0.00 0.00 0.00 0.00 0.00 0.00 0.00 0.00 0.01 0.01 0.02 0.03 0.05 0.02 0.04 0.06 0.06 0.07 0.06 0.04 0.03 0.04 0.05 0.03 0.01 0.00 0.01 0.00 0.01 0.01 0.02 0.03 0.02 0.05
0.00 0.00 0.00 0.00 0.00 0.00 0.00 0.00 0.00 0.00 0.00 0.00 0.00 0.00 0.00 0.00 0.00 0.00 0.00 0.00 0.00 0.01 0.01 0.02 0.03 0.03 0.06 0.06 0.06 0.05 0.05 0.05 0.05 0.01 0.00 0.01 0.01 0.00 0.01 0.01 0.01 0.01 0.02
0.00 0.00 0.00 0.00 0.00 0.00 0.00 0.00 0.00 0.00 0.00 0.00 0.00 0.00 0.00 0.00 0.00 0.00 0.00 0.00 0.00 0.00 0.00 0.00 0.00 0.00 0.01 0.01 0.02 0.02 0.02 0.02 0.04 0.03 0.01 0.00 0.00 0.00 0.00 0.01 0.01 0.01 0.01
0.00 0.00 0.00 0.00 0.00 0.00 0.00 0.00 0.00 0.00 0.00 0.00 0.00 0.00 0.00 0.00 0.00 0.00 0.00 0.00 0.00 0.00 0.00 0.00 0.00 0.00 0.01 0.01 0.00 0.01 0.00 0.01 0.01 0.01 0.02 0.01 0.00 0.00 0.00 0.00 0.00 0.01 0.01
0.00 0.00 0.00 0.00 0.00 0.00 0.00 0.00 0.00 0.00 0.00 0.00 0.00 0.00 0.00 0.00 0.00 0.00 0.00 0.00 0.00 0.00 0.00 0.00 0.00 0.00 0.00 0.01 0.01 0.03 0.01 0.00 0.01 0.00 0.01 0.01 0.01 0.01 0.01 0.01 0.00 0.00 0.00
0.00 0.00 0.00 0.00 0.00 0.00 0.00 0.00 0.00 0.00 0.00 0.00 0.00 0.00 0.00 0.00 0.00 0.00 0.00 0.00 0.00 0.00 0.00 0.00 0.00 0.00 0.00 0.00 0.00 0.01 0.03 0.03 0.02 0.02 0.01 0.02 0.03 0.03 0.02 0.01 0.01 0.00 0.00
0.00 0.00 0.00 0.00 0.00 0.00 0.00 0.00 0.00 0.00 0.00 0.00 0.00 0.00 0.00 0.00 0.00 0.00 0.00 0.00 0.00 0.00 0.00 0.00 0.00 0.00 0.00 0.00 0.00 0.00 0.01 0.01 0.02 0.04 0.04 0.06 0.06 0.06 0.03 0.01 0.01 0.01 0.01
0.00 0.00 0.00 0.00 0.00 0.00 0.00 0.00 0.00 0.00 0.00 0.00 0.00 0.00 0.00 0.00 0.00 0.00 0.00 0.00 0.00 0.00 0.00 0.00 0.00 0.00 0.00 0.00 0.00 0.00 0.00 0.00 0.00 0.01 0.02 0.03 0.05 0.03 0.02 0.02 0.00 0.00 0.00
0.00 0.00 0.00 0.00 0.00 0.00 0.00 0.00 0.00 0.00 0.00 0.00 0.00 0.00 0.00 0.00 0.00 0.00 0.00 0.00 0.00 0.00 0.00 0.00 0.00 0.00 0.00 0.00 0.00 0.00 0.00 0.00 0.00 0.00 0.00 0.00 0.00 0.01 0.01 0.01 0.02 0.01 0.00
0.00 0.00 0.00 0.00 0.00 0.00 0.00 0.00 0.00 0.00 0.00 0.00 0.00 0.00 0.00 0.00 0.00 0.00 0.00 0.00 0.00 0.00 0.00 0.00 0.00 0.00 0.00 0.00 0.00 0.00 0.00 0.00 0.00 0.00 0.00 0.00 0.00 0.00 0.00 0.01 0.03 0.04 0.03
0.00 0.00 0.00 0.00 0.00 0.00 0.00 0.00 0.00 0.00 0.00 0.01 0.00 0.00 0.00 0.00 0.00 0.00 0.00 0.00 0.00 0.00 0.00 0.00 0.00 0.00 0.00 0.00 0.00 0.00 0.00 0.00 0.00 0.00 0.00 0.00 0.00 0.00 0.00 0.00 0.01 0.04 0.06
0.00 0.00 0.00 0.00 0.00 0.00 0.00 0.01 0.01 0.01 0.00 0.00 0.00 0.00 0.00 0.00 0.00 0.00 0.00 0.00 0.00 0.00 0.00 0.00 0.00 0.00 0.00 0.00 0.00 0.00 0.00 0.00 0.00 0.00 0.00 0.00 0.00 0.00 0.00 0.00 0.00 0.00 0.02
0.00 0.00 0.00 0.00 0.00 0.00 0.00 0.01 0.01 0.00 0.00 0.00 0.00 0.00 0.00 0.00 0.00 0.00 0.00 0.00 0.00 0.00 0.00 0.00 0.00 0.00 0.00 0.00 0.00 0.00 0.00 0.00 0.00 0.00 0.00 0.00 0.00 0.00 0.00 0.00 0.00 0.00 0.00
0.00 0.00 0.00 0.00 0.00 0.00 0.00 0.00 0.00 0.00 0.00 0.00 0.00 0.00 0.00 0.00 0.00 0.00 0.00 0.00 0.00 0.00 0.00 0.00 0.00 0.00 0.00 0.00 0.00 0.00 0.00 0.00 0.00 0.00 0.00 0.00 0.00 0.00 0.00 0.00 0.00 0.00 0.00
0.00 0.00 0.00 0.00 0.00 0.00 0.00 0.00 0.00 0.00 0.00 0.00 0.00 0.00 0.00 0.00 0.01 0.00 0.00 0.00 0.00 0.00 0.00 0.00 0.00 0.00 0.00 0.00 0.00 0.00 0.00 0.00 0.00 0.00 0.00 0.00 0.00 0.00 0.00 0.00 0.00 0.00 0.00
0.00 0.00 0.00 0.00 0.00 0.00 0.00 0.00 0.00 0.00 0.00 0.00 0.00 0.00 0.00 0.00 0.00 0.00 0.00 0.00 0.00 0.00 0.00 0.00 0.00 0.00 0.00 0.00 0.00 0.00 0.00 0.00 0.00 0.00 0.00 0.00 0.00 0.00 0.00 0.00 0.00 0.00 0.00
0.00 0.00 0.00 0.00 0.00 0.00 0.00 0.00 0.00 0.00 0.00 0.00 0.00 0.00 0.00 0.00 0.00 0.00 0.00 0.00 0.00 0.00 0.00 0.00 0.00 0.00 0.00 0.00 0.00 0.00 0.00 0.00 0.00 0.00 0.00 0.00 0.00 0.00 0.00 0.00 0.00 0.00 0.00
0.00 0.00 0.00 0.00 0.00 0.00 0.00 0.00 0.00 0.01 0.02 0.02 0.00 0.00 0.00 0.00 0.00 0.00 0.00 0.00 0.00 0.00 0.00 0.00 0.00 0.00 0.00 0.00 0.00 0.00 0.00 0.00 0.00 0.00 0.00 0.00 0.00 0.00 0.01 0.00 0.00 0.00 0.00
0.00 0.00 0.00 0.00 0.00 0.00 0.00 0.00 0.00 0.00 0.00 0.01 0.00 0.00 0.01 0.00 0.00 0.00 0.00 0.00 0.00 0.00 0.00 0.00 0.00 0.00 0.00 0.00 0.00 0.00 0.01 0.00 0.00 0.00 0.00 0.00 0.00 0.00 0.01 0.00 0.00 0.00 0.00
0.00 0.00 0.00 0.00 0.00 0.00 0.00 0.00 0.00 0.00 0.00 0.00 0.00 0.00 0.00 0.00 0.00 0.00 0.00 0.00 0.00 0.00 0.00 0.00 0.00 0.00 0.00 0.00 0.00 0.00 0.00 0.00 0.00 0.00 0.00 0.00 0.00 0.00 0.01 0.01 0.01 0.01 0.00
0.00 0.00 0.00 0.00 0.00 0.00 0.00 0.00 0.00 0.00 0.00 0.00 0.00 0.00 0.00 0.00 0.00 0.00 0.00 0.00 0.00 0.00 0.00 0.00 0.00 0.00 0.00 0.00 0.00 0.00 0.01 0.00 0.00 0.00 0.00 0.00 0.00 0.00 0.01 0.01 0.01 0.01 0.00
0.00 0.00 0.00 0.00 0.00 0.00 0.00 0.00 0.00 0.00 0.00 0.00 0.00 0.00 0.00 0.00 0.00 0.00 0.00 0.00 0.00 0.00 0.00 0.00 0.00 0.00 0.00 0.00 0.00 0.01 0.01 0.00 0.00 0.00 0.00 0.00 0.00 0.00 0.01 0.01 0.01 0.00 0.00
0.00 0.00 0.00 0.00 0.00 0.00 0.00 0.00 0.00 0.00 0.00 0.00 0.00 0.00 0.00 0.00 0.00 0.00 0.00 0.00 0.00 0.00 0.00 0.00 0.00 0.00 0.00 0.00 0.00 0.01 0.01 0.00 0.00 0.00 0.01 0.01 0.01 0.00 0.01 0.01 0.01 0.01 0.00
0.00 0.00 0.00 0.00 0.00 0.00 0.00 0.00 0.00 0.00 0.00 0.00 0.00 0.00 0.00 0.00 0.00 0.00 0.00 0.00 0.00 0.00 0.00 0.00 0.00 0.00 0.00 0.00 0.00 0.00 0.00 0.00 0.00 0.00 0.00 0.01 0.01 0.01 0.02 0.02 0.01 0.01 0.00
0.00 0.00 0.00 0.00 0.00 0.00 0.00 0.00 0.00 0.00 0.00 0.00 0.00 0.00 0.00 0.00 0.00 0.00 0.00 0.00 0.00 0.00 0.00 0.00 0.00 0.00 0.00 0.00 0.00 0.00 0.00 0.00 0.00 0.00 0.00 0.01 0.01 0.01 0.02 0.02 0.01 0.00 0.00
0.00 0.00 0.00 0.00 0.00 0.00 0.00 0.00 0.00 0.00 0.00 0.00 0.00 0.00 0.00 0.00 0.00 0.00 0.00 0.00 0.00 0.00 0.00 0.00 0.00 0.00 0.00 0.00 0.00 0.00 0.00 0.00 0.00 0.00 0.00 0.01 0.01 0.02 0.02 0.01 0.00 0.00 0.00

GFSGL_prec_precacc12_147.txt.gz
Total_Precipitation_Accumulation
0.00 0.00 0.00 0.00 0.00 0.00 0.00 0.00 0.00 0.00 0.00 0.00 0.00 0.00 0.00 0.00 0.00 0.00 0.01 0.01 0.02 0.04 0.02 0.04 0.05 0.05 0.06 0.06 0.07 0.09 0.10 0.10 0.10 0.06 0.05 0.03 0.01 0.00 0.00 0.00 0.00 0.00 0.01
0.00 0.00 0.00 0.00 0.00 0.00 0.00 0.00 0.00 0.00 0.00 0.00 0.00 0.00 0.00 0.00 0.00 0.00 0.00 0.00 0.00 0.01 0.00 0.01 0.01 0.01 0.04 0.05 0.08 0.10 0.11 0.10 0.12 0.10 0.06 0.02 0.01 0.00 0.00 0.00 0.00 0.00 0.00
0.00 0.00 0.00 0.00 0.00 0.00 0.00 0.00 0.00 0.00 0.00 0.00 0.00 0.00 0.00 0.00 0.00 0.00 0.00 0.00 0.00 0.00 0.00 0.00 0.00 0.00 0.00 0.01 0.00 0.01 0.01 0.00 0.01 0.01 0.02 0.01 0.01 0.00 0.00 0.00 0.00 0.00 0.00
0.00 0.00 0.00 0.00 0.00 0.00 0.00 0.00 0.00 0.00 0.00 0.00 0.00 0.00 0.00 0.00 0.00 0.00 0.00 0.00 0.00 0.00 0.00 0.00 0.00 0.00 0.01 0.01 0.00 0.01 0.00 0.01 0.00 0.00 0.00 0.00 0.00 0.00 0.00 0.00 0.00 0.00 0.00
0.00 0.00 0.00 0.00 0.00 0.00 0.00 0.00 0.00 0.00 0.00 0.00 0.00 0.00 0.00 0.00 0.00 0.00 0.00 0.00 0.00 0.00 0.00 0.00 0.00 0.00 0.00 0.01 0.01 0.01 0.01 0.00 0.00 0.00 0.00 0.00 0.00 0.00 0.00 0.00 0.00 0.00 0.00
0.00 0.00 0.00 0.00 0.00 0.00 0.00 0.00 0.00 0.00 0.00 0.00 0.00 0.00 0.00 0.00 0.00 0.00 0.00 0.00 0.00 0.00 0.00 0.00 0.00 0.00 0.00 0.00 0.00 0.01 0.01 0.01 0.01 0.01 0.01 0.01 0.01 0.01 0.00 0.00 0.00 0.00 0.00
0.02 0.00 0.00 0.00 0.00 0.00 0.00 0.00 0.00 0.00 0.00 0.00 0.00 0.00 0.00 0.00 0.00 0.00 0.00 0.00 0.00 0.00 0.00 0.00 0.00 0.00 0.00 0.00 0.00 0.00 0.00 0.00 0.01 0.01 0.01 0.03 0.03 0.03 0.01 0.00 0.00 0.00 0.01
0.10 0.07 0.03 0.00 0.00 0.00 0.00 0.00 0.00 0.00 0.00 0.00 0.00 0.00 0.00 0.00 0.00 0.00 0.00 0.00 0.00 0.00 0.00 0.00 0.00 0.00 0.00 0.00 0.00 0.00 0.00 0.00 0.00 0.00 0.00 0.01 0.02 0.01 0.01 0.01 0.00 0.00 0.01
0.15 0.08 0.03 0.00 0.00 0.00 0.00 0.00 0.00 0.00 0.00 0.00 0.00 0.00 0.00 0.00 0.00 0.00 0.00 0.00 0.00 0.00 0.01 0.00 0.00 0.00 0.00 0.00 0.00 0.00 0.00 0.00 0.00 0.00 0.00 0.00 0.00 0.00 0.00 0.00 0.01 0.00 0.00
0.14 0.04 0.01 0.00 0.00 0.00 0.00 0.00 0.00 0.00 0.00 0.00 0.00 0.00 0.00 0.00 0.00 0.00 0.00 0.00 0.00 0.00 0.00 0.00 0.00 0.00 0.00 0.00 0.00 0.00 0.00 0.00 0.00 0.00 0.00 0.00 0.00 0.00 0.00 0.00 0.01 0.01 0.01
0.11 0.02 0.00 0.00 0.00 0.00 0.00 0.00 0.00 0.00 0.00 0.00 0.00 0.00 0.00 0.00 0.00 0.00 0.00 0.00 0.00 0.00 0.00 0.00 0.00 0.00 0.00 0.00 0.00 0.00 0.00 0.00 0.00 0.00 0.00 0.00 0.00 0.00 0.00 0.00 0.00 0.00 0.00
0.04 0.00 0.00 0.00 0.00 0.00 0.00 0.01 0.01 0.00 0.00 0.00 0.00 0.00 0.00 0.00 0.00 0.00 0.00 0.00 0.00 0.00 0.00 0.00 0.00 0.00 0.00 0.00 0.00 0.00 0.00 0.00 0.00 0.00 0.00 0.00 0.00 0.00 0.00 0.00 0.00 0.00 0.00
0.05 0.00 0.00 0.00 0.00 0.00 0.00 0.01 0.01 0.00 0.00 0.00 0.00 0.00 0.00 0.00 0.01 0.00 0.00 0.00 0.00 0.00 0.00 0.00 0.00 0.00 0.00 0.00 0.00 0.00 0.00 0.00 0.00 0.00 0.00 0.00 0.00 0.00 0.00 0.00 0.00 0.00 0.00
0.01 0.00 0.00 0.00 0.00 0.01 0.00 0.00 0.00 0.00 0.00 0.00 0.00 0.00 0.00 0.00 0.00 0.00 0.00 0.00 0.00 0.00 0.00 0.00 0.00 0.00 0.00 0.00 0.00 0.00 0.00 0.00 0.00 0.00 0.00 0.00 0.00 0.00 0.00 0.00 0.00 0.00 0.00
0.03 0.00 0.00 0.00 0.00 0.01 0.00 0.00 0.00 0.00 0.00 0.00 0.00 0.00 0.00 0.00 0.00 0.00 0.00 0.00 0.00 0.00 0.00 0.00 0.00 0.00 0.00 0.00 0.00 0.00 0.00 0.00 0.00 0.00 0.00 0.00 0.00 0.00 0.00 0.00 0.00 0.00 0.00
0.00 0.00 0.00 0.00 0.00 0.00 0.01 0.02 0.01 0.00 0.00 0.00 0.00 0.00 0.00 0.00 0.01 0.01 0.00 0.00 0.00 0.00 0.00 0.00 0.00 0.00 0.00 0.00 0.00 0.00 0.00 0.00 0.00 0.00 0.00 0.00 0.00 0.00 0.00 0.00 0.00 0.00 0.00
0.00 0.00 0.00 0.00 0.00 0.00 0.00 0.00 0.01 0.00 0.00 0.00 0.00 0.00 0.00 0.01 0.01 0.00 0.00 0.00 0.00 0.00 0.00 0.00 0.00 0.00 0.00 0.00 0.00 0.00 0.00 0.00 0.00 0.00 0.00 0.00 0.00 0.00 0.00 0.00 0.00 0.00 0.00
0.01 0.01 0.00 0.00 0.00 0.00 0.00 0.00 0.00 0.00 0.00 0.00 0.01 0.00 0.01 0.01 0.00 0.00 0.00 0.00 0.00 0.00 0.00 0.00 0.00 0.00 0.00 0.00 0.00 0.00 0.00 0.00 0.00 0.00 0.00 0.00 0.00 0.00 0.00 0.00 0.00 0.00 0.00
0.04 0.02 0.01 0.00 0.00 0.00 0.00 0.00 0.00 0.00 0.00 0.00 0.00 0.01 0.02 0.00 0.00 0.00 0.00 0.00 0.00 0.00 0.00 0.00 0.00 0.00 0.00 0.00 0.00 0.00 0.00 0.00 0.00 0.00 0.00 0.00 0.00 0.00 0.00 0.00 0.00 0.00 0.00
0.03 0.01 0.00 0.00 0.00 0.00 0.00 0.00 0.00 0.00 0.00 0.00 0.00 0.00 0.00 0.00 0.00 0.00 0.00 0.00 0.00 0.00 0.00 0.00 0.00 0.00 0.00 0.00 0.00 0.00 0.00 0.00 0.00 0.00 0.00 0.00 0.00 0.00 0.00 0.00 0.00 0.01 0.00
0.02 0.01 0.00 0.00 0.00 0.00 0.00 0.00 0.00 0.00 0.00 0.00 0.00 0.00 0.00 0.00 0.00 0.00 0.00 0.00 0.00 0.00 0.00 0.00 0.00 0.00 0.00 0.00 0.00 0.00 0.00 0.00 0.00 0.00 0.00 0.00 0.00 0.00 0.00 0.00 0.00 0.00 0.00
0.02 0.00 0.00 0.00 0.00 0.00 0.00 0.00 0.00 0.00 0.00 0.00 0.00 0.00 0.00 0.00 0.00 0.00 0.00 0.00 0.00 0.00 0.00 0.00 0.00 0.00 0.00 0.00 0.00 0.00 0.00 0.00 0.00 0.00 0.00 0.00 0.00 0.00 0.00 0.00 0.00 0.00 0.00
0.01 0.00 0.00 0.00 0.00 0.00 0.00 0.00 0.00 0.00 0.00 0.00 0.00 0.00 0.00 0.00 0.00 0.00 0.00 0.00 0.00 0.00 0.00 0.00 0.00 0.00 0.00 0.00 0.00 0.00 0.00 0.00 0.00 0.00 0.00 0.00 0.00 0.00 0.00 0.00 0.00 0.00 0.00
0.01 0.00 0.00 0.00 0.00 0.00 0.00 0.00 0.00 0.00 0.00 0.00 0.00 0.00 0.00 0.00 0.00 0.00 0.00 0.00 0.00 0.00 0.00 0.00 0.00 0.00 0.00 0.00 0.00 0.00 0.00 0.00 0.00 0.00 0.00 0.00 0.00 0.00 0.00 0.00 0.00 0.01 0.00
0.01 0.00 0.00 0.00 0.00 0.00 0.00 0.00 0.00 0.00 0.00 0.00 0.00 0.00 0.00 0.00 0.00 0.00 0.00 0.00 0.00 0.00 0.00 0.00 0.00 0.00 0.00 0.00 0.00 0.00 0.00 0.00 0.00 0.00 0.00 0.00 0.00 0.00 0.00 0.01 0.00 0.00 0.00
0.00 0.00 0.00 0.00 0.00 0.00 0.00 0.00 0.00 0.00 0.00 0.00 0.00 0.00 0.00 0.00 0.00 0.00 0.00 0.00 0.00 0.00 0.00 0.00 0.00 0.00 0.00 0.00 0.00 0.00 0.00 0.00 0.00 0.00 0.00 0.00 0.00 0.00 0.00 0.00 0.00 0.00 0.00

GFSGL_prec_precacc12_153.txt.gz
Total_Precipitation_Accumulation
0.00 0.00 0.00 0.00 0.00 0.00 0.00 0.00 0.00 0.00 0.00 0.00 0.00 0.00 0.00 0.00 0.00 0.00 0.00 0.00 0.00 0.00 0.00 0.00 0.00 0.00 0.00 0.02 0.05 0.07 0.08 0.09 0.09 0.06 0.06 0.03 0.01 0.00 0.00 0.04 0.04 0.00 0.01
0.00 0.00 0.00 0.00 0.00 0.00 0.00 0.00 0.00 0.00 0.00 0.00 0.00 0.00 0.00 0.00 0.00 0.00 0.00 0.00 0.00 0.00 0.00 0.00 0.00 0.00 0.00 0.01 0.04 0.08 0.09 0.09 0.10 0.10 0.06 0.03 0.01 0.01 0.01 0.06 0.07 0.00 0.00
0.00 0.00 0.00 0.00 0.00 0.00 0.00 0.00 0.00 0.00 0.00 0.00 0.00 0.00 0.00 0.00 0.00 0.00 0.00 0.00 0.00 0.00 0.00 0.00 0.00 0.00 0.00 0.00 0.00 0.01 0.01 0.00 0.01 0.01 0.01 0.01 0.01 0.01 0.01 0.02 0.07 0.01 0.01
0.00 0.00 0.00 0.00 0.00 0.00 0.00 0.00 0.00 0.00 0.00 0.00 0.00 0.00 0.00 0.00 0.00 0.00 0.00 0.00 0.00 0.00 0.00 0.00 0.00 0.00 0.00 0.00 0.00 0.00 0.00 0.00 0.00 0.00 0.00 0.00 0.00 0.00 0.00 0.00 0.03 0.04 0.04
0.00 0.01 0.01 0.00 0.00 0.00 0.00 0.00 0.00 0.00 0.00 0.00 0.00 0.00 0.00 0.00 0.00 0.00 0.00 0.00 0.00 0.00 0.00 0.00 0.00 0.00 0.00 0.00 0.00 0.00 0.00 0.00 0.00 0.00 0.00 0.00 0.00 0.00 0.00 0.00 0.00 0.02 0.02
0.01 0.01 0.01 0.01 0.01 0.01 0.01 0.01 0.01 0.00 0.00 0.00 0.00 0.00 0.00 0.00 0.00 0.00 0.00 0.00 0.00 0.00 0.00 0.00 0.00 0.00 0.00 0.00 0.00 0.00 0.00 0.00 0.00 0.00 0.00 0.00 0.00 0.00 0.00 0.00 0.00 0.00 0.01
0.07 0.03 0.03 0.03 0.04 0.05 0.05 0.04 0.02 0.01 0.00 0.00 0.00 0.00 0.00 0.00 0.00 0.00 0.00 0.00 0.00 0.00 0.00 0.00 0.00 0.00 0.00 0.00 0.00 0.00 0.00 0.00 0.00 0.00 0.00 0.01 0.00 0.00 0.00 0.00 0.00 0.00 0.00
0.30 0.27 0.27 0.23 0.20 0.17 0.14 0.09 0.04 0.02 0.01 0.00 0.00 0.00 0.00 0.00 0.00 0.00 0.00 0.00 0.00 0.00 0.00 0.00 0.00 0.00 0.00 0.00 0.00 0.00 0.00 0.00 0.00 0.00 0.00 0.00 0.00 0.00 0.00 0.00 0.00 0.00 0.01
0.63 0.56 0.51 0.44 0.36 0.28 0.20 0.14 0.08 0.04 0.01 0.00 0.00 0.00 0.00 0.00 0.00 0.00 0.00 0.00 0.00 0.00 0.01 0.00 0.00 0.00 0.00 0.00 0.00 0.00 0.00 0.00 0.00 0.00 0.00 0.00 0.00 0.00 0.00 0.00 0.00 0.00 0.00
0.84 0.70 0.57 0.39 0.26 0.18 0.12 0.07 0.04 0.01 0.01 0.00 0.00 0.00 0.00 0.00 0.00 0.00 0.00 0.00 0.00 0.00 0.00 0.00 0.00 0.00 0.00 0.00 0.00 0.00 0.00 0.00 0.00 0.00 0.00 0.00 0.00 0.00 0.00 0.00 0.00 0.00 0.00
1.06 0.75 0.47 0.29 0.18 0.11 0.05 0.02 0.01 0.00 0.00 0.00 0.00 0.00 0.00 0.00 0.00 0.00 0.00 0.00 0.00 0.00 0.00 0.00 0.00 0.00 0.00 0.00 0.00 0.00 0.00 0.00 0.00 0.00 0.00 0.00 0.00 0.00 0.00 0.00 0.00 0.00 0.00
0.93 0.66 0.32 0.20 0.12 0.09 0.04 0.01 0.00 0.00 0.00 0.00 0.00 0.01 0.01 0.01 0.01 0.00 0.00 0.00 0.00 0.00 0.00 0.00 0.00 0.00 0.00 0.00 0.00 0.00 0.00 0.00 0.00 0.00 0.00 0.00 0.00 0.00 0.00 0.00 0.00 0.00 0.00
0.58 0.44 0.28 0.18 0.11 0.04 0.02 0.00 0.00 0.00 0.00 0.00 0.00 0.01 0.02 0.02 0.01 0.00 0.00 0.00 0.00 0.00 0.00 0.00 0.00 0.00 0.00 0.00 0.00 0.00 0.00 0.00 0.00 0.00 0.00 0.00 0.00 0.00 0.00 0.00 0.00 0.00 0.00
0.31 0.31 0.24 0.16 0.12 0.06 0.01 0.00 0.00 0.00 0.00 0.00 0.00 0.00 0.01 0.02 0.01 0.01 0.00 0.00 0.00 0.00 0.00 0.00 0.00 0.00 0.00 0.00 0.00 0.00 0.00 0.00 0.00 0.00 0.00 0.00 0.00 0.00 0.00 0.00 0.00 0.00 0.00
0.34 0.25 0.21 0.14 0.06 0.03 0.00 0.00 0.00 0.00 0.00 0.00 0.00 0.00 0.01 0.01 0.01 0.00 0.00 0.00 0.00 0.00 0.00 0.00 0.00 0.00 0.00 0.00 0.00 0.00 0.00 0.00 0.00 0.00 0.00 0.00 0.00 0.00 0.00 0.00 0.00 0.00 0.00
0.16 0.16 0.15 0.09 0.01 0.00 0.01 0.02 0.01 0.00 0.00 0.00 0.00 0.00 0.00 0.01 0.01 0.01 0.00 0.00 0.00 0.00 0.00 0.00 0.00 0.00 0.00 0.00 0.00 0.00 0.00 0.00 0.00 0.00 0.00 0.00 0.00 0.00 0.00 0.00 0.00 0.00 0.00
0.04 0.05 0.07 0.03 0.01 0.00 0.00 0.00 0.01 0.00 0.00 0.00 0.00 0.00 0.00 0.01 0.01 0.01 0.00 0.00 0.00 0.00 0.00 0.00 0.00 0.00 0.00 0.00 0.00 0.00 0.00 0.00 0.00 0.00 0.00 0.00 0.00 0.00 0.00 0.00 0.00 0.00 0.00
0.08 0.06 0.06 0.02 0.00 0.00 0.00 0.00 0.00 0.00 0.00 0.00 0.01 0.01 0.01 0.01 0.01 0.00 0.00 0.00 0.00 0.00 0.00 0.00 0.00 0.00 0.00 0.00 0.00 0.00 0.00 0.00 0.00 0.00 0.00 0.00 0.00 0.00 0.00 0.00 0.00 0.00 0.00
0.11 0.11 0.08 0.05 0.02 0.01 0.01 0.01 0.00 0.00 0.00 0.01 0.01 0.03 0.02 0.02 0.01 0.00 0.00 0.00 0.00 0.00 0.00 0.00 0.00 0.00 0.00 0.00 0.00 0.00 0.00 0.00 0.00 0.00 0.00 0.00 0.00 0.00 0.00 0.00 0.00 0.00 0.00
0.10 0.07 0.04 0.03 0.02 0.01 0.01 0.01 0.01 0.00 0.00 0.00 0.00 0.02 0.02 0.02 0.01 0.01 0.00 0.00 0.00 0.00 0.00 0.00 0.00 0.00 0.00 0.00 0.00 0.00 0.00 0.00 0.00 0.00 0.00 0.00 0.00 0.00 0.00 0.00 0.00 0.00 0.00
0.07 0.06 0.03 0.02 0.02 0.01 0.01 0.01 0.00 0.00 0.00 0.00 0.00 0.01 0.00 0.00 0.00 0.00 0.00 0.00 0.00 0.00 0.00 0.00 0.00 0.00 0.00 0.00 0.00 0.00 0.00 0.00 0.00 0.00 0.00 0.00 0.00 0.00 0.00 0.00 0.00 0.00 0.00
0.05 0.03 0.03 0.03 0.02 0.01 0.00 0.00 0.00 0.00 0.00 0.00 0.00 0.01 0.00 0.00 0.00 0.00 0.00 0.00 0.00 0.00 0.00 0.00 0.00 0.00 0.00 0.00 0.00 0.00 0.00 0.00 0.00 0.00 0.00 0.00 0.00 0.00 0.00 0.00 0.00 0.00 0.00
0.02 0.02 0.02 0.02 0.01 0.01 0.01 0.00 0.00 0.00 0.00 0.00 0.00 0.00 0.00 0.00 0.00 0.00 0.00 0.00 0.00 0.00 0.00 0.00 0.00 0.00 0.00 0.00 0.00 0.00 0.00 0.00 0.00 0.00 0.00 0.00 0.00 0.00 0.01 0.01 0.00 0.00 0.00
0.01 0.01 0.01 0.01 0.01 0.01 0.00 0.00 0.00 0.00 0.01 0.00 0.00 0.00 0.00 0.00 0.01 0.01 0.00 0.00 0.00 0.00 0.00 0.00 0.00 0.00 0.00 0.00 0.00 0.00 0.00 0.00 0.00 0.00 0.00 0.00 0.00 0.00 0.00 0.00 0.00 0.00 0.00
0.02 0.02 0.01 0.00 0.00 0.00 0.00 0.01 0.01 0.01 0.01 0.01 0.01 0.01 0.01 0.01 0.01 0.00 0.00 0.00 0.00 0.00 0.00 0.00 0.00 0.00 0.00 0.00 0.00 0.00 0.00 0.00 0.00 0.00 0.00 0.00 0.00 0.00 0.00 0.00 0.00 0.00 0.01
0.02 0.02 0.01 0.00 0.00 0.01 0.01 0.01 0.01 0.01 0.01 0.01 0.01 0.01 0.01 0.01 0.00 0.00 0.00 0.00 0.00 0.00 0.00 0.00 0.00 0.00 0.00 0.00 0.00 0.00 0.00 0.00 0.00 0.00 0.00 0.00 0.01 0.01 0.00 0.00 0.00 0.01 0.01

GFSGL_prec_precacc12_156.txt.gz
Total_Precipitation_Accumulation
0.00 0.00 0.00 0.00 0.00 0.00 0.00 0.00 0.00 0.00 0.00 0.00 0.00 0.00 0.00 0.00 0.00 0.00 0.00 0.00 0.00 0.00 0.00 0.00 0.00 0.00 0.00 0.00 0.00 0.01 0.03 0.04 0.05 0.05 0.06 0.03 0.01 0.00 0.00 0.04 0.04 0.00 0.01
0.00 0.00 0.00 0.00 0.00 0.00 0.00 0.00 0.00 0.00 0.00 0.00 0.00 0.00 0.00 0.00 0.00 0.00 0.00 0.00 0.00 0.00 0.00 0.00 0.00 0.00 0.00 0.00 0.00 0.00 0.01 0.02 0.04 0.06 0.05 0.03 0.01 0.01 0.01 0.06 0.07 0.00 0.00
0.00 0.00 0.00 0.00 0.00 0.00 0.00 0.00 0.00 0.00 0.00 0.00 0.00 0.00 0.00 0.00 0.00 0.00 0.00 0.00 0.00 0.00 0.00 0.00 0.00 0.00 0.00 0.00 0.00 0.00 0.00 0.00 0.00 0.00 0.01 0.01 0.01 0.01 0.01 0.02 0.07 0.01 0.01
0.00 0.00 0.00 0.00 0.00 0.00 0.00 0.00 0.00 0.00 0.00 0.00 0.00 0.00 0.00 0.00 0.00 0.00 0.00 0.00 0.00 0.00 0.00 0.00 0.00 0.00 0.00 0.00 0.00 0.00 0.00 0.00 0.00 0.00 0.00 0.00 0.00 0.00 0.00 0.00 0.03 0.04 0.04
0.00 0.01 0.01 0.00 0.00 0.00 0.00 0.00 0.00 0.00 0.00 0.00 0.00 0.01 0.01 0.01 0.01 0.00 0.00 0.00 0.00 0.00 0.00 0.00 0.00 0.00 0.00 0.00 0.00 0.00 0.00 0.00 0.00 0.00 0.00 0.00 0.00 0.00 0.00 0.00 0.00 0.02 0.02
0.01 0.01 0.01 0.01 0.01 0.01 0.01 0.01 0.01 0.01 0.01 0.02 0.02 0.02 0.02 0.01 0.00 0.00 0.00 0.00 0.00 0.00 0.00 0.00 0.00 0.00 0.00 0.00 0.00 0.00 0.00 0.00 0.00 0.00 0.00 0.00 0.00 0.00 0.00 0.00 0.00 0.00 0.00
0.05 0.03 0.03 0.04 0.04 0.05 0.06 0.07 0.08 0.06 0.05 0.05 0.03 0.02 0.02 0.01 0.00 0.00 0.00 0.00 0.00 0.00 0.00 0.00 0.00 0.00 0.00 0.00 0.00 0.00 0.00 0.00 0.00 0.00 0.00 0.00 0.00 0.00 0.00 0.00 0.00 0.00 0.00
0.30 0.32 0.33 0.30 0.27 0.24 0.23 0.24 0.19 0.14 0.10 0.08 0.04 0.02 0.01 0.00 0.00 0.00 0.00 0.00 0.00 0.00 0.00 0.00 0.00 0.00 0.00 0.00 0.00 0.00 0.00 0.00 0.00 0.00 0.00 0.00 0.00 0.00 0.00 0.00 0.00 0.00 0.00
0.74 0.70 0.66 0.61 0.57 0.52 0.47 0.39 0.29 0.21 0.18 0.10 0.03 0.01 0.00 0.00 0.00 0.00 0.00 0.00 0.00 0.00 0.00 0.00 0.00 0.00 0.00 0.00 0.00 0.00 0.00 0.00 0.00 0.00 0.00 0.00 0.00 0.00 0.00 0.00 0.00 0.00 0.00
1.03 0.96 0.89 0.73 0.62 0.52 0.41 0.31 0.23 0.18 0.12 0.05 0.03 0.01 0.00 0.00 0.00 0.00 0.00 0.00 0.00 0.00 0.00 0.00 0.00 0.00 0.00 0.00 0.00 0.00 0.00 0.00 0.00 0.00 0.00 0.00 0.00 0.00 0.00 0.00 0.00 0.00 0.00
1.24 1.02 0.82 0.65 0.51 0.39 0.28 0.18 0.14 0.10 0.05 0.03 0.01 0.01 0.00 0.00 0.00 0.00 0.00 0.00 0.00 0.00 0.00 0.00 0.00 0.00 0.00 0.00 0.00 0.00 0.00 0.00 0.00 0.00 0.00 0.00 0.00 0.00 0.00 0.00 0.00 0.00 0.00
1.09 0.88 0.55 0.42 0.32 0.26 0.19 0.14 0.09 0.05 0.03 0.01 0.01 0.01 0.01 0.01 0.00 0.00 0.00 0.00 0.00 0.00 0.00 0.00 0.00 0.00 0.00 0.00 0.00 0.00 0.00 0.00 0.00 0.00 0.00 0.00 0.00 0.00 0.00 0.00 0.00 0.00 0.00
0.73 0.57 0.43 0.34 0.26 0.18 0.16 0.12 0.08 0.04 0.01 0.01 0.01 0.01 0.02 0.02 0.01 0.00 0.00 0.00 0.00 0.00 0.00 0.00 0.00 0.00 0.00 0.00 0.00 0.00 0.00 0.00 0.00 0.00 0.00 0.00 0.00 0.00 0.00 0.00 0.00 0.00 0.00
0.38 0.41 0.37 0.30 0.26 0.20 0.10 0.06 0.04 0.01 0.00 0.00 0.00 0.01 0.01 0.02 0.01 0.01 0.00 0.00 0.00 0.00 0.00 0.00 0.00 0.00 0.00 0.00 0.00 0.00 0.00 0.00 0.00 0.00 0.00 0.00 0.00 0.00 0.00 0.00 0.00 0.00 0.00
0.39 0.34 0.31 0.28 0.19 0.14 0.10 0.04 0.01 0.00 0.00 0.00 0.00 0.00 0.01 0.02 0.01 0.00 0.00 0.00 0.00 0.00 0.00 0.00 0.00 0.00 0.00 0.00 0.00 0.00 0.00 0.00 0.00 0.00 0.00 0.00 0.00 0.00 0.00 0.00 0.00 0.00 0.00
0.17 0.22 0.22 0.19 0.12 0.07 0.04 0.02 0.00 0.00 0.00 0.00 0.00 0.00 0.00 0.00 0.00 0.00 0.00 0.00 0.00 0.00 0.00 0.00 0.00 0.00 0.00 0.00 0.00 0.00 0.00 0.00 0.00 0.00 0.00 0.00 0.00 0.00 0.00 0.00 0.00 0.00 0.00
0.04 0.05 0.10 0.09 0.06 0.03 0.01 0.00 0.01 0.00 0.00 0.00 0.00 0.00 0.00 0.01 0.01 0.00 0.00 0.00 0.00 0.00 0.00 0.00 0.00 0.00 0.00 0.00 0.00 0.00 0.00 0.00 0.00 0.00 0.00 0.00 0.00 0.00 0.00 0.00 0.00 0.00 0.00
0.09 0.08 0.09 0.07 0.05 0.03 0.01 0.01 0.00 0.00 0.00 0.00 0.01 0.00 0.01 0.01 0.01 0.00 0.00 0.00 0.00 0.00 0.00 0.00 0.00 0.00 0.00 0.00 0.00 0.00 0.00 0.00 0.00 0.00 0.00 0.00 0.00 0.00 0.00 0.00 0.00 0.00 0.00
0.14 0.16 0.13 0.10 0.05 0.02 0.01 0.01 0.01 0.00 0.00 0.01 0.01 0.03 0.02 0.02 0.01 0.00 0.00 0.00 0.00 0.00 0.00 0.00 0.00 0.00 0.00 0.00 0.00 0.00 0.00 0.00 0.00 0.00 0.00 0.00 0.00 0.00 0.00 0.00 0.00 0.00 0.00
0.15 0.12 0.09 0.07 0.05 0.04 0.03 0.01 0.01 0.01 0.00 0.01 0.01 0.02 0.02 0.02 0.02 0.01 0.00 0.00 0.00 0.00 0.00 0.00 0.00 0.00 0.00 0.00 0.00 0.00 0.00 0.00 0.00 0.00 0.00 0.00 0.00 0.00 0.00 0.00 0.00 0.00 0.00
0.10 0.11 0.07 0.05 0.05 0.03 0.03 0.01 0.00 0.00 0.00 0.00 0.01 0.01 0.01 0.01 0.01 0.00 0.00 0.00 0.00 0.00 0.00 0.00 0.00 0.00 0.00 0.00 0.00 0.00 0.00 0.00 0.00 0.00 0.00 0.00 0.00 0.00 0.00 0.00 0.00 0.00 0.00
0.07 0.06 0.05 0.05 0.03 0.02 0.01 0.01 0.00 0.00 0.00 0.00 0.01 0.01 0.00 0.00 0.00 0.00 0.00 0.00 0.00 0.00 0.00 0.00 0.00 0.00 0.00 0.00 0.00 0.00 0.00 0.00 0.00 0.00 0.00 0.00 0.00 0.00 0.00 0.00 0.00 0.00 0.00
0.04 0.04 0.04 0.04 0.03 0.03 0.02 0.01 0.01 0.00 0.00 0.01 0.02 0.01 0.01 0.00 0.01 0.00 0.00 0.00 0.00 0.00 0.00 0.00 0.00 0.00 0.00 0.00 0.00 0.00 0.00 0.00 0.00 0.00 0.00 0.00 0.00 0.00 0.00 0.00 0.00 0.00 0.00
0.02 0.02 0.01 0.02 0.02 0.02 0.02 0.01 0.01 0.00 0.01 0.02 0.02 0.01 0.00 0.01 0.01 0.01 0.00 0.00 0.00 0.00 0.00 0.00 0.00 0.00 0.00 0.00 0.00 0.00 0.00 0.00 0.00 0.00 0.00 0.00 0.00 0.00 0.00 0.00 0.00 0.00 0.00
0.02 0.02 0.01 0.01 0.01 0.01 0.01 0.01 0.01 0.01 0.02 0.02 0.03 0.01 0.01 0.01 0.02 0.01 0.01 0.00 0.00 0.00 0.00 0.00 0.00 0.00 0.00 0.00 0.00 0.00 0.00 0.00 0.00 0.00 0.00 0.00 0.00 0.00 0.00 0.00 0.00 0.00 0.00
0.02 0.02 0.02 0.01 0.01 0.01 0.01 0.01 0.02 0.02 0.01 0.02 0.02 0.01 0.01 0.01 0.01 0.01 0.01 0.00 0.00 0.00 0.00 0.00 0.00 0.00 0.00 0.00 0.00 0.00 0.00 0.00 0.00 0.00 0.00 0.00 0.00 0.00 0.00 0.00 0.00 0.00 0.00